<?xml version="1.0" encoding="UTF-8" standalone="no" ?>
<gpx xmlns="http://www.topografix.com/GPX/1/1" xmlns:xsi="http://www.w3.org/2001/XMLSchema-instance" xsi:schemaLocation="http://www.topografix.com/GPX/1/1 http://www.topografix.com/GPX/1/1/gpx.xsd" version="1.1" creator="VisuGPX - https://www.visugpx.com">
  <metadata>
    <name>Sun Trip 2019</name>
    <desc><![CDATA[Le parcours du Sun Trip 2019]]></desc>
  </metadata>
  <trk>
    <name><![CDATA[J11]]></name>
    <trkseg>
      <trkpt lat="45.28594" lon="6.87997">
        <ele>1400</ele>
        <time>2019-07-08T18:05:25Z</time>
      </trkpt>
      <trkpt lat="45.28597" lon="6.88046">
        <ele>1401</ele>
        <time>2019-07-08T18:05:31Z</time>
      </trkpt>
      <trkpt lat="45.28574" lon="6.88049">
        <ele>1398</ele>
        <time>2019-07-08T18:05:35Z</time>
      </trkpt>
      <trkpt lat="45.28568" lon="6.88056">
        <ele>1398</ele>
        <time>2019-07-08T18:05:37Z</time>
      </trkpt>
      <trkpt lat="45.28538" lon="6.88063">
        <ele>1396</ele>
        <time>2019-07-08T18:05:42Z</time>
      </trkpt>
      <trkpt lat="45.28556" lon="6.88238">
        <ele>1399</ele>
        <time>2019-07-08T18:06:04Z</time>
      </trkpt>
      <trkpt lat="45.28555" lon="6.88267">
        <ele>1399</ele>
        <time>2019-07-08T18:06:08Z</time>
      </trkpt>
      <trkpt lat="45.28545" lon="6.88267">
        <ele>1399</ele>
        <time>2019-07-08T18:06:10Z</time>
      </trkpt>
      <trkpt lat="45.28537" lon="6.88269">
        <ele>1399</ele>
        <time>2019-07-08T18:06:11Z</time>
      </trkpt>
      <trkpt lat="45.28479" lon="6.88304">
        <ele>1404</ele>
        <time>2019-07-08T18:06:22Z</time>
      </trkpt>
      <trkpt lat="45.28463" lon="6.88315">
        <ele>1410</ele>
        <time>2019-07-08T18:06:25Z</time>
      </trkpt>
      <trkpt lat="45.28456" lon="6.88321">
        <ele>1412</ele>
        <time>2019-07-08T18:06:27Z</time>
      </trkpt>
      <trkpt lat="45.2845" lon="6.8833">
        <ele>1414</ele>
        <time>2019-07-08T18:06:28Z</time>
      </trkpt>
      <trkpt lat="45.28443" lon="6.8835">
        <ele>1416</ele>
        <time>2019-07-08T18:06:31Z</time>
      </trkpt>
      <trkpt lat="45.28432" lon="6.88391">
        <ele>1418</ele>
        <time>2019-07-08T18:06:37Z</time>
      </trkpt>
      <trkpt lat="45.28426" lon="6.88437">
        <ele>1418</ele>
        <time>2019-07-08T18:06:43Z</time>
      </trkpt>
      <trkpt lat="45.28425" lon="6.88481">
        <ele>1417</ele>
        <time>2019-07-08T18:06:48Z</time>
      </trkpt>
      <trkpt lat="45.28435" lon="6.88536">
        <ele>1417</ele>
        <time>2019-07-08T18:06:55Z</time>
      </trkpt>
      <trkpt lat="45.28439" lon="6.88569">
        <ele>1417</ele>
        <time>2019-07-08T18:06:59Z</time>
      </trkpt>
      <trkpt lat="45.2844" lon="6.88592">
        <ele>1418</ele>
        <time>2019-07-08T18:07:02Z</time>
      </trkpt>
      <trkpt lat="45.28438" lon="6.88634">
        <ele>1420</ele>
        <time>2019-07-08T18:07:08Z</time>
      </trkpt>
      <trkpt lat="45.28417" lon="6.88802">
        <ele>1430</ele>
        <time>2019-07-08T18:07:29Z</time>
      </trkpt>
      <trkpt lat="45.28415" lon="6.88868">
        <ele>1436</ele>
        <time>2019-07-08T18:07:37Z</time>
      </trkpt>
      <trkpt lat="45.28418" lon="6.8897">
        <ele>1443</ele>
        <time>2019-07-08T18:07:50Z</time>
      </trkpt>
      <trkpt lat="45.28406" lon="6.89017">
        <ele>1453</ele>
        <time>2019-07-08T18:07:56Z</time>
      </trkpt>
      <trkpt lat="45.28404" lon="6.89067">
        <ele>1456</ele>
        <time>2019-07-08T18:08:02Z</time>
      </trkpt>
      <trkpt lat="45.28413" lon="6.89176">
        <ele>1454</ele>
        <time>2019-07-08T18:08:16Z</time>
      </trkpt>
      <trkpt lat="45.28414" lon="6.89274">
        <ele>1451</ele>
        <time>2019-07-08T18:08:29Z</time>
      </trkpt>
      <trkpt lat="45.28407" lon="6.89316">
        <ele>1451</ele>
        <time>2019-07-08T18:08:34Z</time>
      </trkpt>
      <trkpt lat="45.28397" lon="6.89353">
        <ele>1455</ele>
        <time>2019-07-08T18:08:39Z</time>
      </trkpt>
      <trkpt lat="45.28397" lon="6.89399">
        <ele>1456</ele>
        <time>2019-07-08T18:08:45Z</time>
      </trkpt>
      <trkpt lat="45.28404" lon="6.89449">
        <ele>1458</ele>
        <time>2019-07-08T18:08:51Z</time>
      </trkpt>
      <trkpt lat="45.28403" lon="6.89492">
        <ele>1463</ele>
        <time>2019-07-08T18:08:56Z</time>
      </trkpt>
      <trkpt lat="45.28383" lon="6.89623">
        <ele>1469</ele>
        <time>2019-07-08T18:09:13Z</time>
      </trkpt>
      <trkpt lat="45.28381" lon="6.89667">
        <ele>1471</ele>
        <time>2019-07-08T18:09:19Z</time>
      </trkpt>
      <trkpt lat="45.28389" lon="6.89713">
        <ele>1469</ele>
        <time>2019-07-08T18:09:25Z</time>
      </trkpt>
      <trkpt lat="45.28397" lon="6.89769">
        <ele>1469</ele>
        <time>2019-07-08T18:09:32Z</time>
      </trkpt>
      <trkpt lat="45.28393" lon="6.89819">
        <ele>1474</ele>
        <time>2019-07-08T18:09:38Z</time>
      </trkpt>
      <trkpt lat="45.28378" lon="6.89871">
        <ele>1481</ele>
        <time>2019-07-08T18:09:45Z</time>
      </trkpt>
      <trkpt lat="45.28366" lon="6.8994">
        <ele>1491</ele>
        <time>2019-07-08T18:09:54Z</time>
      </trkpt>
      <trkpt lat="45.28369" lon="6.90001">
        <ele>1493</ele>
        <time>2019-07-08T18:10:02Z</time>
      </trkpt>
      <trkpt lat="45.2838" lon="6.9008">
        <ele>1492</ele>
        <time>2019-07-08T18:10:12Z</time>
      </trkpt>
      <trkpt lat="45.28387" lon="6.90183">
        <ele>1494</ele>
        <time>2019-07-08T18:10:25Z</time>
      </trkpt>
      <trkpt lat="45.28388" lon="6.90259">
        <ele>1496</ele>
        <time>2019-07-08T18:10:34Z</time>
      </trkpt>
      <trkpt lat="45.28394" lon="6.90304">
        <ele>1499</ele>
        <time>2019-07-08T18:10:40Z</time>
      </trkpt>
      <trkpt lat="45.28456" lon="6.90584">
        <ele>1511</ele>
        <time>2019-07-08T18:11:17Z</time>
      </trkpt>
      <trkpt lat="45.28499" lon="6.90763">
        <ele>1519</ele>
        <time>2019-07-08T18:11:40Z</time>
      </trkpt>
      <trkpt lat="45.28499" lon="6.90789">
        <ele>1521</ele>
        <time>2019-07-08T18:11:44Z</time>
      </trkpt>
      <trkpt lat="45.28491" lon="6.90797">
        <ele>1522</ele>
        <time>2019-07-08T18:11:45Z</time>
      </trkpt>
      <trkpt lat="45.28475" lon="6.90801">
        <ele>1524</ele>
        <time>2019-07-08T18:11:48Z</time>
      </trkpt>
      <trkpt lat="45.28458" lon="6.90784">
        <ele>1524</ele>
        <time>2019-07-08T18:11:52Z</time>
      </trkpt>
      <trkpt lat="45.2843" lon="6.90733">
        <ele>1523</ele>
        <time>2019-07-08T18:12:00Z</time>
      </trkpt>
      <trkpt lat="45.2835" lon="6.90574">
        <ele>1538</ele>
        <time>2019-07-08T18:12:25Z</time>
      </trkpt>
      <trkpt lat="45.28339" lon="6.90536">
        <ele>1541</ele>
        <time>2019-07-08T18:12:30Z</time>
      </trkpt>
      <trkpt lat="45.28334" lon="6.90495">
        <ele>1541</ele>
        <time>2019-07-08T18:12:35Z</time>
      </trkpt>
      <trkpt lat="45.28328" lon="6.90475">
        <ele>1540</ele>
        <time>2019-07-08T18:12:38Z</time>
      </trkpt>
      <trkpt lat="45.28321" lon="6.90456">
        <ele>1540</ele>
        <time>2019-07-08T18:12:40Z</time>
      </trkpt>
      <trkpt lat="45.28248" lon="6.90346">
        <ele>1547</ele>
        <time>2019-07-08T18:12:59Z</time>
      </trkpt>
      <trkpt lat="45.28224" lon="6.90304">
        <ele>1552</ele>
        <time>2019-07-08T18:13:06Z</time>
      </trkpt>
      <trkpt lat="45.28216" lon="6.90274">
        <ele>1552</ele>
        <time>2019-07-08T18:13:10Z</time>
      </trkpt>
      <trkpt lat="45.28209" lon="6.90226">
        <ele>1552</ele>
        <time>2019-07-08T18:13:16Z</time>
      </trkpt>
      <trkpt lat="45.28202" lon="6.90192">
        <ele>1554</ele>
        <time>2019-07-08T18:13:21Z</time>
      </trkpt>
      <trkpt lat="45.28117" lon="6.89919">
        <ele>1578</ele>
        <time>2019-07-08T18:13:58Z</time>
      </trkpt>
      <trkpt lat="45.28108" lon="6.89884">
        <ele>1580</ele>
        <time>2019-07-08T18:14:03Z</time>
      </trkpt>
      <trkpt lat="45.28102" lon="6.89846">
        <ele>1580</ele>
        <time>2019-07-08T18:14:08Z</time>
      </trkpt>
      <trkpt lat="45.28098" lon="6.89805">
        <ele>1580</ele>
        <time>2019-07-08T18:14:13Z</time>
      </trkpt>
      <trkpt lat="45.28098" lon="6.89743">
        <ele>1578</ele>
        <time>2019-07-08T18:14:20Z</time>
      </trkpt>
      <trkpt lat="45.28095" lon="6.89719">
        <ele>1577</ele>
        <time>2019-07-08T18:14:24Z</time>
      </trkpt>
      <trkpt lat="45.28092" lon="6.89712">
        <ele>1578</ele>
        <time>2019-07-08T18:14:25Z</time>
      </trkpt>
      <trkpt lat="45.28086" lon="6.89708">
        <ele>1579</ele>
        <time>2019-07-08T18:14:26Z</time>
      </trkpt>
      <trkpt lat="45.28076" lon="6.89712">
        <ele>1584</ele>
        <time>2019-07-08T18:14:28Z</time>
      </trkpt>
      <trkpt lat="45.28072" lon="6.89723">
        <ele>1588</ele>
        <time>2019-07-08T18:14:29Z</time>
      </trkpt>
      <trkpt lat="45.28072" lon="6.89734">
        <ele>1589</ele>
        <time>2019-07-08T18:14:30Z</time>
      </trkpt>
      <trkpt lat="45.28076" lon="6.89795">
        <ele>1590</ele>
        <time>2019-07-08T18:14:38Z</time>
      </trkpt>
      <trkpt lat="45.28073" lon="6.89815">
        <ele>1592</ele>
        <time>2019-07-08T18:14:41Z</time>
      </trkpt>
      <trkpt lat="45.28066" lon="6.89846">
        <ele>1597</ele>
        <time>2019-07-08T18:14:45Z</time>
      </trkpt>
      <trkpt lat="45.28067" lon="6.89883">
        <ele>1600</ele>
        <time>2019-07-08T18:14:49Z</time>
      </trkpt>
      <trkpt lat="45.28078" lon="6.89926">
        <ele>1598</ele>
        <time>2019-07-08T18:14:55Z</time>
      </trkpt>
      <trkpt lat="45.28081" lon="6.89967">
        <ele>1598</ele>
        <time>2019-07-08T18:15:00Z</time>
      </trkpt>
      <trkpt lat="45.28069" lon="6.90075">
        <ele>1611</ele>
        <time>2019-07-08T18:15:14Z</time>
      </trkpt>
      <trkpt lat="45.2807" lon="6.90137">
        <ele>1614</ele>
        <time>2019-07-08T18:15:22Z</time>
      </trkpt>
      <trkpt lat="45.28068" lon="6.90189">
        <ele>1616</ele>
        <time>2019-07-08T18:15:28Z</time>
      </trkpt>
      <trkpt lat="45.28064" lon="6.90242">
        <ele>1618</ele>
        <time>2019-07-08T18:15:35Z</time>
      </trkpt>
      <trkpt lat="45.28063" lon="6.90309">
        <ele>1621</ele>
        <time>2019-07-08T18:15:43Z</time>
      </trkpt>
      <trkpt lat="45.28064" lon="6.90333">
        <ele>1622</ele>
        <time>2019-07-08T18:15:46Z</time>
      </trkpt>
      <trkpt lat="45.2807" lon="6.9039">
        <ele>1625</ele>
        <time>2019-07-08T18:15:54Z</time>
      </trkpt>
      <trkpt lat="45.28079" lon="6.90439">
        <ele>1626</ele>
        <time>2019-07-08T18:16:00Z</time>
      </trkpt>
      <trkpt lat="45.28082" lon="6.90468">
        <ele>1627</ele>
        <time>2019-07-08T18:16:04Z</time>
      </trkpt>
      <trkpt lat="45.28071" lon="6.907">
        <ele>1649</ele>
        <time>2019-07-08T18:16:33Z</time>
      </trkpt>
      <trkpt lat="45.28083" lon="6.90825">
        <ele>1651</ele>
        <time>2019-07-08T18:16:48Z</time>
      </trkpt>
      <trkpt lat="45.28137" lon="6.91173">
        <ele>1668</ele>
        <time>2019-07-08T18:17:33Z</time>
      </trkpt>
      <trkpt lat="45.28137" lon="6.91195">
        <ele>1669</ele>
        <time>2019-07-08T18:17:36Z</time>
      </trkpt>
      <trkpt lat="45.28128" lon="6.91208">
        <ele>1672</ele>
        <time>2019-07-08T18:17:38Z</time>
      </trkpt>
      <trkpt lat="45.28115" lon="6.91203">
        <ele>1676</ele>
        <time>2019-07-08T18:17:41Z</time>
      </trkpt>
      <trkpt lat="45.28067" lon="6.91109">
        <ele>1682</ele>
        <time>2019-07-08T18:17:55Z</time>
      </trkpt>
      <trkpt lat="45.28042" lon="6.91066">
        <ele>1687</ele>
        <time>2019-07-08T18:18:02Z</time>
      </trkpt>
      <trkpt lat="45.28006" lon="6.90993">
        <ele>1696</ele>
        <time>2019-07-08T18:18:13Z</time>
      </trkpt>
      <trkpt lat="45.27979" lon="6.90923">
        <ele>1703</ele>
        <time>2019-07-08T18:18:23Z</time>
      </trkpt>
      <trkpt lat="45.2796" lon="6.90861">
        <ele>1706</ele>
        <time>2019-07-08T18:18:32Z</time>
      </trkpt>
      <trkpt lat="45.27955" lon="6.9082">
        <ele>1705</ele>
        <time>2019-07-08T18:18:37Z</time>
      </trkpt>
      <trkpt lat="45.27934" lon="6.9075">
        <ele>1712</ele>
        <time>2019-07-08T18:18:46Z</time>
      </trkpt>
      <trkpt lat="45.27925" lon="6.90712">
        <ele>1717</ele>
        <time>2019-07-08T18:18:51Z</time>
      </trkpt>
      <trkpt lat="45.2792" lon="6.90647">
        <ele>1719</ele>
        <time>2019-07-08T18:19:00Z</time>
      </trkpt>
      <trkpt lat="45.2791" lon="6.90559">
        <ele>1722</ele>
        <time>2019-07-08T18:19:11Z</time>
      </trkpt>
      <trkpt lat="45.27904" lon="6.90521">
        <ele>1725</ele>
        <time>2019-07-08T18:19:16Z</time>
      </trkpt>
      <trkpt lat="45.27901" lon="6.90472">
        <ele>1724</ele>
        <time>2019-07-08T18:19:22Z</time>
      </trkpt>
      <trkpt lat="45.27893" lon="6.90425">
        <ele>1725</ele>
        <time>2019-07-08T18:19:28Z</time>
      </trkpt>
      <trkpt lat="45.27881" lon="6.90365">
        <ele>1723</ele>
        <time>2019-07-08T18:19:36Z</time>
      </trkpt>
      <trkpt lat="45.2786" lon="6.90322">
        <ele>1725</ele>
        <time>2019-07-08T18:19:42Z</time>
      </trkpt>
      <trkpt lat="45.27829" lon="6.90305">
        <ele>1735</ele>
        <time>2019-07-08T18:19:48Z</time>
      </trkpt>
      <trkpt lat="45.27796" lon="6.90279">
        <ele>1741</ele>
        <time>2019-07-08T18:19:55Z</time>
      </trkpt>
      <trkpt lat="45.27774" lon="6.90233">
        <ele>1744</ele>
        <time>2019-07-08T18:20:02Z</time>
      </trkpt>
      <trkpt lat="45.27751" lon="6.90167">
        <ele>1746</ele>
        <time>2019-07-08T18:20:11Z</time>
      </trkpt>
      <trkpt lat="45.27738" lon="6.90081">
        <ele>1744</ele>
        <time>2019-07-08T18:20:22Z</time>
      </trkpt>
      <trkpt lat="45.27718" lon="6.9006">
        <ele>1749</ele>
        <time>2019-07-08T18:20:26Z</time>
      </trkpt>
      <trkpt lat="45.27699" lon="6.90032">
        <ele>1754</ele>
        <time>2019-07-08T18:20:31Z</time>
      </trkpt>
      <trkpt lat="45.27681" lon="6.89946">
        <ele>1759</ele>
        <time>2019-07-08T18:20:43Z</time>
      </trkpt>
      <trkpt lat="45.27666" lon="6.89893">
        <ele>1763</ele>
        <time>2019-07-08T18:20:50Z</time>
      </trkpt>
      <trkpt lat="45.27618" lon="6.89768">
        <ele>1768</ele>
        <time>2019-07-08T18:21:08Z</time>
      </trkpt>
      <trkpt lat="45.27605" lon="6.89757">
        <ele>1770</ele>
        <time>2019-07-08T18:21:10Z</time>
      </trkpt>
      <trkpt lat="45.27595" lon="6.89758">
        <ele>1773</ele>
        <time>2019-07-08T18:21:12Z</time>
      </trkpt>
      <trkpt lat="45.2759" lon="6.89777">
        <ele>1777</ele>
        <time>2019-07-08T18:21:15Z</time>
      </trkpt>
      <trkpt lat="45.276" lon="6.89802">
        <ele>1778</ele>
        <time>2019-07-08T18:21:18Z</time>
      </trkpt>
      <trkpt lat="45.27609" lon="6.89835">
        <ele>1780</ele>
        <time>2019-07-08T18:21:23Z</time>
      </trkpt>
      <trkpt lat="45.27614" lon="6.89936">
        <ele>1780</ele>
        <time>2019-07-08T18:21:35Z</time>
      </trkpt>
      <trkpt lat="45.27608" lon="6.89979">
        <ele>1783</ele>
        <time>2019-07-08T18:21:41Z</time>
      </trkpt>
      <trkpt lat="45.27593" lon="6.90011">
        <ele>1788</ele>
        <time>2019-07-08T18:21:46Z</time>
      </trkpt>
      <trkpt lat="45.27588" lon="6.90048">
        <ele>1792</ele>
        <time>2019-07-08T18:21:50Z</time>
      </trkpt>
      <trkpt lat="45.27596" lon="6.90098">
        <ele>1793</ele>
        <time>2019-07-08T18:21:57Z</time>
      </trkpt>
      <trkpt lat="45.27599" lon="6.9014">
        <ele>1795</ele>
        <time>2019-07-08T18:22:02Z</time>
      </trkpt>
      <trkpt lat="45.27595" lon="6.90181">
        <ele>1801</ele>
        <time>2019-07-08T18:22:07Z</time>
      </trkpt>
      <trkpt lat="45.27593" lon="6.90224">
        <ele>1808</ele>
        <time>2019-07-08T18:22:13Z</time>
      </trkpt>
      <trkpt lat="45.27602" lon="6.90264">
        <ele>1809</ele>
        <time>2019-07-08T18:22:18Z</time>
      </trkpt>
      <trkpt lat="45.27609" lon="6.90304">
        <ele>1810</ele>
        <time>2019-07-08T18:22:23Z</time>
      </trkpt>
      <trkpt lat="45.27607" lon="6.90338">
        <ele>1815</ele>
        <time>2019-07-08T18:22:27Z</time>
      </trkpt>
      <trkpt lat="45.27608" lon="6.90378">
        <ele>1820</ele>
        <time>2019-07-08T18:22:32Z</time>
      </trkpt>
      <trkpt lat="45.27632" lon="6.90514">
        <ele>1828</ele>
        <time>2019-07-08T18:22:50Z</time>
      </trkpt>
      <trkpt lat="45.2764" lon="6.90549">
        <ele>1829</ele>
        <time>2019-07-08T18:22:54Z</time>
      </trkpt>
      <trkpt lat="45.27651" lon="6.90584">
        <ele>1828</ele>
        <time>2019-07-08T18:22:59Z</time>
      </trkpt>
      <trkpt lat="45.27669" lon="6.9063">
        <ele>1826</ele>
        <time>2019-07-08T18:23:06Z</time>
      </trkpt>
      <trkpt lat="45.27677" lon="6.9066">
        <ele>1827</ele>
        <time>2019-07-08T18:23:10Z</time>
      </trkpt>
      <trkpt lat="45.27674" lon="6.9068">
        <ele>1829</ele>
        <time>2019-07-08T18:23:12Z</time>
      </trkpt>
      <trkpt lat="45.27669" lon="6.90688">
        <ele>1830</ele>
        <time>2019-07-08T18:23:14Z</time>
      </trkpt>
      <trkpt lat="45.27623" lon="6.9072">
        <ele>1848</ele>
        <time>2019-07-08T18:23:23Z</time>
      </trkpt>
      <trkpt lat="45.27614" lon="6.90733">
        <ele>1852</ele>
        <time>2019-07-08T18:23:25Z</time>
      </trkpt>
      <trkpt lat="45.27609" lon="6.90747">
        <ele>1854</ele>
        <time>2019-07-08T18:23:27Z</time>
      </trkpt>
      <trkpt lat="45.27608" lon="6.90766">
        <ele>1857</ele>
        <time>2019-07-08T18:23:30Z</time>
      </trkpt>
      <trkpt lat="45.2761" lon="6.90786">
        <ele>1858</ele>
        <time>2019-07-08T18:23:32Z</time>
      </trkpt>
      <trkpt lat="45.27621" lon="6.9082">
        <ele>1857</ele>
        <time>2019-07-08T18:23:37Z</time>
      </trkpt>
      <trkpt lat="45.27637" lon="6.90847">
        <ele>1853</ele>
        <time>2019-07-08T18:23:41Z</time>
      </trkpt>
      <trkpt lat="45.27654" lon="6.90884">
        <ele>1852</ele>
        <time>2019-07-08T18:23:47Z</time>
      </trkpt>
      <trkpt lat="45.27657" lon="6.90923">
        <ele>1856</ele>
        <time>2019-07-08T18:23:52Z</time>
      </trkpt>
      <trkpt lat="45.27656" lon="6.90969">
        <ele>1864</ele>
        <time>2019-07-08T18:23:57Z</time>
      </trkpt>
      <trkpt lat="45.27664" lon="6.90991">
        <ele>1864</ele>
        <time>2019-07-08T18:24:00Z</time>
      </trkpt>
      <trkpt lat="45.27685" lon="6.91026">
        <ele>1866</ele>
        <time>2019-07-08T18:24:06Z</time>
      </trkpt>
      <trkpt lat="45.27695" lon="6.91047">
        <ele>1867</ele>
        <time>2019-07-08T18:24:09Z</time>
      </trkpt>
      <trkpt lat="45.27701" lon="6.91064">
        <ele>1868</ele>
        <time>2019-07-08T18:24:12Z</time>
      </trkpt>
      <trkpt lat="45.27709" lon="6.91102">
        <ele>1872</ele>
        <time>2019-07-08T18:24:17Z</time>
      </trkpt>
      <trkpt lat="45.27714" lon="6.91141">
        <ele>1875</ele>
        <time>2019-07-08T18:24:22Z</time>
      </trkpt>
      <trkpt lat="45.27711" lon="6.9125">
        <ele>1877</ele>
        <time>2019-07-08T18:24:35Z</time>
      </trkpt>
      <trkpt lat="45.27706" lon="6.91281">
        <ele>1874</ele>
        <time>2019-07-08T18:24:39Z</time>
      </trkpt>
      <trkpt lat="45.27695" lon="6.91293">
        <ele>1877</ele>
        <time>2019-07-08T18:24:42Z</time>
      </trkpt>
      <trkpt lat="45.27682" lon="6.91289">
        <ele>1882</ele>
        <time>2019-07-08T18:24:44Z</time>
      </trkpt>
      <trkpt lat="45.27675" lon="6.91275">
        <ele>1886</ele>
        <time>2019-07-08T18:24:46Z</time>
      </trkpt>
      <trkpt lat="45.2768" lon="6.91224">
        <ele>1888</ele>
        <time>2019-07-08T18:24:53Z</time>
      </trkpt>
      <trkpt lat="45.27679" lon="6.91167">
        <ele>1893</ele>
        <time>2019-07-08T18:25:00Z</time>
      </trkpt>
      <trkpt lat="45.27672" lon="6.91144">
        <ele>1892</ele>
        <time>2019-07-08T18:25:03Z</time>
      </trkpt>
      <trkpt lat="45.27659" lon="6.91121">
        <ele>1893</ele>
        <time>2019-07-08T18:25:07Z</time>
      </trkpt>
      <trkpt lat="45.27617" lon="6.9108">
        <ele>1899</ele>
        <time>2019-07-08T18:25:16Z</time>
      </trkpt>
      <trkpt lat="45.27578" lon="6.91035">
        <ele>1903</ele>
        <time>2019-07-08T18:25:25Z</time>
      </trkpt>
      <trkpt lat="45.27545" lon="6.90977">
        <ele>1904</ele>
        <time>2019-07-08T18:25:34Z</time>
      </trkpt>
      <trkpt lat="45.27515" lon="6.90939">
        <ele>1910</ele>
        <time>2019-07-08T18:25:41Z</time>
      </trkpt>
      <trkpt lat="45.27499" lon="6.90924">
        <ele>1913</ele>
        <time>2019-07-08T18:25:45Z</time>
      </trkpt>
      <trkpt lat="45.27484" lon="6.90905">
        <ele>1917</ele>
        <time>2019-07-08T18:25:48Z</time>
      </trkpt>
      <trkpt lat="45.27474" lon="6.90883">
        <ele>1919</ele>
        <time>2019-07-08T18:25:52Z</time>
      </trkpt>
      <trkpt lat="45.27464" lon="6.90852">
        <ele>1921</ele>
        <time>2019-07-08T18:25:56Z</time>
      </trkpt>
      <trkpt lat="45.2744" lon="6.90777">
        <ele>1925</ele>
        <time>2019-07-08T18:26:06Z</time>
      </trkpt>
      <trkpt lat="45.27415" lon="6.90719">
        <ele>1929</ele>
        <time>2019-07-08T18:26:15Z</time>
      </trkpt>
      <trkpt lat="45.27389" lon="6.90673">
        <ele>1936</ele>
        <time>2019-07-08T18:26:22Z</time>
      </trkpt>
      <trkpt lat="45.27366" lon="6.90623">
        <ele>1941</ele>
        <time>2019-07-08T18:26:29Z</time>
      </trkpt>
      <trkpt lat="45.2735" lon="6.90556">
        <ele>1943</ele>
        <time>2019-07-08T18:26:38Z</time>
      </trkpt>
      <trkpt lat="45.27319" lon="6.90412">
        <ele>1944</ele>
        <time>2019-07-08T18:26:57Z</time>
      </trkpt>
      <trkpt lat="45.27297" lon="6.90346">
        <ele>1948</ele>
        <time>2019-07-08T18:27:06Z</time>
      </trkpt>
      <trkpt lat="45.27254" lon="6.90276">
        <ele>1954</ele>
        <time>2019-07-08T18:27:18Z</time>
      </trkpt>
      <trkpt lat="45.27223" lon="6.90214">
        <ele>1964</ele>
        <time>2019-07-08T18:27:27Z</time>
      </trkpt>
      <trkpt lat="45.27201" lon="6.90151">
        <ele>1970</ele>
        <time>2019-07-08T18:27:36Z</time>
      </trkpt>
      <trkpt lat="45.27188" lon="6.90098">
        <ele>1971</ele>
        <time>2019-07-08T18:27:43Z</time>
      </trkpt>
      <trkpt lat="45.27183" lon="6.90061">
        <ele>1969</ele>
        <time>2019-07-08T18:27:48Z</time>
      </trkpt>
      <trkpt lat="45.27176" lon="6.90033">
        <ele>1970</ele>
        <time>2019-07-08T18:27:52Z</time>
      </trkpt>
      <trkpt lat="45.27166" lon="6.90003">
        <ele>1972</ele>
        <time>2019-07-08T18:27:56Z</time>
      </trkpt>
      <trkpt lat="45.27141" lon="6.89952">
        <ele>1972</ele>
        <time>2019-07-08T18:28:04Z</time>
      </trkpt>
      <trkpt lat="45.2713" lon="6.89939">
        <ele>1973</ele>
        <time>2019-07-08T18:28:06Z</time>
      </trkpt>
      <trkpt lat="45.27113" lon="6.89931">
        <ele>1977</ele>
        <time>2019-07-08T18:28:09Z</time>
      </trkpt>
      <trkpt lat="45.27083" lon="6.89929">
        <ele>1984</ele>
        <time>2019-07-08T18:28:15Z</time>
      </trkpt>
      <trkpt lat="45.27072" lon="6.89922">
        <ele>1987</ele>
        <time>2019-07-08T18:28:17Z</time>
      </trkpt>
      <trkpt lat="45.27061" lon="6.89904">
        <ele>1989</ele>
        <time>2019-07-08T18:28:20Z</time>
      </trkpt>
      <trkpt lat="45.27034" lon="6.8982">
        <ele>1990</ele>
        <time>2019-07-08T18:28:31Z</time>
      </trkpt>
      <trkpt lat="45.27021" lon="6.89785">
        <ele>1989</ele>
        <time>2019-07-08T18:28:36Z</time>
      </trkpt>
      <trkpt lat="45.27015" lon="6.89776">
        <ele>1990</ele>
        <time>2019-07-08T18:28:38Z</time>
      </trkpt>
      <trkpt lat="45.27005" lon="6.89767">
        <ele>1992</ele>
        <time>2019-07-08T18:28:40Z</time>
      </trkpt>
      <trkpt lat="45.26976" lon="6.89743">
        <ele>1994</ele>
        <time>2019-07-08T18:28:46Z</time>
      </trkpt>
      <trkpt lat="45.26943" lon="6.89723">
        <ele>1996</ele>
        <time>2019-07-08T18:28:52Z</time>
      </trkpt>
      <trkpt lat="45.26912" lon="6.89712">
        <ele>1999</ele>
        <time>2019-07-08T18:28:58Z</time>
      </trkpt>
      <trkpt lat="45.26896" lon="6.8971">
        <ele>2001</ele>
        <time>2019-07-08T18:29:01Z</time>
      </trkpt>
      <trkpt lat="45.26878" lon="6.89712">
        <ele>2003</ele>
        <time>2019-07-08T18:29:04Z</time>
      </trkpt>
      <trkpt lat="45.26819" lon="6.89723">
        <ele>2011</ele>
        <time>2019-07-08T18:29:15Z</time>
      </trkpt>
      <trkpt lat="45.26774" lon="6.89738">
        <ele>2016</ele>
        <time>2019-07-08T18:29:23Z</time>
      </trkpt>
      <trkpt lat="45.26764" lon="6.89747">
        <ele>2017</ele>
        <time>2019-07-08T18:29:25Z</time>
      </trkpt>
      <trkpt lat="45.26691" lon="6.89836">
        <ele>2024</ele>
        <time>2019-07-08T18:29:42Z</time>
      </trkpt>
      <trkpt lat="45.26681" lon="6.89846">
        <ele>2025</ele>
        <time>2019-07-08T18:29:44Z</time>
      </trkpt>
      <trkpt lat="45.26664" lon="6.89857">
        <ele>2026</ele>
        <time>2019-07-08T18:29:48Z</time>
      </trkpt>
      <trkpt lat="45.2665" lon="6.89864">
        <ele>2028</ele>
        <time>2019-07-08T18:29:50Z</time>
      </trkpt>
      <trkpt lat="45.26637" lon="6.89867">
        <ele>2029</ele>
        <time>2019-07-08T18:29:53Z</time>
      </trkpt>
      <trkpt lat="45.26579" lon="6.89866">
        <ele>2030</ele>
        <time>2019-07-08T18:30:03Z</time>
      </trkpt>
      <trkpt lat="45.26572" lon="6.89868">
        <ele>2031</ele>
        <time>2019-07-08T18:30:04Z</time>
      </trkpt>
      <trkpt lat="45.26553" lon="6.8988">
        <ele>2033</ele>
        <time>2019-07-08T18:30:08Z</time>
      </trkpt>
      <trkpt lat="45.26545" lon="6.89889">
        <ele>2034</ele>
        <time>2019-07-08T18:30:10Z</time>
      </trkpt>
      <trkpt lat="45.26484" lon="6.89989">
        <ele>2044</ele>
        <time>2019-07-08T18:30:26Z</time>
      </trkpt>
      <trkpt lat="45.26473" lon="6.90004">
        <ele>2046</ele>
        <time>2019-07-08T18:30:29Z</time>
      </trkpt>
      <trkpt lat="45.2646" lon="6.90017">
        <ele>2047</ele>
        <time>2019-07-08T18:30:32Z</time>
      </trkpt>
      <trkpt lat="45.26285" lon="6.90143">
        <ele>2063</ele>
        <time>2019-07-08T18:31:07Z</time>
      </trkpt>
      <trkpt lat="45.2626" lon="6.90157">
        <ele>2064</ele>
        <time>2019-07-08T18:31:12Z</time>
      </trkpt>
      <trkpt lat="45.2624" lon="6.90161">
        <ele>2065</ele>
        <time>2019-07-08T18:31:15Z</time>
      </trkpt>
      <trkpt lat="45.26231" lon="6.90159">
        <ele>2066</ele>
        <time>2019-07-08T18:31:17Z</time>
      </trkpt>
      <trkpt lat="45.26216" lon="6.90151">
        <ele>2067</ele>
        <time>2019-07-08T18:31:20Z</time>
      </trkpt>
      <trkpt lat="45.26201" lon="6.90134">
        <ele>2068</ele>
        <time>2019-07-08T18:31:23Z</time>
      </trkpt>
      <trkpt lat="45.26186" lon="6.90106">
        <ele>2068</ele>
        <time>2019-07-08T18:31:28Z</time>
      </trkpt>
      <trkpt lat="45.26182" lon="6.90093">
        <ele>2068</ele>
        <time>2019-07-08T18:31:29Z</time>
      </trkpt>
      <trkpt lat="45.26181" lon="6.90079">
        <ele>2068</ele>
        <time>2019-07-08T18:31:31Z</time>
      </trkpt>
      <trkpt lat="45.26183" lon="6.90021">
        <ele>2067</ele>
        <time>2019-07-08T18:31:38Z</time>
      </trkpt>
      <trkpt lat="45.26182" lon="6.90005">
        <ele>2067</ele>
        <time>2019-07-08T18:31:40Z</time>
      </trkpt>
      <trkpt lat="45.26179" lon="6.89992">
        <ele>2068</ele>
        <time>2019-07-08T18:31:42Z</time>
      </trkpt>
      <trkpt lat="45.26173" lon="6.89984">
        <ele>2069</ele>
        <time>2019-07-08T18:31:44Z</time>
      </trkpt>
      <trkpt lat="45.26166" lon="6.89978">
        <ele>2070</ele>
        <time>2019-07-08T18:31:45Z</time>
      </trkpt>
      <trkpt lat="45.26158" lon="6.89976">
        <ele>2071</ele>
        <time>2019-07-08T18:31:46Z</time>
      </trkpt>
      <trkpt lat="45.26148" lon="6.89976">
        <ele>2073</ele>
        <time>2019-07-08T18:31:48Z</time>
      </trkpt>
      <trkpt lat="45.26078" lon="6.89996">
        <ele>2081</ele>
        <time>2019-07-08T18:32:01Z</time>
      </trkpt>
      <trkpt lat="45.26051" lon="6.90006">
        <ele>2084</ele>
        <time>2019-07-08T18:32:06Z</time>
      </trkpt>
      <trkpt lat="45.26029" lon="6.90021">
        <ele>2087</ele>
        <time>2019-07-08T18:32:10Z</time>
      </trkpt>
      <trkpt lat="45.26009" lon="6.90046">
        <ele>2088</ele>
        <time>2019-07-08T18:32:15Z</time>
      </trkpt>
      <trkpt lat="45.2599" lon="6.90074">
        <ele>2087</ele>
        <time>2019-07-08T18:32:20Z</time>
      </trkpt>
      <trkpt lat="45.2594" lon="6.90158">
        <ele>2085</ele>
        <time>2019-07-08T18:32:34Z</time>
      </trkpt>
      <trkpt lat="45.25913" lon="6.90208">
        <ele>2082</ele>
        <time>2019-07-08T18:32:41Z</time>
      </trkpt>
      <trkpt lat="45.25895" lon="6.90248">
        <ele>2080</ele>
        <time>2019-07-08T18:32:47Z</time>
      </trkpt>
      <trkpt lat="45.25869" lon="6.90345">
        <ele>2076</ele>
        <time>2019-07-08T18:33:00Z</time>
      </trkpt>
      <trkpt lat="45.25859" lon="6.90372">
        <ele>2075</ele>
        <time>2019-07-08T18:33:04Z</time>
      </trkpt>
      <trkpt lat="45.25808" lon="6.90481">
        <ele>2071</ele>
        <time>2019-07-08T18:33:21Z</time>
      </trkpt>
      <trkpt lat="45.2579" lon="6.90507">
        <ele>2070</ele>
        <time>2019-07-08T18:33:25Z</time>
      </trkpt>
      <trkpt lat="45.25779" lon="6.90516">
        <ele>2070</ele>
        <time>2019-07-08T18:33:27Z</time>
      </trkpt>
      <trkpt lat="45.25768" lon="6.90522">
        <ele>2069</ele>
        <time>2019-07-08T18:33:30Z</time>
      </trkpt>
      <trkpt lat="45.25468" lon="6.90631">
        <ele>2055</ele>
        <time>2019-07-08T18:34:25Z</time>
      </trkpt>
      <trkpt lat="45.25436" lon="6.9065">
        <ele>2055</ele>
        <time>2019-07-08T18:34:31Z</time>
      </trkpt>
      <trkpt lat="45.25406" lon="6.90677">
        <ele>2054</ele>
        <time>2019-07-08T18:34:37Z</time>
      </trkpt>
      <trkpt lat="45.25333" lon="6.90769">
        <ele>2052</ele>
        <time>2019-07-08T18:34:55Z</time>
      </trkpt>
      <trkpt lat="45.25321" lon="6.90792">
        <ele>2051</ele>
        <time>2019-07-08T18:34:58Z</time>
      </trkpt>
      <trkpt lat="45.25315" lon="6.90811">
        <ele>2051</ele>
        <time>2019-07-08T18:35:01Z</time>
      </trkpt>
      <trkpt lat="45.2531" lon="6.90838">
        <ele>2053</ele>
        <time>2019-07-08T18:35:04Z</time>
      </trkpt>
      <trkpt lat="45.25309" lon="6.90864">
        <ele>2054</ele>
        <time>2019-07-08T18:35:07Z</time>
      </trkpt>
      <trkpt lat="45.25315" lon="6.91048">
        <ele>2057</ele>
        <time>2019-07-08T18:35:31Z</time>
      </trkpt>
      <trkpt lat="45.25315" lon="6.91117">
        <ele>2058</ele>
        <time>2019-07-08T18:35:39Z</time>
      </trkpt>
      <trkpt lat="45.25311" lon="6.91144">
        <ele>2058</ele>
        <time>2019-07-08T18:35:43Z</time>
      </trkpt>
      <trkpt lat="45.2529" lon="6.91229">
        <ele>2052</ele>
        <time>2019-07-08T18:35:54Z</time>
      </trkpt>
      <trkpt lat="45.25285" lon="6.9126">
        <ele>2051</ele>
        <time>2019-07-08T18:35:58Z</time>
      </trkpt>
      <trkpt lat="45.25283" lon="6.91297">
        <ele>2050</ele>
        <time>2019-07-08T18:36:03Z</time>
      </trkpt>
      <trkpt lat="45.25281" lon="6.91401">
        <ele>2050</ele>
        <time>2019-07-08T18:36:16Z</time>
      </trkpt>
      <trkpt lat="45.25276" lon="6.91457">
        <ele>2050</ele>
        <time>2019-07-08T18:36:23Z</time>
      </trkpt>
      <trkpt lat="45.25259" lon="6.91558">
        <ele>2049</ele>
        <time>2019-07-08T18:36:36Z</time>
      </trkpt>
      <trkpt lat="45.25223" lon="6.91686">
        <ele>2041</ele>
        <time>2019-07-08T18:36:53Z</time>
      </trkpt>
      <trkpt lat="45.25209" lon="6.91742">
        <ele>2043</ele>
        <time>2019-07-08T18:37:00Z</time>
      </trkpt>
      <trkpt lat="45.25184" lon="6.91916">
        <ele>2045</ele>
        <time>2019-07-08T18:37:23Z</time>
      </trkpt>
      <trkpt lat="45.25157" lon="6.92131">
        <ele>2056</ele>
        <time>2019-07-08T18:37:50Z</time>
      </trkpt>
      <trkpt lat="45.25143" lon="6.92186">
        <ele>2057</ele>
        <time>2019-07-08T18:37:57Z</time>
      </trkpt>
      <trkpt lat="45.25126" lon="6.92233">
        <ele>2057</ele>
        <time>2019-07-08T18:38:04Z</time>
      </trkpt>
      <trkpt lat="45.25069" lon="6.92353">
        <ele>2060</ele>
        <time>2019-07-08T18:38:22Z</time>
      </trkpt>
      <trkpt lat="45.25011" lon="6.92468">
        <ele>2066</ele>
        <time>2019-07-08T18:38:40Z</time>
      </trkpt>
      <trkpt lat="45.24998" lon="6.92498">
        <ele>2068</ele>
        <time>2019-07-08T18:38:44Z</time>
      </trkpt>
      <trkpt lat="45.24985" lon="6.92538">
        <ele>2069</ele>
        <time>2019-07-08T18:38:50Z</time>
      </trkpt>
      <trkpt lat="45.2495" lon="6.92693">
        <ele>2080</ele>
        <time>2019-07-08T18:39:10Z</time>
      </trkpt>
      <trkpt lat="45.24942" lon="6.92723">
        <ele>2082</ele>
        <time>2019-07-08T18:39:14Z</time>
      </trkpt>
      <trkpt lat="45.24933" lon="6.92748">
        <ele>2082</ele>
        <time>2019-07-08T18:39:18Z</time>
      </trkpt>
      <trkpt lat="45.24905" lon="6.92815">
        <ele>2080</ele>
        <time>2019-07-08T18:39:27Z</time>
      </trkpt>
      <trkpt lat="45.24854" lon="6.9291">
        <ele>2082</ele>
        <time>2019-07-08T18:39:42Z</time>
      </trkpt>
      <trkpt lat="45.24843" lon="6.92935">
        <ele>2082</ele>
        <time>2019-07-08T18:39:46Z</time>
      </trkpt>
      <trkpt lat="45.24826" lon="6.92982">
        <ele>2080</ele>
        <time>2019-07-08T18:39:53Z</time>
      </trkpt>
      <trkpt lat="45.24816" lon="6.93023">
        <ele>2078</ele>
        <time>2019-07-08T18:39:58Z</time>
      </trkpt>
      <trkpt lat="45.24761" lon="6.93287">
        <ele>2075</ele>
        <time>2019-07-08T18:40:33Z</time>
      </trkpt>
      <trkpt lat="45.24753" lon="6.93325">
        <ele>2075</ele>
        <time>2019-07-08T18:40:38Z</time>
      </trkpt>
      <trkpt lat="45.24746" lon="6.93347">
        <ele>2074</ele>
        <time>2019-07-08T18:40:41Z</time>
      </trkpt>
      <trkpt lat="45.24728" lon="6.93395">
        <ele>2073</ele>
        <time>2019-07-08T18:40:47Z</time>
      </trkpt>
      <trkpt lat="45.24718" lon="6.93414">
        <ele>2071</ele>
        <time>2019-07-08T18:40:50Z</time>
      </trkpt>
      <trkpt lat="45.24677" lon="6.93482">
        <ele>2068</ele>
        <time>2019-07-08T18:41:02Z</time>
      </trkpt>
      <trkpt lat="45.24667" lon="6.93505">
        <ele>2068</ele>
        <time>2019-07-08T18:41:05Z</time>
      </trkpt>
      <trkpt lat="45.2466" lon="6.93524">
        <ele>2066</ele>
        <time>2019-07-08T18:41:08Z</time>
      </trkpt>
      <trkpt lat="45.24656" lon="6.9355">
        <ele>2067</ele>
        <time>2019-07-08T18:41:11Z</time>
      </trkpt>
      <trkpt lat="45.24649" lon="6.93724">
        <ele>2075</ele>
        <time>2019-07-08T18:41:33Z</time>
      </trkpt>
      <trkpt lat="45.24648" lon="6.9374">
        <ele>2075</ele>
        <time>2019-07-08T18:41:35Z</time>
      </trkpt>
      <trkpt lat="45.24641" lon="6.93769">
        <ele>2076</ele>
        <time>2019-07-08T18:41:39Z</time>
      </trkpt>
      <trkpt lat="45.24634" lon="6.93784">
        <ele>2076</ele>
        <time>2019-07-08T18:41:41Z</time>
      </trkpt>
      <trkpt lat="45.24623" lon="6.93803">
        <ele>2076</ele>
        <time>2019-07-08T18:41:44Z</time>
      </trkpt>
      <trkpt lat="45.24536" lon="6.93928">
        <ele>2072</ele>
        <time>2019-07-08T18:42:06Z</time>
      </trkpt>
      <trkpt lat="45.24507" lon="6.93978">
        <ele>2073</ele>
        <time>2019-07-08T18:42:14Z</time>
      </trkpt>
      <trkpt lat="45.24423" lon="6.94147">
        <ele>2076</ele>
        <time>2019-07-08T18:42:40Z</time>
      </trkpt>
      <trkpt lat="45.24398" lon="6.94204">
        <ele>2077</ele>
        <time>2019-07-08T18:42:48Z</time>
      </trkpt>
      <trkpt lat="45.24366" lon="6.94304">
        <ele>2080</ele>
        <time>2019-07-08T18:43:02Z</time>
      </trkpt>
      <trkpt lat="45.24305" lon="6.94514">
        <ele>2079</ele>
        <time>2019-07-08T18:43:31Z</time>
      </trkpt>
      <trkpt lat="45.24302" lon="6.9453">
        <ele>2078</ele>
        <time>2019-07-08T18:43:33Z</time>
      </trkpt>
      <trkpt lat="45.24297" lon="6.94584">
        <ele>2080</ele>
        <time>2019-07-08T18:43:40Z</time>
      </trkpt>
      <trkpt lat="45.24297" lon="6.94614">
        <ele>2080</ele>
        <time>2019-07-08T18:43:43Z</time>
      </trkpt>
      <trkpt lat="45.243" lon="6.94639">
        <ele>2081</ele>
        <time>2019-07-08T18:43:47Z</time>
      </trkpt>
      <trkpt lat="45.24307" lon="6.94678">
        <ele>2083</ele>
        <time>2019-07-08T18:43:52Z</time>
      </trkpt>
      <trkpt lat="45.24333" lon="6.94778">
        <ele>2090</ele>
        <time>2019-07-08T18:44:05Z</time>
      </trkpt>
      <trkpt lat="45.24339" lon="6.94823">
        <ele>2093</ele>
        <time>2019-07-08T18:44:11Z</time>
      </trkpt>
      <trkpt lat="45.24341" lon="6.94856">
        <ele>2096</ele>
        <time>2019-07-08T18:44:15Z</time>
      </trkpt>
      <trkpt lat="45.2434" lon="6.9488">
        <ele>2098</ele>
        <time>2019-07-08T18:44:18Z</time>
      </trkpt>
      <trkpt lat="45.24336" lon="6.94892">
        <ele>2097</ele>
        <time>2019-07-08T18:44:19Z</time>
      </trkpt>
      <trkpt lat="45.2433" lon="6.94904">
        <ele>2097</ele>
        <time>2019-07-08T18:44:21Z</time>
      </trkpt>
      <trkpt lat="45.24321" lon="6.94915">
        <ele>2097</ele>
        <time>2019-07-08T18:44:23Z</time>
      </trkpt>
      <trkpt lat="45.24309" lon="6.94925">
        <ele>2098</ele>
        <time>2019-07-08T18:44:26Z</time>
      </trkpt>
      <trkpt lat="45.24298" lon="6.94926">
        <ele>2097</ele>
        <time>2019-07-08T18:44:28Z</time>
      </trkpt>
      <trkpt lat="45.24267" lon="6.94914">
        <ele>2092</ele>
        <time>2019-07-08T18:44:34Z</time>
      </trkpt>
      <trkpt lat="45.24254" lon="6.94916">
        <ele>2091</ele>
        <time>2019-07-08T18:44:36Z</time>
      </trkpt>
      <trkpt lat="45.24239" lon="6.94926">
        <ele>2092</ele>
        <time>2019-07-08T18:44:39Z</time>
      </trkpt>
      <trkpt lat="45.2423" lon="6.94935">
        <ele>2093</ele>
        <time>2019-07-08T18:44:41Z</time>
      </trkpt>
      <trkpt lat="45.24157" lon="6.95032">
        <ele>2098</ele>
        <time>2019-07-08T18:44:59Z</time>
      </trkpt>
      <trkpt lat="45.23932" lon="6.95242">
        <ele>2092</ele>
        <time>2019-07-08T18:45:47Z</time>
      </trkpt>
      <trkpt lat="45.23922" lon="6.95255">
        <ele>2091</ele>
        <time>2019-07-08T18:45:49Z</time>
      </trkpt>
      <trkpt lat="45.23913" lon="6.95269">
        <ele>2092</ele>
        <time>2019-07-08T18:45:51Z</time>
      </trkpt>
      <trkpt lat="45.23896" lon="6.95309">
        <ele>2095</ele>
        <time>2019-07-08T18:45:57Z</time>
      </trkpt>
      <trkpt lat="45.23885" lon="6.95324">
        <ele>2096</ele>
        <time>2019-07-08T18:46:00Z</time>
      </trkpt>
      <trkpt lat="45.23875" lon="6.95331">
        <ele>2096</ele>
        <time>2019-07-08T18:46:02Z</time>
      </trkpt>
      <trkpt lat="45.2387" lon="6.95332">
        <ele>2095</ele>
        <time>2019-07-08T18:46:03Z</time>
      </trkpt>
      <trkpt lat="45.23837" lon="6.95327">
        <ele>2091</ele>
        <time>2019-07-08T18:46:09Z</time>
      </trkpt>
      <trkpt lat="45.23828" lon="6.95327">
        <ele>2090</ele>
        <time>2019-07-08T18:46:10Z</time>
      </trkpt>
      <trkpt lat="45.23817" lon="6.95329">
        <ele>2089</ele>
        <time>2019-07-08T18:46:12Z</time>
      </trkpt>
      <trkpt lat="45.23805" lon="6.95338">
        <ele>2090</ele>
        <time>2019-07-08T18:46:15Z</time>
      </trkpt>
      <trkpt lat="45.23786" lon="6.95365">
        <ele>2093</ele>
        <time>2019-07-08T18:46:19Z</time>
      </trkpt>
      <trkpt lat="45.23774" lon="6.95377">
        <ele>2094</ele>
        <time>2019-07-08T18:46:22Z</time>
      </trkpt>
      <trkpt lat="45.23679" lon="6.95434">
        <ele>2092</ele>
        <time>2019-07-08T18:46:40Z</time>
      </trkpt>
      <trkpt lat="45.23665" lon="6.95446">
        <ele>2092</ele>
        <time>2019-07-08T18:46:43Z</time>
      </trkpt>
      <trkpt lat="45.23596" lon="6.95515">
        <ele>2093</ele>
        <time>2019-07-08T18:46:58Z</time>
      </trkpt>
      <trkpt lat="45.23587" lon="6.95521">
        <ele>2093</ele>
        <time>2019-07-08T18:47:00Z</time>
      </trkpt>
      <trkpt lat="45.23562" lon="6.95527">
        <ele>2089</ele>
        <time>2019-07-08T18:47:05Z</time>
      </trkpt>
      <trkpt lat="45.23547" lon="6.95535">
        <ele>2088</ele>
        <time>2019-07-08T18:47:07Z</time>
      </trkpt>
      <trkpt lat="45.23534" lon="6.95547">
        <ele>2089</ele>
        <time>2019-07-08T18:47:10Z</time>
      </trkpt>
      <trkpt lat="45.23508" lon="6.9558">
        <ele>2094</ele>
        <time>2019-07-08T18:47:16Z</time>
      </trkpt>
      <trkpt lat="45.23496" lon="6.9559">
        <ele>2094</ele>
        <time>2019-07-08T18:47:19Z</time>
      </trkpt>
      <trkpt lat="45.2348" lon="6.95601">
        <ele>2092</ele>
        <time>2019-07-08T18:47:22Z</time>
      </trkpt>
      <trkpt lat="45.23411" lon="6.95641">
        <ele>2084</ele>
        <time>2019-07-08T18:47:35Z</time>
      </trkpt>
      <trkpt lat="45.23304" lon="6.95709">
        <ele>2073</ele>
        <time>2019-07-08T18:47:56Z</time>
      </trkpt>
      <trkpt lat="45.23211" lon="6.95758">
        <ele>2060</ele>
        <time>2019-07-08T18:48:14Z</time>
      </trkpt>
      <trkpt lat="45.23201" lon="6.95766">
        <ele>2059</ele>
        <time>2019-07-08T18:48:16Z</time>
      </trkpt>
      <trkpt lat="45.23189" lon="6.9578">
        <ele>2059</ele>
        <time>2019-07-08T18:48:19Z</time>
      </trkpt>
      <trkpt lat="45.23146" lon="6.95835">
        <ele>2061</ele>
        <time>2019-07-08T18:48:29Z</time>
      </trkpt>
      <trkpt lat="45.23136" lon="6.95843">
        <ele>2060</ele>
        <time>2019-07-08T18:48:31Z</time>
      </trkpt>
      <trkpt lat="45.23057" lon="6.95882">
        <ele>2045</ele>
        <time>2019-07-08T18:48:46Z</time>
      </trkpt>
      <trkpt lat="45.2301" lon="6.95914">
        <ele>2038</ele>
        <time>2019-07-08T18:48:55Z</time>
      </trkpt>
      <trkpt lat="45.23001" lon="6.95924">
        <ele>2038</ele>
        <time>2019-07-08T18:48:57Z</time>
      </trkpt>
      <trkpt lat="45.22993" lon="6.95937">
        <ele>2038</ele>
        <time>2019-07-08T18:48:59Z</time>
      </trkpt>
      <trkpt lat="45.22868" lon="6.96195">
        <ele>2039</ele>
        <time>2019-07-08T18:49:39Z</time>
      </trkpt>
      <trkpt lat="45.22853" lon="6.9622">
        <ele>2035</ele>
        <time>2019-07-08T18:49:43Z</time>
      </trkpt>
      <trkpt lat="45.22841" lon="6.96245">
        <ele>2032</ele>
        <time>2019-07-08T18:49:46Z</time>
      </trkpt>
      <trkpt lat="45.22809" lon="6.96325">
        <ele>2040</ele>
        <time>2019-07-08T18:49:58Z</time>
      </trkpt>
      <trkpt lat="45.22786" lon="6.96357">
        <ele>2039</ele>
        <time>2019-07-08T18:50:04Z</time>
      </trkpt>
      <trkpt lat="45.22725" lon="6.96428">
        <ele>2033</ele>
        <time>2019-07-08T18:50:18Z</time>
      </trkpt>
      <trkpt lat="45.22705" lon="6.96457">
        <ele>2035</ele>
        <time>2019-07-08T18:50:23Z</time>
      </trkpt>
      <trkpt lat="45.22686" lon="6.96492">
        <ele>2038</ele>
        <time>2019-07-08T18:50:28Z</time>
      </trkpt>
      <trkpt lat="45.22662" lon="6.96548">
        <ele>2040</ele>
        <time>2019-07-08T18:50:37Z</time>
      </trkpt>
      <trkpt lat="45.22653" lon="6.96591">
        <ele>2043</ele>
        <time>2019-07-08T18:50:42Z</time>
      </trkpt>
      <trkpt lat="45.22643" lon="6.96647">
        <ele>2044</ele>
        <time>2019-07-08T18:50:49Z</time>
      </trkpt>
      <trkpt lat="45.22635" lon="6.96671">
        <ele>2044</ele>
        <time>2019-07-08T18:50:53Z</time>
      </trkpt>
      <trkpt lat="45.22618" lon="6.96707">
        <ele>2048</ele>
        <time>2019-07-08T18:50:58Z</time>
      </trkpt>
      <trkpt lat="45.22565" lon="6.96798">
        <ele>2056</ele>
        <time>2019-07-08T18:51:13Z</time>
      </trkpt>
      <trkpt lat="45.22534" lon="6.96835">
        <ele>2060</ele>
        <time>2019-07-08T18:51:20Z</time>
      </trkpt>
      <trkpt lat="45.22521" lon="6.96847">
        <ele>2061</ele>
        <time>2019-07-08T18:51:23Z</time>
      </trkpt>
      <trkpt lat="45.22498" lon="6.96863">
        <ele>2060</ele>
        <time>2019-07-08T18:51:28Z</time>
      </trkpt>
      <trkpt lat="45.22474" lon="6.96875">
        <ele>2058</ele>
        <time>2019-07-08T18:51:32Z</time>
      </trkpt>
      <trkpt lat="45.22434" lon="6.9689">
        <ele>2053</ele>
        <time>2019-07-08T18:51:39Z</time>
      </trkpt>
      <trkpt lat="45.22416" lon="6.96894">
        <ele>2050</ele>
        <time>2019-07-08T18:51:43Z</time>
      </trkpt>
      <trkpt lat="45.22383" lon="6.96899">
        <ele>2050</ele>
        <time>2019-07-08T18:51:49Z</time>
      </trkpt>
      <trkpt lat="45.22328" lon="6.96898">
        <ele>2047</ele>
        <time>2019-07-08T18:51:58Z</time>
      </trkpt>
      <trkpt lat="45.22291" lon="6.96892">
        <ele>2045</ele>
        <time>2019-07-08T18:52:05Z</time>
      </trkpt>
      <trkpt lat="45.22268" lon="6.96885">
        <ele>2043</ele>
        <time>2019-07-08T18:52:09Z</time>
      </trkpt>
      <trkpt lat="45.22189" lon="6.96852">
        <ele>2033</ele>
        <time>2019-07-08T18:52:24Z</time>
      </trkpt>
      <trkpt lat="45.2216" lon="6.96848">
        <ele>2032</ele>
        <time>2019-07-08T18:52:29Z</time>
      </trkpt>
      <trkpt lat="45.22085" lon="6.96846">
        <ele>2027</ele>
        <time>2019-07-08T18:52:42Z</time>
      </trkpt>
      <trkpt lat="45.22054" lon="6.96848">
        <ele>2024</ele>
        <time>2019-07-08T18:52:48Z</time>
      </trkpt>
      <trkpt lat="45.22026" lon="6.96852">
        <ele>2021</ele>
        <time>2019-07-08T18:52:53Z</time>
      </trkpt>
      <trkpt lat="45.22009" lon="6.96859">
        <ele>2021</ele>
        <time>2019-07-08T18:52:56Z</time>
      </trkpt>
      <trkpt lat="45.21965" lon="6.9689">
        <ele>2024</ele>
        <time>2019-07-08T18:53:05Z</time>
      </trkpt>
      <trkpt lat="45.21949" lon="6.96896">
        <ele>2023</ele>
        <time>2019-07-08T18:53:08Z</time>
      </trkpt>
      <trkpt lat="45.21896" lon="6.96889">
        <ele>2015</ele>
        <time>2019-07-08T18:53:17Z</time>
      </trkpt>
      <trkpt lat="45.21832" lon="6.96901">
        <ele>2014</ele>
        <time>2019-07-08T18:53:29Z</time>
      </trkpt>
      <trkpt lat="45.2181" lon="6.96902">
        <ele>2013</ele>
        <time>2019-07-08T18:53:33Z</time>
      </trkpt>
      <trkpt lat="45.2171" lon="6.96886">
        <ele>2001</ele>
        <time>2019-07-08T18:53:51Z</time>
      </trkpt>
      <trkpt lat="45.21682" lon="6.96883">
        <ele>1997</ele>
        <time>2019-07-08T18:53:56Z</time>
      </trkpt>
      <trkpt lat="45.21672" lon="6.96884">
        <ele>1996</ele>
        <time>2019-07-08T18:53:57Z</time>
      </trkpt>
      <trkpt lat="45.21616" lon="6.96903">
        <ele>1996</ele>
        <time>2019-07-08T18:54:08Z</time>
      </trkpt>
      <trkpt lat="45.21611" lon="6.96902">
        <ele>1996</ele>
        <time>2019-07-08T18:54:08Z</time>
      </trkpt>
      <trkpt lat="45.21602" lon="6.96895">
        <ele>1994</ele>
        <time>2019-07-08T18:54:10Z</time>
      </trkpt>
      <trkpt lat="45.21598" lon="6.96886">
        <ele>1992</ele>
        <time>2019-07-08T18:54:12Z</time>
      </trkpt>
      <trkpt lat="45.21598" lon="6.96877">
        <ele>1989</ele>
        <time>2019-07-08T18:54:13Z</time>
      </trkpt>
      <trkpt lat="45.216" lon="6.96868">
        <ele>1987</ele>
        <time>2019-07-08T18:54:14Z</time>
      </trkpt>
      <trkpt lat="45.21605" lon="6.96861">
        <ele>1986</ele>
        <time>2019-07-08T18:54:15Z</time>
      </trkpt>
      <trkpt lat="45.21652" lon="6.96835">
        <ele>1984</ele>
        <time>2019-07-08T18:54:24Z</time>
      </trkpt>
      <trkpt lat="45.21661" lon="6.96828">
        <ele>1983</ele>
        <time>2019-07-08T18:54:26Z</time>
      </trkpt>
      <trkpt lat="45.2167" lon="6.96819">
        <ele>1983</ele>
        <time>2019-07-08T18:54:28Z</time>
      </trkpt>
      <trkpt lat="45.21679" lon="6.96805">
        <ele>1981</ele>
        <time>2019-07-08T18:54:30Z</time>
      </trkpt>
      <trkpt lat="45.21701" lon="6.9676">
        <ele>1974</ele>
        <time>2019-07-08T18:54:37Z</time>
      </trkpt>
      <trkpt lat="45.21707" lon="6.96751">
        <ele>1973</ele>
        <time>2019-07-08T18:54:39Z</time>
      </trkpt>
      <trkpt lat="45.21715" lon="6.96745">
        <ele>1972</ele>
        <time>2019-07-08T18:54:40Z</time>
      </trkpt>
      <trkpt lat="45.2173" lon="6.96741">
        <ele>1973</ele>
        <time>2019-07-08T18:54:43Z</time>
      </trkpt>
      <trkpt lat="45.21738" lon="6.96742">
        <ele>1974</ele>
        <time>2019-07-08T18:54:44Z</time>
      </trkpt>
      <trkpt lat="45.2182" lon="6.96766">
        <ele>1972</ele>
        <time>2019-07-08T18:54:59Z</time>
      </trkpt>
      <trkpt lat="45.21829" lon="6.96767">
        <ele>1971</ele>
        <time>2019-07-08T18:55:01Z</time>
      </trkpt>
      <trkpt lat="45.21851" lon="6.96766">
        <ele>1972</ele>
        <time>2019-07-08T18:55:05Z</time>
      </trkpt>
      <trkpt lat="45.21864" lon="6.96763">
        <ele>1972</ele>
        <time>2019-07-08T18:55:07Z</time>
      </trkpt>
      <trkpt lat="45.21897" lon="6.96748">
        <ele>1971</ele>
        <time>2019-07-08T18:55:13Z</time>
      </trkpt>
      <trkpt lat="45.21924" lon="6.96744">
        <ele>1973</ele>
        <time>2019-07-08T18:55:18Z</time>
      </trkpt>
      <trkpt lat="45.21944" lon="6.96738">
        <ele>1975</ele>
        <time>2019-07-08T18:55:22Z</time>
      </trkpt>
      <trkpt lat="45.21953" lon="6.96726">
        <ele>1974</ele>
        <time>2019-07-08T18:55:24Z</time>
      </trkpt>
      <trkpt lat="45.21955" lon="6.96718">
        <ele>1972</ele>
        <time>2019-07-08T18:55:25Z</time>
      </trkpt>
      <trkpt lat="45.21954" lon="6.96704">
        <ele>1970</ele>
        <time>2019-07-08T18:55:27Z</time>
      </trkpt>
      <trkpt lat="45.21951" lon="6.96698">
        <ele>1968</ele>
        <time>2019-07-08T18:55:28Z</time>
      </trkpt>
      <trkpt lat="45.21946" lon="6.96692">
        <ele>1966</ele>
        <time>2019-07-08T18:55:29Z</time>
      </trkpt>
      <trkpt lat="45.21941" lon="6.96691">
        <ele>1965</ele>
        <time>2019-07-08T18:55:30Z</time>
      </trkpt>
      <trkpt lat="45.21894" lon="6.96705">
        <ele>1963</ele>
        <time>2019-07-08T18:55:38Z</time>
      </trkpt>
      <trkpt lat="45.21866" lon="6.96705">
        <ele>1961</ele>
        <time>2019-07-08T18:55:43Z</time>
      </trkpt>
      <trkpt lat="45.21856" lon="6.96703">
        <ele>1960</ele>
        <time>2019-07-08T18:55:45Z</time>
      </trkpt>
      <trkpt lat="45.21839" lon="6.96697">
        <ele>1958</ele>
        <time>2019-07-08T18:55:48Z</time>
      </trkpt>
      <trkpt lat="45.21754" lon="6.96656">
        <ele>1952</ele>
        <time>2019-07-08T18:56:04Z</time>
      </trkpt>
      <trkpt lat="45.21737" lon="6.96651">
        <ele>1951</ele>
        <time>2019-07-08T18:56:07Z</time>
      </trkpt>
      <trkpt lat="45.21703" lon="6.96647">
        <ele>1949</ele>
        <time>2019-07-08T18:56:13Z</time>
      </trkpt>
      <trkpt lat="45.2168" lon="6.96647">
        <ele>1948</ele>
        <time>2019-07-08T18:56:18Z</time>
      </trkpt>
      <trkpt lat="45.21657" lon="6.96651">
        <ele>1948</ele>
        <time>2019-07-08T18:56:22Z</time>
      </trkpt>
      <trkpt lat="45.21537" lon="6.96697">
        <ele>1939</ele>
        <time>2019-07-08T18:56:44Z</time>
      </trkpt>
      <trkpt lat="45.21514" lon="6.96702">
        <ele>1937</ele>
        <time>2019-07-08T18:56:48Z</time>
      </trkpt>
      <trkpt lat="45.21502" lon="6.96701">
        <ele>1935</ele>
        <time>2019-07-08T18:56:50Z</time>
      </trkpt>
      <trkpt lat="45.21482" lon="6.96695">
        <ele>1935</ele>
        <time>2019-07-08T18:56:54Z</time>
      </trkpt>
      <trkpt lat="45.21473" lon="6.96689">
        <ele>1935</ele>
        <time>2019-07-08T18:56:55Z</time>
      </trkpt>
      <trkpt lat="45.21454" lon="6.96671">
        <ele>1935</ele>
        <time>2019-07-08T18:57:00Z</time>
      </trkpt>
      <trkpt lat="45.21446" lon="6.96658">
        <ele>1934</ele>
        <time>2019-07-08T18:57:02Z</time>
      </trkpt>
      <trkpt lat="45.21433" lon="6.9663">
        <ele>1935</ele>
        <time>2019-07-08T18:57:06Z</time>
      </trkpt>
      <trkpt lat="45.21426" lon="6.96598">
        <ele>1935</ele>
        <time>2019-07-08T18:57:10Z</time>
      </trkpt>
      <trkpt lat="45.21424" lon="6.96582">
        <ele>1935</ele>
        <time>2019-07-08T18:57:12Z</time>
      </trkpt>
      <trkpt lat="45.21427" lon="6.96547">
        <ele>1936</ele>
        <time>2019-07-08T18:57:17Z</time>
      </trkpt>
      <trkpt lat="45.21434" lon="6.96521">
        <ele>1936</ele>
        <time>2019-07-08T18:57:20Z</time>
      </trkpt>
      <trkpt lat="45.21477" lon="6.96424">
        <ele>1927</ele>
        <time>2019-07-08T18:57:34Z</time>
      </trkpt>
      <trkpt lat="45.21563" lon="6.96241">
        <ele>1906</ele>
        <time>2019-07-08T18:58:02Z</time>
      </trkpt>
      <trkpt lat="45.2161" lon="6.96145">
        <ele>1898</ele>
        <time>2019-07-08T18:58:17Z</time>
      </trkpt>
      <trkpt lat="45.21628" lon="6.96114">
        <ele>1897</ele>
        <time>2019-07-08T18:58:22Z</time>
      </trkpt>
      <trkpt lat="45.21744" lon="6.95962">
        <ele>1885</ele>
        <time>2019-07-08T18:58:50Z</time>
      </trkpt>
      <trkpt lat="45.2183" lon="6.95843">
        <ele>1876</ele>
        <time>2019-07-08T18:59:11Z</time>
      </trkpt>
      <trkpt lat="45.21849" lon="6.95805">
        <ele>1873</ele>
        <time>2019-07-08T18:59:17Z</time>
      </trkpt>
      <trkpt lat="45.21874" lon="6.95739">
        <ele>1870</ele>
        <time>2019-07-08T18:59:26Z</time>
      </trkpt>
      <trkpt lat="45.21876" lon="6.95721">
        <ele>1871</ele>
        <time>2019-07-08T18:59:29Z</time>
      </trkpt>
      <trkpt lat="45.21871" lon="6.95702">
        <ele>1870</ele>
        <time>2019-07-08T18:59:31Z</time>
      </trkpt>
      <trkpt lat="45.21866" lon="6.95691">
        <ele>1869</ele>
        <time>2019-07-08T18:59:33Z</time>
      </trkpt>
      <trkpt lat="45.21853" lon="6.95675">
        <ele>1867</ele>
        <time>2019-07-08T18:59:36Z</time>
      </trkpt>
      <trkpt lat="45.2183" lon="6.95654">
        <ele>1865</ele>
        <time>2019-07-08T18:59:41Z</time>
      </trkpt>
      <trkpt lat="45.21819" lon="6.95638">
        <ele>1862</ele>
        <time>2019-07-08T18:59:44Z</time>
      </trkpt>
      <trkpt lat="45.21815" lon="6.95628">
        <ele>1862</ele>
        <time>2019-07-08T18:59:45Z</time>
      </trkpt>
      <trkpt lat="45.21787" lon="6.95484">
        <ele>1860</ele>
        <time>2019-07-08T19:00:04Z</time>
      </trkpt>
      <trkpt lat="45.21783" lon="6.95474">
        <ele>1859</ele>
        <time>2019-07-08T19:00:05Z</time>
      </trkpt>
      <trkpt lat="45.2177" lon="6.95458">
        <ele>1856</ele>
        <time>2019-07-08T19:00:08Z</time>
      </trkpt>
      <trkpt lat="45.21742" lon="6.95439">
        <ele>1853</ele>
        <time>2019-07-08T19:00:14Z</time>
      </trkpt>
      <trkpt lat="45.21736" lon="6.95438">
        <ele>1852</ele>
        <time>2019-07-08T19:00:15Z</time>
      </trkpt>
      <trkpt lat="45.21732" lon="6.95437">
        <ele>1851</ele>
        <time>2019-07-08T19:00:16Z</time>
      </trkpt>
      <trkpt lat="45.21722" lon="6.95442">
        <ele>1849</ele>
        <time>2019-07-08T19:00:17Z</time>
      </trkpt>
      <trkpt lat="45.21717" lon="6.95448">
        <ele>1848</ele>
        <time>2019-07-08T19:00:19Z</time>
      </trkpt>
      <trkpt lat="45.21715" lon="6.95456">
        <ele>1848</ele>
        <time>2019-07-08T19:00:20Z</time>
      </trkpt>
      <trkpt lat="45.21714" lon="6.95475">
        <ele>1847</ele>
        <time>2019-07-08T19:00:22Z</time>
      </trkpt>
      <trkpt lat="45.21721" lon="6.95526">
        <ele>1844</ele>
        <time>2019-07-08T19:00:29Z</time>
      </trkpt>
      <trkpt lat="45.21719" lon="6.95538">
        <ele>1843</ele>
        <time>2019-07-08T19:00:30Z</time>
      </trkpt>
      <trkpt lat="45.21715" lon="6.95542">
        <ele>1841</ele>
        <time>2019-07-08T19:00:31Z</time>
      </trkpt>
      <trkpt lat="45.21704" lon="6.95544">
        <ele>1839</ele>
        <time>2019-07-08T19:00:33Z</time>
      </trkpt>
      <trkpt lat="45.21658" lon="6.95529">
        <ele>1831</ele>
        <time>2019-07-08T19:00:41Z</time>
      </trkpt>
      <trkpt lat="45.21651" lon="6.95525">
        <ele>1829</ele>
        <time>2019-07-08T19:00:43Z</time>
      </trkpt>
      <trkpt lat="45.21642" lon="6.95512">
        <ele>1829</ele>
        <time>2019-07-08T19:00:45Z</time>
      </trkpt>
      <trkpt lat="45.21638" lon="6.95502">
        <ele>1830</ele>
        <time>2019-07-08T19:00:46Z</time>
      </trkpt>
      <trkpt lat="45.21636" lon="6.9549">
        <ele>1830</ele>
        <time>2019-07-08T19:00:48Z</time>
      </trkpt>
      <trkpt lat="45.21628" lon="6.95423">
        <ele>1832</ele>
        <time>2019-07-08T19:00:56Z</time>
      </trkpt>
      <trkpt lat="45.21625" lon="6.95413">
        <ele>1832</ele>
        <time>2019-07-08T19:00:58Z</time>
      </trkpt>
      <trkpt lat="45.21619" lon="6.95401">
        <ele>1833</ele>
        <time>2019-07-08T19:01:00Z</time>
      </trkpt>
      <trkpt lat="45.21598" lon="6.95375">
        <ele>1834</ele>
        <time>2019-07-08T19:01:05Z</time>
      </trkpt>
      <trkpt lat="45.21595" lon="6.95373">
        <ele>1834</ele>
        <time>2019-07-08T19:01:05Z</time>
      </trkpt>
      <trkpt lat="45.21592" lon="6.95374">
        <ele>1833</ele>
        <time>2019-07-08T19:01:06Z</time>
      </trkpt>
      <trkpt lat="45.21588" lon="6.95378">
        <ele>1832</ele>
        <time>2019-07-08T19:01:07Z</time>
      </trkpt>
      <trkpt lat="45.21588" lon="6.95387">
        <ele>1830</ele>
        <time>2019-07-08T19:01:08Z</time>
      </trkpt>
      <trkpt lat="45.21601" lon="6.95417">
        <ele>1827</ele>
        <time>2019-07-08T19:01:12Z</time>
      </trkpt>
      <trkpt lat="45.21608" lon="6.95442">
        <ele>1825</ele>
        <time>2019-07-08T19:01:16Z</time>
      </trkpt>
      <trkpt lat="45.21609" lon="6.95472">
        <ele>1822</ele>
        <time>2019-07-08T19:01:19Z</time>
      </trkpt>
      <trkpt lat="45.21607" lon="6.95523">
        <ele>1812</ele>
        <time>2019-07-08T19:01:26Z</time>
      </trkpt>
      <trkpt lat="45.2161" lon="6.95547">
        <ele>1806</ele>
        <time>2019-07-08T19:01:29Z</time>
      </trkpt>
      <trkpt lat="45.21617" lon="6.95564">
        <ele>1804</ele>
        <time>2019-07-08T19:01:31Z</time>
      </trkpt>
      <trkpt lat="45.21622" lon="6.95572">
        <ele>1804</ele>
        <time>2019-07-08T19:01:33Z</time>
      </trkpt>
      <trkpt lat="45.21682" lon="6.95638">
        <ele>1814</ele>
        <time>2019-07-08T19:01:46Z</time>
      </trkpt>
      <trkpt lat="45.21688" lon="6.95648">
        <ele>1813</ele>
        <time>2019-07-08T19:01:48Z</time>
      </trkpt>
      <trkpt lat="45.21693" lon="6.95668">
        <ele>1811</ele>
        <time>2019-07-08T19:01:50Z</time>
      </trkpt>
      <trkpt lat="45.21694" lon="6.95679">
        <ele>1813</ele>
        <time>2019-07-08T19:01:52Z</time>
      </trkpt>
      <trkpt lat="45.21692" lon="6.95695">
        <ele>1814</ele>
        <time>2019-07-08T19:01:54Z</time>
      </trkpt>
      <trkpt lat="45.21685" lon="6.95708">
        <ele>1814</ele>
        <time>2019-07-08T19:01:56Z</time>
      </trkpt>
      <trkpt lat="45.21637" lon="6.95744">
        <ele>1799</ele>
        <time>2019-07-08T19:02:06Z</time>
      </trkpt>
      <trkpt lat="45.21631" lon="6.95743">
        <ele>1796</ele>
        <time>2019-07-08T19:02:07Z</time>
      </trkpt>
      <trkpt lat="45.21629" lon="6.9574">
        <ele>1795</ele>
        <time>2019-07-08T19:02:07Z</time>
      </trkpt>
      <trkpt lat="45.21627" lon="6.95735">
        <ele>1793</ele>
        <time>2019-07-08T19:02:08Z</time>
      </trkpt>
      <trkpt lat="45.21627" lon="6.95729">
        <ele>1792</ele>
        <time>2019-07-08T19:02:09Z</time>
      </trkpt>
      <trkpt lat="45.2163" lon="6.95724">
        <ele>1793</ele>
        <time>2019-07-08T19:02:09Z</time>
      </trkpt>
      <trkpt lat="45.2165" lon="6.95708">
        <ele>1801</ele>
        <time>2019-07-08T19:02:14Z</time>
      </trkpt>
      <trkpt lat="45.21658" lon="6.95691">
        <ele>1802</ele>
        <time>2019-07-08T19:02:16Z</time>
      </trkpt>
      <trkpt lat="45.21659" lon="6.95675">
        <ele>1800</ele>
        <time>2019-07-08T19:02:18Z</time>
      </trkpt>
      <trkpt lat="45.21653" lon="6.95658">
        <ele>1798</ele>
        <time>2019-07-08T19:02:20Z</time>
      </trkpt>
      <trkpt lat="45.21642" lon="6.95647">
        <ele>1796</ele>
        <time>2019-07-08T19:02:23Z</time>
      </trkpt>
      <trkpt lat="45.21611" lon="6.95622">
        <ele>1787</ele>
        <time>2019-07-08T19:02:29Z</time>
      </trkpt>
      <trkpt lat="45.21602" lon="6.95611">
        <ele>1786</ele>
        <time>2019-07-08T19:02:31Z</time>
      </trkpt>
      <trkpt lat="45.21584" lon="6.9558">
        <ele>1783</ele>
        <time>2019-07-08T19:02:36Z</time>
      </trkpt>
      <trkpt lat="45.21534" lon="6.95515">
        <ele>1780</ele>
        <time>2019-07-08T19:02:48Z</time>
      </trkpt>
      <trkpt lat="45.21514" lon="6.95494">
        <ele>1774</ele>
        <time>2019-07-08T19:02:53Z</time>
      </trkpt>
      <trkpt lat="45.21497" lon="6.95468">
        <ele>1770</ele>
        <time>2019-07-08T19:02:57Z</time>
      </trkpt>
      <trkpt lat="45.2149" lon="6.9546">
        <ele>1770</ele>
        <time>2019-07-08T19:02:59Z</time>
      </trkpt>
      <trkpt lat="45.21486" lon="6.95459">
        <ele>1768</ele>
        <time>2019-07-08T19:03:00Z</time>
      </trkpt>
      <trkpt lat="45.21482" lon="6.95463">
        <ele>1766</ele>
        <time>2019-07-08T19:03:00Z</time>
      </trkpt>
      <trkpt lat="45.21481" lon="6.9547">
        <ele>1765</ele>
        <time>2019-07-08T19:03:01Z</time>
      </trkpt>
      <trkpt lat="45.21482" lon="6.95475">
        <ele>1764</ele>
        <time>2019-07-08T19:03:02Z</time>
      </trkpt>
      <trkpt lat="45.21497" lon="6.95495">
        <ele>1765</ele>
        <time>2019-07-08T19:03:06Z</time>
      </trkpt>
      <trkpt lat="45.21521" lon="6.95521">
        <ele>1772</ele>
        <time>2019-07-08T19:03:11Z</time>
      </trkpt>
      <trkpt lat="45.21558" lon="6.95584">
        <ele>1772</ele>
        <time>2019-07-08T19:03:21Z</time>
      </trkpt>
      <trkpt lat="45.21581" lon="6.95634">
        <ele>1771</ele>
        <time>2019-07-08T19:03:29Z</time>
      </trkpt>
      <trkpt lat="45.2159" lon="6.95667">
        <ele>1769</ele>
        <time>2019-07-08T19:03:33Z</time>
      </trkpt>
      <trkpt lat="45.2159" lon="6.95687">
        <ele>1771</ele>
        <time>2019-07-08T19:03:36Z</time>
      </trkpt>
      <trkpt lat="45.21589" lon="6.95701">
        <ele>1772</ele>
        <time>2019-07-08T19:03:38Z</time>
      </trkpt>
      <trkpt lat="45.21584" lon="6.95718">
        <ele>1771</ele>
        <time>2019-07-08T19:03:40Z</time>
      </trkpt>
      <trkpt lat="45.21573" lon="6.95747">
        <ele>1770</ele>
        <time>2019-07-08T19:03:44Z</time>
      </trkpt>
      <trkpt lat="45.21563" lon="6.9577">
        <ele>1774</ele>
        <time>2019-07-08T19:03:47Z</time>
      </trkpt>
      <trkpt lat="45.21548" lon="6.95797">
        <ele>1776</ele>
        <time>2019-07-08T19:03:52Z</time>
      </trkpt>
      <trkpt lat="45.21542" lon="6.95801">
        <ele>1775</ele>
        <time>2019-07-08T19:03:53Z</time>
      </trkpt>
      <trkpt lat="45.21537" lon="6.95799">
        <ele>1772</ele>
        <time>2019-07-08T19:03:54Z</time>
      </trkpt>
      <trkpt lat="45.21535" lon="6.95791">
        <ele>1769</ele>
        <time>2019-07-08T19:03:55Z</time>
      </trkpt>
      <trkpt lat="45.21535" lon="6.95785">
        <ele>1767</ele>
        <time>2019-07-08T19:03:56Z</time>
      </trkpt>
      <trkpt lat="45.21558" lon="6.95705">
        <ele>1761</ele>
        <time>2019-07-08T19:04:06Z</time>
      </trkpt>
      <trkpt lat="45.21558" lon="6.9568">
        <ele>1759</ele>
        <time>2019-07-08T19:04:10Z</time>
      </trkpt>
      <trkpt lat="45.21552" lon="6.95663">
        <ele>1757</ele>
        <time>2019-07-08T19:04:12Z</time>
      </trkpt>
      <trkpt lat="45.21498" lon="6.95592">
        <ele>1748</ele>
        <time>2019-07-08T19:04:25Z</time>
      </trkpt>
      <trkpt lat="45.21486" lon="6.95584">
        <ele>1747</ele>
        <time>2019-07-08T19:04:27Z</time>
      </trkpt>
      <trkpt lat="45.21472" lon="6.95581">
        <ele>1745</ele>
        <time>2019-07-08T19:04:30Z</time>
      </trkpt>
      <trkpt lat="45.21464" lon="6.95582">
        <ele>1743</ele>
        <time>2019-07-08T19:04:31Z</time>
      </trkpt>
      <trkpt lat="45.21442" lon="6.95593">
        <ele>1739</ele>
        <time>2019-07-08T19:04:35Z</time>
      </trkpt>
      <trkpt lat="45.20719" lon="6.96071">
        <ele>1731</ele>
        <time>2019-07-08T19:06:57Z</time>
      </trkpt>
      <trkpt lat="45.20704" lon="6.96083">
        <ele>1731</ele>
        <time>2019-07-08T19:07:00Z</time>
      </trkpt>
      <trkpt lat="45.20668" lon="6.96116">
        <ele>1727</ele>
        <time>2019-07-08T19:07:08Z</time>
      </trkpt>
      <trkpt lat="45.20639" lon="6.96154">
        <ele>1724</ele>
        <time>2019-07-08T19:07:15Z</time>
      </trkpt>
      <trkpt lat="45.20587" lon="6.96252">
        <ele>1713</ele>
        <time>2019-07-08T19:07:30Z</time>
      </trkpt>
      <trkpt lat="45.20562" lon="6.96277">
        <ele>1715</ele>
        <time>2019-07-08T19:07:36Z</time>
      </trkpt>
      <trkpt lat="45.20538" lon="6.96296">
        <ele>1718</ele>
        <time>2019-07-08T19:07:41Z</time>
      </trkpt>
      <trkpt lat="45.20512" lon="6.96322">
        <ele>1718</ele>
        <time>2019-07-08T19:07:46Z</time>
      </trkpt>
      <trkpt lat="45.20499" lon="6.96341">
        <ele>1716</ele>
        <time>2019-07-08T19:07:50Z</time>
      </trkpt>
      <trkpt lat="45.20481" lon="6.96374">
        <ele>1717</ele>
        <time>2019-07-08T19:07:55Z</time>
      </trkpt>
      <trkpt lat="45.20473" lon="6.96395">
        <ele>1716</ele>
        <time>2019-07-08T19:07:58Z</time>
      </trkpt>
      <trkpt lat="45.2046" lon="6.96434">
        <ele>1714</ele>
        <time>2019-07-08T19:08:03Z</time>
      </trkpt>
      <trkpt lat="45.20448" lon="6.96475">
        <ele>1713</ele>
        <time>2019-07-08T19:08:09Z</time>
      </trkpt>
      <trkpt lat="45.2039" lon="6.96709">
        <ele>1690</ele>
        <time>2019-07-08T19:08:40Z</time>
      </trkpt>
      <trkpt lat="45.20381" lon="6.9673">
        <ele>1688</ele>
        <time>2019-07-08T19:08:43Z</time>
      </trkpt>
      <trkpt lat="45.20377" lon="6.96736">
        <ele>1687</ele>
        <time>2019-07-08T19:08:44Z</time>
      </trkpt>
      <trkpt lat="45.20362" lon="6.9675">
        <ele>1686</ele>
        <time>2019-07-08T19:08:47Z</time>
      </trkpt>
      <trkpt lat="45.20261" lon="6.96821">
        <ele>1688</ele>
        <time>2019-07-08T19:09:07Z</time>
      </trkpt>
      <trkpt lat="45.20252" lon="6.96835">
        <ele>1686</ele>
        <time>2019-07-08T19:09:10Z</time>
      </trkpt>
      <trkpt lat="45.20219" lon="6.96929">
        <ele>1678</ele>
        <time>2019-07-08T19:09:23Z</time>
      </trkpt>
      <trkpt lat="45.20206" lon="6.96954">
        <ele>1675</ele>
        <time>2019-07-08T19:09:27Z</time>
      </trkpt>
      <trkpt lat="45.20156" lon="6.97015">
        <ele>1672</ele>
        <time>2019-07-08T19:09:39Z</time>
      </trkpt>
      <trkpt lat="45.20055" lon="6.97147">
        <ele>1669</ele>
        <time>2019-07-08T19:10:03Z</time>
      </trkpt>
      <trkpt lat="45.2004" lon="6.97172">
        <ele>1667</ele>
        <time>2019-07-08T19:10:07Z</time>
      </trkpt>
      <trkpt lat="45.20022" lon="6.97233">
        <ele>1658</ele>
        <time>2019-07-08T19:10:15Z</time>
      </trkpt>
      <trkpt lat="45.19976" lon="6.97409">
        <ele>1649</ele>
        <time>2019-07-08T19:10:39Z</time>
      </trkpt>
      <trkpt lat="45.19973" lon="6.97426">
        <ele>1648</ele>
        <time>2019-07-08T19:10:41Z</time>
      </trkpt>
      <trkpt lat="45.19971" lon="6.97444">
        <ele>1647</ele>
        <time>2019-07-08T19:10:43Z</time>
      </trkpt>
      <trkpt lat="45.19973" lon="6.97504">
        <ele>1637</ele>
        <time>2019-07-08T19:10:51Z</time>
      </trkpt>
      <trkpt lat="45.19969" lon="6.97538">
        <ele>1634</ele>
        <time>2019-07-08T19:10:55Z</time>
      </trkpt>
      <trkpt lat="45.19921" lon="6.97726">
        <ele>1622</ele>
        <time>2019-07-08T19:11:20Z</time>
      </trkpt>
      <trkpt lat="45.19913" lon="6.97747">
        <ele>1621</ele>
        <time>2019-07-08T19:11:23Z</time>
      </trkpt>
      <trkpt lat="45.19902" lon="6.97767">
        <ele>1619</ele>
        <time>2019-07-08T19:11:27Z</time>
      </trkpt>
      <trkpt lat="45.19892" lon="6.97783">
        <ele>1618</ele>
        <time>2019-07-08T19:11:29Z</time>
      </trkpt>
      <trkpt lat="45.1988" lon="6.97797">
        <ele>1618</ele>
        <time>2019-07-08T19:11:32Z</time>
      </trkpt>
      <trkpt lat="45.19857" lon="6.97817">
        <ele>1619</ele>
        <time>2019-07-08T19:11:37Z</time>
      </trkpt>
      <trkpt lat="45.19843" lon="6.97835">
        <ele>1618</ele>
        <time>2019-07-08T19:11:40Z</time>
      </trkpt>
      <trkpt lat="45.19837" lon="6.97855">
        <ele>1616</ele>
        <time>2019-07-08T19:11:43Z</time>
      </trkpt>
      <trkpt lat="45.19824" lon="6.97925">
        <ele>1608</ele>
        <time>2019-07-08T19:11:52Z</time>
      </trkpt>
      <trkpt lat="45.19817" lon="6.97948">
        <ele>1605</ele>
        <time>2019-07-08T19:11:55Z</time>
      </trkpt>
      <trkpt lat="45.19806" lon="6.97973">
        <ele>1601</ele>
        <time>2019-07-08T19:11:59Z</time>
      </trkpt>
      <trkpt lat="45.19798" lon="6.97983">
        <ele>1600</ele>
        <time>2019-07-08T19:12:01Z</time>
      </trkpt>
      <trkpt lat="45.19788" lon="6.97991">
        <ele>1599</ele>
        <time>2019-07-08T19:12:03Z</time>
      </trkpt>
      <trkpt lat="45.19744" lon="6.98007">
        <ele>1603</ele>
        <time>2019-07-08T19:12:11Z</time>
      </trkpt>
      <trkpt lat="45.19733" lon="6.98015">
        <ele>1606</ele>
        <time>2019-07-08T19:12:13Z</time>
      </trkpt>
      <trkpt lat="45.19723" lon="6.98026">
        <ele>1608</ele>
        <time>2019-07-08T19:12:15Z</time>
      </trkpt>
      <trkpt lat="45.19716" lon="6.98037">
        <ele>1608</ele>
        <time>2019-07-08T19:12:17Z</time>
      </trkpt>
      <trkpt lat="45.1971" lon="6.98053">
        <ele>1606</ele>
        <time>2019-07-08T19:12:19Z</time>
      </trkpt>
      <trkpt lat="45.19702" lon="6.98086">
        <ele>1600</ele>
        <time>2019-07-08T19:12:24Z</time>
      </trkpt>
      <trkpt lat="45.19698" lon="6.98145">
        <ele>1593</ele>
        <time>2019-07-08T19:12:31Z</time>
      </trkpt>
      <trkpt lat="45.19697" lon="6.98163">
        <ele>1591</ele>
        <time>2019-07-08T19:12:33Z</time>
      </trkpt>
      <trkpt lat="45.19698" lon="6.98179">
        <ele>1589</ele>
        <time>2019-07-08T19:12:36Z</time>
      </trkpt>
      <trkpt lat="45.19708" lon="6.98235">
        <ele>1577</ele>
        <time>2019-07-08T19:12:43Z</time>
      </trkpt>
      <trkpt lat="45.19707" lon="6.98263">
        <ele>1574</ele>
        <time>2019-07-08T19:12:46Z</time>
      </trkpt>
      <trkpt lat="45.19699" lon="6.98288">
        <ele>1573</ele>
        <time>2019-07-08T19:12:50Z</time>
      </trkpt>
      <trkpt lat="45.19661" lon="6.98374">
        <ele>1569</ele>
        <time>2019-07-08T19:13:02Z</time>
      </trkpt>
      <trkpt lat="45.19657" lon="6.98381">
        <ele>1568</ele>
        <time>2019-07-08T19:13:04Z</time>
      </trkpt>
      <trkpt lat="45.19645" lon="6.9839">
        <ele>1567</ele>
        <time>2019-07-08T19:13:06Z</time>
      </trkpt>
      <trkpt lat="45.19611" lon="6.98399">
        <ele>1567</ele>
        <time>2019-07-08T19:13:12Z</time>
      </trkpt>
      <trkpt lat="45.19602" lon="6.98404">
        <ele>1566</ele>
        <time>2019-07-08T19:13:14Z</time>
      </trkpt>
      <trkpt lat="45.19587" lon="6.98418">
        <ele>1564</ele>
        <time>2019-07-08T19:13:17Z</time>
      </trkpt>
      <trkpt lat="45.19567" lon="6.98447">
        <ele>1560</ele>
        <time>2019-07-08T19:13:22Z</time>
      </trkpt>
      <trkpt lat="45.19553" lon="6.9846">
        <ele>1558</ele>
        <time>2019-07-08T19:13:25Z</time>
      </trkpt>
      <trkpt lat="45.19493" lon="6.98499">
        <ele>1550</ele>
        <time>2019-07-08T19:13:37Z</time>
      </trkpt>
      <trkpt lat="45.19479" lon="6.98499">
        <ele>1550</ele>
        <time>2019-07-08T19:13:39Z</time>
      </trkpt>
      <trkpt lat="45.19454" lon="6.98491">
        <ele>1551</ele>
        <time>2019-07-08T19:13:44Z</time>
      </trkpt>
      <trkpt lat="45.19443" lon="6.98489">
        <ele>1551</ele>
        <time>2019-07-08T19:13:46Z</time>
      </trkpt>
      <trkpt lat="45.19436" lon="6.9849">
        <ele>1551</ele>
        <time>2019-07-08T19:13:47Z</time>
      </trkpt>
      <trkpt lat="45.19423" lon="6.98497">
        <ele>1548</ele>
        <time>2019-07-08T19:13:50Z</time>
      </trkpt>
      <trkpt lat="45.19398" lon="6.98525">
        <ele>1543</ele>
        <time>2019-07-08T19:13:55Z</time>
      </trkpt>
      <trkpt lat="45.1939" lon="6.9853">
        <ele>1541</ele>
        <time>2019-07-08T19:13:57Z</time>
      </trkpt>
      <trkpt lat="45.19376" lon="6.98533">
        <ele>1540</ele>
        <time>2019-07-08T19:13:59Z</time>
      </trkpt>
      <trkpt lat="45.1933" lon="6.98528">
        <ele>1539</ele>
        <time>2019-07-08T19:14:08Z</time>
      </trkpt>
      <trkpt lat="45.19314" lon="6.98529">
        <ele>1538</ele>
        <time>2019-07-08T19:14:10Z</time>
      </trkpt>
      <trkpt lat="45.19307" lon="6.98533">
        <ele>1537</ele>
        <time>2019-07-08T19:14:12Z</time>
      </trkpt>
      <trkpt lat="45.19279" lon="6.98554">
        <ele>1532</ele>
        <time>2019-07-08T19:14:17Z</time>
      </trkpt>
      <trkpt lat="45.1927" lon="6.98557">
        <ele>1531</ele>
        <time>2019-07-08T19:14:19Z</time>
      </trkpt>
      <trkpt lat="45.19246" lon="6.98557">
        <ele>1529</ele>
        <time>2019-07-08T19:14:23Z</time>
      </trkpt>
      <trkpt lat="45.19235" lon="6.98553">
        <ele>1527</ele>
        <time>2019-07-08T19:14:25Z</time>
      </trkpt>
      <trkpt lat="45.1922" lon="6.98543">
        <ele>1525</ele>
        <time>2019-07-08T19:14:28Z</time>
      </trkpt>
      <trkpt lat="45.19196" lon="6.98508">
        <ele>1522</ele>
        <time>2019-07-08T19:14:34Z</time>
      </trkpt>
      <trkpt lat="45.19167" lon="6.98476">
        <ele>1520</ele>
        <time>2019-07-08T19:14:41Z</time>
      </trkpt>
      <trkpt lat="45.19149" lon="6.98437">
        <ele>1519</ele>
        <time>2019-07-08T19:14:47Z</time>
      </trkpt>
      <trkpt lat="45.19119" lon="6.98401">
        <ele>1509</ele>
        <time>2019-07-08T19:14:54Z</time>
      </trkpt>
      <trkpt lat="45.19107" lon="6.98378">
        <ele>1506</ele>
        <time>2019-07-08T19:14:57Z</time>
      </trkpt>
      <trkpt lat="45.19101" lon="6.98359">
        <ele>1505</ele>
        <time>2019-07-08T19:15:00Z</time>
      </trkpt>
      <trkpt lat="45.19092" lon="6.98308">
        <ele>1507</ele>
        <time>2019-07-08T19:15:07Z</time>
      </trkpt>
      <trkpt lat="45.19083" lon="6.98269">
        <ele>1508</ele>
        <time>2019-07-08T19:15:12Z</time>
      </trkpt>
      <trkpt lat="45.19025" lon="6.98089">
        <ele>1491</ele>
        <time>2019-07-08T19:15:37Z</time>
      </trkpt>
      <trkpt lat="45.19022" lon="6.98067">
        <ele>1490</ele>
        <time>2019-07-08T19:15:39Z</time>
      </trkpt>
      <trkpt lat="45.19025" lon="6.97996">
        <ele>1495</ele>
        <time>2019-07-08T19:15:48Z</time>
      </trkpt>
      <trkpt lat="45.19024" lon="6.97979">
        <ele>1495</ele>
        <time>2019-07-08T19:15:50Z</time>
      </trkpt>
      <trkpt lat="45.19015" lon="6.97921">
        <ele>1490</ele>
        <time>2019-07-08T19:15:58Z</time>
      </trkpt>
      <trkpt lat="45.19007" lon="6.97888">
        <ele>1489</ele>
        <time>2019-07-08T19:16:02Z</time>
      </trkpt>
      <trkpt lat="45.19002" lon="6.97874">
        <ele>1488</ele>
        <time>2019-07-08T19:16:04Z</time>
      </trkpt>
      <trkpt lat="45.18991" lon="6.97851">
        <ele>1489</ele>
        <time>2019-07-08T19:16:08Z</time>
      </trkpt>
      <trkpt lat="45.18968" lon="6.97821">
        <ele>1489</ele>
        <time>2019-07-08T19:16:13Z</time>
      </trkpt>
      <trkpt lat="45.18924" lon="6.97768">
        <ele>1484</ele>
        <time>2019-07-08T19:16:23Z</time>
      </trkpt>
      <trkpt lat="45.18912" lon="6.97759">
        <ele>1482</ele>
        <time>2019-07-08T19:16:26Z</time>
      </trkpt>
      <trkpt lat="45.18893" lon="6.97753">
        <ele>1484</ele>
        <time>2019-07-08T19:16:29Z</time>
      </trkpt>
      <trkpt lat="45.18886" lon="6.97756">
        <ele>1484</ele>
        <time>2019-07-08T19:16:31Z</time>
      </trkpt>
      <trkpt lat="45.18882" lon="6.9776">
        <ele>1484</ele>
        <time>2019-07-08T19:16:32Z</time>
      </trkpt>
      <trkpt lat="45.18879" lon="6.97772">
        <ele>1483</ele>
        <time>2019-07-08T19:16:33Z</time>
      </trkpt>
      <trkpt lat="45.18883" lon="6.97798">
        <ele>1479</ele>
        <time>2019-07-08T19:16:36Z</time>
      </trkpt>
      <trkpt lat="45.1889" lon="6.97827">
        <ele>1476</ele>
        <time>2019-07-08T19:16:40Z</time>
      </trkpt>
      <trkpt lat="45.18889" lon="6.97838">
        <ele>1474</ele>
        <time>2019-07-08T19:16:42Z</time>
      </trkpt>
      <trkpt lat="45.18868" lon="6.97885">
        <ele>1464</ele>
        <time>2019-07-08T19:16:49Z</time>
      </trkpt>
      <trkpt lat="45.18865" lon="6.9789">
        <ele>1463</ele>
        <time>2019-07-08T19:16:50Z</time>
      </trkpt>
      <trkpt lat="45.18859" lon="6.97893">
        <ele>1462</ele>
        <time>2019-07-08T19:16:51Z</time>
      </trkpt>
      <trkpt lat="45.18775" lon="6.97857">
        <ele>1457</ele>
        <time>2019-07-08T19:17:06Z</time>
      </trkpt>
      <trkpt lat="45.18763" lon="6.97844">
        <ele>1457</ele>
        <time>2019-07-08T19:17:09Z</time>
      </trkpt>
      <trkpt lat="45.1873" lon="6.97794">
        <ele>1466</ele>
        <time>2019-07-08T19:17:18Z</time>
      </trkpt>
      <trkpt lat="45.18725" lon="6.9779">
        <ele>1467</ele>
        <time>2019-07-08T19:17:19Z</time>
      </trkpt>
      <trkpt lat="45.18719" lon="6.97788">
        <ele>1467</ele>
        <time>2019-07-08T19:17:20Z</time>
      </trkpt>
      <trkpt lat="45.18709" lon="6.97788">
        <ele>1467</ele>
        <time>2019-07-08T19:17:21Z</time>
      </trkpt>
      <trkpt lat="45.18702" lon="6.97791">
        <ele>1466</ele>
        <time>2019-07-08T19:17:23Z</time>
      </trkpt>
      <trkpt lat="45.18696" lon="6.97797">
        <ele>1464</ele>
        <time>2019-07-08T19:17:24Z</time>
      </trkpt>
      <trkpt lat="45.1869" lon="6.97807">
        <ele>1462</ele>
        <time>2019-07-08T19:17:26Z</time>
      </trkpt>
      <trkpt lat="45.1867" lon="6.97861">
        <ele>1451</ele>
        <time>2019-07-08T19:17:33Z</time>
      </trkpt>
      <trkpt lat="45.18649" lon="6.97917">
        <ele>1447</ele>
        <time>2019-07-08T19:17:41Z</time>
      </trkpt>
      <trkpt lat="45.18621" lon="6.98005">
        <ele>1439</ele>
        <time>2019-07-08T19:17:53Z</time>
      </trkpt>
      <trkpt lat="45.18615" lon="6.98016">
        <ele>1438</ele>
        <time>2019-07-08T19:17:55Z</time>
      </trkpt>
      <trkpt lat="45.18599" lon="6.98038">
        <ele>1437</ele>
        <time>2019-07-08T19:17:59Z</time>
      </trkpt>
      <trkpt lat="45.18554" lon="6.98077">
        <ele>1442</ele>
        <time>2019-07-08T19:18:08Z</time>
      </trkpt>
      <trkpt lat="45.18542" lon="6.98093">
        <ele>1443</ele>
        <time>2019-07-08T19:18:11Z</time>
      </trkpt>
      <trkpt lat="45.18534" lon="6.98112">
        <ele>1442</ele>
        <time>2019-07-08T19:18:14Z</time>
      </trkpt>
      <trkpt lat="45.18508" lon="6.98221">
        <ele>1429</ele>
        <time>2019-07-08T19:18:29Z</time>
      </trkpt>
      <trkpt lat="45.18503" lon="6.9826">
        <ele>1424</ele>
        <time>2019-07-08T19:18:34Z</time>
      </trkpt>
      <trkpt lat="45.18499" lon="6.98373">
        <ele>1412</ele>
        <time>2019-07-08T19:18:48Z</time>
      </trkpt>
      <trkpt lat="45.18496" lon="6.98391">
        <ele>1411</ele>
        <time>2019-07-08T19:18:50Z</time>
      </trkpt>
      <trkpt lat="45.1849" lon="6.9841">
        <ele>1411</ele>
        <time>2019-07-08T19:18:53Z</time>
      </trkpt>
      <trkpt lat="45.18472" lon="6.98456">
        <ele>1411</ele>
        <time>2019-07-08T19:18:59Z</time>
      </trkpt>
      <trkpt lat="45.18469" lon="6.98469">
        <ele>1411</ele>
        <time>2019-07-08T19:19:01Z</time>
      </trkpt>
      <trkpt lat="45.18468" lon="6.98521">
        <ele>1405</ele>
        <time>2019-07-08T19:19:08Z</time>
      </trkpt>
      <trkpt lat="45.18463" lon="6.98558">
        <ele>1402</ele>
        <time>2019-07-08T19:19:12Z</time>
      </trkpt>
      <trkpt lat="45.18458" lon="6.98576">
        <ele>1402</ele>
        <time>2019-07-08T19:19:15Z</time>
      </trkpt>
      <trkpt lat="45.18446" lon="6.98606">
        <ele>1400</ele>
        <time>2019-07-08T19:19:19Z</time>
      </trkpt>
      <trkpt lat="45.18381" lon="6.98743">
        <ele>1389</ele>
        <time>2019-07-08T19:19:40Z</time>
      </trkpt>
      <trkpt lat="45.18373" lon="6.98755">
        <ele>1387</ele>
        <time>2019-07-08T19:19:42Z</time>
      </trkpt>
      <trkpt lat="45.18365" lon="6.98762">
        <ele>1387</ele>
        <time>2019-07-08T19:19:43Z</time>
      </trkpt>
      <trkpt lat="45.18358" lon="6.98764">
        <ele>1389</ele>
        <time>2019-07-08T19:19:45Z</time>
      </trkpt>
      <trkpt lat="45.18326" lon="6.98761">
        <ele>1399</ele>
        <time>2019-07-08T19:19:50Z</time>
      </trkpt>
      <trkpt lat="45.18316" lon="6.98765">
        <ele>1402</ele>
        <time>2019-07-08T19:19:52Z</time>
      </trkpt>
      <trkpt lat="45.18306" lon="6.98778">
        <ele>1403</ele>
        <time>2019-07-08T19:19:55Z</time>
      </trkpt>
      <trkpt lat="45.18302" lon="6.98793">
        <ele>1401</ele>
        <time>2019-07-08T19:19:57Z</time>
      </trkpt>
      <trkpt lat="45.18303" lon="6.98816">
        <ele>1395</ele>
        <time>2019-07-08T19:20:00Z</time>
      </trkpt>
      <trkpt lat="45.18319" lon="6.98878">
        <ele>1377</ele>
        <time>2019-07-08T19:20:08Z</time>
      </trkpt>
      <trkpt lat="45.18319" lon="6.989">
        <ele>1374</ele>
        <time>2019-07-08T19:20:11Z</time>
      </trkpt>
      <trkpt lat="45.18312" lon="6.9893">
        <ele>1373</ele>
        <time>2019-07-08T19:20:15Z</time>
      </trkpt>
      <trkpt lat="45.18201" lon="6.99173">
        <ele>1358</ele>
        <time>2019-07-08T19:20:51Z</time>
      </trkpt>
      <trkpt lat="45.1819" lon="6.99199">
        <ele>1357</ele>
        <time>2019-07-08T19:20:55Z</time>
      </trkpt>
      <trkpt lat="45.18173" lon="6.99251">
        <ele>1352</ele>
        <time>2019-07-08T19:21:02Z</time>
      </trkpt>
      <trkpt lat="45.18148" lon="6.99356">
        <ele>1342</ele>
        <time>2019-07-08T19:21:16Z</time>
      </trkpt>
      <trkpt lat="45.18134" lon="6.9941">
        <ele>1335</ele>
        <time>2019-07-08T19:21:23Z</time>
      </trkpt>
      <trkpt lat="45.18124" lon="6.99438">
        <ele>1332</ele>
        <time>2019-07-08T19:21:27Z</time>
      </trkpt>
      <trkpt lat="45.18102" lon="6.99491">
        <ele>1326</ele>
        <time>2019-07-08T19:21:35Z</time>
      </trkpt>
      <trkpt lat="45.18089" lon="6.99518">
        <ele>1323</ele>
        <time>2019-07-08T19:21:39Z</time>
      </trkpt>
      <trkpt lat="45.18065" lon="6.99561">
        <ele>1314</ele>
        <time>2019-07-08T19:21:46Z</time>
      </trkpt>
      <trkpt lat="45.18057" lon="6.99573">
        <ele>1310</ele>
        <time>2019-07-08T19:21:48Z</time>
      </trkpt>
      <trkpt lat="45.1805" lon="6.99579">
        <ele>1309</ele>
        <time>2019-07-08T19:21:49Z</time>
      </trkpt>
      <trkpt lat="45.18026" lon="6.99584">
        <ele>1307</ele>
        <time>2019-07-08T19:21:54Z</time>
      </trkpt>
      <trkpt lat="45.17984" lon="6.99576">
        <ele>1309</ele>
        <time>2019-07-08T19:22:01Z</time>
      </trkpt>
      <trkpt lat="45.17973" lon="6.9957">
        <ele>1310</ele>
        <time>2019-07-08T19:22:03Z</time>
      </trkpt>
      <trkpt lat="45.17948" lon="6.99544">
        <ele>1318</ele>
        <time>2019-07-08T19:22:09Z</time>
      </trkpt>
      <trkpt lat="45.17931" lon="6.99532">
        <ele>1322</ele>
        <time>2019-07-08T19:22:12Z</time>
      </trkpt>
      <trkpt lat="45.17911" lon="6.99529">
        <ele>1323</ele>
        <time>2019-07-08T19:22:16Z</time>
      </trkpt>
      <trkpt lat="45.17888" lon="6.99532">
        <ele>1324</ele>
        <time>2019-07-08T19:22:20Z</time>
      </trkpt>
      <trkpt lat="45.17875" lon="6.99536">
        <ele>1323</ele>
        <time>2019-07-08T19:22:22Z</time>
      </trkpt>
      <trkpt lat="45.17839" lon="6.99572">
        <ele>1311</ele>
        <time>2019-07-08T19:22:30Z</time>
      </trkpt>
      <trkpt lat="45.17814" lon="6.99592">
        <ele>1306</ele>
        <time>2019-07-08T19:22:35Z</time>
      </trkpt>
      <trkpt lat="45.1777" lon="6.99616">
        <ele>1301</ele>
        <time>2019-07-08T19:22:43Z</time>
      </trkpt>
      <trkpt lat="45.17715" lon="6.9964">
        <ele>1295</ele>
        <time>2019-07-08T19:22:54Z</time>
      </trkpt>
      <trkpt lat="45.17641" lon="6.99686">
        <ele>1285</ele>
        <time>2019-07-08T19:23:08Z</time>
      </trkpt>
      <trkpt lat="45.17628" lon="6.99698">
        <ele>1283</ele>
        <time>2019-07-08T19:23:11Z</time>
      </trkpt>
      <trkpt lat="45.17617" lon="6.99713">
        <ele>1281</ele>
        <time>2019-07-08T19:23:14Z</time>
      </trkpt>
      <trkpt lat="45.17587" lon="6.99765">
        <ele>1270</ele>
        <time>2019-07-08T19:23:22Z</time>
      </trkpt>
      <trkpt lat="45.17581" lon="6.99771">
        <ele>1269</ele>
        <time>2019-07-08T19:23:23Z</time>
      </trkpt>
      <trkpt lat="45.17566" lon="6.99776">
        <ele>1269</ele>
        <time>2019-07-08T19:23:26Z</time>
      </trkpt>
      <trkpt lat="45.1754" lon="6.99775">
        <ele>1272</ele>
        <time>2019-07-08T19:23:31Z</time>
      </trkpt>
      <trkpt lat="45.17526" lon="6.9978">
        <ele>1272</ele>
        <time>2019-07-08T19:23:33Z</time>
      </trkpt>
      <trkpt lat="45.17517" lon="6.99788">
        <ele>1270</ele>
        <time>2019-07-08T19:23:35Z</time>
      </trkpt>
      <trkpt lat="45.17417" lon="6.99916">
        <ele>1256</ele>
        <time>2019-07-08T19:23:59Z</time>
      </trkpt>
      <trkpt lat="45.1739" lon="6.99968">
        <ele>1247</ele>
        <time>2019-07-08T19:24:07Z</time>
      </trkpt>
      <trkpt lat="45.1738" lon="6.9998">
        <ele>1245</ele>
        <time>2019-07-08T19:24:09Z</time>
      </trkpt>
      <trkpt lat="45.17369" lon="6.99989">
        <ele>1244</ele>
        <time>2019-07-08T19:24:12Z</time>
      </trkpt>
      <trkpt lat="45.17333" lon="7.00012">
        <ele>1245</ele>
        <time>2019-07-08T19:24:19Z</time>
      </trkpt>
      <trkpt lat="45.17239" lon="7.00057">
        <ele>1238</ele>
        <time>2019-07-08T19:24:36Z</time>
      </trkpt>
      <trkpt lat="45.17163" lon="7.00091">
        <ele>1236</ele>
        <time>2019-07-08T19:24:51Z</time>
      </trkpt>
      <trkpt lat="45.1716" lon="7.00095">
        <ele>1235</ele>
        <time>2019-07-08T19:24:51Z</time>
      </trkpt>
      <trkpt lat="45.17159" lon="7.00101">
        <ele>1233</ele>
        <time>2019-07-08T19:24:52Z</time>
      </trkpt>
      <trkpt lat="45.1716" lon="7.00106">
        <ele>1231</ele>
        <time>2019-07-08T19:24:53Z</time>
      </trkpt>
      <trkpt lat="45.17163" lon="7.0011">
        <ele>1229</ele>
        <time>2019-07-08T19:24:54Z</time>
      </trkpt>
      <trkpt lat="45.17173" lon="7.00111">
        <ele>1228</ele>
        <time>2019-07-08T19:24:55Z</time>
      </trkpt>
      <trkpt lat="45.17213" lon="7.00105">
        <ele>1227</ele>
        <time>2019-07-08T19:25:02Z</time>
      </trkpt>
      <trkpt lat="45.17235" lon="7.00105">
        <ele>1225</ele>
        <time>2019-07-08T19:25:06Z</time>
      </trkpt>
      <trkpt lat="45.17259" lon="7.00113">
        <ele>1221</ele>
        <time>2019-07-08T19:25:11Z</time>
      </trkpt>
      <trkpt lat="45.17311" lon="7.00135">
        <ele>1214</ele>
        <time>2019-07-08T19:25:20Z</time>
      </trkpt>
      <trkpt lat="45.1732" lon="7.00138">
        <ele>1213</ele>
        <time>2019-07-08T19:25:22Z</time>
      </trkpt>
      <trkpt lat="45.17334" lon="7.00138">
        <ele>1213</ele>
        <time>2019-07-08T19:25:25Z</time>
      </trkpt>
      <trkpt lat="45.17369" lon="7.00125">
        <ele>1208</ele>
        <time>2019-07-08T19:25:31Z</time>
      </trkpt>
      <trkpt lat="45.17393" lon="7.00113">
        <ele>1206</ele>
        <time>2019-07-08T19:25:35Z</time>
      </trkpt>
      <trkpt lat="45.17403" lon="7.00105">
        <ele>1205</ele>
        <time>2019-07-08T19:25:38Z</time>
      </trkpt>
      <trkpt lat="45.17412" lon="7.00096">
        <ele>1205</ele>
        <time>2019-07-08T19:25:40Z</time>
      </trkpt>
      <trkpt lat="45.17444" lon="7.00055">
        <ele>1209</ele>
        <time>2019-07-08T19:25:47Z</time>
      </trkpt>
      <trkpt lat="45.17461" lon="7.00038">
        <ele>1210</ele>
        <time>2019-07-08T19:25:51Z</time>
      </trkpt>
      <trkpt lat="45.17477" lon="7.00026">
        <ele>1210</ele>
        <time>2019-07-08T19:25:54Z</time>
      </trkpt>
      <trkpt lat="45.17493" lon="7.00018">
        <ele>1208</ele>
        <time>2019-07-08T19:25:57Z</time>
      </trkpt>
      <trkpt lat="45.17498" lon="7.00018">
        <ele>1207</ele>
        <time>2019-07-08T19:25:58Z</time>
      </trkpt>
      <trkpt lat="45.17507" lon="7.00023">
        <ele>1205</ele>
        <time>2019-07-08T19:26:00Z</time>
      </trkpt>
      <trkpt lat="45.17509" lon="7.00033">
        <ele>1202</ele>
        <time>2019-07-08T19:26:01Z</time>
      </trkpt>
      <trkpt lat="45.17509" lon="7.00038">
        <ele>1201</ele>
        <time>2019-07-08T19:26:02Z</time>
      </trkpt>
      <trkpt lat="45.17504" lon="7.00047">
        <ele>1199</ele>
        <time>2019-07-08T19:26:03Z</time>
      </trkpt>
      <trkpt lat="45.17462" lon="7.00085">
        <ele>1196</ele>
        <time>2019-07-08T19:26:12Z</time>
      </trkpt>
      <trkpt lat="45.17445" lon="7.00108">
        <ele>1196</ele>
        <time>2019-07-08T19:26:16Z</time>
      </trkpt>
      <trkpt lat="45.1744" lon="7.00119">
        <ele>1195</ele>
        <time>2019-07-08T19:26:18Z</time>
      </trkpt>
      <trkpt lat="45.17422" lon="7.00179">
        <ele>1187</ele>
        <time>2019-07-08T19:26:26Z</time>
      </trkpt>
      <trkpt lat="45.17412" lon="7.00201">
        <ele>1183</ele>
        <time>2019-07-08T19:26:29Z</time>
      </trkpt>
      <trkpt lat="45.17345" lon="7.0031">
        <ele>1170</ele>
        <time>2019-07-08T19:26:47Z</time>
      </trkpt>
      <trkpt lat="45.17337" lon="7.0032">
        <ele>1169</ele>
        <time>2019-07-08T19:26:49Z</time>
      </trkpt>
      <trkpt lat="45.17322" lon="7.00332">
        <ele>1166</ele>
        <time>2019-07-08T19:26:52Z</time>
      </trkpt>
      <trkpt lat="45.17313" lon="7.00335">
        <ele>1163</ele>
        <time>2019-07-08T19:26:54Z</time>
      </trkpt>
      <trkpt lat="45.17297" lon="7.00336">
        <ele>1160</ele>
        <time>2019-07-08T19:26:57Z</time>
      </trkpt>
      <trkpt lat="45.17138" lon="7.0026">
        <ele>1154</ele>
        <time>2019-07-08T19:27:27Z</time>
      </trkpt>
      <trkpt lat="45.17113" lon="7.00243">
        <ele>1153</ele>
        <time>2019-07-08T19:27:32Z</time>
      </trkpt>
      <trkpt lat="45.17101" lon="7.00238">
        <ele>1152</ele>
        <time>2019-07-08T19:27:34Z</time>
      </trkpt>
      <trkpt lat="45.17084" lon="7.00237">
        <ele>1146</ele>
        <time>2019-07-08T19:27:37Z</time>
      </trkpt>
      <trkpt lat="45.17074" lon="7.00231">
        <ele>1145</ele>
        <time>2019-07-08T19:27:39Z</time>
      </trkpt>
      <trkpt lat="45.17067" lon="7.00224">
        <ele>1147</ele>
        <time>2019-07-08T19:27:40Z</time>
      </trkpt>
      <trkpt lat="45.1704" lon="7.00181">
        <ele>1159</ele>
        <time>2019-07-08T19:27:48Z</time>
      </trkpt>
      <trkpt lat="45.17031" lon="7.0017">
        <ele>1160</ele>
        <time>2019-07-08T19:27:50Z</time>
      </trkpt>
      <trkpt lat="45.17021" lon="7.00162">
        <ele>1160</ele>
        <time>2019-07-08T19:27:52Z</time>
      </trkpt>
      <trkpt lat="45.16993" lon="7.00146">
        <ele>1160</ele>
        <time>2019-07-08T19:27:57Z</time>
      </trkpt>
      <trkpt lat="45.16727" lon="7.00036">
        <ele>1115</ele>
        <time>2019-07-08T19:28:46Z</time>
      </trkpt>
      <trkpt lat="45.16708" lon="7.00023">
        <ele>1112</ele>
        <time>2019-07-08T19:28:50Z</time>
      </trkpt>
      <trkpt lat="45.1663" lon="6.99948">
        <ele>1114</ele>
        <time>2019-07-08T19:29:07Z</time>
      </trkpt>
      <trkpt lat="45.16611" lon="6.99932">
        <ele>1114</ele>
        <time>2019-07-08T19:29:11Z</time>
      </trkpt>
      <trkpt lat="45.16597" lon="6.99925">
        <ele>1113</ele>
        <time>2019-07-08T19:29:13Z</time>
      </trkpt>
      <trkpt lat="45.16585" lon="6.99925">
        <ele>1108</ele>
        <time>2019-07-08T19:29:16Z</time>
      </trkpt>
      <trkpt lat="45.16577" lon="6.99927">
        <ele>1107</ele>
        <time>2019-07-08T19:29:17Z</time>
      </trkpt>
      <trkpt lat="45.16546" lon="6.99946">
        <ele>1099</ele>
        <time>2019-07-08T19:29:23Z</time>
      </trkpt>
      <trkpt lat="45.16536" lon="6.99947">
        <ele>1098</ele>
        <time>2019-07-08T19:29:25Z</time>
      </trkpt>
      <trkpt lat="45.16502" lon="6.99938">
        <ele>1100</ele>
        <time>2019-07-08T19:29:31Z</time>
      </trkpt>
      <trkpt lat="45.16459" lon="6.99939">
        <ele>1093</ele>
        <time>2019-07-08T19:29:39Z</time>
      </trkpt>
      <trkpt lat="45.16447" lon="6.99932">
        <ele>1093</ele>
        <time>2019-07-08T19:29:41Z</time>
      </trkpt>
      <trkpt lat="45.16327" lon="6.99838">
        <ele>1092</ele>
        <time>2019-07-08T19:30:05Z</time>
      </trkpt>
      <trkpt lat="45.16298" lon="6.99824">
        <ele>1094</ele>
        <time>2019-07-08T19:30:11Z</time>
      </trkpt>
      <trkpt lat="45.1624" lon="6.99802">
        <ele>1094</ele>
        <time>2019-07-08T19:30:21Z</time>
      </trkpt>
      <trkpt lat="45.16201" lon="6.99768">
        <ele>1100</ele>
        <time>2019-07-08T19:30:30Z</time>
      </trkpt>
      <trkpt lat="45.16177" lon="6.99753">
        <ele>1102</ele>
        <time>2019-07-08T19:30:34Z</time>
      </trkpt>
      <trkpt lat="45.16157" lon="6.99749">
        <ele>1101</ele>
        <time>2019-07-08T19:30:38Z</time>
      </trkpt>
      <trkpt lat="45.16116" lon="6.99748">
        <ele>1094</ele>
        <time>2019-07-08T19:30:45Z</time>
      </trkpt>
      <trkpt lat="45.16102" lon="6.99744">
        <ele>1093</ele>
        <time>2019-07-08T19:30:48Z</time>
      </trkpt>
      <trkpt lat="45.16084" lon="6.99729">
        <ele>1095</ele>
        <time>2019-07-08T19:30:51Z</time>
      </trkpt>
      <trkpt lat="45.16052" lon="6.99693">
        <ele>1102</ele>
        <time>2019-07-08T19:30:59Z</time>
      </trkpt>
      <trkpt lat="45.16032" lon="6.99676">
        <ele>1105</ele>
        <time>2019-07-08T19:31:03Z</time>
      </trkpt>
      <trkpt lat="45.16022" lon="6.99674">
        <ele>1104</ele>
        <time>2019-07-08T19:31:05Z</time>
      </trkpt>
      <trkpt lat="45.16017" lon="6.99675">
        <ele>1102</ele>
        <time>2019-07-08T19:31:06Z</time>
      </trkpt>
      <trkpt lat="45.15991" lon="6.99691">
        <ele>1091</ele>
        <time>2019-07-08T19:31:11Z</time>
      </trkpt>
      <trkpt lat="45.15963" lon="6.99698">
        <ele>1083</ele>
        <time>2019-07-08T19:31:16Z</time>
      </trkpt>
      <trkpt lat="45.15948" lon="6.99698">
        <ele>1081</ele>
        <time>2019-07-08T19:31:18Z</time>
      </trkpt>
      <trkpt lat="45.15942" lon="6.99696">
        <ele>1080</ele>
        <time>2019-07-08T19:31:19Z</time>
      </trkpt>
      <trkpt lat="45.15933" lon="6.99687">
        <ele>1084</ele>
        <time>2019-07-08T19:31:21Z</time>
      </trkpt>
      <trkpt lat="45.15914" lon="6.99655">
        <ele>1096</ele>
        <time>2019-07-08T19:31:27Z</time>
      </trkpt>
      <trkpt lat="45.15901" lon="6.9964">
        <ele>1099</ele>
        <time>2019-07-08T19:31:30Z</time>
      </trkpt>
      <trkpt lat="45.15894" lon="6.99637">
        <ele>1099</ele>
        <time>2019-07-08T19:31:31Z</time>
      </trkpt>
      <trkpt lat="45.15887" lon="6.99636">
        <ele>1097</ele>
        <time>2019-07-08T19:31:32Z</time>
      </trkpt>
      <trkpt lat="45.15865" lon="6.99642">
        <ele>1089</ele>
        <time>2019-07-08T19:31:36Z</time>
      </trkpt>
      <trkpt lat="45.15851" lon="6.99637">
        <ele>1087</ele>
        <time>2019-07-08T19:31:39Z</time>
      </trkpt>
      <trkpt lat="45.15797" lon="6.99603">
        <ele>1089</ele>
        <time>2019-07-08T19:31:49Z</time>
      </trkpt>
      <trkpt lat="45.15777" lon="6.99586">
        <ele>1093</ele>
        <time>2019-07-08T19:31:53Z</time>
      </trkpt>
      <trkpt lat="45.15768" lon="6.99582">
        <ele>1093</ele>
        <time>2019-07-08T19:31:55Z</time>
      </trkpt>
      <trkpt lat="45.15757" lon="6.99581">
        <ele>1091</ele>
        <time>2019-07-08T19:31:57Z</time>
      </trkpt>
      <trkpt lat="45.15729" lon="6.99586">
        <ele>1077</ele>
        <time>2019-07-08T19:32:02Z</time>
      </trkpt>
      <trkpt lat="45.15722" lon="6.99585">
        <ele>1075</ele>
        <time>2019-07-08T19:32:03Z</time>
      </trkpt>
      <trkpt lat="45.1571" lon="6.99578">
        <ele>1073</ele>
        <time>2019-07-08T19:32:06Z</time>
      </trkpt>
      <trkpt lat="45.15635" lon="6.99493">
        <ele>1079</ele>
        <time>2019-07-08T19:32:23Z</time>
      </trkpt>
      <trkpt lat="45.15622" lon="6.99474">
        <ele>1080</ele>
        <time>2019-07-08T19:32:26Z</time>
      </trkpt>
      <trkpt lat="45.15604" lon="6.9944">
        <ele>1086</ele>
        <time>2019-07-08T19:32:31Z</time>
      </trkpt>
      <trkpt lat="45.15599" lon="6.99433">
        <ele>1086</ele>
        <time>2019-07-08T19:32:33Z</time>
      </trkpt>
      <trkpt lat="45.15581" lon="6.99423">
        <ele>1082</ele>
        <time>2019-07-08T19:32:36Z</time>
      </trkpt>
      <trkpt lat="45.1557" lon="6.99421">
        <ele>1079</ele>
        <time>2019-07-08T19:32:38Z</time>
      </trkpt>
      <trkpt lat="45.15549" lon="6.99412">
        <ele>1076</ele>
        <time>2019-07-08T19:32:42Z</time>
      </trkpt>
      <trkpt lat="45.15526" lon="6.99396">
        <ele>1074</ele>
        <time>2019-07-08T19:32:46Z</time>
      </trkpt>
      <trkpt lat="45.15481" lon="6.99342">
        <ele>1083</ele>
        <time>2019-07-08T19:32:57Z</time>
      </trkpt>
      <trkpt lat="45.15472" lon="6.99333">
        <ele>1086</ele>
        <time>2019-07-08T19:32:59Z</time>
      </trkpt>
      <trkpt lat="45.15453" lon="6.99327">
        <ele>1088</ele>
        <time>2019-07-08T19:33:02Z</time>
      </trkpt>
      <trkpt lat="45.15437" lon="6.99329">
        <ele>1087</ele>
        <time>2019-07-08T19:33:05Z</time>
      </trkpt>
      <trkpt lat="45.15429" lon="6.99332">
        <ele>1085</ele>
        <time>2019-07-08T19:33:07Z</time>
      </trkpt>
      <trkpt lat="45.15421" lon="6.99338">
        <ele>1083</ele>
        <time>2019-07-08T19:33:08Z</time>
      </trkpt>
      <trkpt lat="45.15414" lon="6.99348">
        <ele>1081</ele>
        <time>2019-07-08T19:33:10Z</time>
      </trkpt>
      <trkpt lat="45.15405" lon="6.99364">
        <ele>1080</ele>
        <time>2019-07-08T19:33:13Z</time>
      </trkpt>
      <trkpt lat="45.15393" lon="6.994">
        <ele>1076</ele>
        <time>2019-07-08T19:33:18Z</time>
      </trkpt>
      <trkpt lat="45.15388" lon="6.9941">
        <ele>1076</ele>
        <time>2019-07-08T19:33:19Z</time>
      </trkpt>
      <trkpt lat="45.15373" lon="6.99431">
        <ele>1079</ele>
        <time>2019-07-08T19:33:23Z</time>
      </trkpt>
      <trkpt lat="45.15368" lon="6.99443">
        <ele>1079</ele>
        <time>2019-07-08T19:33:25Z</time>
      </trkpt>
      <trkpt lat="45.15361" lon="6.99512">
        <ele>1065</ele>
        <time>2019-07-08T19:33:33Z</time>
      </trkpt>
      <trkpt lat="45.15344" lon="6.99561">
        <ele>1064</ele>
        <time>2019-07-08T19:33:40Z</time>
      </trkpt>
      <trkpt lat="45.15313" lon="6.99615">
        <ele>1064</ele>
        <time>2019-07-08T19:33:49Z</time>
      </trkpt>
      <trkpt lat="45.15289" lon="6.99645">
        <ele>1064</ele>
        <time>2019-07-08T19:33:55Z</time>
      </trkpt>
      <trkpt lat="45.15271" lon="6.99684">
        <ele>1057</ele>
        <time>2019-07-08T19:34:01Z</time>
      </trkpt>
      <trkpt lat="45.15232" lon="6.9974">
        <ele>1057</ele>
        <time>2019-07-08T19:34:10Z</time>
      </trkpt>
      <trkpt lat="45.1522" lon="6.99767">
        <ele>1055</ele>
        <time>2019-07-08T19:34:14Z</time>
      </trkpt>
      <trkpt lat="45.15205" lon="6.99821">
        <ele>1047</ele>
        <time>2019-07-08T19:34:22Z</time>
      </trkpt>
      <trkpt lat="45.15199" lon="6.99831">
        <ele>1046</ele>
        <time>2019-07-08T19:34:23Z</time>
      </trkpt>
      <trkpt lat="45.15137" lon="6.99888">
        <ele>1042</ele>
        <time>2019-07-08T19:34:37Z</time>
      </trkpt>
      <trkpt lat="45.15105" lon="6.99915">
        <ele>1037</ele>
        <time>2019-07-08T19:34:43Z</time>
      </trkpt>
      <trkpt lat="45.15092" lon="6.99923">
        <ele>1036</ele>
        <time>2019-07-08T19:34:46Z</time>
      </trkpt>
      <trkpt lat="45.15054" lon="6.99931">
        <ele>1039</ele>
        <time>2019-07-08T19:34:53Z</time>
      </trkpt>
      <trkpt lat="45.15034" lon="6.99938">
        <ele>1039</ele>
        <time>2019-07-08T19:34:56Z</time>
      </trkpt>
      <trkpt lat="45.14972" lon="6.99989">
        <ele>1024</ele>
        <time>2019-07-08T19:35:09Z</time>
      </trkpt>
      <trkpt lat="45.1496" lon="6.99997">
        <ele>1022</ele>
        <time>2019-07-08T19:35:11Z</time>
      </trkpt>
      <trkpt lat="45.14952" lon="7">
        <ele>1022</ele>
        <time>2019-07-08T19:35:13Z</time>
      </trkpt>
      <trkpt lat="45.14919" lon="7.00006">
        <ele>1023</ele>
        <time>2019-07-08T19:35:19Z</time>
      </trkpt>
      <trkpt lat="45.14902" lon="7.0002">
        <ele>1021</ele>
        <time>2019-07-08T19:35:22Z</time>
      </trkpt>
      <trkpt lat="45.14881" lon="7.00046">
        <ele>1015</ele>
        <time>2019-07-08T19:35:27Z</time>
      </trkpt>
      <trkpt lat="45.14855" lon="7.00072">
        <ele>1010</ele>
        <time>2019-07-08T19:35:33Z</time>
      </trkpt>
      <trkpt lat="45.14843" lon="7.00079">
        <ele>1009</ele>
        <time>2019-07-08T19:35:35Z</time>
      </trkpt>
      <trkpt lat="45.14799" lon="7.00088">
        <ele>1012</ele>
        <time>2019-07-08T19:35:43Z</time>
      </trkpt>
      <trkpt lat="45.14769" lon="7.00103">
        <ele>1010</ele>
        <time>2019-07-08T19:35:49Z</time>
      </trkpt>
      <trkpt lat="45.14655" lon="7.00192">
        <ele>993</ele>
        <time>2019-07-08T19:36:12Z</time>
      </trkpt>
      <trkpt lat="45.14628" lon="7.00215">
        <ele>990</ele>
        <time>2019-07-08T19:36:17Z</time>
      </trkpt>
      <trkpt lat="45.14608" lon="7.00237">
        <ele>985</ele>
        <time>2019-07-08T19:36:22Z</time>
      </trkpt>
      <trkpt lat="45.14586" lon="7.00254">
        <ele>983</ele>
        <time>2019-07-08T19:36:26Z</time>
      </trkpt>
      <trkpt lat="45.14543" lon="7.00271">
        <ele>980</ele>
        <time>2019-07-08T19:36:34Z</time>
      </trkpt>
      <trkpt lat="45.14531" lon="7.00279">
        <ele>979</ele>
        <time>2019-07-08T19:36:37Z</time>
      </trkpt>
      <trkpt lat="45.14464" lon="7.00348">
        <ele>963</ele>
        <time>2019-07-08T19:36:51Z</time>
      </trkpt>
      <trkpt lat="45.14438" lon="7.00365">
        <ele>960</ele>
        <time>2019-07-08T19:36:57Z</time>
      </trkpt>
      <trkpt lat="45.14425" lon="7.00371">
        <ele>959</ele>
        <time>2019-07-08T19:36:59Z</time>
      </trkpt>
      <trkpt lat="45.14405" lon="7.00373">
        <ele>957</ele>
        <time>2019-07-08T19:37:03Z</time>
      </trkpt>
      <trkpt lat="45.14385" lon="7.00369">
        <ele>955</ele>
        <time>2019-07-08T19:37:06Z</time>
      </trkpt>
      <trkpt lat="45.14305" lon="7.00322">
        <ele>954</ele>
        <time>2019-07-08T19:37:22Z</time>
      </trkpt>
      <trkpt lat="45.14283" lon="7.00316">
        <ele>951</ele>
        <time>2019-07-08T19:37:26Z</time>
      </trkpt>
      <trkpt lat="45.14239" lon="7.00311">
        <ele>943</ele>
        <time>2019-07-08T19:37:33Z</time>
      </trkpt>
      <trkpt lat="45.14214" lon="7.00291">
        <ele>942</ele>
        <time>2019-07-08T19:37:38Z</time>
      </trkpt>
      <trkpt lat="45.14166" lon="7.00247">
        <ele>938</ele>
        <time>2019-07-08T19:37:49Z</time>
      </trkpt>
      <trkpt lat="45.14157" lon="7.00246">
        <ele>937</ele>
        <time>2019-07-08T19:37:50Z</time>
      </trkpt>
      <trkpt lat="45.14154" lon="7.00249">
        <ele>935</ele>
        <time>2019-07-08T19:37:51Z</time>
      </trkpt>
      <trkpt lat="45.14153" lon="7.00256">
        <ele>934</ele>
        <time>2019-07-08T19:37:52Z</time>
      </trkpt>
      <trkpt lat="45.14154" lon="7.00262">
        <ele>933</ele>
        <time>2019-07-08T19:37:53Z</time>
      </trkpt>
      <trkpt lat="45.14157" lon="7.00269">
        <ele>932</ele>
        <time>2019-07-08T19:37:54Z</time>
      </trkpt>
      <trkpt lat="45.1422" lon="7.0035">
        <ele>930</ele>
        <time>2019-07-08T19:38:09Z</time>
      </trkpt>
      <trkpt lat="45.14245" lon="7.00384">
        <ele>926</ele>
        <time>2019-07-08T19:38:15Z</time>
      </trkpt>
      <trkpt lat="45.14252" lon="7.00397">
        <ele>924</ele>
        <time>2019-07-08T19:38:17Z</time>
      </trkpt>
      <trkpt lat="45.14257" lon="7.00412">
        <ele>922</ele>
        <time>2019-07-08T19:38:19Z</time>
      </trkpt>
      <trkpt lat="45.1428" lon="7.00517">
        <ele>911</ele>
        <time>2019-07-08T19:38:33Z</time>
      </trkpt>
      <trkpt lat="45.14287" lon="7.00534">
        <ele>909</ele>
        <time>2019-07-08T19:38:35Z</time>
      </trkpt>
      <trkpt lat="45.14295" lon="7.00548">
        <ele>908</ele>
        <time>2019-07-08T19:38:38Z</time>
      </trkpt>
      <trkpt lat="45.14305" lon="7.0056">
        <ele>907</ele>
        <time>2019-07-08T19:38:40Z</time>
      </trkpt>
      <trkpt lat="45.14318" lon="7.00571">
        <ele>908</ele>
        <time>2019-07-08T19:38:43Z</time>
      </trkpt>
      <trkpt lat="45.14399" lon="7.00624">
        <ele>903</ele>
        <time>2019-07-08T19:38:58Z</time>
      </trkpt>
      <trkpt lat="45.14416" lon="7.00642">
        <ele>901</ele>
        <time>2019-07-08T19:39:02Z</time>
      </trkpt>
      <trkpt lat="45.14449" lon="7.00687">
        <ele>898</ele>
        <time>2019-07-08T19:39:10Z</time>
      </trkpt>
      <trkpt lat="45.1445" lon="7.00698">
        <ele>897</ele>
        <time>2019-07-08T19:39:12Z</time>
      </trkpt>
      <trkpt lat="45.14446" lon="7.00707">
        <ele>894</ele>
        <time>2019-07-08T19:39:13Z</time>
      </trkpt>
      <trkpt lat="45.14443" lon="7.00708">
        <ele>893</ele>
        <time>2019-07-08T19:39:14Z</time>
      </trkpt>
      <trkpt lat="45.14436" lon="7.00703">
        <ele>893</ele>
        <time>2019-07-08T19:39:15Z</time>
      </trkpt>
      <trkpt lat="45.14408" lon="7.00672">
        <ele>893</ele>
        <time>2019-07-08T19:39:21Z</time>
      </trkpt>
      <trkpt lat="45.14397" lon="7.00664">
        <ele>894</ele>
        <time>2019-07-08T19:39:24Z</time>
      </trkpt>
      <trkpt lat="45.14384" lon="7.00663">
        <ele>892</ele>
        <time>2019-07-08T19:39:26Z</time>
      </trkpt>
      <trkpt lat="45.14351" lon="7.00675">
        <ele>886</ele>
        <time>2019-07-08T19:39:32Z</time>
      </trkpt>
      <trkpt lat="45.14333" lon="7.00678">
        <ele>884</ele>
        <time>2019-07-08T19:39:35Z</time>
      </trkpt>
      <trkpt lat="45.14292" lon="7.00679">
        <ele>878</ele>
        <time>2019-07-08T19:39:42Z</time>
      </trkpt>
      <trkpt lat="45.14264" lon="7.00675">
        <ele>875</ele>
        <time>2019-07-08T19:39:47Z</time>
      </trkpt>
      <trkpt lat="45.14249" lon="7.00666">
        <ele>875</ele>
        <time>2019-07-08T19:39:50Z</time>
      </trkpt>
      <trkpt lat="45.14235" lon="7.00648">
        <ele>873</ele>
        <time>2019-07-08T19:39:54Z</time>
      </trkpt>
      <trkpt lat="45.14197" lon="7.00566">
        <ele>877</ele>
        <time>2019-07-08T19:40:06Z</time>
      </trkpt>
      <trkpt lat="45.14191" lon="7.00556">
        <ele>877</ele>
        <time>2019-07-08T19:40:08Z</time>
      </trkpt>
      <trkpt lat="45.14176" lon="7.00545">
        <ele>875</ele>
        <time>2019-07-08T19:40:11Z</time>
      </trkpt>
      <trkpt lat="45.14162" lon="7.00544">
        <ele>871</ele>
        <time>2019-07-08T19:40:13Z</time>
      </trkpt>
      <trkpt lat="45.14136" lon="7.00551">
        <ele>867</ele>
        <time>2019-07-08T19:40:18Z</time>
      </trkpt>
      <trkpt lat="45.14104" lon="7.00555">
        <ele>862</ele>
        <time>2019-07-08T19:40:24Z</time>
      </trkpt>
      <trkpt lat="45.14097" lon="7.00561">
        <ele>860</ele>
        <time>2019-07-08T19:40:25Z</time>
      </trkpt>
      <trkpt lat="45.14095" lon="7.0057">
        <ele>858</ele>
        <time>2019-07-08T19:40:26Z</time>
      </trkpt>
      <trkpt lat="45.14099" lon="7.00578">
        <ele>856</ele>
        <time>2019-07-08T19:40:27Z</time>
      </trkpt>
      <trkpt lat="45.14102" lon="7.00581">
        <ele>856</ele>
        <time>2019-07-08T19:40:28Z</time>
      </trkpt>
      <trkpt lat="45.14132" lon="7.00583">
        <ele>858</ele>
        <time>2019-07-08T19:40:33Z</time>
      </trkpt>
      <trkpt lat="45.1415" lon="7.00587">
        <ele>859</ele>
        <time>2019-07-08T19:40:37Z</time>
      </trkpt>
      <trkpt lat="45.14156" lon="7.00592">
        <ele>859</ele>
        <time>2019-07-08T19:40:38Z</time>
      </trkpt>
      <trkpt lat="45.14167" lon="7.00606">
        <ele>858</ele>
        <time>2019-07-08T19:40:41Z</time>
      </trkpt>
      <trkpt lat="45.14175" lon="7.00626">
        <ele>857</ele>
        <time>2019-07-08T19:40:43Z</time>
      </trkpt>
      <trkpt lat="45.14217" lon="7.00839">
        <ele>832</ele>
        <time>2019-07-08T19:41:11Z</time>
      </trkpt>
      <trkpt lat="45.14221" lon="7.00849">
        <ele>831</ele>
        <time>2019-07-08T19:41:13Z</time>
      </trkpt>
      <trkpt lat="45.14231" lon="7.00867">
        <ele>830</ele>
        <time>2019-07-08T19:41:16Z</time>
      </trkpt>
      <trkpt lat="45.14251" lon="7.00887">
        <ele>831</ele>
        <time>2019-07-08T19:41:20Z</time>
      </trkpt>
      <trkpt lat="45.14263" lon="7.00903">
        <ele>830</ele>
        <time>2019-07-08T19:41:23Z</time>
      </trkpt>
      <trkpt lat="45.14273" lon="7.00926">
        <ele>828</ele>
        <time>2019-07-08T19:41:26Z</time>
      </trkpt>
      <trkpt lat="45.14296" lon="7.01003">
        <ele>823</ele>
        <time>2019-07-08T19:41:37Z</time>
      </trkpt>
      <trkpt lat="45.14347" lon="7.01137">
        <ele>814</ele>
        <time>2019-07-08T19:41:56Z</time>
      </trkpt>
      <trkpt lat="45.1435" lon="7.01159">
        <ele>812</ele>
        <time>2019-07-08T19:41:59Z</time>
      </trkpt>
      <trkpt lat="45.1435" lon="7.01173">
        <ele>811</ele>
        <time>2019-07-08T19:42:00Z</time>
      </trkpt>
      <trkpt lat="45.14346" lon="7.01202">
        <ele>807</ele>
        <time>2019-07-08T19:42:04Z</time>
      </trkpt>
      <trkpt lat="45.14346" lon="7.01225">
        <ele>805</ele>
        <time>2019-07-08T19:42:07Z</time>
      </trkpt>
      <trkpt lat="45.14349" lon="7.0124">
        <ele>804</ele>
        <time>2019-07-08T19:42:09Z</time>
      </trkpt>
      <trkpt lat="45.14352" lon="7.01247">
        <ele>804</ele>
        <time>2019-07-08T19:42:10Z</time>
      </trkpt>
      <trkpt lat="45.14357" lon="7.01255">
        <ele>804</ele>
        <time>2019-07-08T19:42:11Z</time>
      </trkpt>
      <trkpt lat="45.14364" lon="7.01262">
        <ele>803</ele>
        <time>2019-07-08T19:42:13Z</time>
      </trkpt>
      <trkpt lat="45.14398" lon="7.01279">
        <ele>804</ele>
        <time>2019-07-08T19:42:19Z</time>
      </trkpt>
      <trkpt lat="45.14407" lon="7.01287">
        <ele>803</ele>
        <time>2019-07-08T19:42:21Z</time>
      </trkpt>
      <trkpt lat="45.14414" lon="7.01295">
        <ele>802</ele>
        <time>2019-07-08T19:42:23Z</time>
      </trkpt>
      <trkpt lat="45.14447" lon="7.01348">
        <ele>788</ele>
        <time>2019-07-08T19:42:32Z</time>
      </trkpt>
      <trkpt lat="45.14453" lon="7.01354">
        <ele>786</ele>
        <time>2019-07-08T19:42:33Z</time>
      </trkpt>
      <trkpt lat="45.14466" lon="7.01358">
        <ele>785</ele>
        <time>2019-07-08T19:42:35Z</time>
      </trkpt>
      <trkpt lat="45.14472" lon="7.01359">
        <ele>785</ele>
        <time>2019-07-08T19:42:36Z</time>
      </trkpt>
      <trkpt lat="45.14483" lon="7.01356">
        <ele>786</ele>
        <time>2019-07-08T19:42:38Z</time>
      </trkpt>
      <trkpt lat="45.14492" lon="7.01351">
        <ele>786</ele>
        <time>2019-07-08T19:42:40Z</time>
      </trkpt>
      <trkpt lat="45.145" lon="7.01344">
        <ele>788</ele>
        <time>2019-07-08T19:42:42Z</time>
      </trkpt>
      <trkpt lat="45.14514" lon="7.01324">
        <ele>787</ele>
        <time>2019-07-08T19:42:45Z</time>
      </trkpt>
      <trkpt lat="45.14521" lon="7.01309">
        <ele>789</ele>
        <time>2019-07-08T19:42:48Z</time>
      </trkpt>
      <trkpt lat="45.14539" lon="7.01256">
        <ele>795</ele>
        <time>2019-07-08T19:42:55Z</time>
      </trkpt>
      <trkpt lat="45.14546" lon="7.01241">
        <ele>796</ele>
        <time>2019-07-08T19:42:57Z</time>
      </trkpt>
      <trkpt lat="45.14555" lon="7.01232">
        <ele>796</ele>
        <time>2019-07-08T19:42:59Z</time>
      </trkpt>
      <trkpt lat="45.14566" lon="7.01228">
        <ele>793</ele>
        <time>2019-07-08T19:43:01Z</time>
      </trkpt>
      <trkpt lat="45.14602" lon="7.0123">
        <ele>785</ele>
        <time>2019-07-08T19:43:08Z</time>
      </trkpt>
      <trkpt lat="45.14614" lon="7.01236">
        <ele>781</ele>
        <time>2019-07-08T19:43:10Z</time>
      </trkpt>
      <trkpt lat="45.14622" lon="7.01246">
        <ele>778</ele>
        <time>2019-07-08T19:43:12Z</time>
      </trkpt>
      <trkpt lat="45.1464" lon="7.01284">
        <ele>766</ele>
        <time>2019-07-08T19:43:18Z</time>
      </trkpt>
      <trkpt lat="45.14647" lon="7.01291">
        <ele>763</ele>
        <time>2019-07-08T19:43:19Z</time>
      </trkpt>
      <trkpt lat="45.14653" lon="7.01294">
        <ele>761</ele>
        <time>2019-07-08T19:43:20Z</time>
      </trkpt>
      <trkpt lat="45.14661" lon="7.01292">
        <ele>761</ele>
        <time>2019-07-08T19:43:22Z</time>
      </trkpt>
      <trkpt lat="45.14672" lon="7.01287">
        <ele>761</ele>
        <time>2019-07-08T19:43:24Z</time>
      </trkpt>
      <trkpt lat="45.147" lon="7.01259">
        <ele>765</ele>
        <time>2019-07-08T19:43:30Z</time>
      </trkpt>
      <trkpt lat="45.14707" lon="7.0126">
        <ele>765</ele>
        <time>2019-07-08T19:43:31Z</time>
      </trkpt>
      <trkpt lat="45.14713" lon="7.01269">
        <ele>762</ele>
        <time>2019-07-08T19:43:33Z</time>
      </trkpt>
      <trkpt lat="45.14717" lon="7.01318">
        <ele>751</ele>
        <time>2019-07-08T19:43:39Z</time>
      </trkpt>
      <trkpt lat="45.14721" lon="7.01329">
        <ele>748</ele>
        <time>2019-07-08T19:43:40Z</time>
      </trkpt>
      <trkpt lat="45.14724" lon="7.01332">
        <ele>747</ele>
        <time>2019-07-08T19:43:41Z</time>
      </trkpt>
      <trkpt lat="45.14731" lon="7.01335">
        <ele>746</ele>
        <time>2019-07-08T19:43:42Z</time>
      </trkpt>
      <trkpt lat="45.14753" lon="7.01327">
        <ele>745</ele>
        <time>2019-07-08T19:43:46Z</time>
      </trkpt>
      <trkpt lat="45.14758" lon="7.01331">
        <ele>742</ele>
        <time>2019-07-08T19:43:47Z</time>
      </trkpt>
      <trkpt lat="45.1476" lon="7.01339">
        <ele>739</ele>
        <time>2019-07-08T19:43:48Z</time>
      </trkpt>
      <trkpt lat="45.14758" lon="7.01348">
        <ele>737</ele>
        <time>2019-07-08T19:43:50Z</time>
      </trkpt>
      <trkpt lat="45.14752" lon="7.01357">
        <ele>737</ele>
        <time>2019-07-08T19:43:51Z</time>
      </trkpt>
      <trkpt lat="45.14745" lon="7.0136">
        <ele>737</ele>
        <time>2019-07-08T19:43:52Z</time>
      </trkpt>
      <trkpt lat="45.14732" lon="7.01359">
        <ele>738</ele>
        <time>2019-07-08T19:43:55Z</time>
      </trkpt>
      <trkpt lat="45.14723" lon="7.01356">
        <ele>739</ele>
        <time>2019-07-08T19:43:56Z</time>
      </trkpt>
      <trkpt lat="45.14715" lon="7.01351">
        <ele>741</ele>
        <time>2019-07-08T19:43:58Z</time>
      </trkpt>
      <trkpt lat="45.14689" lon="7.0133">
        <ele>749</ele>
        <time>2019-07-08T19:44:03Z</time>
      </trkpt>
      <trkpt lat="45.14685" lon="7.01329">
        <ele>750</ele>
        <time>2019-07-08T19:44:04Z</time>
      </trkpt>
      <trkpt lat="45.14673" lon="7.0133">
        <ele>750</ele>
        <time>2019-07-08T19:44:06Z</time>
      </trkpt>
      <trkpt lat="45.14645" lon="7.01337">
        <ele>752</ele>
        <time>2019-07-08T19:44:11Z</time>
      </trkpt>
      <trkpt lat="45.14631" lon="7.01336">
        <ele>755</ele>
        <time>2019-07-08T19:44:14Z</time>
      </trkpt>
      <trkpt lat="45.14603" lon="7.0133">
        <ele>761</ele>
        <time>2019-07-08T19:44:19Z</time>
      </trkpt>
      <trkpt lat="45.14599" lon="7.01332">
        <ele>761</ele>
        <time>2019-07-08T19:44:19Z</time>
      </trkpt>
      <trkpt lat="45.14593" lon="7.01339">
        <ele>760</ele>
        <time>2019-07-08T19:44:21Z</time>
      </trkpt>
      <trkpt lat="45.14588" lon="7.01352">
        <ele>758</ele>
        <time>2019-07-08T19:44:23Z</time>
      </trkpt>
      <trkpt lat="45.14586" lon="7.0136">
        <ele>757</ele>
        <time>2019-07-08T19:44:24Z</time>
      </trkpt>
      <trkpt lat="45.14573" lon="7.01478">
        <ele>735</ele>
        <time>2019-07-08T19:44:39Z</time>
      </trkpt>
      <trkpt lat="45.14573" lon="7.01563">
        <ele>722</ele>
        <time>2019-07-08T19:44:49Z</time>
      </trkpt>
      <trkpt lat="45.14568" lon="7.01614">
        <ele>717</ele>
        <time>2019-07-08T19:44:56Z</time>
      </trkpt>
      <trkpt lat="45.14564" lon="7.01636">
        <ele>715</ele>
        <time>2019-07-08T19:44:59Z</time>
      </trkpt>
      <trkpt lat="45.14553" lon="7.01682">
        <ele>712</ele>
        <time>2019-07-08T19:45:05Z</time>
      </trkpt>
      <trkpt lat="45.14549" lon="7.0171">
        <ele>709</ele>
        <time>2019-07-08T19:45:08Z</time>
      </trkpt>
      <trkpt lat="45.1455" lon="7.01753">
        <ele>704</ele>
        <time>2019-07-08T19:45:14Z</time>
      </trkpt>
      <trkpt lat="45.1456" lon="7.01831">
        <ele>695</ele>
        <time>2019-07-08T19:45:24Z</time>
      </trkpt>
      <trkpt lat="45.14558" lon="7.01846">
        <ele>693</ele>
        <time>2019-07-08T19:45:26Z</time>
      </trkpt>
      <trkpt lat="45.14556" lon="7.01852">
        <ele>693</ele>
        <time>2019-07-08T19:45:27Z</time>
      </trkpt>
      <trkpt lat="45.14546" lon="7.01858">
        <ele>693</ele>
        <time>2019-07-08T19:45:28Z</time>
      </trkpt>
      <trkpt lat="45.14503" lon="7.01863">
        <ele>694</ele>
        <time>2019-07-08T19:45:36Z</time>
      </trkpt>
      <trkpt lat="45.14491" lon="7.01857">
        <ele>695</ele>
        <time>2019-07-08T19:45:38Z</time>
      </trkpt>
      <trkpt lat="45.14487" lon="7.01852">
        <ele>696</ele>
        <time>2019-07-08T19:45:39Z</time>
      </trkpt>
      <trkpt lat="45.14476" lon="7.01822">
        <ele>699</ele>
        <time>2019-07-08T19:45:44Z</time>
      </trkpt>
      <trkpt lat="45.14468" lon="7.01809">
        <ele>701</ele>
        <time>2019-07-08T19:45:46Z</time>
      </trkpt>
      <trkpt lat="45.14463" lon="7.01807">
        <ele>701</ele>
        <time>2019-07-08T19:45:47Z</time>
      </trkpt>
      <trkpt lat="45.14454" lon="7.01809">
        <ele>700</ele>
        <time>2019-07-08T19:45:48Z</time>
      </trkpt>
      <trkpt lat="45.14446" lon="7.01819">
        <ele>699</ele>
        <time>2019-07-08T19:45:50Z</time>
      </trkpt>
      <trkpt lat="45.14444" lon="7.01826">
        <ele>698</ele>
        <time>2019-07-08T19:45:51Z</time>
      </trkpt>
      <trkpt lat="45.14443" lon="7.01871">
        <ele>693</ele>
        <time>2019-07-08T19:45:57Z</time>
      </trkpt>
      <trkpt lat="45.14445" lon="7.01917">
        <ele>689</ele>
        <time>2019-07-08T19:46:03Z</time>
      </trkpt>
      <trkpt lat="45.14462" lon="7.01985">
        <ele>682</ele>
        <time>2019-07-08T19:46:12Z</time>
      </trkpt>
      <trkpt lat="45.14464" lon="7.02008">
        <ele>679</ele>
        <time>2019-07-08T19:46:15Z</time>
      </trkpt>
      <trkpt lat="45.14459" lon="7.02025">
        <ele>678</ele>
        <time>2019-07-08T19:46:17Z</time>
      </trkpt>
      <trkpt lat="45.14455" lon="7.02032">
        <ele>678</ele>
        <time>2019-07-08T19:46:18Z</time>
      </trkpt>
      <trkpt lat="45.14424" lon="7.0204">
        <ele>683</ele>
        <time>2019-07-08T19:46:24Z</time>
      </trkpt>
      <trkpt lat="45.1442" lon="7.02044">
        <ele>684</ele>
        <time>2019-07-08T19:46:24Z</time>
      </trkpt>
      <trkpt lat="45.14416" lon="7.0206">
        <ele>684</ele>
        <time>2019-07-08T19:46:27Z</time>
      </trkpt>
      <trkpt lat="45.14418" lon="7.02071">
        <ele>683</ele>
        <time>2019-07-08T19:46:28Z</time>
      </trkpt>
      <trkpt lat="45.14441" lon="7.02109">
        <ele>676</ele>
        <time>2019-07-08T19:46:34Z</time>
      </trkpt>
      <trkpt lat="45.14451" lon="7.02127">
        <ele>672</ele>
        <time>2019-07-08T19:46:37Z</time>
      </trkpt>
      <trkpt lat="45.14457" lon="7.02145">
        <ele>669</ele>
        <time>2019-07-08T19:46:40Z</time>
      </trkpt>
      <trkpt lat="45.14461" lon="7.0216">
        <ele>667</ele>
        <time>2019-07-08T19:46:42Z</time>
      </trkpt>
      <trkpt lat="45.14463" lon="7.02183">
        <ele>664</ele>
        <time>2019-07-08T19:46:45Z</time>
      </trkpt>
      <trkpt lat="45.14464" lon="7.0222">
        <ele>660</ele>
        <time>2019-07-08T19:46:49Z</time>
      </trkpt>
      <trkpt lat="45.14462" lon="7.02228">
        <ele>661</ele>
        <time>2019-07-08T19:46:50Z</time>
      </trkpt>
      <trkpt lat="45.14458" lon="7.02234">
        <ele>661</ele>
        <time>2019-07-08T19:46:51Z</time>
      </trkpt>
      <trkpt lat="45.14429" lon="7.02258">
        <ele>670</ele>
        <time>2019-07-08T19:46:57Z</time>
      </trkpt>
      <trkpt lat="45.14423" lon="7.0227">
        <ele>671</ele>
        <time>2019-07-08T19:46:59Z</time>
      </trkpt>
      <trkpt lat="45.14421" lon="7.02283">
        <ele>670</ele>
        <time>2019-07-08T19:47:01Z</time>
      </trkpt>
      <trkpt lat="45.14411" lon="7.02422">
        <ele>659</ele>
        <time>2019-07-08T19:47:18Z</time>
      </trkpt>
      <trkpt lat="45.14412" lon="7.02469">
        <ele>656</ele>
        <time>2019-07-08T19:47:24Z</time>
      </trkpt>
      <trkpt lat="45.14422" lon="7.02524">
        <ele>649</ele>
        <time>2019-07-08T19:47:31Z</time>
      </trkpt>
      <trkpt lat="45.14424" lon="7.02555">
        <ele>647</ele>
        <time>2019-07-08T19:47:35Z</time>
      </trkpt>
      <trkpt lat="45.14433" lon="7.02708">
        <ele>640</ele>
        <time>2019-07-08T19:47:55Z</time>
      </trkpt>
      <trkpt lat="45.14444" lon="7.02819">
        <ele>628</ele>
        <time>2019-07-08T19:48:09Z</time>
      </trkpt>
      <trkpt lat="45.14438" lon="7.02958">
        <ele>619</ele>
        <time>2019-07-08T19:48:26Z</time>
      </trkpt>
      <trkpt lat="45.14437" lon="7.02973">
        <ele>618</ele>
        <time>2019-07-08T19:48:28Z</time>
      </trkpt>
      <trkpt lat="45.14427" lon="7.03019">
        <ele>621</ele>
        <time>2019-07-08T19:48:34Z</time>
      </trkpt>
      <trkpt lat="45.14425" lon="7.03046">
        <ele>621</ele>
        <time>2019-07-08T19:48:37Z</time>
      </trkpt>
      <trkpt lat="45.14427" lon="7.03061">
        <ele>618</ele>
        <time>2019-07-08T19:48:39Z</time>
      </trkpt>
      <trkpt lat="45.14447" lon="7.03143">
        <ele>602</ele>
        <time>2019-07-08T19:48:50Z</time>
      </trkpt>
      <trkpt lat="45.14451" lon="7.03194">
        <ele>598</ele>
        <time>2019-07-08T19:48:57Z</time>
      </trkpt>
      <trkpt lat="45.1445" lon="7.03254">
        <ele>596</ele>
        <time>2019-07-08T19:49:04Z</time>
      </trkpt>
      <trkpt lat="45.14445" lon="7.03299">
        <ele>595</ele>
        <time>2019-07-08T19:49:10Z</time>
      </trkpt>
      <trkpt lat="45.1444" lon="7.03325">
        <ele>595</ele>
        <time>2019-07-08T19:49:13Z</time>
      </trkpt>
      <trkpt lat="45.14425" lon="7.03376">
        <ele>593</ele>
        <time>2019-07-08T19:49:20Z</time>
      </trkpt>
      <trkpt lat="45.14417" lon="7.03395">
        <ele>592</ele>
        <time>2019-07-08T19:49:23Z</time>
      </trkpt>
      <trkpt lat="45.14395" lon="7.03433">
        <ele>596</ele>
        <time>2019-07-08T19:49:29Z</time>
      </trkpt>
      <trkpt lat="45.14387" lon="7.03449">
        <ele>597</ele>
        <time>2019-07-08T19:49:32Z</time>
      </trkpt>
      <trkpt lat="45.14378" lon="7.0348">
        <ele>596</ele>
        <time>2019-07-08T19:49:36Z</time>
      </trkpt>
      <trkpt lat="45.1437" lon="7.03529">
        <ele>592</ele>
        <time>2019-07-08T19:49:42Z</time>
      </trkpt>
      <trkpt lat="45.14364" lon="7.03597">
        <ele>586</ele>
        <time>2019-07-08T19:49:51Z</time>
      </trkpt>
      <trkpt lat="45.14366" lon="7.03627">
        <ele>581</ele>
        <time>2019-07-08T19:49:55Z</time>
      </trkpt>
      <trkpt lat="45.14374" lon="7.03686">
        <ele>571</ele>
        <time>2019-07-08T19:50:02Z</time>
      </trkpt>
      <trkpt lat="45.14375" lon="7.03703">
        <ele>568</ele>
        <time>2019-07-08T19:50:04Z</time>
      </trkpt>
      <trkpt lat="45.14374" lon="7.03719">
        <ele>567</ele>
        <time>2019-07-08T19:50:06Z</time>
      </trkpt>
      <trkpt lat="45.1437" lon="7.03738">
        <ele>565</ele>
        <time>2019-07-08T19:50:09Z</time>
      </trkpt>
      <trkpt lat="45.14366" lon="7.03745">
        <ele>564</ele>
        <time>2019-07-08T19:50:10Z</time>
      </trkpt>
      <trkpt lat="45.1436" lon="7.03753">
        <ele>564</ele>
        <time>2019-07-08T19:50:11Z</time>
      </trkpt>
      <trkpt lat="45.14348" lon="7.03763">
        <ele>565</ele>
        <time>2019-07-08T19:50:14Z</time>
      </trkpt>
      <trkpt lat="45.14233" lon="7.03804">
        <ele>558</ele>
        <time>2019-07-08T19:50:35Z</time>
      </trkpt>
      <trkpt lat="45.14223" lon="7.03813">
        <ele>554</ele>
        <time>2019-07-08T19:50:37Z</time>
      </trkpt>
      <trkpt lat="45.14219" lon="7.03825">
        <ele>552</ele>
        <time>2019-07-08T19:50:39Z</time>
      </trkpt>
      <trkpt lat="45.14208" lon="7.03864">
        <ele>550</ele>
        <time>2019-07-08T19:50:44Z</time>
      </trkpt>
      <trkpt lat="45.14181" lon="7.03973">
        <ele>549</ele>
        <time>2019-07-08T19:50:58Z</time>
      </trkpt>
      <trkpt lat="45.14177" lon="7.03995">
        <ele>550</ele>
        <time>2019-07-08T19:51:01Z</time>
      </trkpt>
      <trkpt lat="45.14173" lon="7.04047">
        <ele>548</ele>
        <time>2019-07-08T19:51:08Z</time>
      </trkpt>
      <trkpt lat="45.1417" lon="7.04111">
        <ele>548</ele>
        <time>2019-07-08T19:51:16Z</time>
      </trkpt>
      <trkpt lat="45.14166" lon="7.04146">
        <ele>549</ele>
        <time>2019-07-08T19:51:20Z</time>
      </trkpt>
      <trkpt lat="45.14158" lon="7.04165">
        <ele>548</ele>
        <time>2019-07-08T19:51:23Z</time>
      </trkpt>
      <trkpt lat="45.14151" lon="7.04175">
        <ele>547</ele>
        <time>2019-07-08T19:51:25Z</time>
      </trkpt>
      <trkpt lat="45.14136" lon="7.04189">
        <ele>544</ele>
        <time>2019-07-08T19:51:28Z</time>
      </trkpt>
      <trkpt lat="45.14027" lon="7.04258">
        <ele>531</ele>
        <time>2019-07-08T19:51:49Z</time>
      </trkpt>
      <trkpt lat="45.1401" lon="7.04269">
        <ele>530</ele>
        <time>2019-07-08T19:51:53Z</time>
      </trkpt>
      <trkpt lat="45.13994" lon="7.04283">
        <ele>527</ele>
        <time>2019-07-08T19:51:56Z</time>
      </trkpt>
      <trkpt lat="45.13982" lon="7.04297">
        <ele>524</ele>
        <time>2019-07-08T19:51:59Z</time>
      </trkpt>
      <trkpt lat="45.13962" lon="7.04328">
        <ele>519</ele>
        <time>2019-07-08T19:52:04Z</time>
      </trkpt>
      <trkpt lat="45.13952" lon="7.04347">
        <ele>518</ele>
        <time>2019-07-08T19:52:07Z</time>
      </trkpt>
      <trkpt lat="45.13936" lon="7.0439">
        <ele>515</ele>
        <time>2019-07-08T19:52:13Z</time>
      </trkpt>
      <trkpt lat="45.13926" lon="7.04442">
        <ele>515</ele>
        <time>2019-07-08T19:52:20Z</time>
      </trkpt>
      <trkpt lat="45.13894" lon="7.04635">
        <ele>512</ele>
        <time>2019-07-08T19:52:45Z</time>
      </trkpt>
      <trkpt lat="45.13834" lon="7.05024">
        <ele>500</ele>
        <time>2019-07-08T19:53:35Z</time>
      </trkpt>
      <trkpt lat="45.13802" lon="7.05276">
        <ele>495</ele>
        <time>2019-07-08T19:54:07Z</time>
      </trkpt>
      <trkpt lat="45.13725" lon="7.05927">
        <ele>490</ele>
        <time>2019-07-08T19:55:30Z</time>
      </trkpt>
      <trkpt lat="45.1372" lon="7.05922">
        <ele>490</ele>
        <time>2019-07-08T19:55:31Z</time>
      </trkpt>
      <trkpt lat="45.13676" lon="7.05896">
        <ele>489</ele>
        <time>2019-07-08T19:55:39Z</time>
      </trkpt>
      <trkpt lat="45.13615" lon="7.05871">
        <ele>487</ele>
        <time>2019-07-08T19:55:51Z</time>
      </trkpt>
      <trkpt lat="45.13585" lon="7.05941">
        <ele>488</ele>
        <time>2019-07-08T19:56:01Z</time>
      </trkpt>
      <trkpt lat="45.13538" lon="7.06029">
        <ele>487</ele>
        <time>2019-07-08T19:56:15Z</time>
      </trkpt>
      <trkpt lat="45.13447" lon="7.05975">
        <ele>487</ele>
        <time>2019-07-08T19:56:32Z</time>
      </trkpt>
      <trkpt lat="45.13414" lon="7.0607">
        <ele>485</ele>
        <time>2019-07-08T19:56:46Z</time>
      </trkpt>
      <trkpt lat="45.13401" lon="7.06089">
        <ele>485</ele>
        <time>2019-07-08T19:56:49Z</time>
      </trkpt>
      <trkpt lat="45.13368" lon="7.06148">
        <ele>484</ele>
        <time>2019-07-08T19:56:58Z</time>
      </trkpt>
      <trkpt lat="45.13282" lon="7.06321">
        <ele>484</ele>
        <time>2019-07-08T19:57:25Z</time>
      </trkpt>
      <trkpt lat="45.13175" lon="7.06526">
        <ele>492</ele>
        <time>2019-07-08T19:57:57Z</time>
      </trkpt>
      <trkpt lat="45.13158" lon="7.06546">
        <ele>494</ele>
        <time>2019-07-08T19:58:01Z</time>
      </trkpt>
      <trkpt lat="45.13151" lon="7.06551">
        <ele>494</ele>
        <time>2019-07-08T19:58:02Z</time>
      </trkpt>
      <trkpt lat="45.13143" lon="7.06553">
        <ele>495</ele>
        <time>2019-07-08T19:58:04Z</time>
      </trkpt>
      <trkpt lat="45.13132" lon="7.06553">
        <ele>497</ele>
        <time>2019-07-08T19:58:06Z</time>
      </trkpt>
      <trkpt lat="45.13052" lon="7.06534">
        <ele>505</ele>
        <time>2019-07-08T19:58:20Z</time>
      </trkpt>
      <trkpt lat="45.13038" lon="7.06528">
        <ele>507</ele>
        <time>2019-07-08T19:58:23Z</time>
      </trkpt>
      <trkpt lat="45.13029" lon="7.06516">
        <ele>508</ele>
        <time>2019-07-08T19:58:25Z</time>
      </trkpt>
      <trkpt lat="45.12998" lon="7.0646">
        <ele>519</ele>
        <time>2019-07-08T19:58:34Z</time>
      </trkpt>
      <trkpt lat="45.12987" lon="7.06445">
        <ele>522</ele>
        <time>2019-07-08T19:58:37Z</time>
      </trkpt>
      <trkpt lat="45.12974" lon="7.06431">
        <ele>524</ele>
        <time>2019-07-08T19:58:39Z</time>
      </trkpt>
      <trkpt lat="45.12958" lon="7.06422">
        <ele>525</ele>
        <time>2019-07-08T19:58:43Z</time>
      </trkpt>
      <trkpt lat="45.12924" lon="7.06417">
        <ele>523</ele>
        <time>2019-07-08T19:58:49Z</time>
      </trkpt>
      <trkpt lat="45.12909" lon="7.06412">
        <ele>524</ele>
        <time>2019-07-08T19:58:51Z</time>
      </trkpt>
      <trkpt lat="45.12895" lon="7.06405">
        <ele>525</ele>
        <time>2019-07-08T19:58:54Z</time>
      </trkpt>
      <trkpt lat="45.12865" lon="7.0638">
        <ele>528</ele>
        <time>2019-07-08T19:59:00Z</time>
      </trkpt>
      <trkpt lat="45.12852" lon="7.06366">
        <ele>530</ele>
        <time>2019-07-08T19:59:03Z</time>
      </trkpt>
      <trkpt lat="45.12767" lon="7.06242">
        <ele>544</ele>
        <time>2019-07-08T19:59:25Z</time>
      </trkpt>
      <trkpt lat="45.12753" lon="7.06229">
        <ele>546</ele>
        <time>2019-07-08T19:59:28Z</time>
      </trkpt>
      <trkpt lat="45.12731" lon="7.06216">
        <ele>550</ele>
        <time>2019-07-08T19:59:32Z</time>
      </trkpt>
      <trkpt lat="45.12712" lon="7.06213">
        <ele>553</ele>
        <time>2019-07-08T19:59:35Z</time>
      </trkpt>
      <trkpt lat="45.1269" lon="7.06217">
        <ele>556</ele>
        <time>2019-07-08T19:59:39Z</time>
      </trkpt>
      <trkpt lat="45.12617" lon="7.06238">
        <ele>567</ele>
        <time>2019-07-08T19:59:53Z</time>
      </trkpt>
      <trkpt lat="45.12573" lon="7.06238">
        <ele>575</ele>
        <time>2019-07-08T20:00:00Z</time>
      </trkpt>
      <trkpt lat="45.12555" lon="7.06235">
        <ele>579</ele>
        <time>2019-07-08T20:00:04Z</time>
      </trkpt>
      <trkpt lat="45.1252" lon="7.06224">
        <ele>586</ele>
        <time>2019-07-08T20:00:10Z</time>
      </trkpt>
      <trkpt lat="45.12503" lon="7.06215">
        <ele>589</ele>
        <time>2019-07-08T20:00:13Z</time>
      </trkpt>
      <trkpt lat="45.12481" lon="7.06196">
        <ele>589</ele>
        <time>2019-07-08T20:00:18Z</time>
      </trkpt>
      <trkpt lat="45.12465" lon="7.06186">
        <ele>590</ele>
        <time>2019-07-08T20:00:21Z</time>
      </trkpt>
      <trkpt lat="45.12453" lon="7.06182">
        <ele>591</ele>
        <time>2019-07-08T20:00:23Z</time>
      </trkpt>
      <trkpt lat="45.12413" lon="7.06178">
        <ele>596</ele>
        <time>2019-07-08T20:00:30Z</time>
      </trkpt>
      <trkpt lat="45.12391" lon="7.06218">
        <ele>605</ele>
        <time>2019-07-08T20:00:37Z</time>
      </trkpt>
      <trkpt lat="45.12389" lon="7.06229">
        <ele>606</ele>
        <time>2019-07-08T20:00:38Z</time>
      </trkpt>
      <trkpt lat="45.12391" lon="7.06293">
        <ele>613</ele>
        <time>2019-07-08T20:00:46Z</time>
      </trkpt>
      <trkpt lat="45.124" lon="7.064">
        <ele>624</ele>
        <time>2019-07-08T20:01:00Z</time>
      </trkpt>
      <trkpt lat="45.12399" lon="7.06417">
        <ele>626</ele>
        <time>2019-07-08T20:01:02Z</time>
      </trkpt>
      <trkpt lat="45.12394" lon="7.06441">
        <ele>630</ele>
        <time>2019-07-08T20:01:05Z</time>
      </trkpt>
      <trkpt lat="45.1238" lon="7.06481">
        <ele>637</ele>
        <time>2019-07-08T20:01:11Z</time>
      </trkpt>
      <trkpt lat="45.12381" lon="7.06492">
        <ele>637</ele>
        <time>2019-07-08T20:01:12Z</time>
      </trkpt>
      <trkpt lat="45.12387" lon="7.06502">
        <ele>637</ele>
        <time>2019-07-08T20:01:14Z</time>
      </trkpt>
      <trkpt lat="45.12418" lon="7.06539">
        <ele>636</ele>
        <time>2019-07-08T20:01:21Z</time>
      </trkpt>
      <trkpt lat="45.12424" lon="7.06552">
        <ele>638</ele>
        <time>2019-07-08T20:01:23Z</time>
      </trkpt>
      <trkpt lat="45.12426" lon="7.06567">
        <ele>640</ele>
        <time>2019-07-08T20:01:25Z</time>
      </trkpt>
      <trkpt lat="45.12428" lon="7.06598">
        <ele>642</ele>
        <time>2019-07-08T20:01:29Z</time>
      </trkpt>
      <trkpt lat="45.12424" lon="7.06637">
        <ele>645</ele>
        <time>2019-07-08T20:01:34Z</time>
      </trkpt>
      <trkpt lat="45.12418" lon="7.06647">
        <ele>645</ele>
        <time>2019-07-08T20:01:35Z</time>
      </trkpt>
      <trkpt lat="45.12357" lon="7.06716">
        <ele>650</ele>
        <time>2019-07-08T20:01:49Z</time>
      </trkpt>
      <trkpt lat="45.12341" lon="7.06738">
        <ele>651</ele>
        <time>2019-07-08T20:01:53Z</time>
      </trkpt>
      <trkpt lat="45.123" lon="7.06782">
        <ele>655</ele>
        <time>2019-07-08T20:02:02Z</time>
      </trkpt>
      <trkpt lat="45.12273" lon="7.06805">
        <ele>656</ele>
        <time>2019-07-08T20:02:08Z</time>
      </trkpt>
      <trkpt lat="45.12255" lon="7.06822">
        <ele>656</ele>
        <time>2019-07-08T20:02:12Z</time>
      </trkpt>
      <trkpt lat="45.12252" lon="7.06831">
        <ele>656</ele>
        <time>2019-07-08T20:02:13Z</time>
      </trkpt>
      <trkpt lat="45.12237" lon="7.06912">
        <ele>660</ele>
        <time>2019-07-08T20:02:23Z</time>
      </trkpt>
      <trkpt lat="45.12234" lon="7.06925">
        <ele>661</ele>
        <time>2019-07-08T20:02:25Z</time>
      </trkpt>
      <trkpt lat="45.12232" lon="7.06929">
        <ele>661</ele>
        <time>2019-07-08T20:02:26Z</time>
      </trkpt>
      <trkpt lat="45.12216" lon="7.06938">
        <ele>662</ele>
        <time>2019-07-08T20:02:29Z</time>
      </trkpt>
      <trkpt lat="45.12176" lon="7.06947">
        <ele>667</ele>
        <time>2019-07-08T20:02:36Z</time>
      </trkpt>
      <trkpt lat="45.12162" lon="7.06949">
        <ele>668</ele>
        <time>2019-07-08T20:02:39Z</time>
      </trkpt>
      <trkpt lat="45.12151" lon="7.06946">
        <ele>669</ele>
        <time>2019-07-08T20:02:41Z</time>
      </trkpt>
      <trkpt lat="45.12128" lon="7.06922">
        <ele>672</ele>
        <time>2019-07-08T20:02:46Z</time>
      </trkpt>
      <trkpt lat="45.1212" lon="7.06908">
        <ele>674</ele>
        <time>2019-07-08T20:02:48Z</time>
      </trkpt>
      <trkpt lat="45.12116" lon="7.06898">
        <ele>675</ele>
        <time>2019-07-08T20:02:49Z</time>
      </trkpt>
      <trkpt lat="45.12116" lon="7.06849">
        <ele>678</ele>
        <time>2019-07-08T20:02:55Z</time>
      </trkpt>
      <trkpt lat="45.121" lon="7.06776">
        <ele>681</ele>
        <time>2019-07-08T20:03:05Z</time>
      </trkpt>
      <trkpt lat="45.12105" lon="7.06712">
        <ele>681</ele>
        <time>2019-07-08T20:03:13Z</time>
      </trkpt>
      <trkpt lat="45.12105" lon="7.06702">
        <ele>681</ele>
        <time>2019-07-08T20:03:14Z</time>
      </trkpt>
      <trkpt lat="45.12102" lon="7.06695">
        <ele>682</ele>
        <time>2019-07-08T20:03:15Z</time>
      </trkpt>
      <trkpt lat="45.12091" lon="7.06682">
        <ele>683</ele>
        <time>2019-07-08T20:03:18Z</time>
      </trkpt>
      <trkpt lat="45.12066" lon="7.06666">
        <ele>687</ele>
        <time>2019-07-08T20:03:23Z</time>
      </trkpt>
      <trkpt lat="45.1205" lon="7.06651">
        <ele>691</ele>
        <time>2019-07-08T20:03:26Z</time>
      </trkpt>
      <trkpt lat="45.12046" lon="7.06642">
        <ele>691</ele>
        <time>2019-07-08T20:03:28Z</time>
      </trkpt>
      <trkpt lat="45.12041" lon="7.06625">
        <ele>693</ele>
        <time>2019-07-08T20:03:30Z</time>
      </trkpt>
      <trkpt lat="45.12035" lon="7.0657">
        <ele>694</ele>
        <time>2019-07-08T20:03:37Z</time>
      </trkpt>
      <trkpt lat="45.12029" lon="7.06554">
        <ele>694</ele>
        <time>2019-07-08T20:03:39Z</time>
      </trkpt>
      <trkpt lat="45.12022" lon="7.06541">
        <ele>695</ele>
        <time>2019-07-08T20:03:41Z</time>
      </trkpt>
      <trkpt lat="45.12013" lon="7.0653">
        <ele>697</ele>
        <time>2019-07-08T20:03:43Z</time>
      </trkpt>
      <trkpt lat="45.11977" lon="7.06512">
        <ele>702</ele>
        <time>2019-07-08T20:03:50Z</time>
      </trkpt>
      <trkpt lat="45.119" lon="7.06502">
        <ele>714</ele>
        <time>2019-07-08T20:04:04Z</time>
      </trkpt>
      <trkpt lat="45.11896" lon="7.06499">
        <ele>715</ele>
        <time>2019-07-08T20:04:05Z</time>
      </trkpt>
      <trkpt lat="45.11891" lon="7.06491">
        <ele>717</ele>
        <time>2019-07-08T20:04:06Z</time>
      </trkpt>
      <trkpt lat="45.11888" lon="7.06476">
        <ele>718</ele>
        <time>2019-07-08T20:04:08Z</time>
      </trkpt>
      <trkpt lat="45.11895" lon="7.06418">
        <ele>719</ele>
        <time>2019-07-08T20:04:15Z</time>
      </trkpt>
      <trkpt lat="45.11891" lon="7.064">
        <ele>720</ele>
        <time>2019-07-08T20:04:18Z</time>
      </trkpt>
      <trkpt lat="45.11887" lon="7.06391">
        <ele>720</ele>
        <time>2019-07-08T20:04:19Z</time>
      </trkpt>
      <trkpt lat="45.1187" lon="7.06364">
        <ele>723</ele>
        <time>2019-07-08T20:04:24Z</time>
      </trkpt>
      <trkpt lat="45.11822" lon="7.06303">
        <ele>735</ele>
        <time>2019-07-08T20:04:35Z</time>
      </trkpt>
      <trkpt lat="45.11816" lon="7.0629">
        <ele>737</ele>
        <time>2019-07-08T20:04:37Z</time>
      </trkpt>
      <trkpt lat="45.11818" lon="7.06276">
        <ele>737</ele>
        <time>2019-07-08T20:04:39Z</time>
      </trkpt>
      <trkpt lat="45.11823" lon="7.0626">
        <ele>736</ele>
        <time>2019-07-08T20:04:41Z</time>
      </trkpt>
      <trkpt lat="45.11822" lon="7.0625">
        <ele>737</ele>
        <time>2019-07-08T20:04:42Z</time>
      </trkpt>
      <trkpt lat="45.11819" lon="7.06246">
        <ele>738</ele>
        <time>2019-07-08T20:04:43Z</time>
      </trkpt>
      <trkpt lat="45.11815" lon="7.06244">
        <ele>739</ele>
        <time>2019-07-08T20:04:44Z</time>
      </trkpt>
      <trkpt lat="45.1181" lon="7.06247">
        <ele>740</ele>
        <time>2019-07-08T20:04:45Z</time>
      </trkpt>
      <trkpt lat="45.11791" lon="7.06263">
        <ele>745</ele>
        <time>2019-07-08T20:04:49Z</time>
      </trkpt>
      <trkpt lat="45.1178" lon="7.06276">
        <ele>748</ele>
        <time>2019-07-08T20:04:51Z</time>
      </trkpt>
      <trkpt lat="45.11767" lon="7.06324">
        <ele>752</ele>
        <time>2019-07-08T20:04:58Z</time>
      </trkpt>
      <trkpt lat="45.11765" lon="7.06343">
        <ele>752</ele>
        <time>2019-07-08T20:05:00Z</time>
      </trkpt>
      <trkpt lat="45.11766" lon="7.06361">
        <ele>750</ele>
        <time>2019-07-08T20:05:02Z</time>
      </trkpt>
      <trkpt lat="45.11769" lon="7.06375">
        <ele>748</ele>
        <time>2019-07-08T20:05:04Z</time>
      </trkpt>
      <trkpt lat="45.11769" lon="7.06387">
        <ele>747</ele>
        <time>2019-07-08T20:05:06Z</time>
      </trkpt>
      <trkpt lat="45.11765" lon="7.06395">
        <ele>748</ele>
        <time>2019-07-08T20:05:07Z</time>
      </trkpt>
      <trkpt lat="45.11759" lon="7.06402">
        <ele>749</ele>
        <time>2019-07-08T20:05:08Z</time>
      </trkpt>
      <trkpt lat="45.11708" lon="7.06403">
        <ele>766</ele>
        <time>2019-07-08T20:05:17Z</time>
      </trkpt>
      <trkpt lat="45.11697" lon="7.06406">
        <ele>769</ele>
        <time>2019-07-08T20:05:19Z</time>
      </trkpt>
      <trkpt lat="45.11684" lon="7.06415">
        <ele>772</ele>
        <time>2019-07-08T20:05:22Z</time>
      </trkpt>
      <trkpt lat="45.11673" lon="7.06428">
        <ele>774</ele>
        <time>2019-07-08T20:05:25Z</time>
      </trkpt>
      <trkpt lat="45.11662" lon="7.06449">
        <ele>775</ele>
        <time>2019-07-08T20:05:28Z</time>
      </trkpt>
      <trkpt lat="45.11638" lon="7.06538">
        <ele>776</ele>
        <time>2019-07-08T20:05:40Z</time>
      </trkpt>
      <trkpt lat="45.11631" lon="7.06548">
        <ele>778</ele>
        <time>2019-07-08T20:05:42Z</time>
      </trkpt>
      <trkpt lat="45.1162" lon="7.06554">
        <ele>782</ele>
        <time>2019-07-08T20:05:44Z</time>
      </trkpt>
      <trkpt lat="45.11605" lon="7.06555">
        <ele>787</ele>
        <time>2019-07-08T20:05:46Z</time>
      </trkpt>
      <trkpt lat="45.11602" lon="7.06558">
        <ele>788</ele>
        <time>2019-07-08T20:05:47Z</time>
      </trkpt>
      <trkpt lat="45.11599" lon="7.06566">
        <ele>788</ele>
        <time>2019-07-08T20:05:48Z</time>
      </trkpt>
      <trkpt lat="45.11608" lon="7.06602">
        <ele>785</ele>
        <time>2019-07-08T20:05:53Z</time>
      </trkpt>
      <trkpt lat="45.11608" lon="7.06635">
        <ele>787</ele>
        <time>2019-07-08T20:05:57Z</time>
      </trkpt>
      <trkpt lat="45.11611" lon="7.06675">
        <ele>789</ele>
        <time>2019-07-08T20:06:02Z</time>
      </trkpt>
      <trkpt lat="45.11616" lon="7.06687">
        <ele>788</ele>
        <time>2019-07-08T20:06:04Z</time>
      </trkpt>
      <trkpt lat="45.11634" lon="7.06714">
        <ele>782</ele>
        <time>2019-07-08T20:06:08Z</time>
      </trkpt>
      <trkpt lat="45.11637" lon="7.06724">
        <ele>781</ele>
        <time>2019-07-08T20:06:10Z</time>
      </trkpt>
      <trkpt lat="45.11638" lon="7.06737">
        <ele>782</ele>
        <time>2019-07-08T20:06:12Z</time>
      </trkpt>
      <trkpt lat="45.11636" lon="7.06756">
        <ele>783</ele>
        <time>2019-07-08T20:06:14Z</time>
      </trkpt>
      <trkpt lat="45.11625" lon="7.06792">
        <ele>788</ele>
        <time>2019-07-08T20:06:19Z</time>
      </trkpt>
      <trkpt lat="45.11623" lon="7.06818">
        <ele>789</ele>
        <time>2019-07-08T20:06:22Z</time>
      </trkpt>
      <trkpt lat="45.11613" lon="7.06872">
        <ele>791</ele>
        <time>2019-07-08T20:06:29Z</time>
      </trkpt>
      <trkpt lat="45.11603" lon="7.06892">
        <ele>796</ele>
        <time>2019-07-08T20:06:32Z</time>
      </trkpt>
      <trkpt lat="45.11589" lon="7.06905">
        <ele>803</ele>
        <time>2019-07-08T20:06:35Z</time>
      </trkpt>
      <trkpt lat="45.11544" lon="7.06925">
        <ele>816</ele>
        <time>2019-07-08T20:06:44Z</time>
      </trkpt>
      <trkpt lat="45.11524" lon="7.06937">
        <ele>821</ele>
        <time>2019-07-08T20:06:47Z</time>
      </trkpt>
      <trkpt lat="45.11496" lon="7.06969">
        <ele>828</ele>
        <time>2019-07-08T20:06:54Z</time>
      </trkpt>
      <trkpt lat="45.11489" lon="7.06966">
        <ele>831</ele>
        <time>2019-07-08T20:06:55Z</time>
      </trkpt>
      <trkpt lat="45.11487" lon="7.06958">
        <ele>832</ele>
        <time>2019-07-08T20:06:56Z</time>
      </trkpt>
      <trkpt lat="45.11494" lon="7.06941">
        <ele>830</ele>
        <time>2019-07-08T20:06:59Z</time>
      </trkpt>
      <trkpt lat="45.11509" lon="7.06917">
        <ele>826</ele>
        <time>2019-07-08T20:07:03Z</time>
      </trkpt>
      <trkpt lat="45.11521" lon="7.06892">
        <ele>825</ele>
        <time>2019-07-08T20:07:07Z</time>
      </trkpt>
      <trkpt lat="45.1153" lon="7.06871">
        <ele>823</ele>
        <time>2019-07-08T20:07:10Z</time>
      </trkpt>
      <trkpt lat="45.11533" lon="7.06854">
        <ele>824</ele>
        <time>2019-07-08T20:07:12Z</time>
      </trkpt>
      <trkpt lat="45.11531" lon="7.0684">
        <ele>825</ele>
        <time>2019-07-08T20:07:14Z</time>
      </trkpt>
      <trkpt lat="45.11526" lon="7.06825">
        <ele>827</ele>
        <time>2019-07-08T20:07:16Z</time>
      </trkpt>
      <trkpt lat="45.11497" lon="7.06777">
        <ele>833</ele>
        <time>2019-07-08T20:07:24Z</time>
      </trkpt>
      <trkpt lat="45.11473" lon="7.06731">
        <ele>839</ele>
        <time>2019-07-08T20:07:31Z</time>
      </trkpt>
      <trkpt lat="45.11455" lon="7.06712">
        <ele>843</ele>
        <time>2019-07-08T20:07:35Z</time>
      </trkpt>
      <trkpt lat="45.11433" lon="7.06698">
        <ele>849</ele>
        <time>2019-07-08T20:07:39Z</time>
      </trkpt>
      <trkpt lat="45.11419" lon="7.06681">
        <ele>851</ele>
        <time>2019-07-08T20:07:42Z</time>
      </trkpt>
      <trkpt lat="45.11397" lon="7.06634">
        <ele>853</ele>
        <time>2019-07-08T20:07:49Z</time>
      </trkpt>
      <trkpt lat="45.11388" lon="7.06625">
        <ele>855</ele>
        <time>2019-07-08T20:07:51Z</time>
      </trkpt>
      <trkpt lat="45.11354" lon="7.06602">
        <ele>864</ele>
        <time>2019-07-08T20:07:58Z</time>
      </trkpt>
      <trkpt lat="45.11341" lon="7.06582">
        <ele>866</ele>
        <time>2019-07-08T20:08:02Z</time>
      </trkpt>
      <trkpt lat="45.11327" lon="7.06556">
        <ele>871</ele>
        <time>2019-07-08T20:08:06Z</time>
      </trkpt>
      <trkpt lat="45.11315" lon="7.0652">
        <ele>875</ele>
        <time>2019-07-08T20:08:11Z</time>
      </trkpt>
      <trkpt lat="45.11314" lon="7.06482">
        <ele>877</ele>
        <time>2019-07-08T20:08:15Z</time>
      </trkpt>
      <trkpt lat="45.11316" lon="7.06432">
        <ele>883</ele>
        <time>2019-07-08T20:08:22Z</time>
      </trkpt>
      <trkpt lat="45.1132" lon="7.06415">
        <ele>885</ele>
        <time>2019-07-08T20:08:24Z</time>
      </trkpt>
      <trkpt lat="45.11336" lon="7.06387">
        <ele>885</ele>
        <time>2019-07-08T20:08:28Z</time>
      </trkpt>
      <trkpt lat="45.11356" lon="7.06368">
        <ele>885</ele>
        <time>2019-07-08T20:08:33Z</time>
      </trkpt>
      <trkpt lat="45.11383" lon="7.06357">
        <ele>882</ele>
        <time>2019-07-08T20:08:38Z</time>
      </trkpt>
      <trkpt lat="45.1141" lon="7.06338">
        <ele>880</ele>
        <time>2019-07-08T20:08:43Z</time>
      </trkpt>
      <trkpt lat="45.11432" lon="7.06312">
        <ele>874</ele>
        <time>2019-07-08T20:08:48Z</time>
      </trkpt>
      <trkpt lat="45.11439" lon="7.06296">
        <ele>871</ele>
        <time>2019-07-08T20:08:51Z</time>
      </trkpt>
      <trkpt lat="45.11438" lon="7.06285">
        <ele>871</ele>
        <time>2019-07-08T20:08:52Z</time>
      </trkpt>
      <trkpt lat="45.11436" lon="7.06282">
        <ele>871</ele>
        <time>2019-07-08T20:08:52Z</time>
      </trkpt>
      <trkpt lat="45.11431" lon="7.06284">
        <ele>874</ele>
        <time>2019-07-08T20:08:53Z</time>
      </trkpt>
      <trkpt lat="45.11418" lon="7.063">
        <ele>879</ele>
        <time>2019-07-08T20:08:56Z</time>
      </trkpt>
      <trkpt lat="45.11408" lon="7.06306">
        <ele>882</ele>
        <time>2019-07-08T20:08:58Z</time>
      </trkpt>
      <trkpt lat="45.1139" lon="7.06307">
        <ele>886</ele>
        <time>2019-07-08T20:09:02Z</time>
      </trkpt>
      <trkpt lat="45.11363" lon="7.06303">
        <ele>894</ele>
        <time>2019-07-08T20:09:06Z</time>
      </trkpt>
      <trkpt lat="45.11268" lon="7.06316">
        <ele>910</ele>
        <time>2019-07-08T20:09:23Z</time>
      </trkpt>
      <trkpt lat="45.11239" lon="7.06316">
        <ele>918</ele>
        <time>2019-07-08T20:09:29Z</time>
      </trkpt>
      <trkpt lat="45.11224" lon="7.0632">
        <ele>924</ele>
        <time>2019-07-08T20:09:31Z</time>
      </trkpt>
      <trkpt lat="45.11217" lon="7.06329">
        <ele>925</ele>
        <time>2019-07-08T20:09:33Z</time>
      </trkpt>
      <trkpt lat="45.1122" lon="7.06354">
        <ele>922</ele>
        <time>2019-07-08T20:09:36Z</time>
      </trkpt>
      <trkpt lat="45.11223" lon="7.06367">
        <ele>920</ele>
        <time>2019-07-08T20:09:38Z</time>
      </trkpt>
      <trkpt lat="45.11223" lon="7.06378">
        <ele>919</ele>
        <time>2019-07-08T20:09:39Z</time>
      </trkpt>
      <trkpt lat="45.1122" lon="7.06386">
        <ele>920</ele>
        <time>2019-07-08T20:09:40Z</time>
      </trkpt>
      <trkpt lat="45.11213" lon="7.06386">
        <ele>923</ele>
        <time>2019-07-08T20:09:42Z</time>
      </trkpt>
      <trkpt lat="45.11209" lon="7.06377">
        <ele>926</ele>
        <time>2019-07-08T20:09:43Z</time>
      </trkpt>
      <trkpt lat="45.11192" lon="7.06336">
        <ele>936</ele>
        <time>2019-07-08T20:09:49Z</time>
      </trkpt>
      <trkpt lat="45.11184" lon="7.06299">
        <ele>943</ele>
        <time>2019-07-08T20:09:54Z</time>
      </trkpt>
      <trkpt lat="45.11186" lon="7.06268">
        <ele>945</ele>
        <time>2019-07-08T20:09:58Z</time>
      </trkpt>
      <trkpt lat="45.11196" lon="7.06245">
        <ele>945</ele>
        <time>2019-07-08T20:10:01Z</time>
      </trkpt>
      <trkpt lat="45.11216" lon="7.06224">
        <ele>944</ele>
        <time>2019-07-08T20:10:06Z</time>
      </trkpt>
      <trkpt lat="45.11271" lon="7.06204">
        <ele>932</ele>
        <time>2019-07-08T20:10:16Z</time>
      </trkpt>
      <trkpt lat="45.11288" lon="7.06195">
        <ele>928</ele>
        <time>2019-07-08T20:10:19Z</time>
      </trkpt>
      <trkpt lat="45.11294" lon="7.06187">
        <ele>928</ele>
        <time>2019-07-08T20:10:20Z</time>
      </trkpt>
      <trkpt lat="45.11295" lon="7.06179">
        <ele>928</ele>
        <time>2019-07-08T20:10:21Z</time>
      </trkpt>
      <trkpt lat="45.11294" lon="7.06172">
        <ele>929</ele>
        <time>2019-07-08T20:10:22Z</time>
      </trkpt>
      <trkpt lat="45.11287" lon="7.06168">
        <ele>933</ele>
        <time>2019-07-08T20:10:24Z</time>
      </trkpt>
      <trkpt lat="45.11269" lon="7.06167">
        <ele>940</ele>
        <time>2019-07-08T20:10:27Z</time>
      </trkpt>
      <trkpt lat="45.11237" lon="7.06168">
        <ele>951</ele>
        <time>2019-07-08T20:10:32Z</time>
      </trkpt>
      <trkpt lat="45.11206" lon="7.06176">
        <ele>958</ele>
        <time>2019-07-08T20:10:38Z</time>
      </trkpt>
      <trkpt lat="45.11182" lon="7.06192">
        <ele>962</ele>
        <time>2019-07-08T20:10:43Z</time>
      </trkpt>
      <trkpt lat="45.11167" lon="7.06206">
        <ele>963</ele>
        <time>2019-07-08T20:10:46Z</time>
      </trkpt>
      <trkpt lat="45.11156" lon="7.06226">
        <ele>966</ele>
        <time>2019-07-08T20:10:49Z</time>
      </trkpt>
      <trkpt lat="45.11151" lon="7.06231">
        <ele>968</ele>
        <time>2019-07-08T20:10:50Z</time>
      </trkpt>
      <trkpt lat="45.11148" lon="7.06228">
        <ele>971</ele>
        <time>2019-07-08T20:10:51Z</time>
      </trkpt>
      <trkpt lat="45.11146" lon="7.06222">
        <ele>974</ele>
        <time>2019-07-08T20:10:52Z</time>
      </trkpt>
      <trkpt lat="45.11152" lon="7.06207">
        <ele>973</ele>
        <time>2019-07-08T20:10:54Z</time>
      </trkpt>
      <trkpt lat="45.1117" lon="7.06175">
        <ele>970</ele>
        <time>2019-07-08T20:10:59Z</time>
      </trkpt>
      <trkpt lat="45.11194" lon="7.06138">
        <ele>968</ele>
        <time>2019-07-08T20:11:05Z</time>
      </trkpt>
      <trkpt lat="45.1121" lon="7.06092">
        <ele>969</ele>
        <time>2019-07-08T20:11:12Z</time>
      </trkpt>
      <trkpt lat="45.11215" lon="7.06072">
        <ele>968</ele>
        <time>2019-07-08T20:11:14Z</time>
      </trkpt>
      <trkpt lat="45.11215" lon="7.06058">
        <ele>968</ele>
        <time>2019-07-08T20:11:16Z</time>
      </trkpt>
      <trkpt lat="45.11213" lon="7.06047">
        <ele>968</ele>
        <time>2019-07-08T20:11:18Z</time>
      </trkpt>
      <trkpt lat="45.1121" lon="7.06041">
        <ele>969</ele>
        <time>2019-07-08T20:11:19Z</time>
      </trkpt>
      <trkpt lat="45.11205" lon="7.0604">
        <ele>971</ele>
        <time>2019-07-08T20:11:19Z</time>
      </trkpt>
      <trkpt lat="45.11201" lon="7.06043">
        <ele>973</ele>
        <time>2019-07-08T20:11:20Z</time>
      </trkpt>
      <trkpt lat="45.11197" lon="7.0605">
        <ele>974</ele>
        <time>2019-07-08T20:11:21Z</time>
      </trkpt>
      <trkpt lat="45.1119" lon="7.06086">
        <ele>977</ele>
        <time>2019-07-08T20:11:26Z</time>
      </trkpt>
      <trkpt lat="45.11175" lon="7.06115">
        <ele>979</ele>
        <time>2019-07-08T20:11:31Z</time>
      </trkpt>
      <trkpt lat="45.11163" lon="7.06129">
        <ele>981</ele>
        <time>2019-07-08T20:11:33Z</time>
      </trkpt>
      <trkpt lat="45.11152" lon="7.06151">
        <ele>983</ele>
        <time>2019-07-08T20:11:37Z</time>
      </trkpt>
      <trkpt lat="45.11144" lon="7.0616">
        <ele>986</ele>
        <time>2019-07-08T20:11:39Z</time>
      </trkpt>
      <trkpt lat="45.11139" lon="7.06161">
        <ele>989</ele>
        <time>2019-07-08T20:11:40Z</time>
      </trkpt>
      <trkpt lat="45.11136" lon="7.06156">
        <ele>991</ele>
        <time>2019-07-08T20:11:40Z</time>
      </trkpt>
      <trkpt lat="45.11137" lon="7.06146">
        <ele>991</ele>
        <time>2019-07-08T20:11:42Z</time>
      </trkpt>
      <trkpt lat="45.11148" lon="7.06114">
        <ele>990</ele>
        <time>2019-07-08T20:11:46Z</time>
      </trkpt>
      <trkpt lat="45.11152" lon="7.06085">
        <ele>992</ele>
        <time>2019-07-08T20:11:50Z</time>
      </trkpt>
      <trkpt lat="45.1115" lon="7.06049">
        <ele>992</ele>
        <time>2019-07-08T20:11:54Z</time>
      </trkpt>
      <trkpt lat="45.11145" lon="7.06036">
        <ele>993</ele>
        <time>2019-07-08T20:11:56Z</time>
      </trkpt>
      <trkpt lat="45.11139" lon="7.06033">
        <ele>995</ele>
        <time>2019-07-08T20:11:57Z</time>
      </trkpt>
      <trkpt lat="45.11133" lon="7.06035">
        <ele>997</ele>
        <time>2019-07-08T20:11:58Z</time>
      </trkpt>
      <trkpt lat="45.11127" lon="7.06062">
        <ele>1001</ele>
        <time>2019-07-08T20:12:02Z</time>
      </trkpt>
      <trkpt lat="45.11127" lon="7.0611">
        <ele>1000</ele>
        <time>2019-07-08T20:12:08Z</time>
      </trkpt>
      <trkpt lat="45.11121" lon="7.06144">
        <ele>1000</ele>
        <time>2019-07-08T20:12:12Z</time>
      </trkpt>
      <trkpt lat="45.11114" lon="7.06168">
        <ele>1001</ele>
        <time>2019-07-08T20:12:16Z</time>
      </trkpt>
      <trkpt lat="45.11109" lon="7.06177">
        <ele>1003</ele>
        <time>2019-07-08T20:12:17Z</time>
      </trkpt>
      <trkpt lat="45.11105" lon="7.06179">
        <ele>1005</ele>
        <time>2019-07-08T20:12:18Z</time>
      </trkpt>
      <trkpt lat="45.11103" lon="7.06174">
        <ele>1007</ele>
        <time>2019-07-08T20:12:19Z</time>
      </trkpt>
      <trkpt lat="45.11102" lon="7.06165">
        <ele>1008</ele>
        <time>2019-07-08T20:12:20Z</time>
      </trkpt>
      <trkpt lat="45.11106" lon="7.06088">
        <ele>1010</ele>
        <time>2019-07-08T20:12:29Z</time>
      </trkpt>
      <trkpt lat="45.11103" lon="7.06075">
        <ele>1011</ele>
        <time>2019-07-08T20:12:31Z</time>
      </trkpt>
      <trkpt lat="45.11096" lon="7.0607">
        <ele>1013</ele>
        <time>2019-07-08T20:12:33Z</time>
      </trkpt>
      <trkpt lat="45.1109" lon="7.06073">
        <ele>1016</ele>
        <time>2019-07-08T20:12:34Z</time>
      </trkpt>
      <trkpt lat="45.11086" lon="7.06169">
        <ele>1016</ele>
        <time>2019-07-08T20:12:46Z</time>
      </trkpt>
      <trkpt lat="45.11085" lon="7.06177">
        <ele>1017</ele>
        <time>2019-07-08T20:12:47Z</time>
      </trkpt>
      <trkpt lat="45.11082" lon="7.06179">
        <ele>1018</ele>
        <time>2019-07-08T20:12:47Z</time>
      </trkpt>
      <trkpt lat="45.11079" lon="7.06177">
        <ele>1020</ele>
        <time>2019-07-08T20:12:48Z</time>
      </trkpt>
      <trkpt lat="45.11074" lon="7.0616">
        <ele>1023</ele>
        <time>2019-07-08T20:12:50Z</time>
      </trkpt>
      <trkpt lat="45.11068" lon="7.06113">
        <ele>1026</ele>
        <time>2019-07-08T20:12:56Z</time>
      </trkpt>
      <trkpt lat="45.11068" lon="7.06097">
        <ele>1026</ele>
        <time>2019-07-08T20:12:58Z</time>
      </trkpt>
      <trkpt lat="45.11066" lon="7.0609">
        <ele>1026</ele>
        <time>2019-07-08T20:12:59Z</time>
      </trkpt>
      <trkpt lat="45.11061" lon="7.06086">
        <ele>1029</ele>
        <time>2019-07-08T20:13:00Z</time>
      </trkpt>
      <trkpt lat="45.11057" lon="7.06089">
        <ele>1030</ele>
        <time>2019-07-08T20:13:01Z</time>
      </trkpt>
      <trkpt lat="45.11055" lon="7.06127">
        <ele>1032</ele>
        <time>2019-07-08T20:13:06Z</time>
      </trkpt>
      <trkpt lat="45.11056" lon="7.06167">
        <ele>1031</ele>
        <time>2019-07-08T20:13:11Z</time>
      </trkpt>
      <trkpt lat="45.11059" lon="7.06187">
        <ele>1030</ele>
        <time>2019-07-08T20:13:13Z</time>
      </trkpt>
      <trkpt lat="45.11057" lon="7.06193">
        <ele>1031</ele>
        <time>2019-07-08T20:13:14Z</time>
      </trkpt>
      <trkpt lat="45.11053" lon="7.06193">
        <ele>1033</ele>
        <time>2019-07-08T20:13:15Z</time>
      </trkpt>
      <trkpt lat="45.11039" lon="7.0615">
        <ele>1039</ele>
        <time>2019-07-08T20:13:21Z</time>
      </trkpt>
      <trkpt lat="45.11029" lon="7.0611">
        <ele>1043</ele>
        <time>2019-07-08T20:13:26Z</time>
      </trkpt>
      <trkpt lat="45.11022" lon="7.06089">
        <ele>1046</ele>
        <time>2019-07-08T20:13:29Z</time>
      </trkpt>
      <trkpt lat="45.11018" lon="7.06083">
        <ele>1047</ele>
        <time>2019-07-08T20:13:30Z</time>
      </trkpt>
      <trkpt lat="45.11014" lon="7.06083">
        <ele>1049</ele>
        <time>2019-07-08T20:13:31Z</time>
      </trkpt>
      <trkpt lat="45.11011" lon="7.06088">
        <ele>1050</ele>
        <time>2019-07-08T20:13:32Z</time>
      </trkpt>
      <trkpt lat="45.11011" lon="7.06095">
        <ele>1051</ele>
        <time>2019-07-08T20:13:33Z</time>
      </trkpt>
      <trkpt lat="45.1102" lon="7.06145">
        <ele>1048</ele>
        <time>2019-07-08T20:13:39Z</time>
      </trkpt>
      <trkpt lat="45.11023" lon="7.06173">
        <ele>1048</ele>
        <time>2019-07-08T20:13:43Z</time>
      </trkpt>
      <trkpt lat="45.11023" lon="7.06202">
        <ele>1051</ele>
        <time>2019-07-08T20:13:46Z</time>
      </trkpt>
      <trkpt lat="45.11021" lon="7.0621">
        <ele>1052</ele>
        <time>2019-07-08T20:13:47Z</time>
      </trkpt>
      <trkpt lat="45.11014" lon="7.06209">
        <ele>1056</ele>
        <time>2019-07-08T20:13:49Z</time>
      </trkpt>
      <trkpt lat="45.11004" lon="7.0616">
        <ele>1057</ele>
        <time>2019-07-08T20:13:55Z</time>
      </trkpt>
      <trkpt lat="45.11" lon="7.06149">
        <ele>1058</ele>
        <time>2019-07-08T20:13:57Z</time>
      </trkpt>
      <trkpt lat="45.10996" lon="7.06148">
        <ele>1060</ele>
        <time>2019-07-08T20:13:57Z</time>
      </trkpt>
      <trkpt lat="45.10993" lon="7.0615">
        <ele>1061</ele>
        <time>2019-07-08T20:13:58Z</time>
      </trkpt>
      <trkpt lat="45.10992" lon="7.06157">
        <ele>1062</ele>
        <time>2019-07-08T20:13:59Z</time>
      </trkpt>
      <trkpt lat="45.10999" lon="7.06185">
        <ele>1062</ele>
        <time>2019-07-08T20:14:02Z</time>
      </trkpt>
      <trkpt lat="45.11001" lon="7.06202">
        <ele>1063</ele>
        <time>2019-07-08T20:14:05Z</time>
      </trkpt>
      <trkpt lat="45.10999" lon="7.06216">
        <ele>1066</ele>
        <time>2019-07-08T20:14:06Z</time>
      </trkpt>
      <trkpt lat="45.10996" lon="7.06216">
        <ele>1067</ele>
        <time>2019-07-08T20:14:07Z</time>
      </trkpt>
      <trkpt lat="45.10993" lon="7.06214">
        <ele>1069</ele>
        <time>2019-07-08T20:14:08Z</time>
      </trkpt>
      <trkpt lat="45.10991" lon="7.06209">
        <ele>1069</ele>
        <time>2019-07-08T20:14:08Z</time>
      </trkpt>
      <trkpt lat="45.10983" lon="7.06165">
        <ele>1067</ele>
        <time>2019-07-08T20:14:14Z</time>
      </trkpt>
      <trkpt lat="45.10979" lon="7.0616">
        <ele>1068</ele>
        <time>2019-07-08T20:14:15Z</time>
      </trkpt>
      <trkpt lat="45.10976" lon="7.06158">
        <ele>1069</ele>
        <time>2019-07-08T20:14:16Z</time>
      </trkpt>
      <trkpt lat="45.10972" lon="7.06161">
        <ele>1071</ele>
        <time>2019-07-08T20:14:16Z</time>
      </trkpt>
      <trkpt lat="45.10971" lon="7.06165">
        <ele>1072</ele>
        <time>2019-07-08T20:14:17Z</time>
      </trkpt>
      <trkpt lat="45.10975" lon="7.06196">
        <ele>1075</ele>
        <time>2019-07-08T20:14:21Z</time>
      </trkpt>
      <trkpt lat="45.10974" lon="7.06202">
        <ele>1076</ele>
        <time>2019-07-08T20:14:22Z</time>
      </trkpt>
      <trkpt lat="45.10968" lon="7.06208">
        <ele>1080</ele>
        <time>2019-07-08T20:14:23Z</time>
      </trkpt>
      <trkpt lat="45.10963" lon="7.06221">
        <ele>1084</ele>
        <time>2019-07-08T20:14:25Z</time>
      </trkpt>
      <trkpt lat="45.10961" lon="7.06239">
        <ele>1088</ele>
        <time>2019-07-08T20:14:27Z</time>
      </trkpt>
      <trkpt lat="45.10962" lon="7.06246">
        <ele>1089</ele>
        <time>2019-07-08T20:14:28Z</time>
      </trkpt>
      <trkpt lat="45.10969" lon="7.06256">
        <ele>1087</ele>
        <time>2019-07-08T20:14:30Z</time>
      </trkpt>
      <trkpt lat="45.10974" lon="7.06261">
        <ele>1085</ele>
        <time>2019-07-08T20:14:31Z</time>
      </trkpt>
      <trkpt lat="45.10991" lon="7.06268">
        <ele>1077</ele>
        <time>2019-07-08T20:14:34Z</time>
      </trkpt>
      <trkpt lat="45.10993" lon="7.06273">
        <ele>1077</ele>
        <time>2019-07-08T20:14:35Z</time>
      </trkpt>
      <trkpt lat="45.10992" lon="7.06277">
        <ele>1078</ele>
        <time>2019-07-08T20:14:35Z</time>
      </trkpt>
      <trkpt lat="45.1099" lon="7.0628">
        <ele>1080</ele>
        <time>2019-07-08T20:14:36Z</time>
      </trkpt>
      <trkpt lat="45.10984" lon="7.06281">
        <ele>1083</ele>
        <time>2019-07-08T20:14:37Z</time>
      </trkpt>
      <trkpt lat="45.10972" lon="7.0628">
        <ele>1090</ele>
        <time>2019-07-08T20:14:39Z</time>
      </trkpt>
      <trkpt lat="45.10959" lon="7.06274">
        <ele>1096</ele>
        <time>2019-07-08T20:14:41Z</time>
      </trkpt>
      <trkpt lat="45.10952" lon="7.06263">
        <ele>1097</ele>
        <time>2019-07-08T20:14:43Z</time>
      </trkpt>
      <trkpt lat="45.10927" lon="7.06182">
        <ele>1095</ele>
        <time>2019-07-08T20:14:54Z</time>
      </trkpt>
      <trkpt lat="45.10923" lon="7.06179">
        <ele>1096</ele>
        <time>2019-07-08T20:14:55Z</time>
      </trkpt>
      <trkpt lat="45.10918" lon="7.06182">
        <ele>1099</ele>
        <time>2019-07-08T20:14:56Z</time>
      </trkpt>
      <trkpt lat="45.10917" lon="7.06187">
        <ele>1101</ele>
        <time>2019-07-08T20:14:57Z</time>
      </trkpt>
      <trkpt lat="45.10927" lon="7.06218">
        <ele>1101</ele>
        <time>2019-07-08T20:15:01Z</time>
      </trkpt>
      <trkpt lat="45.10929" lon="7.06235">
        <ele>1103</ele>
        <time>2019-07-08T20:15:03Z</time>
      </trkpt>
      <trkpt lat="45.10929" lon="7.0624">
        <ele>1104</ele>
        <time>2019-07-08T20:15:04Z</time>
      </trkpt>
      <trkpt lat="45.10926" lon="7.06242">
        <ele>1106</ele>
        <time>2019-07-08T20:15:04Z</time>
      </trkpt>
      <trkpt lat="45.10922" lon="7.0624">
        <ele>1108</ele>
        <time>2019-07-08T20:15:05Z</time>
      </trkpt>
      <trkpt lat="45.10919" lon="7.06235">
        <ele>1108</ele>
        <time>2019-07-08T20:15:06Z</time>
      </trkpt>
      <trkpt lat="45.10914" lon="7.0622">
        <ele>1108</ele>
        <time>2019-07-08T20:15:08Z</time>
      </trkpt>
      <trkpt lat="45.10907" lon="7.06189">
        <ele>1104</ele>
        <time>2019-07-08T20:15:12Z</time>
      </trkpt>
      <trkpt lat="45.10902" lon="7.06186">
        <ele>1106</ele>
        <time>2019-07-08T20:15:13Z</time>
      </trkpt>
      <trkpt lat="45.10899" lon="7.0619">
        <ele>1108</ele>
        <time>2019-07-08T20:15:14Z</time>
      </trkpt>
      <trkpt lat="45.10901" lon="7.06211">
        <ele>1111</ele>
        <time>2019-07-08T20:15:17Z</time>
      </trkpt>
      <trkpt lat="45.10907" lon="7.0623">
        <ele>1112</ele>
        <time>2019-07-08T20:15:19Z</time>
      </trkpt>
      <trkpt lat="45.1092" lon="7.06258">
        <ele>1113</ele>
        <time>2019-07-08T20:15:23Z</time>
      </trkpt>
      <trkpt lat="45.10918" lon="7.06263">
        <ele>1116</ele>
        <time>2019-07-08T20:15:24Z</time>
      </trkpt>
      <trkpt lat="45.10915" lon="7.06265">
        <ele>1118</ele>
        <time>2019-07-08T20:15:25Z</time>
      </trkpt>
      <trkpt lat="45.10912" lon="7.06264">
        <ele>1118</ele>
        <time>2019-07-08T20:15:25Z</time>
      </trkpt>
      <trkpt lat="45.10882" lon="7.06232">
        <ele>1121</ele>
        <time>2019-07-08T20:15:32Z</time>
      </trkpt>
      <trkpt lat="45.10869" lon="7.06196">
        <ele>1119</ele>
        <time>2019-07-08T20:15:37Z</time>
      </trkpt>
      <trkpt lat="45.10865" lon="7.0619">
        <ele>1120</ele>
        <time>2019-07-08T20:15:38Z</time>
      </trkpt>
      <trkpt lat="45.10861" lon="7.06188">
        <ele>1121</ele>
        <time>2019-07-08T20:15:39Z</time>
      </trkpt>
      <trkpt lat="45.10858" lon="7.06195">
        <ele>1123</ele>
        <time>2019-07-08T20:15:40Z</time>
      </trkpt>
      <trkpt lat="45.10859" lon="7.06203">
        <ele>1124</ele>
        <time>2019-07-08T20:15:41Z</time>
      </trkpt>
      <trkpt lat="45.10867" lon="7.06227">
        <ele>1126</ele>
        <time>2019-07-08T20:15:44Z</time>
      </trkpt>
      <trkpt lat="45.10875" lon="7.06246">
        <ele>1126</ele>
        <time>2019-07-08T20:15:47Z</time>
      </trkpt>
      <trkpt lat="45.10886" lon="7.06264">
        <ele>1128</ele>
        <time>2019-07-08T20:15:50Z</time>
      </trkpt>
      <trkpt lat="45.10899" lon="7.0628">
        <ele>1129</ele>
        <time>2019-07-08T20:15:53Z</time>
      </trkpt>
      <trkpt lat="45.10907" lon="7.06286">
        <ele>1128</ele>
        <time>2019-07-08T20:15:55Z</time>
      </trkpt>
      <trkpt lat="45.10908" lon="7.0629">
        <ele>1129</ele>
        <time>2019-07-08T20:15:55Z</time>
      </trkpt>
      <trkpt lat="45.10906" lon="7.06294">
        <ele>1131</ele>
        <time>2019-07-08T20:15:56Z</time>
      </trkpt>
      <trkpt lat="45.10891" lon="7.0629">
        <ele>1136</ele>
        <time>2019-07-08T20:15:58Z</time>
      </trkpt>
      <trkpt lat="45.10878" lon="7.0628">
        <ele>1137</ele>
        <time>2019-07-08T20:16:01Z</time>
      </trkpt>
      <trkpt lat="45.10855" lon="7.06253">
        <ele>1135</ele>
        <time>2019-07-08T20:16:06Z</time>
      </trkpt>
      <trkpt lat="45.10826" lon="7.06232">
        <ele>1141</ele>
        <time>2019-07-08T20:16:12Z</time>
      </trkpt>
      <trkpt lat="45.10802" lon="7.06225">
        <ele>1146</ele>
        <time>2019-07-08T20:16:17Z</time>
      </trkpt>
      <trkpt lat="45.10788" lon="7.06217">
        <ele>1149</ele>
        <time>2019-07-08T20:16:19Z</time>
      </trkpt>
      <trkpt lat="45.10778" lon="7.06203">
        <ele>1150</ele>
        <time>2019-07-08T20:16:22Z</time>
      </trkpt>
      <trkpt lat="45.10773" lon="7.06182">
        <ele>1148</ele>
        <time>2019-07-08T20:16:25Z</time>
      </trkpt>
      <trkpt lat="45.10768" lon="7.06176">
        <ele>1149</ele>
        <time>2019-07-08T20:16:26Z</time>
      </trkpt>
      <trkpt lat="45.10763" lon="7.06176">
        <ele>1150</ele>
        <time>2019-07-08T20:16:27Z</time>
      </trkpt>
      <trkpt lat="45.1076" lon="7.0618">
        <ele>1152</ele>
        <time>2019-07-08T20:16:27Z</time>
      </trkpt>
      <trkpt lat="45.10752" lon="7.06193">
        <ele>1156</ele>
        <time>2019-07-08T20:16:29Z</time>
      </trkpt>
      <trkpt lat="45.10751" lon="7.06204">
        <ele>1158</ele>
        <time>2019-07-08T20:16:31Z</time>
      </trkpt>
      <trkpt lat="45.10752" lon="7.06216">
        <ele>1160</ele>
        <time>2019-07-08T20:16:32Z</time>
      </trkpt>
      <trkpt lat="45.10764" lon="7.06241">
        <ele>1160</ele>
        <time>2019-07-08T20:16:36Z</time>
      </trkpt>
      <trkpt lat="45.10772" lon="7.0625">
        <ele>1159</ele>
        <time>2019-07-08T20:16:38Z</time>
      </trkpt>
      <trkpt lat="45.1079" lon="7.06259">
        <ele>1158</ele>
        <time>2019-07-08T20:16:41Z</time>
      </trkpt>
      <trkpt lat="45.10824" lon="7.06269">
        <ele>1152</ele>
        <time>2019-07-08T20:16:48Z</time>
      </trkpt>
      <trkpt lat="45.10827" lon="7.06273">
        <ele>1153</ele>
        <time>2019-07-08T20:16:48Z</time>
      </trkpt>
      <trkpt lat="45.10827" lon="7.06277">
        <ele>1155</ele>
        <time>2019-07-08T20:16:49Z</time>
      </trkpt>
      <trkpt lat="45.10825" lon="7.06282">
        <ele>1158</ele>
        <time>2019-07-08T20:16:50Z</time>
      </trkpt>
      <trkpt lat="45.10788" lon="7.06275">
        <ele>1165</ele>
        <time>2019-07-08T20:16:56Z</time>
      </trkpt>
      <trkpt lat="45.10766" lon="7.06275">
        <ele>1170</ele>
        <time>2019-07-08T20:17:00Z</time>
      </trkpt>
      <trkpt lat="45.10742" lon="7.0627">
        <ele>1176</ele>
        <time>2019-07-08T20:17:04Z</time>
      </trkpt>
      <trkpt lat="45.10726" lon="7.06263">
        <ele>1179</ele>
        <time>2019-07-08T20:17:07Z</time>
      </trkpt>
      <trkpt lat="45.10707" lon="7.0625">
        <ele>1182</ele>
        <time>2019-07-08T20:17:11Z</time>
      </trkpt>
      <trkpt lat="45.10699" lon="7.06242">
        <ele>1183</ele>
        <time>2019-07-08T20:17:13Z</time>
      </trkpt>
      <trkpt lat="45.10688" lon="7.0622">
        <ele>1183</ele>
        <time>2019-07-08T20:17:16Z</time>
      </trkpt>
      <trkpt lat="45.10673" lon="7.06126">
        <ele>1182</ele>
        <time>2019-07-08T20:17:28Z</time>
      </trkpt>
      <trkpt lat="45.1067" lon="7.06119">
        <ele>1184</ele>
        <time>2019-07-08T20:17:29Z</time>
      </trkpt>
      <trkpt lat="45.10665" lon="7.06115">
        <ele>1185</ele>
        <time>2019-07-08T20:17:30Z</time>
      </trkpt>
      <trkpt lat="45.10662" lon="7.06117">
        <ele>1187</ele>
        <time>2019-07-08T20:17:31Z</time>
      </trkpt>
      <trkpt lat="45.1066" lon="7.06125">
        <ele>1187</ele>
        <time>2019-07-08T20:17:32Z</time>
      </trkpt>
      <trkpt lat="45.10666" lon="7.06156">
        <ele>1182</ele>
        <time>2019-07-08T20:17:36Z</time>
      </trkpt>
      <trkpt lat="45.10667" lon="7.06169">
        <ele>1181</ele>
        <time>2019-07-08T20:17:38Z</time>
      </trkpt>
      <trkpt lat="45.10664" lon="7.06174">
        <ele>1184</ele>
        <time>2019-07-08T20:17:39Z</time>
      </trkpt>
      <trkpt lat="45.10661" lon="7.06175">
        <ele>1185</ele>
        <time>2019-07-08T20:17:39Z</time>
      </trkpt>
      <trkpt lat="45.10659" lon="7.06173">
        <ele>1186</ele>
        <time>2019-07-08T20:17:40Z</time>
      </trkpt>
      <trkpt lat="45.10656" lon="7.06162">
        <ele>1187</ele>
        <time>2019-07-08T20:17:41Z</time>
      </trkpt>
      <trkpt lat="45.10653" lon="7.06122">
        <ele>1190</ele>
        <time>2019-07-08T20:17:46Z</time>
      </trkpt>
      <trkpt lat="45.10639" lon="7.06086">
        <ele>1198</ele>
        <time>2019-07-08T20:17:51Z</time>
      </trkpt>
      <trkpt lat="45.10635" lon="7.06081">
        <ele>1201</ele>
        <time>2019-07-08T20:17:52Z</time>
      </trkpt>
      <trkpt lat="45.10631" lon="7.06082">
        <ele>1202</ele>
        <time>2019-07-08T20:17:53Z</time>
      </trkpt>
      <trkpt lat="45.10629" lon="7.06087">
        <ele>1202</ele>
        <time>2019-07-08T20:17:54Z</time>
      </trkpt>
      <trkpt lat="45.10629" lon="7.06095">
        <ele>1202</ele>
        <time>2019-07-08T20:17:55Z</time>
      </trkpt>
      <trkpt lat="45.10635" lon="7.06125">
        <ele>1198</ele>
        <time>2019-07-08T20:17:59Z</time>
      </trkpt>
      <trkpt lat="45.10636" lon="7.06143">
        <ele>1197</ele>
        <time>2019-07-08T20:18:01Z</time>
      </trkpt>
      <trkpt lat="45.10633" lon="7.0616">
        <ele>1198</ele>
        <time>2019-07-08T20:18:03Z</time>
      </trkpt>
      <trkpt lat="45.10624" lon="7.06187">
        <ele>1205</ele>
        <time>2019-07-08T20:18:07Z</time>
      </trkpt>
      <trkpt lat="45.10621" lon="7.06204">
        <ele>1210</ele>
        <time>2019-07-08T20:18:09Z</time>
      </trkpt>
      <trkpt lat="45.10621" lon="7.06213">
        <ele>1211</ele>
        <time>2019-07-08T20:18:10Z</time>
      </trkpt>
      <trkpt lat="45.10627" lon="7.0623">
        <ele>1211</ele>
        <time>2019-07-08T20:18:12Z</time>
      </trkpt>
      <trkpt lat="45.10636" lon="7.06249">
        <ele>1210</ele>
        <time>2019-07-08T20:18:15Z</time>
      </trkpt>
      <trkpt lat="45.10684" lon="7.06329">
        <ele>1221</ele>
        <time>2019-07-08T20:18:29Z</time>
      </trkpt>
      <trkpt lat="45.10707" lon="7.06355">
        <ele>1224</ele>
        <time>2019-07-08T20:18:34Z</time>
      </trkpt>
      <trkpt lat="45.1072" lon="7.06363">
        <ele>1223</ele>
        <time>2019-07-08T20:18:36Z</time>
      </trkpt>
      <trkpt lat="45.10742" lon="7.06375">
        <ele>1221</ele>
        <time>2019-07-08T20:18:41Z</time>
      </trkpt>
      <trkpt lat="45.10763" lon="7.06382">
        <ele>1218</ele>
        <time>2019-07-08T20:18:44Z</time>
      </trkpt>
      <trkpt lat="45.10814" lon="7.06394">
        <ele>1206</ele>
        <time>2019-07-08T20:18:54Z</time>
      </trkpt>
      <trkpt lat="45.10824" lon="7.064">
        <ele>1205</ele>
        <time>2019-07-08T20:18:55Z</time>
      </trkpt>
      <trkpt lat="45.1083" lon="7.06407">
        <ele>1206</ele>
        <time>2019-07-08T20:18:57Z</time>
      </trkpt>
      <trkpt lat="45.10834" lon="7.06417">
        <ele>1208</ele>
        <time>2019-07-08T20:18:58Z</time>
      </trkpt>
      <trkpt lat="45.10835" lon="7.06429">
        <ele>1206</ele>
        <time>2019-07-08T20:19:00Z</time>
      </trkpt>
      <trkpt lat="45.10832" lon="7.0644">
        <ele>1208</ele>
        <time>2019-07-08T20:19:01Z</time>
      </trkpt>
      <trkpt lat="45.10823" lon="7.06458">
        <ele>1212</ele>
        <time>2019-07-08T20:19:04Z</time>
      </trkpt>
      <trkpt lat="45.10798" lon="7.06484">
        <ele>1229</ele>
        <time>2019-07-08T20:19:10Z</time>
      </trkpt>
      <trkpt lat="45.1079" lon="7.06503">
        <ele>1237</ele>
        <time>2019-07-08T20:19:12Z</time>
      </trkpt>
      <trkpt lat="45.10787" lon="7.06535">
        <ele>1240</ele>
        <time>2019-07-08T20:19:16Z</time>
      </trkpt>
      <trkpt lat="45.10759" lon="7.06642">
        <ele>1268</ele>
        <time>2019-07-08T20:19:31Z</time>
      </trkpt>
      <trkpt lat="45.1076" lon="7.0665">
        <ele>1268</ele>
        <time>2019-07-08T20:19:32Z</time>
      </trkpt>
      <trkpt lat="45.10772" lon="7.06677">
        <ele>1262</ele>
        <time>2019-07-08T20:19:36Z</time>
      </trkpt>
      <trkpt lat="45.10789" lon="7.06695">
        <ele>1252</ele>
        <time>2019-07-08T20:19:40Z</time>
      </trkpt>
      <trkpt lat="45.10794" lon="7.06704">
        <ele>1250</ele>
        <time>2019-07-08T20:19:41Z</time>
      </trkpt>
      <trkpt lat="45.10797" lon="7.06713">
        <ele>1249</ele>
        <time>2019-07-08T20:19:42Z</time>
      </trkpt>
      <trkpt lat="45.10798" lon="7.06734">
        <ele>1252</ele>
        <time>2019-07-08T20:19:45Z</time>
      </trkpt>
      <trkpt lat="45.10796" lon="7.06809">
        <ele>1265</ele>
        <time>2019-07-08T20:19:54Z</time>
      </trkpt>
      <trkpt lat="45.10802" lon="7.06849">
        <ele>1266</ele>
        <time>2019-07-08T20:19:59Z</time>
      </trkpt>
      <trkpt lat="45.10805" lon="7.06896">
        <ele>1270</ele>
        <time>2019-07-08T20:20:05Z</time>
      </trkpt>
      <trkpt lat="45.10805" lon="7.06933">
        <ele>1275</ele>
        <time>2019-07-08T20:20:10Z</time>
      </trkpt>
      <trkpt lat="45.1081" lon="7.07014">
        <ele>1281</ele>
        <time>2019-07-08T20:20:20Z</time>
      </trkpt>
      <trkpt lat="45.10808" lon="7.07024">
        <ele>1284</ele>
        <time>2019-07-08T20:20:22Z</time>
      </trkpt>
      <trkpt lat="45.10798" lon="7.0704">
        <ele>1294</ele>
        <time>2019-07-08T20:20:24Z</time>
      </trkpt>
      <trkpt lat="45.10795" lon="7.0705">
        <ele>1298</ele>
        <time>2019-07-08T20:20:26Z</time>
      </trkpt>
      <trkpt lat="45.10797" lon="7.07065">
        <ele>1298</ele>
        <time>2019-07-08T20:20:27Z</time>
      </trkpt>
      <trkpt lat="45.10803" lon="7.07089">
        <ele>1296</ele>
        <time>2019-07-08T20:20:31Z</time>
      </trkpt>
      <trkpt lat="45.10815" lon="7.07113">
        <ele>1289</ele>
        <time>2019-07-08T20:20:34Z</time>
      </trkpt>
      <trkpt lat="45.1082" lon="7.07126">
        <ele>1287</ele>
        <time>2019-07-08T20:20:36Z</time>
      </trkpt>
      <trkpt lat="45.1082" lon="7.07144">
        <ele>1289</ele>
        <time>2019-07-08T20:20:39Z</time>
      </trkpt>
      <trkpt lat="45.10815" lon="7.07258">
        <ele>1304</ele>
        <time>2019-07-08T20:20:53Z</time>
      </trkpt>
      <trkpt lat="45.10806" lon="7.07335">
        <ele>1314</ele>
        <time>2019-07-08T20:21:03Z</time>
      </trkpt>
      <trkpt lat="45.108" lon="7.07424">
        <ele>1311</ele>
        <time>2019-07-08T20:21:14Z</time>
      </trkpt>
      <trkpt lat="45.108" lon="7.07469">
        <ele>1310</ele>
        <time>2019-07-08T20:21:20Z</time>
      </trkpt>
      <trkpt lat="45.10798" lon="7.07471">
        <ele>1311</ele>
        <time>2019-07-08T20:21:20Z</time>
      </trkpt>
      <trkpt lat="45.10796" lon="7.07469">
        <ele>1312</ele>
        <time>2019-07-08T20:21:20Z</time>
      </trkpt>
      <trkpt lat="45.10791" lon="7.07457">
        <ele>1315</ele>
        <time>2019-07-08T20:21:22Z</time>
      </trkpt>
      <trkpt lat="45.10786" lon="7.07435">
        <ele>1319</ele>
        <time>2019-07-08T20:21:25Z</time>
      </trkpt>
      <trkpt lat="45.10784" lon="7.07386">
        <ele>1324</ele>
        <time>2019-07-08T20:21:31Z</time>
      </trkpt>
      <trkpt lat="45.10787" lon="7.07324">
        <ele>1327</ele>
        <time>2019-07-08T20:21:39Z</time>
      </trkpt>
      <trkpt lat="45.10779" lon="7.07286">
        <ele>1330</ele>
        <time>2019-07-08T20:21:44Z</time>
      </trkpt>
      <trkpt lat="45.10763" lon="7.07237">
        <ele>1337</ele>
        <time>2019-07-08T20:21:51Z</time>
      </trkpt>
      <trkpt lat="45.10744" lon="7.07202">
        <ele>1344</ele>
        <time>2019-07-08T20:21:56Z</time>
      </trkpt>
      <trkpt lat="45.10722" lon="7.07157">
        <ele>1359</ele>
        <time>2019-07-08T20:22:03Z</time>
      </trkpt>
      <trkpt lat="45.10715" lon="7.07134">
        <ele>1366</ele>
        <time>2019-07-08T20:22:06Z</time>
      </trkpt>
      <trkpt lat="45.10713" lon="7.07115">
        <ele>1368</ele>
        <time>2019-07-08T20:22:09Z</time>
      </trkpt>
      <trkpt lat="45.10713" lon="7.07099">
        <ele>1369</ele>
        <time>2019-07-08T20:22:11Z</time>
      </trkpt>
      <trkpt lat="45.10716" lon="7.07086">
        <ele>1367</ele>
        <time>2019-07-08T20:22:12Z</time>
      </trkpt>
      <trkpt lat="45.10733" lon="7.07064">
        <ele>1350</ele>
        <time>2019-07-08T20:22:17Z</time>
      </trkpt>
      <trkpt lat="45.10735" lon="7.07056">
        <ele>1347</ele>
        <time>2019-07-08T20:22:18Z</time>
      </trkpt>
      <trkpt lat="45.10735" lon="7.07049">
        <ele>1347</ele>
        <time>2019-07-08T20:22:19Z</time>
      </trkpt>
      <trkpt lat="45.10727" lon="7.07027">
        <ele>1352</ele>
        <time>2019-07-08T20:22:22Z</time>
      </trkpt>
      <trkpt lat="45.10709" lon="7.06937">
        <ele>1358</ele>
        <time>2019-07-08T20:22:33Z</time>
      </trkpt>
      <trkpt lat="45.10698" lon="7.06912">
        <ele>1364</ele>
        <time>2019-07-08T20:22:37Z</time>
      </trkpt>
      <trkpt lat="45.10671" lon="7.06814">
        <ele>1367</ele>
        <time>2019-07-08T20:22:50Z</time>
      </trkpt>
      <trkpt lat="45.10665" lon="7.06802">
        <ele>1369</ele>
        <time>2019-07-08T20:22:52Z</time>
      </trkpt>
      <trkpt lat="45.10659" lon="7.06794">
        <ele>1372</ele>
        <time>2019-07-08T20:22:54Z</time>
      </trkpt>
      <trkpt lat="45.10638" lon="7.06781">
        <ele>1384</ele>
        <time>2019-07-08T20:22:58Z</time>
      </trkpt>
      <trkpt lat="45.10631" lon="7.06773">
        <ele>1387</ele>
        <time>2019-07-08T20:22:59Z</time>
      </trkpt>
      <trkpt lat="45.10615" lon="7.06748">
        <ele>1394</ele>
        <time>2019-07-08T20:23:04Z</time>
      </trkpt>
      <trkpt lat="45.10606" lon="7.06724">
        <ele>1396</ele>
        <time>2019-07-08T20:23:07Z</time>
      </trkpt>
      <trkpt lat="45.10602" lon="7.06702">
        <ele>1394</ele>
        <time>2019-07-08T20:23:10Z</time>
      </trkpt>
      <trkpt lat="45.10603" lon="7.06684">
        <ele>1390</ele>
        <time>2019-07-08T20:23:12Z</time>
      </trkpt>
      <trkpt lat="45.10616" lon="7.06612">
        <ele>1370</ele>
        <time>2019-07-08T20:23:21Z</time>
      </trkpt>
      <trkpt lat="45.10615" lon="7.06606">
        <ele>1370</ele>
        <time>2019-07-08T20:23:22Z</time>
      </trkpt>
      <trkpt lat="45.10596" lon="7.06589">
        <ele>1379</ele>
        <time>2019-07-08T20:23:26Z</time>
      </trkpt>
      <trkpt lat="45.10559" lon="7.06566">
        <ele>1388</ele>
        <time>2019-07-08T20:23:33Z</time>
      </trkpt>
      <trkpt lat="45.10543" lon="7.06543">
        <ele>1383</ele>
        <time>2019-07-08T20:23:37Z</time>
      </trkpt>
      <trkpt lat="45.10537" lon="7.06537">
        <ele>1382</ele>
        <time>2019-07-08T20:23:39Z</time>
      </trkpt>
      <trkpt lat="45.10528" lon="7.06534">
        <ele>1384</ele>
        <time>2019-07-08T20:23:40Z</time>
      </trkpt>
      <trkpt lat="45.10511" lon="7.06535">
        <ele>1392</ele>
        <time>2019-07-08T20:23:43Z</time>
      </trkpt>
      <trkpt lat="45.10495" lon="7.06533">
        <ele>1397</ele>
        <time>2019-07-08T20:23:46Z</time>
      </trkpt>
      <trkpt lat="45.10478" lon="7.06536">
        <ele>1402</ele>
        <time>2019-07-08T20:23:49Z</time>
      </trkpt>
      <trkpt lat="45.10416" lon="7.06525">
        <ele>1411</ele>
        <time>2019-07-08T20:24:00Z</time>
      </trkpt>
      <trkpt lat="45.10317" lon="7.0652">
        <ele>1430</ele>
        <time>2019-07-08T20:24:18Z</time>
      </trkpt>
      <trkpt lat="45.10309" lon="7.06517">
        <ele>1432</ele>
        <time>2019-07-08T20:24:20Z</time>
      </trkpt>
      <trkpt lat="45.1027" lon="7.06472">
        <ele>1429</ele>
        <time>2019-07-08T20:24:28Z</time>
      </trkpt>
      <trkpt lat="45.10264" lon="7.06468">
        <ele>1430</ele>
        <time>2019-07-08T20:24:30Z</time>
      </trkpt>
      <trkpt lat="45.10238" lon="7.06464">
        <ele>1439</ele>
        <time>2019-07-08T20:24:34Z</time>
      </trkpt>
      <trkpt lat="45.10234" lon="7.06462">
        <ele>1439</ele>
        <time>2019-07-08T20:24:35Z</time>
      </trkpt>
      <trkpt lat="45.10197" lon="7.0642">
        <ele>1438</ele>
        <time>2019-07-08T20:24:43Z</time>
      </trkpt>
      <trkpt lat="45.10181" lon="7.06394">
        <ele>1436</ele>
        <time>2019-07-08T20:24:48Z</time>
      </trkpt>
      <trkpt lat="45.10173" lon="7.06387">
        <ele>1438</ele>
        <time>2019-07-08T20:24:49Z</time>
      </trkpt>
      <trkpt lat="45.10166" lon="7.06384">
        <ele>1440</ele>
        <time>2019-07-08T20:24:51Z</time>
      </trkpt>
      <trkpt lat="45.1016" lon="7.06384">
        <ele>1440</ele>
        <time>2019-07-08T20:24:52Z</time>
      </trkpt>
      <trkpt lat="45.10139" lon="7.06394">
        <ele>1445</ele>
        <time>2019-07-08T20:24:56Z</time>
      </trkpt>
      <trkpt lat="45.10132" lon="7.06395">
        <ele>1446</ele>
        <time>2019-07-08T20:24:57Z</time>
      </trkpt>
      <trkpt lat="45.10109" lon="7.06384">
        <ele>1447</ele>
        <time>2019-07-08T20:25:01Z</time>
      </trkpt>
      <trkpt lat="45.10083" lon="7.06383">
        <ele>1450</ele>
        <time>2019-07-08T20:25:06Z</time>
      </trkpt>
      <trkpt lat="45.10075" lon="7.06381">
        <ele>1449</ele>
        <time>2019-07-08T20:25:07Z</time>
      </trkpt>
      <trkpt lat="45.10068" lon="7.06376">
        <ele>1448</ele>
        <time>2019-07-08T20:25:09Z</time>
      </trkpt>
      <trkpt lat="45.10043" lon="7.06351">
        <ele>1450</ele>
        <time>2019-07-08T20:25:14Z</time>
      </trkpt>
      <trkpt lat="45.10025" lon="7.06339">
        <ele>1454</ele>
        <time>2019-07-08T20:25:18Z</time>
      </trkpt>
      <trkpt lat="45.10011" lon="7.06333">
        <ele>1458</ele>
        <time>2019-07-08T20:25:20Z</time>
      </trkpt>
      <trkpt lat="45.10003" lon="7.06334">
        <ele>1458</ele>
        <time>2019-07-08T20:25:22Z</time>
      </trkpt>
      <trkpt lat="45.09962" lon="7.06322">
        <ele>1459</ele>
        <time>2019-07-08T20:25:29Z</time>
      </trkpt>
      <trkpt lat="45.09945" lon="7.06313">
        <ele>1461</ele>
        <time>2019-07-08T20:25:33Z</time>
      </trkpt>
      <trkpt lat="45.09939" lon="7.06308">
        <ele>1462</ele>
        <time>2019-07-08T20:25:34Z</time>
      </trkpt>
      <trkpt lat="45.09929" lon="7.06284">
        <ele>1471</ele>
        <time>2019-07-08T20:25:37Z</time>
      </trkpt>
      <trkpt lat="45.09921" lon="7.0627">
        <ele>1477</ele>
        <time>2019-07-08T20:25:40Z</time>
      </trkpt>
      <trkpt lat="45.09908" lon="7.06255">
        <ele>1482</ele>
        <time>2019-07-08T20:25:43Z</time>
      </trkpt>
      <trkpt lat="45.0987" lon="7.06242">
        <ele>1481</ele>
        <time>2019-07-08T20:25:49Z</time>
      </trkpt>
      <trkpt lat="45.09821" lon="7.06198">
        <ele>1489</ele>
        <time>2019-07-08T20:26:00Z</time>
      </trkpt>
      <trkpt lat="45.09792" lon="7.06176">
        <ele>1494</ele>
        <time>2019-07-08T20:26:06Z</time>
      </trkpt>
      <trkpt lat="45.09772" lon="7.06165">
        <ele>1496</ele>
        <time>2019-07-08T20:26:09Z</time>
      </trkpt>
      <trkpt lat="45.09728" lon="7.06134">
        <ele>1506</ele>
        <time>2019-07-08T20:26:18Z</time>
      </trkpt>
      <trkpt lat="45.09707" lon="7.06133">
        <ele>1508</ele>
        <time>2019-07-08T20:26:22Z</time>
      </trkpt>
      <trkpt lat="45.09695" lon="7.06136">
        <ele>1507</ele>
        <time>2019-07-08T20:26:24Z</time>
      </trkpt>
      <trkpt lat="45.09671" lon="7.0615">
        <ele>1503</ele>
        <time>2019-07-08T20:26:29Z</time>
      </trkpt>
      <trkpt lat="45.09666" lon="7.06151">
        <ele>1503</ele>
        <time>2019-07-08T20:26:30Z</time>
      </trkpt>
      <trkpt lat="45.09658" lon="7.06149">
        <ele>1505</ele>
        <time>2019-07-08T20:26:31Z</time>
      </trkpt>
      <trkpt lat="45.09652" lon="7.06144">
        <ele>1508</ele>
        <time>2019-07-08T20:26:32Z</time>
      </trkpt>
      <trkpt lat="45.0965" lon="7.06135">
        <ele>1512</ele>
        <time>2019-07-08T20:26:33Z</time>
      </trkpt>
      <trkpt lat="45.09653" lon="7.0613">
        <ele>1514</ele>
        <time>2019-07-08T20:26:34Z</time>
      </trkpt>
      <trkpt lat="45.09705" lon="7.06088">
        <ele>1525</ele>
        <time>2019-07-08T20:26:45Z</time>
      </trkpt>
      <trkpt lat="45.09718" lon="7.06086">
        <ele>1525</ele>
        <time>2019-07-08T20:26:47Z</time>
      </trkpt>
      <trkpt lat="45.09768" lon="7.06091">
        <ele>1521</ele>
        <time>2019-07-08T20:26:56Z</time>
      </trkpt>
      <trkpt lat="45.09776" lon="7.06085">
        <ele>1523</ele>
        <time>2019-07-08T20:26:58Z</time>
      </trkpt>
      <trkpt lat="45.09793" lon="7.06069">
        <ele>1528</ele>
        <time>2019-07-08T20:27:01Z</time>
      </trkpt>
      <trkpt lat="45.09796" lon="7.06059">
        <ele>1531</ele>
        <time>2019-07-08T20:27:03Z</time>
      </trkpt>
      <trkpt lat="45.09795" lon="7.06054">
        <ele>1533</ele>
        <time>2019-07-08T20:27:03Z</time>
      </trkpt>
      <trkpt lat="45.09788" lon="7.06051">
        <ele>1533</ele>
        <time>2019-07-08T20:27:05Z</time>
      </trkpt>
      <trkpt lat="45.09765" lon="7.06062">
        <ele>1529</ele>
        <time>2019-07-08T20:27:09Z</time>
      </trkpt>
      <trkpt lat="45.09753" lon="7.06063">
        <ele>1529</ele>
        <time>2019-07-08T20:27:11Z</time>
      </trkpt>
      <trkpt lat="45.0971" lon="7.06046">
        <ele>1536</ele>
        <time>2019-07-08T20:27:19Z</time>
      </trkpt>
      <trkpt lat="45.09694" lon="7.06043">
        <ele>1538</ele>
        <time>2019-07-08T20:27:22Z</time>
      </trkpt>
      <trkpt lat="45.09653" lon="7.06053">
        <ele>1540</ele>
        <time>2019-07-08T20:27:29Z</time>
      </trkpt>
      <trkpt lat="45.09637" lon="7.06051">
        <ele>1543</ele>
        <time>2019-07-08T20:27:32Z</time>
      </trkpt>
      <trkpt lat="45.09589" lon="7.06039">
        <ele>1553</ele>
        <time>2019-07-08T20:27:41Z</time>
      </trkpt>
      <trkpt lat="45.09581" lon="7.0604">
        <ele>1554</ele>
        <time>2019-07-08T20:27:42Z</time>
      </trkpt>
      <trkpt lat="45.09531" lon="7.06048">
        <ele>1566</ele>
        <time>2019-07-08T20:27:51Z</time>
      </trkpt>
      <trkpt lat="45.09471" lon="7.06086">
        <ele>1568</ele>
        <time>2019-07-08T20:28:03Z</time>
      </trkpt>
      <trkpt lat="45.09381" lon="7.06103">
        <ele>1574</ele>
        <time>2019-07-08T20:28:19Z</time>
      </trkpt>
      <trkpt lat="45.09375" lon="7.06102">
        <ele>1575</ele>
        <time>2019-07-08T20:28:20Z</time>
      </trkpt>
      <trkpt lat="45.09355" lon="7.06091">
        <ele>1580</ele>
        <time>2019-07-08T20:28:24Z</time>
      </trkpt>
      <trkpt lat="45.09347" lon="7.06089">
        <ele>1581</ele>
        <time>2019-07-08T20:28:26Z</time>
      </trkpt>
      <trkpt lat="45.09341" lon="7.06092">
        <ele>1581</ele>
        <time>2019-07-08T20:28:27Z</time>
      </trkpt>
      <trkpt lat="45.09318" lon="7.06122">
        <ele>1573</ele>
        <time>2019-07-08T20:28:32Z</time>
      </trkpt>
      <trkpt lat="45.09311" lon="7.06125">
        <ele>1573</ele>
        <time>2019-07-08T20:28:34Z</time>
      </trkpt>
      <trkpt lat="45.09303" lon="7.06123">
        <ele>1574</ele>
        <time>2019-07-08T20:28:35Z</time>
      </trkpt>
      <trkpt lat="45.09278" lon="7.0611">
        <ele>1578</ele>
        <time>2019-07-08T20:28:40Z</time>
      </trkpt>
      <trkpt lat="45.09233" lon="7.06079">
        <ele>1589</ele>
        <time>2019-07-08T20:28:49Z</time>
      </trkpt>
      <trkpt lat="45.09185" lon="7.06018">
        <ele>1601</ele>
        <time>2019-07-08T20:29:00Z</time>
      </trkpt>
      <trkpt lat="45.09175" lon="7.0601">
        <ele>1602</ele>
        <time>2019-07-08T20:29:02Z</time>
      </trkpt>
      <trkpt lat="45.09162" lon="7.06005">
        <ele>1605</ele>
        <time>2019-07-08T20:29:05Z</time>
      </trkpt>
      <trkpt lat="45.0914" lon="7.06004">
        <ele>1611</ele>
        <time>2019-07-08T20:29:08Z</time>
      </trkpt>
      <trkpt lat="45.09131" lon="7.06007">
        <ele>1613</ele>
        <time>2019-07-08T20:29:10Z</time>
      </trkpt>
      <trkpt lat="45.09107" lon="7.06029">
        <ele>1617</ele>
        <time>2019-07-08T20:29:15Z</time>
      </trkpt>
      <trkpt lat="45.09102" lon="7.0604">
        <ele>1618</ele>
        <time>2019-07-08T20:29:17Z</time>
      </trkpt>
      <trkpt lat="45.09099" lon="7.06048">
        <ele>1618</ele>
        <time>2019-07-08T20:29:18Z</time>
      </trkpt>
      <trkpt lat="45.09098" lon="7.06053">
        <ele>1617</ele>
        <time>2019-07-08T20:29:19Z</time>
      </trkpt>
      <trkpt lat="45.091" lon="7.06057">
        <ele>1616</ele>
        <time>2019-07-08T20:29:19Z</time>
      </trkpt>
      <trkpt lat="45.09106" lon="7.06063">
        <ele>1614</ele>
        <time>2019-07-08T20:29:21Z</time>
      </trkpt>
      <trkpt lat="45.09116" lon="7.06065">
        <ele>1611</ele>
        <time>2019-07-08T20:29:22Z</time>
      </trkpt>
      <trkpt lat="45.09122" lon="7.06069">
        <ele>1608</ele>
        <time>2019-07-08T20:29:24Z</time>
      </trkpt>
      <trkpt lat="45.09126" lon="7.06075">
        <ele>1606</ele>
        <time>2019-07-08T20:29:25Z</time>
      </trkpt>
      <trkpt lat="45.09128" lon="7.06087">
        <ele>1604</ele>
        <time>2019-07-08T20:29:26Z</time>
      </trkpt>
      <trkpt lat="45.09128" lon="7.06099">
        <ele>1604</ele>
        <time>2019-07-08T20:29:28Z</time>
      </trkpt>
      <trkpt lat="45.09126" lon="7.06112">
        <ele>1604</ele>
        <time>2019-07-08T20:29:29Z</time>
      </trkpt>
      <trkpt lat="45.09118" lon="7.06134">
        <ele>1606</ele>
        <time>2019-07-08T20:29:32Z</time>
      </trkpt>
      <trkpt lat="45.09099" lon="7.06171">
        <ele>1613</ele>
        <time>2019-07-08T20:29:38Z</time>
      </trkpt>
      <trkpt lat="45.09086" lon="7.06181">
        <ele>1617</ele>
        <time>2019-07-08T20:29:41Z</time>
      </trkpt>
      <trkpt lat="45.09075" lon="7.06197">
        <ele>1622</ele>
        <time>2019-07-08T20:29:44Z</time>
      </trkpt>
      <trkpt lat="45.09068" lon="7.06211">
        <ele>1624</ele>
        <time>2019-07-08T20:29:46Z</time>
      </trkpt>
      <trkpt lat="45.09064" lon="7.0623">
        <ele>1626</ele>
        <time>2019-07-08T20:29:48Z</time>
      </trkpt>
      <trkpt lat="45.09066" lon="7.06256">
        <ele>1626</ele>
        <time>2019-07-08T20:29:52Z</time>
      </trkpt>
      <trkpt lat="45.09078" lon="7.06302">
        <ele>1626</ele>
        <time>2019-07-08T20:29:58Z</time>
      </trkpt>
      <trkpt lat="45.09074" lon="7.06336">
        <ele>1633</ele>
        <time>2019-07-08T20:30:02Z</time>
      </trkpt>
      <trkpt lat="45.09076" lon="7.06346">
        <ele>1635</ele>
        <time>2019-07-08T20:30:03Z</time>
      </trkpt>
      <trkpt lat="45.09081" lon="7.06355">
        <ele>1636</ele>
        <time>2019-07-08T20:30:05Z</time>
      </trkpt>
      <trkpt lat="45.09095" lon="7.06373">
        <ele>1638</ele>
        <time>2019-07-08T20:30:08Z</time>
      </trkpt>
      <trkpt lat="45.09111" lon="7.06401">
        <ele>1642</ele>
        <time>2019-07-08T20:30:13Z</time>
      </trkpt>
      <trkpt lat="45.09134" lon="7.06423">
        <ele>1643</ele>
        <time>2019-07-08T20:30:18Z</time>
      </trkpt>
      <trkpt lat="45.09151" lon="7.06437">
        <ele>1643</ele>
        <time>2019-07-08T20:30:21Z</time>
      </trkpt>
      <trkpt lat="45.09152" lon="7.0644">
        <ele>1644</ele>
        <time>2019-07-08T20:30:22Z</time>
      </trkpt>
      <trkpt lat="45.0915" lon="7.06445">
        <ele>1646</ele>
        <time>2019-07-08T20:30:22Z</time>
      </trkpt>
      <trkpt lat="45.09146" lon="7.06445">
        <ele>1648</ele>
        <time>2019-07-08T20:30:23Z</time>
      </trkpt>
      <trkpt lat="45.09132" lon="7.06437">
        <ele>1649</ele>
        <time>2019-07-08T20:30:26Z</time>
      </trkpt>
      <trkpt lat="45.09123" lon="7.06434">
        <ele>1650</ele>
        <time>2019-07-08T20:30:27Z</time>
      </trkpt>
      <trkpt lat="45.09094" lon="7.06434">
        <ele>1659</ele>
        <time>2019-07-08T20:30:32Z</time>
      </trkpt>
      <trkpt lat="45.09088" lon="7.06428">
        <ele>1658</ele>
        <time>2019-07-08T20:30:34Z</time>
      </trkpt>
      <trkpt lat="45.09078" lon="7.06411">
        <ele>1654</ele>
        <time>2019-07-08T20:30:37Z</time>
      </trkpt>
      <trkpt lat="45.09071" lon="7.06404">
        <ele>1655</ele>
        <time>2019-07-08T20:30:38Z</time>
      </trkpt>
      <trkpt lat="45.09059" lon="7.06397">
        <ele>1657</ele>
        <time>2019-07-08T20:30:40Z</time>
      </trkpt>
      <trkpt lat="45.09042" lon="7.06394">
        <ele>1663</ele>
        <time>2019-07-08T20:30:43Z</time>
      </trkpt>
      <trkpt lat="45.09028" lon="7.06384">
        <ele>1666</ele>
        <time>2019-07-08T20:30:46Z</time>
      </trkpt>
      <trkpt lat="45.09014" lon="7.06337">
        <ele>1658</ele>
        <time>2019-07-08T20:30:53Z</time>
      </trkpt>
      <trkpt lat="45.09005" lon="7.06299">
        <ele>1660</ele>
        <time>2019-07-08T20:30:58Z</time>
      </trkpt>
      <trkpt lat="45.08995" lon="7.06272">
        <ele>1663</ele>
        <time>2019-07-08T20:31:01Z</time>
      </trkpt>
      <trkpt lat="45.08986" lon="7.06217">
        <ele>1661</ele>
        <time>2019-07-08T20:31:09Z</time>
      </trkpt>
      <trkpt lat="45.08978" lon="7.06197">
        <ele>1660</ele>
        <time>2019-07-08T20:31:11Z</time>
      </trkpt>
      <trkpt lat="45.08973" lon="7.0619">
        <ele>1660</ele>
        <time>2019-07-08T20:31:13Z</time>
      </trkpt>
      <trkpt lat="45.08959" lon="7.0618">
        <ele>1661</ele>
        <time>2019-07-08T20:31:15Z</time>
      </trkpt>
      <trkpt lat="45.0895" lon="7.06178">
        <ele>1663</ele>
        <time>2019-07-08T20:31:17Z</time>
      </trkpt>
      <trkpt lat="45.08939" lon="7.06179">
        <ele>1666</ele>
        <time>2019-07-08T20:31:19Z</time>
      </trkpt>
      <trkpt lat="45.08909" lon="7.06189">
        <ele>1674</ele>
        <time>2019-07-08T20:31:25Z</time>
      </trkpt>
      <trkpt lat="45.08891" lon="7.06192">
        <ele>1676</ele>
        <time>2019-07-08T20:31:28Z</time>
      </trkpt>
      <trkpt lat="45.08838" lon="7.06223">
        <ele>1689</ele>
        <time>2019-07-08T20:31:38Z</time>
      </trkpt>
      <trkpt lat="45.0878" lon="7.06248">
        <ele>1702</ele>
        <time>2019-07-08T20:31:49Z</time>
      </trkpt>
      <trkpt lat="45.08772" lon="7.06249">
        <ele>1703</ele>
        <time>2019-07-08T20:31:50Z</time>
      </trkpt>
      <trkpt lat="45.08756" lon="7.06244">
        <ele>1703</ele>
        <time>2019-07-08T20:31:53Z</time>
      </trkpt>
      <trkpt lat="45.08726" lon="7.06224">
        <ele>1709</ele>
        <time>2019-07-08T20:31:59Z</time>
      </trkpt>
      <trkpt lat="45.08708" lon="7.062">
        <ele>1709</ele>
        <time>2019-07-08T20:32:03Z</time>
      </trkpt>
      <trkpt lat="45.0867" lon="7.06162">
        <ele>1714</ele>
        <time>2019-07-08T20:32:12Z</time>
      </trkpt>
      <trkpt lat="45.08656" lon="7.06143">
        <ele>1719</ele>
        <time>2019-07-08T20:32:15Z</time>
      </trkpt>
      <trkpt lat="45.08648" lon="7.06134">
        <ele>1722</ele>
        <time>2019-07-08T20:32:17Z</time>
      </trkpt>
      <trkpt lat="45.08644" lon="7.06132">
        <ele>1723</ele>
        <time>2019-07-08T20:32:18Z</time>
      </trkpt>
      <trkpt lat="45.08642" lon="7.06133">
        <ele>1724</ele>
        <time>2019-07-08T20:32:18Z</time>
      </trkpt>
      <trkpt lat="45.08642" lon="7.0614">
        <ele>1725</ele>
        <time>2019-07-08T20:32:19Z</time>
      </trkpt>
      <trkpt lat="45.08651" lon="7.06163">
        <ele>1722</ele>
        <time>2019-07-08T20:32:22Z</time>
      </trkpt>
      <trkpt lat="45.08677" lon="7.06216">
        <ele>1726</ele>
        <time>2019-07-08T20:32:30Z</time>
      </trkpt>
      <trkpt lat="45.08702" lon="7.06256">
        <ele>1728</ele>
        <time>2019-07-08T20:32:37Z</time>
      </trkpt>
      <trkpt lat="45.08719" lon="7.06301">
        <ele>1737</ele>
        <time>2019-07-08T20:32:43Z</time>
      </trkpt>
      <trkpt lat="45.08725" lon="7.06311">
        <ele>1738</ele>
        <time>2019-07-08T20:32:45Z</time>
      </trkpt>
      <trkpt lat="45.0873" lon="7.06316">
        <ele>1738</ele>
        <time>2019-07-08T20:32:46Z</time>
      </trkpt>
      <trkpt lat="45.08794" lon="7.0634">
        <ele>1734</ele>
        <time>2019-07-08T20:32:58Z</time>
      </trkpt>
      <trkpt lat="45.08835" lon="7.06345">
        <ele>1732</ele>
        <time>2019-07-08T20:33:05Z</time>
      </trkpt>
      <trkpt lat="45.08853" lon="7.0636">
        <ele>1730</ele>
        <time>2019-07-08T20:33:09Z</time>
      </trkpt>
      <trkpt lat="45.08858" lon="7.06368">
        <ele>1730</ele>
        <time>2019-07-08T20:33:10Z</time>
      </trkpt>
      <trkpt lat="45.08859" lon="7.06377">
        <ele>1732</ele>
        <time>2019-07-08T20:33:12Z</time>
      </trkpt>
      <trkpt lat="45.08858" lon="7.06392">
        <ele>1736</ele>
        <time>2019-07-08T20:33:13Z</time>
      </trkpt>
      <trkpt lat="45.08859" lon="7.06412">
        <ele>1740</ele>
        <time>2019-07-08T20:33:16Z</time>
      </trkpt>
      <trkpt lat="45.08861" lon="7.06428">
        <ele>1743</ele>
        <time>2019-07-08T20:33:18Z</time>
      </trkpt>
      <trkpt lat="45.08879" lon="7.06478">
        <ele>1745</ele>
        <time>2019-07-08T20:33:25Z</time>
      </trkpt>
      <trkpt lat="45.08885" lon="7.06499">
        <ele>1747</ele>
        <time>2019-07-08T20:33:28Z</time>
      </trkpt>
      <trkpt lat="45.08886" lon="7.06509">
        <ele>1748</ele>
        <time>2019-07-08T20:33:29Z</time>
      </trkpt>
      <trkpt lat="45.08877" lon="7.06557">
        <ele>1762</ele>
        <time>2019-07-08T20:33:35Z</time>
      </trkpt>
      <trkpt lat="45.08876" lon="7.06567">
        <ele>1764</ele>
        <time>2019-07-08T20:33:37Z</time>
      </trkpt>
      <trkpt lat="45.08879" lon="7.06577">
        <ele>1766</ele>
        <time>2019-07-08T20:33:38Z</time>
      </trkpt>
      <trkpt lat="45.08884" lon="7.06588">
        <ele>1767</ele>
        <time>2019-07-08T20:33:40Z</time>
      </trkpt>
      <trkpt lat="45.08896" lon="7.06601">
        <ele>1769</ele>
        <time>2019-07-08T20:33:42Z</time>
      </trkpt>
      <trkpt lat="45.08909" lon="7.0661">
        <ele>1770</ele>
        <time>2019-07-08T20:33:45Z</time>
      </trkpt>
      <trkpt lat="45.08934" lon="7.06616">
        <ele>1770</ele>
        <time>2019-07-08T20:33:49Z</time>
      </trkpt>
      <trkpt lat="45.08988" lon="7.06614">
        <ele>1767</ele>
        <time>2019-07-08T20:33:59Z</time>
      </trkpt>
      <trkpt lat="45.08994" lon="7.06619">
        <ele>1768</ele>
        <time>2019-07-08T20:34:00Z</time>
      </trkpt>
      <trkpt lat="45.08993" lon="7.06627">
        <ele>1772</ele>
        <time>2019-07-08T20:34:01Z</time>
      </trkpt>
      <trkpt lat="45.0899" lon="7.06628">
        <ele>1772</ele>
        <time>2019-07-08T20:34:02Z</time>
      </trkpt>
      <trkpt lat="45.08971" lon="7.06628">
        <ele>1773</ele>
        <time>2019-07-08T20:34:05Z</time>
      </trkpt>
      <trkpt lat="45.08944" lon="7.06643">
        <ele>1781</ele>
        <time>2019-07-08T20:34:10Z</time>
      </trkpt>
      <trkpt lat="45.08933" lon="7.06646">
        <ele>1783</ele>
        <time>2019-07-08T20:34:12Z</time>
      </trkpt>
      <trkpt lat="45.08912" lon="7.06648">
        <ele>1785</ele>
        <time>2019-07-08T20:34:16Z</time>
      </trkpt>
      <trkpt lat="45.08887" lon="7.06645">
        <ele>1788</ele>
        <time>2019-07-08T20:34:21Z</time>
      </trkpt>
      <trkpt lat="45.08848" lon="7.06635">
        <ele>1792</ele>
        <time>2019-07-08T20:34:28Z</time>
      </trkpt>
      <trkpt lat="45.08836" lon="7.06625">
        <ele>1791</ele>
        <time>2019-07-08T20:34:30Z</time>
      </trkpt>
      <trkpt lat="45.08802" lon="7.06567">
        <ele>1789</ele>
        <time>2019-07-08T20:34:40Z</time>
      </trkpt>
      <trkpt lat="45.08792" lon="7.06558">
        <ele>1792</ele>
        <time>2019-07-08T20:34:42Z</time>
      </trkpt>
      <trkpt lat="45.08781" lon="7.06549">
        <ele>1794</ele>
        <time>2019-07-08T20:34:44Z</time>
      </trkpt>
      <trkpt lat="45.08743" lon="7.06539">
        <ele>1804</ele>
        <time>2019-07-08T20:34:51Z</time>
      </trkpt>
      <trkpt lat="45.08734" lon="7.06534">
        <ele>1806</ele>
        <time>2019-07-08T20:34:53Z</time>
      </trkpt>
      <trkpt lat="45.08717" lon="7.06516">
        <ele>1807</ele>
        <time>2019-07-08T20:34:56Z</time>
      </trkpt>
      <trkpt lat="45.08698" lon="7.06486">
        <ele>1805</ele>
        <time>2019-07-08T20:35:01Z</time>
      </trkpt>
      <trkpt lat="45.08672" lon="7.06451">
        <ele>1804</ele>
        <time>2019-07-08T20:35:08Z</time>
      </trkpt>
      <trkpt lat="45.08662" lon="7.06434">
        <ele>1804</ele>
        <time>2019-07-08T20:35:11Z</time>
      </trkpt>
      <trkpt lat="45.0864" lon="7.06411">
        <ele>1813</ele>
        <time>2019-07-08T20:35:15Z</time>
      </trkpt>
      <trkpt lat="45.08637" lon="7.06401">
        <ele>1811</ele>
        <time>2019-07-08T20:35:17Z</time>
      </trkpt>
      <trkpt lat="45.08636" lon="7.06372">
        <ele>1802</ele>
        <time>2019-07-08T20:35:20Z</time>
      </trkpt>
      <trkpt lat="45.08633" lon="7.06365">
        <ele>1802</ele>
        <time>2019-07-08T20:35:21Z</time>
      </trkpt>
      <trkpt lat="45.08626" lon="7.06355">
        <ele>1803</ele>
        <time>2019-07-08T20:35:23Z</time>
      </trkpt>
      <trkpt lat="45.086" lon="7.06336">
        <ele>1811</ele>
        <time>2019-07-08T20:35:28Z</time>
      </trkpt>
      <trkpt lat="45.08569" lon="7.06327">
        <ele>1823</ele>
        <time>2019-07-08T20:35:34Z</time>
      </trkpt>
      <trkpt lat="45.08555" lon="7.06319">
        <ele>1826</ele>
        <time>2019-07-08T20:35:37Z</time>
      </trkpt>
      <trkpt lat="45.08547" lon="7.06293">
        <ele>1818</ele>
        <time>2019-07-08T20:35:40Z</time>
      </trkpt>
      <trkpt lat="45.08542" lon="7.06285">
        <ele>1817</ele>
        <time>2019-07-08T20:35:42Z</time>
      </trkpt>
      <trkpt lat="45.08488" lon="7.06249">
        <ele>1832</ele>
        <time>2019-07-08T20:35:52Z</time>
      </trkpt>
      <trkpt lat="45.08472" lon="7.06233">
        <ele>1837</ele>
        <time>2019-07-08T20:35:56Z</time>
      </trkpt>
      <trkpt lat="45.08465" lon="7.0622">
        <ele>1838</ele>
        <time>2019-07-08T20:35:58Z</time>
      </trkpt>
      <trkpt lat="45.08457" lon="7.06199">
        <ele>1838</ele>
        <time>2019-07-08T20:36:01Z</time>
      </trkpt>
      <trkpt lat="45.08422" lon="7.0609">
        <ele>1845</ele>
        <time>2019-07-08T20:36:16Z</time>
      </trkpt>
      <trkpt lat="45.0842" lon="7.0608">
        <ele>1845</ele>
        <time>2019-07-08T20:36:17Z</time>
      </trkpt>
      <trkpt lat="45.08422" lon="7.06036">
        <ele>1844</ele>
        <time>2019-07-08T20:36:23Z</time>
      </trkpt>
      <trkpt lat="45.08418" lon="7.06018">
        <ele>1846</ele>
        <time>2019-07-08T20:36:25Z</time>
      </trkpt>
      <trkpt lat="45.08398" lon="7.05979">
        <ele>1849</ele>
        <time>2019-07-08T20:36:31Z</time>
      </trkpt>
      <trkpt lat="45.08385" lon="7.05946">
        <ele>1847</ele>
        <time>2019-07-08T20:36:36Z</time>
      </trkpt>
      <trkpt lat="45.08377" lon="7.05933">
        <ele>1847</ele>
        <time>2019-07-08T20:36:38Z</time>
      </trkpt>
      <trkpt lat="45.0837" lon="7.05927">
        <ele>1848</ele>
        <time>2019-07-08T20:36:40Z</time>
      </trkpt>
      <trkpt lat="45.08354" lon="7.05918">
        <ele>1851</ele>
        <time>2019-07-08T20:36:43Z</time>
      </trkpt>
      <trkpt lat="45.08314" lon="7.05905">
        <ele>1859</ele>
        <time>2019-07-08T20:36:50Z</time>
      </trkpt>
      <trkpt lat="45.08246" lon="7.05896">
        <ele>1871</ele>
        <time>2019-07-08T20:37:02Z</time>
      </trkpt>
      <trkpt lat="45.08215" lon="7.05902">
        <ele>1876</ele>
        <time>2019-07-08T20:37:08Z</time>
      </trkpt>
      <trkpt lat="45.08196" lon="7.0591">
        <ele>1880</ele>
        <time>2019-07-08T20:37:11Z</time>
      </trkpt>
      <trkpt lat="45.08178" lon="7.05921">
        <ele>1885</ele>
        <time>2019-07-08T20:37:15Z</time>
      </trkpt>
      <trkpt lat="45.0816" lon="7.05929">
        <ele>1890</ele>
        <time>2019-07-08T20:37:18Z</time>
      </trkpt>
      <trkpt lat="45.08151" lon="7.0593">
        <ele>1891</ele>
        <time>2019-07-08T20:37:20Z</time>
      </trkpt>
      <trkpt lat="45.08142" lon="7.05929">
        <ele>1892</ele>
        <time>2019-07-08T20:37:21Z</time>
      </trkpt>
      <trkpt lat="45.08124" lon="7.05921">
        <ele>1890</ele>
        <time>2019-07-08T20:37:25Z</time>
      </trkpt>
      <trkpt lat="45.08092" lon="7.05917">
        <ele>1891</ele>
        <time>2019-07-08T20:37:30Z</time>
      </trkpt>
      <trkpt lat="45.08086" lon="7.05913">
        <ele>1891</ele>
        <time>2019-07-08T20:37:31Z</time>
      </trkpt>
      <trkpt lat="45.08013" lon="7.05849">
        <ele>1901</ele>
        <time>2019-07-08T20:37:47Z</time>
      </trkpt>
      <trkpt lat="45.08007" lon="7.0584">
        <ele>1902</ele>
        <time>2019-07-08T20:37:48Z</time>
      </trkpt>
      <trkpt lat="45.08006" lon="7.05831">
        <ele>1902</ele>
        <time>2019-07-08T20:37:49Z</time>
      </trkpt>
      <trkpt lat="45.08016" lon="7.05803">
        <ele>1902</ele>
        <time>2019-07-08T20:37:53Z</time>
      </trkpt>
      <trkpt lat="45.08019" lon="7.05789">
        <ele>1903</ele>
        <time>2019-07-08T20:37:55Z</time>
      </trkpt>
      <trkpt lat="45.0802" lon="7.05778">
        <ele>1904</ele>
        <time>2019-07-08T20:37:57Z</time>
      </trkpt>
      <trkpt lat="45.08014" lon="7.05731">
        <ele>1909</ele>
        <time>2019-07-08T20:38:03Z</time>
      </trkpt>
      <trkpt lat="45.08016" lon="7.05723">
        <ele>1910</ele>
        <time>2019-07-08T20:38:04Z</time>
      </trkpt>
      <trkpt lat="45.08021" lon="7.05714">
        <ele>1909</ele>
        <time>2019-07-08T20:38:05Z</time>
      </trkpt>
      <trkpt lat="45.08027" lon="7.0571">
        <ele>1909</ele>
        <time>2019-07-08T20:38:06Z</time>
      </trkpt>
      <trkpt lat="45.08047" lon="7.05699">
        <ele>1906</ele>
        <time>2019-07-08T20:38:10Z</time>
      </trkpt>
      <trkpt lat="45.08054" lon="7.05693">
        <ele>1906</ele>
        <time>2019-07-08T20:38:12Z</time>
      </trkpt>
      <trkpt lat="45.08061" lon="7.05683">
        <ele>1906</ele>
        <time>2019-07-08T20:38:13Z</time>
      </trkpt>
      <trkpt lat="45.08065" lon="7.05671">
        <ele>1907</ele>
        <time>2019-07-08T20:38:15Z</time>
      </trkpt>
      <trkpt lat="45.08067" lon="7.05659">
        <ele>1908</ele>
        <time>2019-07-08T20:38:17Z</time>
      </trkpt>
      <trkpt lat="45.08066" lon="7.05646">
        <ele>1909</ele>
        <time>2019-07-08T20:38:18Z</time>
      </trkpt>
      <trkpt lat="45.08062" lon="7.05633">
        <ele>1911</ele>
        <time>2019-07-08T20:38:20Z</time>
      </trkpt>
      <trkpt lat="45.08055" lon="7.05622">
        <ele>1913</ele>
        <time>2019-07-08T20:38:22Z</time>
      </trkpt>
      <trkpt lat="45.08039" lon="7.05601">
        <ele>1917</ele>
        <time>2019-07-08T20:38:26Z</time>
      </trkpt>
      <trkpt lat="45.08036" lon="7.05592">
        <ele>1918</ele>
        <time>2019-07-08T20:38:27Z</time>
      </trkpt>
      <trkpt lat="45.08034" lon="7.05581">
        <ele>1920</ele>
        <time>2019-07-08T20:38:28Z</time>
      </trkpt>
      <trkpt lat="45.08044" lon="7.05528">
        <ele>1927</ele>
        <time>2019-07-08T20:38:35Z</time>
      </trkpt>
      <trkpt lat="45.08048" lon="7.0552">
        <ele>1928</ele>
        <time>2019-07-08T20:38:36Z</time>
      </trkpt>
      <trkpt lat="45.08056" lon="7.05514">
        <ele>1928</ele>
        <time>2019-07-08T20:38:38Z</time>
      </trkpt>
      <trkpt lat="45.08063" lon="7.05511">
        <ele>1928</ele>
        <time>2019-07-08T20:38:39Z</time>
      </trkpt>
      <trkpt lat="45.08073" lon="7.05515">
        <ele>1926</ele>
        <time>2019-07-08T20:38:41Z</time>
      </trkpt>
      <trkpt lat="45.08081" lon="7.05514">
        <ele>1925</ele>
        <time>2019-07-08T20:38:43Z</time>
      </trkpt>
      <trkpt lat="45.0809" lon="7.0551">
        <ele>1924</ele>
        <time>2019-07-08T20:38:44Z</time>
      </trkpt>
      <trkpt lat="45.08152" lon="7.05446">
        <ele>1931</ele>
        <time>2019-07-08T20:38:58Z</time>
      </trkpt>
      <trkpt lat="45.08181" lon="7.05426">
        <ele>1932</ele>
        <time>2019-07-08T20:39:04Z</time>
      </trkpt>
      <trkpt lat="45.08193" lon="7.0541">
        <ele>1935</ele>
        <time>2019-07-08T20:39:07Z</time>
      </trkpt>
      <trkpt lat="45.08193" lon="7.05405">
        <ele>1936</ele>
        <time>2019-07-08T20:39:07Z</time>
      </trkpt>
      <trkpt lat="45.08188" lon="7.05398">
        <ele>1938</ele>
        <time>2019-07-08T20:39:09Z</time>
      </trkpt>
      <trkpt lat="45.08184" lon="7.05399">
        <ele>1939</ele>
        <time>2019-07-08T20:39:09Z</time>
      </trkpt>
      <trkpt lat="45.08175" lon="7.05406">
        <ele>1938</ele>
        <time>2019-07-08T20:39:11Z</time>
      </trkpt>
      <trkpt lat="45.0817" lon="7.05408">
        <ele>1938</ele>
        <time>2019-07-08T20:39:12Z</time>
      </trkpt>
      <trkpt lat="45.08096" lon="7.05406">
        <ele>1949</ele>
        <time>2019-07-08T20:39:25Z</time>
      </trkpt>
      <trkpt lat="45.08078" lon="7.05401">
        <ele>1952</ele>
        <time>2019-07-08T20:39:28Z</time>
      </trkpt>
      <trkpt lat="45.08017" lon="7.05371">
        <ele>1966</ele>
        <time>2019-07-08T20:39:40Z</time>
      </trkpt>
      <trkpt lat="45.08009" lon="7.0537">
        <ele>1967</ele>
        <time>2019-07-08T20:39:41Z</time>
      </trkpt>
      <trkpt lat="45.08001" lon="7.05371">
        <ele>1967</ele>
        <time>2019-07-08T20:39:43Z</time>
      </trkpt>
      <trkpt lat="45.07932" lon="7.05397">
        <ele>1975</ele>
        <time>2019-07-08T20:39:56Z</time>
      </trkpt>
      <trkpt lat="45.07918" lon="7.05405">
        <ele>1975</ele>
        <time>2019-07-08T20:39:58Z</time>
      </trkpt>
      <trkpt lat="45.07912" lon="7.0541">
        <ele>1975</ele>
        <time>2019-07-08T20:39:59Z</time>
      </trkpt>
      <trkpt lat="45.07905" lon="7.05427">
        <ele>1973</ele>
        <time>2019-07-08T20:40:02Z</time>
      </trkpt>
      <trkpt lat="45.07905" lon="7.05456">
        <ele>1967</ele>
        <time>2019-07-08T20:40:06Z</time>
      </trkpt>
      <trkpt lat="45.07902" lon="7.05461">
        <ele>1966</ele>
        <time>2019-07-08T20:40:06Z</time>
      </trkpt>
      <trkpt lat="45.07895" lon="7.05465">
        <ele>1967</ele>
        <time>2019-07-08T20:40:08Z</time>
      </trkpt>
      <trkpt lat="45.07848" lon="7.05472">
        <ele>1976</ele>
        <time>2019-07-08T20:40:16Z</time>
      </trkpt>
      <trkpt lat="45.0784" lon="7.05472">
        <ele>1978</ele>
        <time>2019-07-08T20:40:18Z</time>
      </trkpt>
      <trkpt lat="45.07833" lon="7.05469">
        <ele>1980</ele>
        <time>2019-07-08T20:40:19Z</time>
      </trkpt>
      <trkpt lat="45.07784" lon="7.05436">
        <ele>1994</ele>
        <time>2019-07-08T20:40:29Z</time>
      </trkpt>
      <trkpt lat="45.07778" lon="7.05434">
        <ele>1995</ele>
        <time>2019-07-08T20:40:30Z</time>
      </trkpt>
      <trkpt lat="45.0776" lon="7.05435">
        <ele>1997</ele>
        <time>2019-07-08T20:40:33Z</time>
      </trkpt>
      <trkpt lat="45.07749" lon="7.05438">
        <ele>1997</ele>
        <time>2019-07-08T20:40:35Z</time>
      </trkpt>
      <trkpt lat="45.07737" lon="7.05445">
        <ele>1997</ele>
        <time>2019-07-08T20:40:37Z</time>
      </trkpt>
      <trkpt lat="45.07719" lon="7.0546">
        <ele>1997</ele>
        <time>2019-07-08T20:40:41Z</time>
      </trkpt>
      <trkpt lat="45.0768" lon="7.05502">
        <ele>1998</ele>
        <time>2019-07-08T20:40:50Z</time>
      </trkpt>
      <trkpt lat="45.07677" lon="7.05502">
        <ele>1999</ele>
        <time>2019-07-08T20:40:50Z</time>
      </trkpt>
      <trkpt lat="45.07673" lon="7.055">
        <ele>2000</ele>
        <time>2019-07-08T20:40:51Z</time>
      </trkpt>
      <trkpt lat="45.07672" lon="7.0549">
        <ele>2001</ele>
        <time>2019-07-08T20:40:52Z</time>
      </trkpt>
      <trkpt lat="45.07683" lon="7.05439">
        <ele>2006</ele>
        <time>2019-07-08T20:40:59Z</time>
      </trkpt>
      <trkpt lat="45.07691" lon="7.0542">
        <ele>2008</ele>
        <time>2019-07-08T20:41:02Z</time>
      </trkpt>
      <trkpt lat="45.07702" lon="7.05403">
        <ele>2011</ele>
        <time>2019-07-08T20:41:04Z</time>
      </trkpt>
      <trkpt lat="45.0771" lon="7.05393">
        <ele>2013</ele>
        <time>2019-07-08T20:41:06Z</time>
      </trkpt>
      <trkpt lat="45.07724" lon="7.05385">
        <ele>2014</ele>
        <time>2019-07-08T20:41:09Z</time>
      </trkpt>
      <trkpt lat="45.07739" lon="7.05379">
        <ele>2014</ele>
        <time>2019-07-08T20:41:12Z</time>
      </trkpt>
      <trkpt lat="45.07761" lon="7.05376">
        <ele>2013</ele>
        <time>2019-07-08T20:41:16Z</time>
      </trkpt>
      <trkpt lat="45.07767" lon="7.05373">
        <ele>2013</ele>
        <time>2019-07-08T20:41:17Z</time>
      </trkpt>
      <trkpt lat="45.07802" lon="7.05338">
        <ele>2018</ele>
        <time>2019-07-08T20:41:25Z</time>
      </trkpt>
      <trkpt lat="45.07815" lon="7.05328">
        <ele>2019</ele>
        <time>2019-07-08T20:41:27Z</time>
      </trkpt>
      <trkpt lat="45.07817" lon="7.05324">
        <ele>2020</ele>
        <time>2019-07-08T20:41:28Z</time>
      </trkpt>
      <trkpt lat="45.07817" lon="7.0532">
        <ele>2021</ele>
        <time>2019-07-08T20:41:28Z</time>
      </trkpt>
      <trkpt lat="45.07814" lon="7.05317">
        <ele>2023</ele>
        <time>2019-07-08T20:41:29Z</time>
      </trkpt>
      <trkpt lat="45.07811" lon="7.05317">
        <ele>2023</ele>
        <time>2019-07-08T20:41:29Z</time>
      </trkpt>
      <trkpt lat="45.07803" lon="7.05321">
        <ele>2023</ele>
        <time>2019-07-08T20:41:31Z</time>
      </trkpt>
      <trkpt lat="45.07789" lon="7.05325">
        <ele>2024</ele>
        <time>2019-07-08T20:41:34Z</time>
      </trkpt>
      <trkpt lat="45.07763" lon="7.0533">
        <ele>2026</ele>
        <time>2019-07-08T20:41:38Z</time>
      </trkpt>
      <trkpt lat="45.0774" lon="7.05332">
        <ele>2028</ele>
        <time>2019-07-08T20:41:42Z</time>
      </trkpt>
      <trkpt lat="45.07723" lon="7.05331">
        <ele>2030</ele>
        <time>2019-07-08T20:41:45Z</time>
      </trkpt>
      <trkpt lat="45.07707" lon="7.05325">
        <ele>2033</ele>
        <time>2019-07-08T20:41:48Z</time>
      </trkpt>
      <trkpt lat="45.07683" lon="7.05312">
        <ele>2038</ele>
        <time>2019-07-08T20:41:53Z</time>
      </trkpt>
      <trkpt lat="45.07671" lon="7.05307">
        <ele>2040</ele>
        <time>2019-07-08T20:41:55Z</time>
      </trkpt>
      <trkpt lat="45.07664" lon="7.05307">
        <ele>2041</ele>
        <time>2019-07-08T20:41:56Z</time>
      </trkpt>
      <trkpt lat="45.07639" lon="7.05312">
        <ele>2044</ele>
        <time>2019-07-08T20:42:01Z</time>
      </trkpt>
      <trkpt lat="45.07631" lon="7.05316">
        <ele>2045</ele>
        <time>2019-07-08T20:42:02Z</time>
      </trkpt>
      <trkpt lat="45.07616" lon="7.05331">
        <ele>2043</ele>
        <time>2019-07-08T20:42:06Z</time>
      </trkpt>
      <trkpt lat="45.0761" lon="7.05335">
        <ele>2044</ele>
        <time>2019-07-08T20:42:07Z</time>
      </trkpt>
      <trkpt lat="45.07603" lon="7.05336">
        <ele>2045</ele>
        <time>2019-07-08T20:42:08Z</time>
      </trkpt>
      <trkpt lat="45.0759" lon="7.05332">
        <ele>2048</ele>
        <time>2019-07-08T20:42:10Z</time>
      </trkpt>
      <trkpt lat="45.0757" lon="7.05319">
        <ele>2056</ele>
        <time>2019-07-08T20:42:14Z</time>
      </trkpt>
      <trkpt lat="45.07559" lon="7.05319">
        <ele>2058</ele>
        <time>2019-07-08T20:42:16Z</time>
      </trkpt>
      <trkpt lat="45.07539" lon="7.05326">
        <ele>2061</ele>
        <time>2019-07-08T20:42:20Z</time>
      </trkpt>
      <trkpt lat="45.07531" lon="7.05333">
        <ele>2061</ele>
        <time>2019-07-08T20:42:22Z</time>
      </trkpt>
      <trkpt lat="45.07522" lon="7.05346">
        <ele>2062</ele>
        <time>2019-07-08T20:42:24Z</time>
      </trkpt>
      <trkpt lat="45.07519" lon="7.05365">
        <ele>2061</ele>
        <time>2019-07-08T20:42:26Z</time>
      </trkpt>
      <trkpt lat="45.07516" lon="7.05369">
        <ele>2061</ele>
        <time>2019-07-08T20:42:27Z</time>
      </trkpt>
      <trkpt lat="45.07512" lon="7.0537">
        <ele>2062</ele>
        <time>2019-07-08T20:42:28Z</time>
      </trkpt>
      <trkpt lat="45.07509" lon="7.05369">
        <ele>2063</ele>
        <time>2019-07-08T20:42:28Z</time>
      </trkpt>
      <trkpt lat="45.07507" lon="7.05365">
        <ele>2064</ele>
        <time>2019-07-08T20:42:29Z</time>
      </trkpt>
      <trkpt lat="45.07506" lon="7.05358">
        <ele>2065</ele>
        <time>2019-07-08T20:42:30Z</time>
      </trkpt>
      <trkpt lat="45.07508" lon="7.05349">
        <ele>2065</ele>
        <time>2019-07-08T20:42:31Z</time>
      </trkpt>
      <trkpt lat="45.07532" lon="7.05288">
        <ele>2072</ele>
        <time>2019-07-08T20:42:40Z</time>
      </trkpt>
      <trkpt lat="45.07539" lon="7.0528">
        <ele>2072</ele>
        <time>2019-07-08T20:42:41Z</time>
      </trkpt>
      <trkpt lat="45.0756" lon="7.05275">
        <ele>2070</ele>
        <time>2019-07-08T20:42:45Z</time>
      </trkpt>
      <trkpt lat="45.07563" lon="7.05271">
        <ele>2070</ele>
        <time>2019-07-08T20:42:46Z</time>
      </trkpt>
      <trkpt lat="45.07571" lon="7.05246">
        <ele>2076</ele>
        <time>2019-07-08T20:42:49Z</time>
      </trkpt>
      <trkpt lat="45.07575" lon="7.05238">
        <ele>2079</ele>
        <time>2019-07-08T20:42:51Z</time>
      </trkpt>
      <trkpt lat="45.07581" lon="7.05232">
        <ele>2082</ele>
        <time>2019-07-08T20:42:52Z</time>
      </trkpt>
      <trkpt lat="45.07629" lon="7.05201">
        <ele>2088</ele>
        <time>2019-07-08T20:43:01Z</time>
      </trkpt>
      <trkpt lat="45.07631" lon="7.05195">
        <ele>2091</ele>
        <time>2019-07-08T20:43:02Z</time>
      </trkpt>
      <trkpt lat="45.07628" lon="7.05188">
        <ele>2095</ele>
        <time>2019-07-08T20:43:03Z</time>
      </trkpt>
      <trkpt lat="45.07607" lon="7.052">
        <ele>2093</ele>
        <time>2019-07-08T20:43:07Z</time>
      </trkpt>
      <trkpt lat="45.07594" lon="7.05203">
        <ele>2094</ele>
        <time>2019-07-08T20:43:10Z</time>
      </trkpt>
      <trkpt lat="45.07565" lon="7.052">
        <ele>2099</ele>
        <time>2019-07-08T20:43:15Z</time>
      </trkpt>
      <trkpt lat="45.07559" lon="7.05201">
        <ele>2099</ele>
        <time>2019-07-08T20:43:16Z</time>
      </trkpt>
      <trkpt lat="45.07524" lon="7.05226">
        <ele>2092</ele>
        <time>2019-07-08T20:43:23Z</time>
      </trkpt>
      <trkpt lat="45.07493" lon="7.05225">
        <ele>2098</ele>
        <time>2019-07-08T20:43:28Z</time>
      </trkpt>
      <trkpt lat="45.07454" lon="7.05233">
        <ele>2105</ele>
        <time>2019-07-08T20:43:35Z</time>
      </trkpt>
      <trkpt lat="45.0744" lon="7.0524">
        <ele>2107</ele>
        <time>2019-07-08T20:43:38Z</time>
      </trkpt>
      <trkpt lat="45.07396" lon="7.05292">
        <ele>2112</ele>
        <time>2019-07-08T20:43:48Z</time>
      </trkpt>
      <trkpt lat="45.07392" lon="7.05299">
        <ele>2113</ele>
        <time>2019-07-08T20:43:49Z</time>
      </trkpt>
      <trkpt lat="45.07374" lon="7.05367">
        <ele>2116</ele>
        <time>2019-07-08T20:43:58Z</time>
      </trkpt>
      <trkpt lat="45.07372" lon="7.05378">
        <ele>2117</ele>
        <time>2019-07-08T20:44:00Z</time>
      </trkpt>
      <trkpt lat="45.07374" lon="7.05397">
        <ele>2118</ele>
        <time>2019-07-08T20:44:02Z</time>
      </trkpt>
      <trkpt lat="45.07394" lon="7.05443">
        <ele>2118</ele>
        <time>2019-07-08T20:44:09Z</time>
      </trkpt>
      <trkpt lat="45.07417" lon="7.05477">
        <ele>2116</ele>
        <time>2019-07-08T20:44:15Z</time>
      </trkpt>
      <trkpt lat="45.07446" lon="7.05527">
        <ele>2109</ele>
        <time>2019-07-08T20:44:23Z</time>
      </trkpt>
      <trkpt lat="45.07446" lon="7.05531">
        <ele>2110</ele>
        <time>2019-07-08T20:44:24Z</time>
      </trkpt>
      <trkpt lat="45.07444" lon="7.05533">
        <ele>2112</ele>
        <time>2019-07-08T20:44:24Z</time>
      </trkpt>
      <trkpt lat="45.07441" lon="7.05532">
        <ele>2114</ele>
        <time>2019-07-08T20:44:25Z</time>
      </trkpt>
      <trkpt lat="45.07402" lon="7.05491">
        <ele>2127</ele>
        <time>2019-07-08T20:44:33Z</time>
      </trkpt>
      <trkpt lat="45.07378" lon="7.05469">
        <ele>2133</ele>
        <time>2019-07-08T20:44:38Z</time>
      </trkpt>
      <trkpt lat="45.07319" lon="7.05409">
        <ele>2142</ele>
        <time>2019-07-08T20:44:51Z</time>
      </trkpt>
      <trkpt lat="45.07314" lon="7.05406">
        <ele>2143</ele>
        <time>2019-07-08T20:44:52Z</time>
      </trkpt>
      <trkpt lat="45.07287" lon="7.05407">
        <ele>2154</ele>
        <time>2019-07-08T20:44:57Z</time>
      </trkpt>
      <trkpt lat="45.07275" lon="7.05404">
        <ele>2158</ele>
        <time>2019-07-08T20:44:59Z</time>
      </trkpt>
      <trkpt lat="45.0726" lon="7.05391">
        <ele>2163</ele>
        <time>2019-07-08T20:45:02Z</time>
      </trkpt>
      <trkpt lat="45.07256" lon="7.05385">
        <ele>2164</ele>
        <time>2019-07-08T20:45:03Z</time>
      </trkpt>
      <trkpt lat="45.07255" lon="7.0538">
        <ele>2165</ele>
        <time>2019-07-08T20:45:04Z</time>
      </trkpt>
      <trkpt lat="45.07258" lon="7.05363">
        <ele>2163</ele>
        <time>2019-07-08T20:45:06Z</time>
      </trkpt>
      <trkpt lat="45.07257" lon="7.05358">
        <ele>2163</ele>
        <time>2019-07-08T20:45:07Z</time>
      </trkpt>
      <trkpt lat="45.07254" lon="7.05356">
        <ele>2164</ele>
        <time>2019-07-08T20:45:07Z</time>
      </trkpt>
      <trkpt lat="45.07249" lon="7.05359">
        <ele>2166</ele>
        <time>2019-07-08T20:45:08Z</time>
      </trkpt>
      <trkpt lat="45.07247" lon="7.05368">
        <ele>2167</ele>
        <time>2019-07-08T20:45:10Z</time>
      </trkpt>
      <trkpt lat="45.07247" lon="7.05378">
        <ele>2167</ele>
        <time>2019-07-08T20:45:11Z</time>
      </trkpt>
      <trkpt lat="45.07249" lon="7.05387">
        <ele>2167</ele>
        <time>2019-07-08T20:45:12Z</time>
      </trkpt>
      <trkpt lat="45.07276" lon="7.05436">
        <ele>2166</ele>
        <time>2019-07-08T20:45:20Z</time>
      </trkpt>
      <trkpt lat="45.07304" lon="7.05459">
        <ele>2164</ele>
        <time>2019-07-08T20:45:26Z</time>
      </trkpt>
      <trkpt lat="45.07304" lon="7.05463">
        <ele>2165</ele>
        <time>2019-07-08T20:45:26Z</time>
      </trkpt>
      <trkpt lat="45.07299" lon="7.05465">
        <ele>2168</ele>
        <time>2019-07-08T20:45:27Z</time>
      </trkpt>
      <trkpt lat="45.0727" lon="7.05448">
        <ele>2173</ele>
        <time>2019-07-08T20:45:33Z</time>
      </trkpt>
      <trkpt lat="45.07262" lon="7.05441">
        <ele>2174</ele>
        <time>2019-07-08T20:45:34Z</time>
      </trkpt>
      <trkpt lat="45.07247" lon="7.05421">
        <ele>2171</ele>
        <time>2019-07-08T20:45:38Z</time>
      </trkpt>
      <trkpt lat="45.07212" lon="7.05394">
        <ele>2176</ele>
        <time>2019-07-08T20:45:45Z</time>
      </trkpt>
      <trkpt lat="45.07208" lon="7.05387">
        <ele>2176</ele>
        <time>2019-07-08T20:45:46Z</time>
      </trkpt>
      <trkpt lat="45.07207" lon="7.05351">
        <ele>2170</ele>
        <time>2019-07-08T20:45:51Z</time>
      </trkpt>
      <trkpt lat="45.07203" lon="7.05333">
        <ele>2168</ele>
        <time>2019-07-08T20:45:53Z</time>
      </trkpt>
      <trkpt lat="45.07205" lon="7.05322">
        <ele>2167</ele>
        <time>2019-07-08T20:45:54Z</time>
      </trkpt>
      <trkpt lat="45.07217" lon="7.05279">
        <ele>2166</ele>
        <time>2019-07-08T20:46:00Z</time>
      </trkpt>
      <trkpt lat="45.07236" lon="7.05192">
        <ele>2167</ele>
        <time>2019-07-08T20:46:12Z</time>
      </trkpt>
      <trkpt lat="45.07238" lon="7.05169">
        <ele>2167</ele>
        <time>2019-07-08T20:46:15Z</time>
      </trkpt>
      <trkpt lat="45.07234" lon="7.05047">
        <ele>2157</ele>
        <time>2019-07-08T20:46:30Z</time>
      </trkpt>
      <trkpt lat="45.0723" lon="7.05006">
        <ele>2152</ele>
        <time>2019-07-08T20:46:35Z</time>
      </trkpt>
      <trkpt lat="45.0722" lon="7.04935">
        <ele>2144</ele>
        <time>2019-07-08T20:46:44Z</time>
      </trkpt>
      <trkpt lat="45.07212" lon="7.04823">
        <ele>2136</ele>
        <time>2019-07-08T20:46:58Z</time>
      </trkpt>
      <trkpt lat="45.07212" lon="7.04796">
        <ele>2134</ele>
        <time>2019-07-08T20:47:02Z</time>
      </trkpt>
      <trkpt lat="45.07215" lon="7.04774">
        <ele>2134</ele>
        <time>2019-07-08T20:47:05Z</time>
      </trkpt>
      <trkpt lat="45.0722" lon="7.04749">
        <ele>2135</ele>
        <time>2019-07-08T20:47:08Z</time>
      </trkpt>
      <trkpt lat="45.07221" lon="7.0473">
        <ele>2134</ele>
        <time>2019-07-08T20:47:10Z</time>
      </trkpt>
      <trkpt lat="45.07215" lon="7.04499">
        <ele>2120</ele>
        <time>2019-07-08T20:47:39Z</time>
      </trkpt>
      <trkpt lat="45.07212" lon="7.0449">
        <ele>2118</ele>
        <time>2019-07-08T20:47:41Z</time>
      </trkpt>
      <trkpt lat="45.07206" lon="7.04487">
        <ele>2115</ele>
        <time>2019-07-08T20:47:42Z</time>
      </trkpt>
      <trkpt lat="45.07201" lon="7.0449">
        <ele>2113</ele>
        <time>2019-07-08T20:47:43Z</time>
      </trkpt>
      <trkpt lat="45.07193" lon="7.04517">
        <ele>2111</ele>
        <time>2019-07-08T20:47:46Z</time>
      </trkpt>
      <trkpt lat="45.07165" lon="7.04626">
        <ele>2103</ele>
        <time>2019-07-08T20:48:01Z</time>
      </trkpt>
      <trkpt lat="45.07155" lon="7.04685">
        <ele>2101</ele>
        <time>2019-07-08T20:48:09Z</time>
      </trkpt>
      <trkpt lat="45.07148" lon="7.04707">
        <ele>2100</ele>
        <time>2019-07-08T20:48:12Z</time>
      </trkpt>
      <trkpt lat="45.07111" lon="7.04784">
        <ele>2087</ele>
        <time>2019-07-08T20:48:23Z</time>
      </trkpt>
      <trkpt lat="45.07108" lon="7.04807">
        <ele>2086</ele>
        <time>2019-07-08T20:48:26Z</time>
      </trkpt>
      <trkpt lat="45.07107" lon="7.04916">
        <ele>2084</ele>
        <time>2019-07-08T20:48:40Z</time>
      </trkpt>
      <trkpt lat="45.07102" lon="7.04959">
        <ele>2082</ele>
        <time>2019-07-08T20:48:45Z</time>
      </trkpt>
      <trkpt lat="45.07096" lon="7.04985">
        <ele>2080</ele>
        <time>2019-07-08T20:48:49Z</time>
      </trkpt>
      <trkpt lat="45.07082" lon="7.05023">
        <ele>2076</ele>
        <time>2019-07-08T20:48:54Z</time>
      </trkpt>
      <trkpt lat="45.07075" lon="7.05032">
        <ele>2075</ele>
        <time>2019-07-08T20:48:56Z</time>
      </trkpt>
      <trkpt lat="45.07044" lon="7.05061">
        <ele>2070</ele>
        <time>2019-07-08T20:49:03Z</time>
      </trkpt>
      <trkpt lat="45.07038" lon="7.05069">
        <ele>2069</ele>
        <time>2019-07-08T20:49:04Z</time>
      </trkpt>
      <trkpt lat="45.07027" lon="7.05091">
        <ele>2072</ele>
        <time>2019-07-08T20:49:07Z</time>
      </trkpt>
      <trkpt lat="45.07018" lon="7.05095">
        <ele>2072</ele>
        <time>2019-07-08T20:49:09Z</time>
      </trkpt>
      <trkpt lat="45.07003" lon="7.05088">
        <ele>2066</ele>
        <time>2019-07-08T20:49:12Z</time>
      </trkpt>
      <trkpt lat="45.06971" lon="7.05061">
        <ele>2060</ele>
        <time>2019-07-08T20:49:18Z</time>
      </trkpt>
      <trkpt lat="45.06925" lon="7.05028">
        <ele>2048</ele>
        <time>2019-07-08T20:49:28Z</time>
      </trkpt>
      <trkpt lat="45.06876" lon="7.04998">
        <ele>2042</ele>
        <time>2019-07-08T20:49:37Z</time>
      </trkpt>
      <trkpt lat="45.0678" lon="7.04945">
        <ele>2032</ele>
        <time>2019-07-08T20:49:55Z</time>
      </trkpt>
      <trkpt lat="45.06734" lon="7.04928">
        <ele>2023</ele>
        <time>2019-07-08T20:50:04Z</time>
      </trkpt>
      <trkpt lat="45.06726" lon="7.04927">
        <ele>2020</ele>
        <time>2019-07-08T20:50:05Z</time>
      </trkpt>
      <trkpt lat="45.06713" lon="7.04931">
        <ele>2018</ele>
        <time>2019-07-08T20:50:08Z</time>
      </trkpt>
      <trkpt lat="45.06675" lon="7.04971">
        <ele>2021</ele>
        <time>2019-07-08T20:50:16Z</time>
      </trkpt>
      <trkpt lat="45.06651" lon="7.05">
        <ele>2023</ele>
        <time>2019-07-08T20:50:22Z</time>
      </trkpt>
      <trkpt lat="45.0661" lon="7.05027">
        <ele>2019</ele>
        <time>2019-07-08T20:50:30Z</time>
      </trkpt>
      <trkpt lat="45.06582" lon="7.05035">
        <ele>2013</ele>
        <time>2019-07-08T20:50:35Z</time>
      </trkpt>
      <trkpt lat="45.06512" lon="7.05038">
        <ele>2004</ele>
        <time>2019-07-08T20:50:47Z</time>
      </trkpt>
      <trkpt lat="45.06505" lon="7.05038">
        <ele>2002</ele>
        <time>2019-07-08T20:50:49Z</time>
      </trkpt>
      <trkpt lat="45.06483" lon="7.05031">
        <ele>1994</ele>
        <time>2019-07-08T20:50:53Z</time>
      </trkpt>
      <trkpt lat="45.06478" lon="7.05031">
        <ele>1992</ele>
        <time>2019-07-08T20:50:54Z</time>
      </trkpt>
      <trkpt lat="45.06449" lon="7.05049">
        <ele>1989</ele>
        <time>2019-07-08T20:50:59Z</time>
      </trkpt>
      <trkpt lat="45.06436" lon="7.05062">
        <ele>1988</ele>
        <time>2019-07-08T20:51:02Z</time>
      </trkpt>
      <trkpt lat="45.06431" lon="7.05069">
        <ele>1989</ele>
        <time>2019-07-08T20:51:03Z</time>
      </trkpt>
      <trkpt lat="45.06428" lon="7.05079">
        <ele>1990</ele>
        <time>2019-07-08T20:51:05Z</time>
      </trkpt>
      <trkpt lat="45.0642" lon="7.05147">
        <ele>1996</ele>
        <time>2019-07-08T20:51:13Z</time>
      </trkpt>
      <trkpt lat="45.06414" lon="7.05172">
        <ele>1997</ele>
        <time>2019-07-08T20:51:17Z</time>
      </trkpt>
      <trkpt lat="45.06409" lon="7.05179">
        <ele>1996</ele>
        <time>2019-07-08T20:51:18Z</time>
      </trkpt>
      <trkpt lat="45.06382" lon="7.05199">
        <ele>1992</ele>
        <time>2019-07-08T20:51:23Z</time>
      </trkpt>
      <trkpt lat="45.06378" lon="7.05204">
        <ele>1991</ele>
        <time>2019-07-08T20:51:24Z</time>
      </trkpt>
      <trkpt lat="45.06374" lon="7.05212">
        <ele>1992</ele>
        <time>2019-07-08T20:51:25Z</time>
      </trkpt>
      <trkpt lat="45.06369" lon="7.05234">
        <ele>1994</ele>
        <time>2019-07-08T20:51:28Z</time>
      </trkpt>
      <trkpt lat="45.06365" lon="7.0524">
        <ele>1994</ele>
        <time>2019-07-08T20:51:29Z</time>
      </trkpt>
      <trkpt lat="45.06361" lon="7.05243">
        <ele>1993</ele>
        <time>2019-07-08T20:51:30Z</time>
      </trkpt>
      <trkpt lat="45.06356" lon="7.05243">
        <ele>1992</ele>
        <time>2019-07-08T20:51:31Z</time>
      </trkpt>
      <trkpt lat="45.06349" lon="7.05241">
        <ele>1990</ele>
        <time>2019-07-08T20:51:32Z</time>
      </trkpt>
      <trkpt lat="45.0634" lon="7.05231">
        <ele>1986</ele>
        <time>2019-07-08T20:51:34Z</time>
      </trkpt>
      <trkpt lat="45.06311" lon="7.05177">
        <ele>1974</ele>
        <time>2019-07-08T20:51:43Z</time>
      </trkpt>
      <trkpt lat="45.06298" lon="7.05165">
        <ele>1972</ele>
        <time>2019-07-08T20:51:46Z</time>
      </trkpt>
      <trkpt lat="45.06282" lon="7.05159">
        <ele>1971</ele>
        <time>2019-07-08T20:51:49Z</time>
      </trkpt>
      <trkpt lat="45.06229" lon="7.05159">
        <ele>1969</ele>
        <time>2019-07-08T20:51:58Z</time>
      </trkpt>
      <trkpt lat="45.06185" lon="7.05168">
        <ele>1966</ele>
        <time>2019-07-08T20:52:06Z</time>
      </trkpt>
      <trkpt lat="45.06167" lon="7.05169">
        <ele>1964</ele>
        <time>2019-07-08T20:52:09Z</time>
      </trkpt>
      <trkpt lat="45.06154" lon="7.05163">
        <ele>1967</ele>
        <time>2019-07-08T20:52:12Z</time>
      </trkpt>
      <trkpt lat="45.06119" lon="7.05128">
        <ele>1972</ele>
        <time>2019-07-08T20:52:19Z</time>
      </trkpt>
      <trkpt lat="45.06116" lon="7.05123">
        <ele>1972</ele>
        <time>2019-07-08T20:52:20Z</time>
      </trkpt>
      <trkpt lat="45.06117" lon="7.05118">
        <ele>1971</ele>
        <time>2019-07-08T20:52:21Z</time>
      </trkpt>
      <trkpt lat="45.0611" lon="7.05091">
        <ele>1969</ele>
        <time>2019-07-08T20:52:24Z</time>
      </trkpt>
      <trkpt lat="45.06108" lon="7.05035">
        <ele>1959</ele>
        <time>2019-07-08T20:52:31Z</time>
      </trkpt>
      <trkpt lat="45.061" lon="7.04978">
        <ele>1949</ele>
        <time>2019-07-08T20:52:39Z</time>
      </trkpt>
      <trkpt lat="45.06093" lon="7.0495">
        <ele>1943</ele>
        <time>2019-07-08T20:52:42Z</time>
      </trkpt>
      <trkpt lat="45.0608" lon="7.04927">
        <ele>1940</ele>
        <time>2019-07-08T20:52:46Z</time>
      </trkpt>
      <trkpt lat="45.06071" lon="7.0492">
        <ele>1938</ele>
        <time>2019-07-08T20:52:48Z</time>
      </trkpt>
      <trkpt lat="45.06056" lon="7.04917">
        <ele>1938</ele>
        <time>2019-07-08T20:52:51Z</time>
      </trkpt>
      <trkpt lat="45.06001" lon="7.04925">
        <ele>1943</ele>
        <time>2019-07-08T20:53:00Z</time>
      </trkpt>
      <trkpt lat="45.05972" lon="7.04927">
        <ele>1943</ele>
        <time>2019-07-08T20:53:06Z</time>
      </trkpt>
      <trkpt lat="45.05952" lon="7.04935">
        <ele>1944</ele>
        <time>2019-07-08T20:53:09Z</time>
      </trkpt>
      <trkpt lat="45.05936" lon="7.04939">
        <ele>1945</ele>
        <time>2019-07-08T20:53:12Z</time>
      </trkpt>
      <trkpt lat="45.05922" lon="7.04935">
        <ele>1943</ele>
        <time>2019-07-08T20:53:15Z</time>
      </trkpt>
      <trkpt lat="45.05884" lon="7.04911">
        <ele>1933</ele>
        <time>2019-07-08T20:53:22Z</time>
      </trkpt>
      <trkpt lat="45.05869" lon="7.04905">
        <ele>1930</ele>
        <time>2019-07-08T20:53:25Z</time>
      </trkpt>
      <trkpt lat="45.05853" lon="7.04902">
        <ele>1928</ele>
        <time>2019-07-08T20:53:28Z</time>
      </trkpt>
      <trkpt lat="45.05835" lon="7.04904">
        <ele>1927</ele>
        <time>2019-07-08T20:53:31Z</time>
      </trkpt>
      <trkpt lat="45.05822" lon="7.04917">
        <ele>1925</ele>
        <time>2019-07-08T20:53:34Z</time>
      </trkpt>
      <trkpt lat="45.058" lon="7.04951">
        <ele>1926</ele>
        <time>2019-07-08T20:53:40Z</time>
      </trkpt>
      <trkpt lat="45.05769" lon="7.05016">
        <ele>1929</ele>
        <time>2019-07-08T20:53:50Z</time>
      </trkpt>
      <trkpt lat="45.0576" lon="7.05044">
        <ele>1932</ele>
        <time>2019-07-08T20:53:53Z</time>
      </trkpt>
      <trkpt lat="45.05753" lon="7.05055">
        <ele>1932</ele>
        <time>2019-07-08T20:53:55Z</time>
      </trkpt>
      <trkpt lat="45.05744" lon="7.0506">
        <ele>1931</ele>
        <time>2019-07-08T20:53:57Z</time>
      </trkpt>
      <trkpt lat="45.05695" lon="7.05071">
        <ele>1921</ele>
        <time>2019-07-08T20:54:06Z</time>
      </trkpt>
      <trkpt lat="45.05587" lon="7.05128">
        <ele>1921</ele>
        <time>2019-07-08T20:54:26Z</time>
      </trkpt>
      <trkpt lat="45.05556" lon="7.05152">
        <ele>1926</ele>
        <time>2019-07-08T20:54:33Z</time>
      </trkpt>
      <trkpt lat="45.05538" lon="7.0516">
        <ele>1926</ele>
        <time>2019-07-08T20:54:36Z</time>
      </trkpt>
      <trkpt lat="45.05503" lon="7.05167">
        <ele>1921</ele>
        <time>2019-07-08T20:54:42Z</time>
      </trkpt>
      <trkpt lat="45.05453" lon="7.05185">
        <ele>1922</ele>
        <time>2019-07-08T20:54:51Z</time>
      </trkpt>
      <trkpt lat="45.05428" lon="7.05189">
        <ele>1920</ele>
        <time>2019-07-08T20:54:56Z</time>
      </trkpt>
      <trkpt lat="45.05411" lon="7.05188">
        <ele>1919</ele>
        <time>2019-07-08T20:54:59Z</time>
      </trkpt>
      <trkpt lat="45.05398" lon="7.05181">
        <ele>1917</ele>
        <time>2019-07-08T20:55:01Z</time>
      </trkpt>
      <trkpt lat="45.05375" lon="7.05162">
        <ele>1912</ele>
        <time>2019-07-08T20:55:06Z</time>
      </trkpt>
      <trkpt lat="45.05358" lon="7.05151">
        <ele>1911</ele>
        <time>2019-07-08T20:55:09Z</time>
      </trkpt>
      <trkpt lat="45.05341" lon="7.05144">
        <ele>1910</ele>
        <time>2019-07-08T20:55:13Z</time>
      </trkpt>
      <trkpt lat="45.05296" lon="7.05135">
        <ele>1917</ele>
        <time>2019-07-08T20:55:21Z</time>
      </trkpt>
      <trkpt lat="45.05273" lon="7.05123">
        <ele>1918</ele>
        <time>2019-07-08T20:55:25Z</time>
      </trkpt>
      <trkpt lat="45.05215" lon="7.05064">
        <ele>1912</ele>
        <time>2019-07-08T20:55:38Z</time>
      </trkpt>
      <trkpt lat="45.05195" lon="7.0504">
        <ele>1908</ele>
        <time>2019-07-08T20:55:42Z</time>
      </trkpt>
      <trkpt lat="45.05129" lon="7.04992">
        <ele>1907</ele>
        <time>2019-07-08T20:55:56Z</time>
      </trkpt>
      <trkpt lat="45.05075" lon="7.04945">
        <ele>1903</ele>
        <time>2019-07-08T20:56:07Z</time>
      </trkpt>
      <trkpt lat="45.05052" lon="7.04921">
        <ele>1897</ele>
        <time>2019-07-08T20:56:12Z</time>
      </trkpt>
      <trkpt lat="45.05035" lon="7.04912">
        <ele>1895</ele>
        <time>2019-07-08T20:56:15Z</time>
      </trkpt>
      <trkpt lat="45.05018" lon="7.0491">
        <ele>1896</ele>
        <time>2019-07-08T20:56:18Z</time>
      </trkpt>
      <trkpt lat="45.05001" lon="7.04911">
        <ele>1897</ele>
        <time>2019-07-08T20:56:21Z</time>
      </trkpt>
      <trkpt lat="45.04972" lon="7.04903">
        <ele>1887</ele>
        <time>2019-07-08T20:56:27Z</time>
      </trkpt>
      <trkpt lat="45.04961" lon="7.04902">
        <ele>1883</ele>
        <time>2019-07-08T20:56:28Z</time>
      </trkpt>
      <trkpt lat="45.04956" lon="7.04906">
        <ele>1882</ele>
        <time>2019-07-08T20:56:30Z</time>
      </trkpt>
      <trkpt lat="45.04948" lon="7.04929">
        <ele>1881</ele>
        <time>2019-07-08T20:56:33Z</time>
      </trkpt>
      <trkpt lat="45.04948" lon="7.04952">
        <ele>1884</ele>
        <time>2019-07-08T20:56:36Z</time>
      </trkpt>
      <trkpt lat="45.04941" lon="7.04982">
        <ele>1883</ele>
        <time>2019-07-08T20:56:40Z</time>
      </trkpt>
      <trkpt lat="45.04926" lon="7.05026">
        <ele>1874</ele>
        <time>2019-07-08T20:56:46Z</time>
      </trkpt>
      <trkpt lat="45.04915" lon="7.05052">
        <ele>1864</ele>
        <time>2019-07-08T20:56:50Z</time>
      </trkpt>
      <trkpt lat="45.04916" lon="7.05066">
        <ele>1863</ele>
        <time>2019-07-08T20:56:51Z</time>
      </trkpt>
      <trkpt lat="45.04921" lon="7.05077">
        <ele>1866</ele>
        <time>2019-07-08T20:56:53Z</time>
      </trkpt>
      <trkpt lat="45.04933" lon="7.05087">
        <ele>1873</ele>
        <time>2019-07-08T20:56:55Z</time>
      </trkpt>
      <trkpt lat="45.04953" lon="7.05118">
        <ele>1879</ele>
        <time>2019-07-08T20:57:01Z</time>
      </trkpt>
      <trkpt lat="45.04968" lon="7.05153">
        <ele>1881</ele>
        <time>2019-07-08T20:57:06Z</time>
      </trkpt>
      <trkpt lat="45.04971" lon="7.05168">
        <ele>1879</ele>
        <time>2019-07-08T20:57:08Z</time>
      </trkpt>
      <trkpt lat="45.04968" lon="7.05186">
        <ele>1873</ele>
        <time>2019-07-08T20:57:10Z</time>
      </trkpt>
      <trkpt lat="45.04962" lon="7.05205">
        <ele>1866</ele>
        <time>2019-07-08T20:57:13Z</time>
      </trkpt>
      <trkpt lat="45.0496" lon="7.05219">
        <ele>1862</ele>
        <time>2019-07-08T20:57:15Z</time>
      </trkpt>
      <trkpt lat="45.04964" lon="7.05236">
        <ele>1862</ele>
        <time>2019-07-08T20:57:17Z</time>
      </trkpt>
      <trkpt lat="45.04973" lon="7.05255">
        <ele>1866</ele>
        <time>2019-07-08T20:57:20Z</time>
      </trkpt>
      <trkpt lat="45.04982" lon="7.05278">
        <ele>1868</ele>
        <time>2019-07-08T20:57:23Z</time>
      </trkpt>
      <trkpt lat="45.04988" lon="7.05333">
        <ele>1861</ele>
        <time>2019-07-08T20:57:30Z</time>
      </trkpt>
      <trkpt lat="45.04996" lon="7.05369">
        <ele>1858</ele>
        <time>2019-07-08T20:57:35Z</time>
      </trkpt>
      <trkpt lat="45.05005" lon="7.05397">
        <ele>1858</ele>
        <time>2019-07-08T20:57:39Z</time>
      </trkpt>
      <trkpt lat="45.05009" lon="7.05419">
        <ele>1856</ele>
        <time>2019-07-08T20:57:41Z</time>
      </trkpt>
      <trkpt lat="45.05009" lon="7.05443">
        <ele>1855</ele>
        <time>2019-07-08T20:57:44Z</time>
      </trkpt>
      <trkpt lat="45.05" lon="7.05557">
        <ele>1849</ele>
        <time>2019-07-08T20:57:59Z</time>
      </trkpt>
      <trkpt lat="45.04995" lon="7.05592">
        <ele>1848</ele>
        <time>2019-07-08T20:58:03Z</time>
      </trkpt>
      <trkpt lat="45.04987" lon="7.05611">
        <ele>1845</ele>
        <time>2019-07-08T20:58:06Z</time>
      </trkpt>
      <trkpt lat="45.04982" lon="7.05633">
        <ele>1845</ele>
        <time>2019-07-08T20:58:09Z</time>
      </trkpt>
      <trkpt lat="45.0498" lon="7.05697">
        <ele>1847</ele>
        <time>2019-07-08T20:58:17Z</time>
      </trkpt>
      <trkpt lat="45.04977" lon="7.05719">
        <ele>1846</ele>
        <time>2019-07-08T20:58:20Z</time>
      </trkpt>
      <trkpt lat="45.04966" lon="7.05754">
        <ele>1843</ele>
        <time>2019-07-08T20:58:25Z</time>
      </trkpt>
      <trkpt lat="45.04952" lon="7.05814">
        <ele>1838</ele>
        <time>2019-07-08T20:58:33Z</time>
      </trkpt>
      <trkpt lat="45.04948" lon="7.0584">
        <ele>1836</ele>
        <time>2019-07-08T20:58:36Z</time>
      </trkpt>
      <trkpt lat="45.04949" lon="7.05864">
        <ele>1835</ele>
        <time>2019-07-08T20:58:39Z</time>
      </trkpt>
      <trkpt lat="45.04966" lon="7.05928">
        <ele>1838</ele>
        <time>2019-07-08T20:58:48Z</time>
      </trkpt>
      <trkpt lat="45.04987" lon="7.06018">
        <ele>1837</ele>
        <time>2019-07-08T20:59:00Z</time>
      </trkpt>
      <trkpt lat="45.04997" lon="7.06076">
        <ele>1835</ele>
        <time>2019-07-08T20:59:07Z</time>
      </trkpt>
      <trkpt lat="45.05002" lon="7.06135">
        <ele>1834</ele>
        <time>2019-07-08T20:59:15Z</time>
      </trkpt>
      <trkpt lat="45.05011" lon="7.06172">
        <ele>1835</ele>
        <time>2019-07-08T20:59:19Z</time>
      </trkpt>
      <trkpt lat="45.05027" lon="7.06216">
        <ele>1836</ele>
        <time>2019-07-08T20:59:26Z</time>
      </trkpt>
      <trkpt lat="45.05035" lon="7.06244">
        <ele>1836</ele>
        <time>2019-07-08T20:59:29Z</time>
      </trkpt>
      <trkpt lat="45.05042" lon="7.06285">
        <ele>1837</ele>
        <time>2019-07-08T20:59:35Z</time>
      </trkpt>
      <trkpt lat="45.05047" lon="7.06395">
        <ele>1833</ele>
        <time>2019-07-08T20:59:49Z</time>
      </trkpt>
      <trkpt lat="45.05052" lon="7.06409">
        <ele>1834</ele>
        <time>2019-07-08T20:59:51Z</time>
      </trkpt>
      <trkpt lat="45.05061" lon="7.06424">
        <ele>1837</ele>
        <time>2019-07-08T20:59:53Z</time>
      </trkpt>
      <trkpt lat="45.0506" lon="7.06434">
        <ele>1837</ele>
        <time>2019-07-08T20:59:54Z</time>
      </trkpt>
      <trkpt lat="45.0505" lon="7.06447">
        <ele>1834</ele>
        <time>2019-07-08T20:59:57Z</time>
      </trkpt>
      <trkpt lat="45.05049" lon="7.06462">
        <ele>1834</ele>
        <time>2019-07-08T20:59:59Z</time>
      </trkpt>
      <trkpt lat="45.05054" lon="7.06497">
        <ele>1837</ele>
        <time>2019-07-08T21:00:03Z</time>
      </trkpt>
      <trkpt lat="45.05058" lon="7.06581">
        <ele>1838</ele>
        <time>2019-07-08T21:00:14Z</time>
      </trkpt>
      <trkpt lat="45.05072" lon="7.06664">
        <ele>1841</ele>
        <time>2019-07-08T21:00:24Z</time>
      </trkpt>
      <trkpt lat="45.05074" lon="7.06699">
        <ele>1839</ele>
        <time>2019-07-08T21:00:29Z</time>
      </trkpt>
      <trkpt lat="45.05082" lon="7.06745">
        <ele>1839</ele>
        <time>2019-07-08T21:00:35Z</time>
      </trkpt>
      <trkpt lat="45.05081" lon="7.0677">
        <ele>1838</ele>
        <time>2019-07-08T21:00:38Z</time>
      </trkpt>
      <trkpt lat="45.05064" lon="7.06821">
        <ele>1831</ele>
        <time>2019-07-08T21:00:45Z</time>
      </trkpt>
      <trkpt lat="45.05088" lon="7.06919">
        <ele>1837</ele>
        <time>2019-07-08T21:00:58Z</time>
      </trkpt>
      <trkpt lat="45.05102" lon="7.06988">
        <ele>1832</ele>
        <time>2019-07-08T21:01:07Z</time>
      </trkpt>
      <trkpt lat="45.05106" lon="7.07019">
        <ele>1828</ele>
        <time>2019-07-08T21:01:11Z</time>
      </trkpt>
      <trkpt lat="45.05107" lon="7.07042">
        <ele>1824</ele>
        <time>2019-07-08T21:01:14Z</time>
      </trkpt>
      <trkpt lat="45.05111" lon="7.0706">
        <ele>1821</ele>
        <time>2019-07-08T21:01:16Z</time>
      </trkpt>
      <trkpt lat="45.05129" lon="7.07086">
        <ele>1823</ele>
        <time>2019-07-08T21:01:21Z</time>
      </trkpt>
      <trkpt lat="45.05147" lon="7.07101">
        <ele>1825</ele>
        <time>2019-07-08T21:01:25Z</time>
      </trkpt>
      <trkpt lat="45.05167" lon="7.07111">
        <ele>1830</ele>
        <time>2019-07-08T21:01:28Z</time>
      </trkpt>
      <trkpt lat="45.05193" lon="7.07119">
        <ele>1836</ele>
        <time>2019-07-08T21:01:33Z</time>
      </trkpt>
      <trkpt lat="45.05211" lon="7.07115">
        <ele>1843</ele>
        <time>2019-07-08T21:01:36Z</time>
      </trkpt>
      <trkpt lat="45.05232" lon="7.07118">
        <ele>1849</ele>
        <time>2019-07-08T21:01:40Z</time>
      </trkpt>
      <trkpt lat="45.05239" lon="7.07128">
        <ele>1849</ele>
        <time>2019-07-08T21:01:42Z</time>
      </trkpt>
      <trkpt lat="45.05244" lon="7.07144">
        <ele>1848</ele>
        <time>2019-07-08T21:01:44Z</time>
      </trkpt>
      <trkpt lat="45.05244" lon="7.0716">
        <ele>1844</ele>
        <time>2019-07-08T21:01:46Z</time>
      </trkpt>
      <trkpt lat="45.05237" lon="7.07191">
        <ele>1837</ele>
        <time>2019-07-08T21:01:50Z</time>
      </trkpt>
      <trkpt lat="45.05242" lon="7.07266">
        <ele>1834</ele>
        <time>2019-07-08T21:02:00Z</time>
      </trkpt>
      <trkpt lat="45.05245" lon="7.07291">
        <ele>1834</ele>
        <time>2019-07-08T21:02:03Z</time>
      </trkpt>
      <trkpt lat="45.05254" lon="7.07324">
        <ele>1837</ele>
        <time>2019-07-08T21:02:07Z</time>
      </trkpt>
      <trkpt lat="45.0526" lon="7.07357">
        <ele>1837</ele>
        <time>2019-07-08T21:02:12Z</time>
      </trkpt>
      <trkpt lat="45.05264" lon="7.07399">
        <ele>1835</ele>
        <time>2019-07-08T21:02:17Z</time>
      </trkpt>
      <trkpt lat="45.05268" lon="7.07436">
        <ele>1832</ele>
        <time>2019-07-08T21:02:22Z</time>
      </trkpt>
      <trkpt lat="45.05267" lon="7.07485">
        <ele>1825</ele>
        <time>2019-07-08T21:02:28Z</time>
      </trkpt>
      <trkpt lat="45.05274" lon="7.07515">
        <ele>1823</ele>
        <time>2019-07-08T21:02:32Z</time>
      </trkpt>
      <trkpt lat="45.05287" lon="7.07534">
        <ele>1826</ele>
        <time>2019-07-08T21:02:35Z</time>
      </trkpt>
      <trkpt lat="45.05294" lon="7.07554">
        <ele>1825</ele>
        <time>2019-07-08T21:02:38Z</time>
      </trkpt>
      <trkpt lat="45.05296" lon="7.0758">
        <ele>1820</ele>
        <time>2019-07-08T21:02:41Z</time>
      </trkpt>
      <trkpt lat="45.05288" lon="7.07619">
        <ele>1814</ele>
        <time>2019-07-08T21:02:46Z</time>
      </trkpt>
      <trkpt lat="45.05295" lon="7.07674">
        <ele>1819</ele>
        <time>2019-07-08T21:02:53Z</time>
      </trkpt>
      <trkpt lat="45.05305" lon="7.07715">
        <ele>1827</ele>
        <time>2019-07-08T21:02:59Z</time>
      </trkpt>
      <trkpt lat="45.05302" lon="7.0773">
        <ele>1827</ele>
        <time>2019-07-08T21:03:01Z</time>
      </trkpt>
      <trkpt lat="45.05294" lon="7.0774">
        <ele>1824</ele>
        <time>2019-07-08T21:03:03Z</time>
      </trkpt>
      <trkpt lat="45.05278" lon="7.07744">
        <ele>1818</ele>
        <time>2019-07-08T21:03:06Z</time>
      </trkpt>
      <trkpt lat="45.05271" lon="7.07756">
        <ele>1816</ele>
        <time>2019-07-08T21:03:07Z</time>
      </trkpt>
      <trkpt lat="45.05267" lon="7.07784">
        <ele>1818</ele>
        <time>2019-07-08T21:03:11Z</time>
      </trkpt>
      <trkpt lat="45.05258" lon="7.07792">
        <ele>1816</ele>
        <time>2019-07-08T21:03:13Z</time>
      </trkpt>
      <trkpt lat="45.05246" lon="7.07793">
        <ele>1812</ele>
        <time>2019-07-08T21:03:15Z</time>
      </trkpt>
      <trkpt lat="45.05234" lon="7.07805">
        <ele>1811</ele>
        <time>2019-07-08T21:03:18Z</time>
      </trkpt>
      <trkpt lat="45.05228" lon="7.07819">
        <ele>1812</ele>
        <time>2019-07-08T21:03:20Z</time>
      </trkpt>
      <trkpt lat="45.05221" lon="7.07851">
        <ele>1813</ele>
        <time>2019-07-08T21:03:24Z</time>
      </trkpt>
      <trkpt lat="45.0522" lon="7.0789">
        <ele>1814</ele>
        <time>2019-07-08T21:03:29Z</time>
      </trkpt>
      <trkpt lat="45.05216" lon="7.07915">
        <ele>1815</ele>
        <time>2019-07-08T21:03:32Z</time>
      </trkpt>
      <trkpt lat="45.05189" lon="7.07971">
        <ele>1818</ele>
        <time>2019-07-08T21:03:41Z</time>
      </trkpt>
      <trkpt lat="45.0517" lon="7.0799">
        <ele>1815</ele>
        <time>2019-07-08T21:03:45Z</time>
      </trkpt>
      <trkpt lat="45.0515" lon="7.08006">
        <ele>1817</ele>
        <time>2019-07-08T21:03:49Z</time>
      </trkpt>
      <trkpt lat="45.05135" lon="7.08014">
        <ele>1819</ele>
        <time>2019-07-08T21:03:52Z</time>
      </trkpt>
      <trkpt lat="45.05109" lon="7.08017">
        <ele>1818</ele>
        <time>2019-07-08T21:03:56Z</time>
      </trkpt>
      <trkpt lat="45.05085" lon="7.0801">
        <ele>1814</ele>
        <time>2019-07-08T21:04:01Z</time>
      </trkpt>
      <trkpt lat="45.05051" lon="7.07992">
        <ele>1816</ele>
        <time>2019-07-08T21:04:07Z</time>
      </trkpt>
      <trkpt lat="45.05028" lon="7.07976">
        <ele>1817</ele>
        <time>2019-07-08T21:04:12Z</time>
      </trkpt>
      <trkpt lat="45.05004" lon="7.07952">
        <ele>1814</ele>
        <time>2019-07-08T21:04:17Z</time>
      </trkpt>
      <trkpt lat="45.04983" lon="7.07927">
        <ele>1807</ele>
        <time>2019-07-08T21:04:22Z</time>
      </trkpt>
      <trkpt lat="45.04961" lon="7.0791">
        <ele>1801</ele>
        <time>2019-07-08T21:04:26Z</time>
      </trkpt>
      <trkpt lat="45.04946" lon="7.07904">
        <ele>1799</ele>
        <time>2019-07-08T21:04:29Z</time>
      </trkpt>
      <trkpt lat="45.04932" lon="7.07907">
        <ele>1799</ele>
        <time>2019-07-08T21:04:32Z</time>
      </trkpt>
      <trkpt lat="45.04922" lon="7.07923">
        <ele>1803</ele>
        <time>2019-07-08T21:04:34Z</time>
      </trkpt>
      <trkpt lat="45.04898" lon="7.07976">
        <ele>1812</ele>
        <time>2019-07-08T21:04:42Z</time>
      </trkpt>
      <trkpt lat="45.04873" lon="7.08021">
        <ele>1816</ele>
        <time>2019-07-08T21:04:49Z</time>
      </trkpt>
      <trkpt lat="45.04861" lon="7.0804">
        <ele>1817</ele>
        <time>2019-07-08T21:04:53Z</time>
      </trkpt>
      <trkpt lat="45.0485" lon="7.0805">
        <ele>1816</ele>
        <time>2019-07-08T21:04:55Z</time>
      </trkpt>
      <trkpt lat="45.04836" lon="7.0805">
        <ele>1812</ele>
        <time>2019-07-08T21:04:57Z</time>
      </trkpt>
      <trkpt lat="45.04822" lon="7.08043">
        <ele>1810</ele>
        <time>2019-07-08T21:05:00Z</time>
      </trkpt>
      <trkpt lat="45.04805" lon="7.08029">
        <ele>1807</ele>
        <time>2019-07-08T21:05:04Z</time>
      </trkpt>
      <trkpt lat="45.04758" lon="7.08018">
        <ele>1806</ele>
        <time>2019-07-08T21:05:12Z</time>
      </trkpt>
      <trkpt lat="45.04735" lon="7.08005">
        <ele>1804</ele>
        <time>2019-07-08T21:05:16Z</time>
      </trkpt>
      <trkpt lat="45.04664" lon="7.07959">
        <ele>1800</ele>
        <time>2019-07-08T21:05:30Z</time>
      </trkpt>
      <trkpt lat="45.04637" lon="7.07949">
        <ele>1797</ele>
        <time>2019-07-08T21:05:35Z</time>
      </trkpt>
      <trkpt lat="45.04618" lon="7.07945">
        <ele>1796</ele>
        <time>2019-07-08T21:05:39Z</time>
      </trkpt>
      <trkpt lat="45.04601" lon="7.07947">
        <ele>1796</ele>
        <time>2019-07-08T21:05:42Z</time>
      </trkpt>
      <trkpt lat="45.04575" lon="7.07945">
        <ele>1796</ele>
        <time>2019-07-08T21:05:46Z</time>
      </trkpt>
      <trkpt lat="45.04554" lon="7.07939">
        <ele>1795</ele>
        <time>2019-07-08T21:05:50Z</time>
      </trkpt>
      <trkpt lat="45.04525" lon="7.07919">
        <ele>1792</ele>
        <time>2019-07-08T21:05:56Z</time>
      </trkpt>
      <trkpt lat="45.04516" lon="7.07903">
        <ele>1789</ele>
        <time>2019-07-08T21:05:59Z</time>
      </trkpt>
      <trkpt lat="45.0451" lon="7.07883">
        <ele>1786</ele>
        <time>2019-07-08T21:06:01Z</time>
      </trkpt>
      <trkpt lat="45.0448" lon="7.07853">
        <ele>1782</ele>
        <time>2019-07-08T21:06:08Z</time>
      </trkpt>
      <trkpt lat="45.04467" lon="7.07845">
        <ele>1781</ele>
        <time>2019-07-08T21:06:10Z</time>
      </trkpt>
      <trkpt lat="45.04439" lon="7.07841">
        <ele>1783</ele>
        <time>2019-07-08T21:06:15Z</time>
      </trkpt>
      <trkpt lat="45.04428" lon="7.07836">
        <ele>1783</ele>
        <time>2019-07-08T21:06:17Z</time>
      </trkpt>
      <trkpt lat="45.04418" lon="7.07829">
        <ele>1782</ele>
        <time>2019-07-08T21:06:19Z</time>
      </trkpt>
      <trkpt lat="45.04408" lon="7.07816">
        <ele>1780</ele>
        <time>2019-07-08T21:06:22Z</time>
      </trkpt>
      <trkpt lat="45.04396" lon="7.07805">
        <ele>1778</ele>
        <time>2019-07-08T21:06:24Z</time>
      </trkpt>
      <trkpt lat="45.04332" lon="7.07813">
        <ele>1776</ele>
        <time>2019-07-08T21:06:36Z</time>
      </trkpt>
      <trkpt lat="45.04214" lon="7.0781">
        <ele>1772</ele>
        <time>2019-07-08T21:06:57Z</time>
      </trkpt>
      <trkpt lat="45.04134" lon="7.07781">
        <ele>1770</ele>
        <time>2019-07-08T21:07:11Z</time>
      </trkpt>
      <trkpt lat="45.04108" lon="7.07779">
        <ele>1772</ele>
        <time>2019-07-08T21:07:16Z</time>
      </trkpt>
      <trkpt lat="45.04084" lon="7.07774">
        <ele>1772</ele>
        <time>2019-07-08T21:07:20Z</time>
      </trkpt>
      <trkpt lat="45.04063" lon="7.0776">
        <ele>1774</ele>
        <time>2019-07-08T21:07:25Z</time>
      </trkpt>
      <trkpt lat="45.04043" lon="7.07734">
        <ele>1774</ele>
        <time>2019-07-08T21:07:29Z</time>
      </trkpt>
      <trkpt lat="45.04031" lon="7.07707">
        <ele>1774</ele>
        <time>2019-07-08T21:07:33Z</time>
      </trkpt>
      <trkpt lat="45.0402" lon="7.07652">
        <ele>1770</ele>
        <time>2019-07-08T21:07:41Z</time>
      </trkpt>
      <trkpt lat="45.04021" lon="7.07619">
        <ele>1765</ele>
        <time>2019-07-08T21:07:45Z</time>
      </trkpt>
      <trkpt lat="45.04016" lon="7.07584">
        <ele>1762</ele>
        <time>2019-07-08T21:07:49Z</time>
      </trkpt>
      <trkpt lat="45.04002" lon="7.07536">
        <ele>1760</ele>
        <time>2019-07-08T21:07:56Z</time>
      </trkpt>
      <trkpt lat="45.03958" lon="7.07429">
        <ele>1757</ele>
        <time>2019-07-08T21:08:11Z</time>
      </trkpt>
      <trkpt lat="45.03948" lon="7.07377">
        <ele>1756</ele>
        <time>2019-07-08T21:08:18Z</time>
      </trkpt>
      <trkpt lat="45.03908" lon="7.07315">
        <ele>1762</ele>
        <time>2019-07-08T21:08:29Z</time>
      </trkpt>
      <trkpt lat="45.03896" lon="7.07259">
        <ele>1755</ele>
        <time>2019-07-08T21:08:36Z</time>
      </trkpt>
      <trkpt lat="45.03891" lon="7.07203">
        <ele>1753</ele>
        <time>2019-07-08T21:08:43Z</time>
      </trkpt>
      <trkpt lat="45.0388" lon="7.07148">
        <ele>1750</ele>
        <time>2019-07-08T21:08:50Z</time>
      </trkpt>
      <trkpt lat="45.03865" lon="7.071">
        <ele>1748</ele>
        <time>2019-07-08T21:08:57Z</time>
      </trkpt>
      <trkpt lat="45.03853" lon="7.07083">
        <ele>1749</ele>
        <time>2019-07-08T21:09:00Z</time>
      </trkpt>
      <trkpt lat="45.03837" lon="7.07076">
        <ele>1751</ele>
        <time>2019-07-08T21:09:03Z</time>
      </trkpt>
      <trkpt lat="45.03819" lon="7.07071">
        <ele>1746</ele>
        <time>2019-07-08T21:09:06Z</time>
      </trkpt>
      <trkpt lat="45.03815" lon="7.07081">
        <ele>1744</ele>
        <time>2019-07-08T21:09:08Z</time>
      </trkpt>
      <trkpt lat="45.0382" lon="7.07131">
        <ele>1745</ele>
        <time>2019-07-08T21:09:14Z</time>
      </trkpt>
      <trkpt lat="45.03834" lon="7.0718">
        <ele>1751</ele>
        <time>2019-07-08T21:09:21Z</time>
      </trkpt>
      <trkpt lat="45.03839" lon="7.07211">
        <ele>1750</ele>
        <time>2019-07-08T21:09:25Z</time>
      </trkpt>
      <trkpt lat="45.03836" lon="7.07244">
        <ele>1748</ele>
        <time>2019-07-08T21:09:29Z</time>
      </trkpt>
      <trkpt lat="45.03822" lon="7.07296">
        <ele>1743</ele>
        <time>2019-07-08T21:09:36Z</time>
      </trkpt>
      <trkpt lat="45.03812" lon="7.07344">
        <ele>1738</ele>
        <time>2019-07-08T21:09:42Z</time>
      </trkpt>
      <trkpt lat="45.03806" lon="7.07391">
        <ele>1735</ele>
        <time>2019-07-08T21:09:48Z</time>
      </trkpt>
      <trkpt lat="45.0378" lon="7.07487">
        <ele>1722</ele>
        <time>2019-07-08T21:10:01Z</time>
      </trkpt>
      <trkpt lat="45.03777" lon="7.07516">
        <ele>1719</ele>
        <time>2019-07-08T21:10:05Z</time>
      </trkpt>
      <trkpt lat="45.03783" lon="7.07634">
        <ele>1715</ele>
        <time>2019-07-08T21:10:20Z</time>
      </trkpt>
      <trkpt lat="45.03782" lon="7.07677">
        <ele>1715</ele>
        <time>2019-07-08T21:10:25Z</time>
      </trkpt>
      <trkpt lat="45.03776" lon="7.07701">
        <ele>1714</ele>
        <time>2019-07-08T21:10:28Z</time>
      </trkpt>
      <trkpt lat="45.03764" lon="7.07726">
        <ele>1711</ele>
        <time>2019-07-08T21:10:32Z</time>
      </trkpt>
      <trkpt lat="45.03746" lon="7.07755">
        <ele>1706</ele>
        <time>2019-07-08T21:10:37Z</time>
      </trkpt>
      <trkpt lat="45.0373" lon="7.07789">
        <ele>1700</ele>
        <time>2019-07-08T21:10:42Z</time>
      </trkpt>
      <trkpt lat="45.03726" lon="7.07807">
        <ele>1699</ele>
        <time>2019-07-08T21:10:44Z</time>
      </trkpt>
      <trkpt lat="45.03721" lon="7.0782">
        <ele>1696</ele>
        <time>2019-07-08T21:10:46Z</time>
      </trkpt>
      <trkpt lat="45.03718" lon="7.07823">
        <ele>1694</ele>
        <time>2019-07-08T21:10:47Z</time>
      </trkpt>
      <trkpt lat="45.03714" lon="7.07812">
        <ele>1692</ele>
        <time>2019-07-08T21:10:48Z</time>
      </trkpt>
      <trkpt lat="45.03713" lon="7.07776">
        <ele>1691</ele>
        <time>2019-07-08T21:10:53Z</time>
      </trkpt>
      <trkpt lat="45.03726" lon="7.07709">
        <ele>1693</ele>
        <time>2019-07-08T21:11:02Z</time>
      </trkpt>
      <trkpt lat="45.03729" lon="7.07675">
        <ele>1691</ele>
        <time>2019-07-08T21:11:06Z</time>
      </trkpt>
      <trkpt lat="45.03723" lon="7.07635">
        <ele>1688</ele>
        <time>2019-07-08T21:11:11Z</time>
      </trkpt>
      <trkpt lat="45.03712" lon="7.07595">
        <ele>1683</ele>
        <time>2019-07-08T21:11:16Z</time>
      </trkpt>
      <trkpt lat="45.03696" lon="7.07558">
        <ele>1678</ele>
        <time>2019-07-08T21:11:22Z</time>
      </trkpt>
      <trkpt lat="45.03679" lon="7.07522">
        <ele>1674</ele>
        <time>2019-07-08T21:11:27Z</time>
      </trkpt>
      <trkpt lat="45.03665" lon="7.07502">
        <ele>1669</ele>
        <time>2019-07-08T21:11:31Z</time>
      </trkpt>
      <trkpt lat="45.03649" lon="7.07484">
        <ele>1665</ele>
        <time>2019-07-08T21:11:35Z</time>
      </trkpt>
      <trkpt lat="45.0363" lon="7.0745">
        <ele>1663</ele>
        <time>2019-07-08T21:11:40Z</time>
      </trkpt>
      <trkpt lat="45.0362" lon="7.07413">
        <ele>1663</ele>
        <time>2019-07-08T21:11:45Z</time>
      </trkpt>
      <trkpt lat="45.03606" lon="7.07387">
        <ele>1659</ele>
        <time>2019-07-08T21:11:49Z</time>
      </trkpt>
      <trkpt lat="45.03588" lon="7.07372">
        <ele>1654</ele>
        <time>2019-07-08T21:11:53Z</time>
      </trkpt>
      <trkpt lat="45.03573" lon="7.07355">
        <ele>1648</ele>
        <time>2019-07-08T21:11:56Z</time>
      </trkpt>
      <trkpt lat="45.0357" lon="7.07345">
        <ele>1646</ele>
        <time>2019-07-08T21:11:58Z</time>
      </trkpt>
      <trkpt lat="45.03577" lon="7.07327">
        <ele>1648</ele>
        <time>2019-07-08T21:12:00Z</time>
      </trkpt>
      <trkpt lat="45.0359" lon="7.07307">
        <ele>1649</ele>
        <time>2019-07-08T21:12:04Z</time>
      </trkpt>
      <trkpt lat="45.03597" lon="7.07292">
        <ele>1649</ele>
        <time>2019-07-08T21:12:06Z</time>
      </trkpt>
      <trkpt lat="45.03607" lon="7.07258">
        <ele>1647</ele>
        <time>2019-07-08T21:12:10Z</time>
      </trkpt>
      <trkpt lat="45.0362" lon="7.07166">
        <ele>1642</ele>
        <time>2019-07-08T21:12:22Z</time>
      </trkpt>
      <trkpt lat="45.03623" lon="7.0713">
        <ele>1643</ele>
        <time>2019-07-08T21:12:27Z</time>
      </trkpt>
      <trkpt lat="45.03631" lon="7.07111">
        <ele>1647</ele>
        <time>2019-07-08T21:12:30Z</time>
      </trkpt>
      <trkpt lat="45.03627" lon="7.0709">
        <ele>1644</ele>
        <time>2019-07-08T21:12:32Z</time>
      </trkpt>
      <trkpt lat="45.03622" lon="7.07084">
        <ele>1641</ele>
        <time>2019-07-08T21:12:34Z</time>
      </trkpt>
      <trkpt lat="45.03615" lon="7.07084">
        <ele>1637</ele>
        <time>2019-07-08T21:12:35Z</time>
      </trkpt>
      <trkpt lat="45.03611" lon="7.07107">
        <ele>1636</ele>
        <time>2019-07-08T21:12:38Z</time>
      </trkpt>
      <trkpt lat="45.03609" lon="7.07144">
        <ele>1635</ele>
        <time>2019-07-08T21:12:42Z</time>
      </trkpt>
      <trkpt lat="45.03601" lon="7.07171">
        <ele>1632</ele>
        <time>2019-07-08T21:12:46Z</time>
      </trkpt>
      <trkpt lat="45.03588" lon="7.07203">
        <ele>1630</ele>
        <time>2019-07-08T21:12:51Z</time>
      </trkpt>
      <trkpt lat="45.03565" lon="7.0723">
        <ele>1624</ele>
        <time>2019-07-08T21:12:56Z</time>
      </trkpt>
      <trkpt lat="45.03538" lon="7.07251">
        <ele>1617</ele>
        <time>2019-07-08T21:13:02Z</time>
      </trkpt>
      <trkpt lat="45.03514" lon="7.0726">
        <ele>1609</ele>
        <time>2019-07-08T21:13:06Z</time>
      </trkpt>
      <trkpt lat="45.03493" lon="7.07272">
        <ele>1602</ele>
        <time>2019-07-08T21:13:10Z</time>
      </trkpt>
      <trkpt lat="45.03477" lon="7.07296">
        <ele>1599</ele>
        <time>2019-07-08T21:13:14Z</time>
      </trkpt>
      <trkpt lat="45.03472" lon="7.07324">
        <ele>1602</ele>
        <time>2019-07-08T21:13:18Z</time>
      </trkpt>
      <trkpt lat="45.03478" lon="7.07356">
        <ele>1604</ele>
        <time>2019-07-08T21:13:22Z</time>
      </trkpt>
      <trkpt lat="45.03486" lon="7.07383">
        <ele>1606</ele>
        <time>2019-07-08T21:13:26Z</time>
      </trkpt>
      <trkpt lat="45.03501" lon="7.07461">
        <ele>1603</ele>
        <time>2019-07-08T21:13:36Z</time>
      </trkpt>
      <trkpt lat="45.03511" lon="7.07522">
        <ele>1598</ele>
        <time>2019-07-08T21:13:44Z</time>
      </trkpt>
      <trkpt lat="45.03511" lon="7.07545">
        <ele>1596</ele>
        <time>2019-07-08T21:13:47Z</time>
      </trkpt>
      <trkpt lat="45.03504" lon="7.07565">
        <ele>1589</ele>
        <time>2019-07-08T21:13:49Z</time>
      </trkpt>
      <trkpt lat="45.03499" lon="7.07568">
        <ele>1586</ele>
        <time>2019-07-08T21:13:50Z</time>
      </trkpt>
      <trkpt lat="45.03494" lon="7.07568">
        <ele>1583</ele>
        <time>2019-07-08T21:13:51Z</time>
      </trkpt>
      <trkpt lat="45.03492" lon="7.07561">
        <ele>1582</ele>
        <time>2019-07-08T21:13:52Z</time>
      </trkpt>
      <trkpt lat="45.03495" lon="7.07523">
        <ele>1589</ele>
        <time>2019-07-08T21:13:57Z</time>
      </trkpt>
      <trkpt lat="45.03493" lon="7.07487">
        <ele>1593</ele>
        <time>2019-07-08T21:14:01Z</time>
      </trkpt>
      <trkpt lat="45.03482" lon="7.07455">
        <ele>1592</ele>
        <time>2019-07-08T21:14:06Z</time>
      </trkpt>
      <trkpt lat="45.03465" lon="7.07422">
        <ele>1588</ele>
        <time>2019-07-08T21:14:11Z</time>
      </trkpt>
      <trkpt lat="45.0344" lon="7.07384">
        <ele>1579</ele>
        <time>2019-07-08T21:14:18Z</time>
      </trkpt>
      <trkpt lat="45.0339" lon="7.07343">
        <ele>1558</ele>
        <time>2019-07-08T21:14:28Z</time>
      </trkpt>
      <trkpt lat="45.03381" lon="7.07325">
        <ele>1555</ele>
        <time>2019-07-08T21:14:31Z</time>
      </trkpt>
      <trkpt lat="45.03379" lon="7.07301">
        <ele>1551</ele>
        <time>2019-07-08T21:14:34Z</time>
      </trkpt>
      <trkpt lat="45.03385" lon="7.07273">
        <ele>1552</ele>
        <time>2019-07-08T21:14:37Z</time>
      </trkpt>
      <trkpt lat="45.0343" lon="7.07203">
        <ele>1555</ele>
        <time>2019-07-08T21:14:49Z</time>
      </trkpt>
      <trkpt lat="45.03444" lon="7.07173">
        <ele>1552</ele>
        <time>2019-07-08T21:14:54Z</time>
      </trkpt>
      <trkpt lat="45.03455" lon="7.0713">
        <ele>1551</ele>
        <time>2019-07-08T21:15:00Z</time>
      </trkpt>
      <trkpt lat="45.03459" lon="7.06994">
        <ele>1548</ele>
        <time>2019-07-08T21:15:17Z</time>
      </trkpt>
      <trkpt lat="45.03457" lon="7.06973">
        <ele>1546</ele>
        <time>2019-07-08T21:15:19Z</time>
      </trkpt>
      <trkpt lat="45.03455" lon="7.0697">
        <ele>1545</ele>
        <time>2019-07-08T21:15:20Z</time>
      </trkpt>
      <trkpt lat="45.03451" lon="7.06969">
        <ele>1542</ele>
        <time>2019-07-08T21:15:21Z</time>
      </trkpt>
      <trkpt lat="45.03447" lon="7.06981">
        <ele>1540</ele>
        <time>2019-07-08T21:15:22Z</time>
      </trkpt>
      <trkpt lat="45.03441" lon="7.07021">
        <ele>1537</ele>
        <time>2019-07-08T21:15:27Z</time>
      </trkpt>
      <trkpt lat="45.03423" lon="7.07096">
        <ele>1529</ele>
        <time>2019-07-08T21:15:37Z</time>
      </trkpt>
      <trkpt lat="45.03408" lon="7.07136">
        <ele>1527</ele>
        <time>2019-07-08T21:15:43Z</time>
      </trkpt>
      <trkpt lat="45.03404" lon="7.07139">
        <ele>1526</ele>
        <time>2019-07-08T21:15:44Z</time>
      </trkpt>
      <trkpt lat="45.034" lon="7.07136">
        <ele>1523</ele>
        <time>2019-07-08T21:15:45Z</time>
      </trkpt>
      <trkpt lat="45.03399" lon="7.07129">
        <ele>1521</ele>
        <time>2019-07-08T21:15:46Z</time>
      </trkpt>
      <trkpt lat="45.03407" lon="7.07095">
        <ele>1520</ele>
        <time>2019-07-08T21:15:50Z</time>
      </trkpt>
      <trkpt lat="45.03406" lon="7.07039">
        <ele>1516</ele>
        <time>2019-07-08T21:15:57Z</time>
      </trkpt>
      <trkpt lat="45.03413" lon="7.06976">
        <ele>1519</ele>
        <time>2019-07-08T21:16:05Z</time>
      </trkpt>
      <trkpt lat="45.03411" lon="7.06966">
        <ele>1518</ele>
        <time>2019-07-08T21:16:06Z</time>
      </trkpt>
      <trkpt lat="45.03405" lon="7.06962">
        <ele>1513</ele>
        <time>2019-07-08T21:16:08Z</time>
      </trkpt>
      <trkpt lat="45.03399" lon="7.06966">
        <ele>1510</ele>
        <time>2019-07-08T21:16:09Z</time>
      </trkpt>
      <trkpt lat="45.03394" lon="7.06984">
        <ele>1507</ele>
        <time>2019-07-08T21:16:11Z</time>
      </trkpt>
      <trkpt lat="45.03385" lon="7.07053">
        <ele>1504</ele>
        <time>2019-07-08T21:16:20Z</time>
      </trkpt>
      <trkpt lat="45.03375" lon="7.07094">
        <ele>1501</ele>
        <time>2019-07-08T21:16:25Z</time>
      </trkpt>
      <trkpt lat="45.03346" lon="7.07146">
        <ele>1498</ele>
        <time>2019-07-08T21:16:34Z</time>
      </trkpt>
      <trkpt lat="45.03312" lon="7.07186">
        <ele>1492</ele>
        <time>2019-07-08T21:16:42Z</time>
      </trkpt>
      <trkpt lat="45.03268" lon="7.07227">
        <ele>1478</ele>
        <time>2019-07-08T21:16:51Z</time>
      </trkpt>
      <trkpt lat="45.0326" lon="7.07245">
        <ele>1476</ele>
        <time>2019-07-08T21:16:54Z</time>
      </trkpt>
      <trkpt lat="45.03257" lon="7.07274">
        <ele>1472</ele>
        <time>2019-07-08T21:16:57Z</time>
      </trkpt>
      <trkpt lat="45.03266" lon="7.07356">
        <ele>1467</ele>
        <time>2019-07-08T21:17:08Z</time>
      </trkpt>
      <trkpt lat="45.03275" lon="7.07401">
        <ele>1465</ele>
        <time>2019-07-08T21:17:14Z</time>
      </trkpt>
      <trkpt lat="45.03309" lon="7.07473">
        <ele>1467</ele>
        <time>2019-07-08T21:17:25Z</time>
      </trkpt>
      <trkpt lat="45.03324" lon="7.07549">
        <ele>1459</ele>
        <time>2019-07-08T21:17:35Z</time>
      </trkpt>
      <trkpt lat="45.03354" lon="7.07685">
        <ele>1453</ele>
        <time>2019-07-08T21:17:52Z</time>
      </trkpt>
      <trkpt lat="45.03353" lon="7.07713">
        <ele>1448</ele>
        <time>2019-07-08T21:17:56Z</time>
      </trkpt>
      <trkpt lat="45.03344" lon="7.07758">
        <ele>1437</ele>
        <time>2019-07-08T21:18:02Z</time>
      </trkpt>
      <trkpt lat="45.03344" lon="7.07786">
        <ele>1437</ele>
        <time>2019-07-08T21:18:05Z</time>
      </trkpt>
      <trkpt lat="45.03345" lon="7.07809">
        <ele>1437</ele>
        <time>2019-07-08T21:18:08Z</time>
      </trkpt>
      <trkpt lat="45.03342" lon="7.07824">
        <ele>1436</ele>
        <time>2019-07-08T21:18:10Z</time>
      </trkpt>
      <trkpt lat="45.03338" lon="7.07828">
        <ele>1433</ele>
        <time>2019-07-08T21:18:11Z</time>
      </trkpt>
      <trkpt lat="45.03299" lon="7.07837">
        <ele>1419</ele>
        <time>2019-07-08T21:18:18Z</time>
      </trkpt>
      <trkpt lat="45.0329" lon="7.07842">
        <ele>1416</ele>
        <time>2019-07-08T21:18:20Z</time>
      </trkpt>
      <trkpt lat="45.03281" lon="7.07853">
        <ele>1414</ele>
        <time>2019-07-08T21:18:22Z</time>
      </trkpt>
      <trkpt lat="45.03267" lon="7.07888">
        <ele>1412</ele>
        <time>2019-07-08T21:18:27Z</time>
      </trkpt>
      <trkpt lat="45.03267" lon="7.07926">
        <ele>1414</ele>
        <time>2019-07-08T21:18:32Z</time>
      </trkpt>
      <trkpt lat="45.03265" lon="7.0794">
        <ele>1413</ele>
        <time>2019-07-08T21:18:34Z</time>
      </trkpt>
      <trkpt lat="45.03259" lon="7.07954">
        <ele>1410</ele>
        <time>2019-07-08T21:18:36Z</time>
      </trkpt>
      <trkpt lat="45.03255" lon="7.07968">
        <ele>1407</ele>
        <time>2019-07-08T21:18:38Z</time>
      </trkpt>
      <trkpt lat="45.03254" lon="7.07987">
        <ele>1406</ele>
        <time>2019-07-08T21:18:40Z</time>
      </trkpt>
      <trkpt lat="45.03265" lon="7.08091">
        <ele>1407</ele>
        <time>2019-07-08T21:18:53Z</time>
      </trkpt>
      <trkpt lat="45.03264" lon="7.08103">
        <ele>1406</ele>
        <time>2019-07-08T21:18:55Z</time>
      </trkpt>
      <trkpt lat="45.03261" lon="7.08114">
        <ele>1405</ele>
        <time>2019-07-08T21:18:56Z</time>
      </trkpt>
      <trkpt lat="45.0325" lon="7.08131">
        <ele>1401</ele>
        <time>2019-07-08T21:18:59Z</time>
      </trkpt>
      <trkpt lat="45.03232" lon="7.08152">
        <ele>1393</ele>
        <time>2019-07-08T21:19:03Z</time>
      </trkpt>
      <trkpt lat="45.03227" lon="7.08161">
        <ele>1391</ele>
        <time>2019-07-08T21:19:05Z</time>
      </trkpt>
      <trkpt lat="45.03224" lon="7.08176">
        <ele>1389</ele>
        <time>2019-07-08T21:19:07Z</time>
      </trkpt>
      <trkpt lat="45.03222" lon="7.08234">
        <ele>1385</ele>
        <time>2019-07-08T21:19:14Z</time>
      </trkpt>
      <trkpt lat="45.03228" lon="7.0827">
        <ele>1384</ele>
        <time>2019-07-08T21:19:19Z</time>
      </trkpt>
      <trkpt lat="45.03236" lon="7.08337">
        <ele>1378</ele>
        <time>2019-07-08T21:19:27Z</time>
      </trkpt>
      <trkpt lat="45.03247" lon="7.08373">
        <ele>1379</ele>
        <time>2019-07-08T21:19:32Z</time>
      </trkpt>
      <trkpt lat="45.0325" lon="7.08416">
        <ele>1373</ele>
        <time>2019-07-08T21:19:38Z</time>
      </trkpt>
      <trkpt lat="45.03245" lon="7.08442">
        <ele>1370</ele>
        <time>2019-07-08T21:19:41Z</time>
      </trkpt>
      <trkpt lat="45.03245" lon="7.08461">
        <ele>1370</ele>
        <time>2019-07-08T21:19:43Z</time>
      </trkpt>
      <trkpt lat="45.03231" lon="7.08519">
        <ele>1363</ele>
        <time>2019-07-08T21:19:51Z</time>
      </trkpt>
      <trkpt lat="45.03224" lon="7.08539">
        <ele>1360</ele>
        <time>2019-07-08T21:19:54Z</time>
      </trkpt>
      <trkpt lat="45.03217" lon="7.08548">
        <ele>1356</ele>
        <time>2019-07-08T21:19:55Z</time>
      </trkpt>
      <trkpt lat="45.03212" lon="7.08546">
        <ele>1354</ele>
        <time>2019-07-08T21:19:56Z</time>
      </trkpt>
      <trkpt lat="45.0321" lon="7.0854">
        <ele>1353</ele>
        <time>2019-07-08T21:19:57Z</time>
      </trkpt>
      <trkpt lat="45.03211" lon="7.08531">
        <ele>1354</ele>
        <time>2019-07-08T21:19:58Z</time>
      </trkpt>
      <trkpt lat="45.0322" lon="7.08498">
        <ele>1359</ele>
        <time>2019-07-08T21:20:03Z</time>
      </trkpt>
      <trkpt lat="45.03221" lon="7.08476">
        <ele>1359</ele>
        <time>2019-07-08T21:20:06Z</time>
      </trkpt>
      <trkpt lat="45.03217" lon="7.08442">
        <ele>1357</ele>
        <time>2019-07-08T21:20:10Z</time>
      </trkpt>
      <trkpt lat="45.0321" lon="7.08413">
        <ele>1354</ele>
        <time>2019-07-08T21:20:14Z</time>
      </trkpt>
      <trkpt lat="45.03203" lon="7.08396">
        <ele>1352</ele>
        <time>2019-07-08T21:20:16Z</time>
      </trkpt>
      <trkpt lat="45.03191" lon="7.08373">
        <ele>1349</ele>
        <time>2019-07-08T21:20:20Z</time>
      </trkpt>
      <trkpt lat="45.03158" lon="7.08325">
        <ele>1335</ele>
        <time>2019-07-08T21:20:28Z</time>
      </trkpt>
      <trkpt lat="45.0315" lon="7.08307">
        <ele>1334</ele>
        <time>2019-07-08T21:20:31Z</time>
      </trkpt>
      <trkpt lat="45.03142" lon="7.08275">
        <ele>1333</ele>
        <time>2019-07-08T21:20:35Z</time>
      </trkpt>
      <trkpt lat="45.03133" lon="7.08226">
        <ele>1334</ele>
        <time>2019-07-08T21:20:42Z</time>
      </trkpt>
      <trkpt lat="45.03126" lon="7.08209">
        <ele>1332</ele>
        <time>2019-07-08T21:20:44Z</time>
      </trkpt>
      <trkpt lat="45.03113" lon="7.08185">
        <ele>1327</ele>
        <time>2019-07-08T21:20:48Z</time>
      </trkpt>
      <trkpt lat="45.03099" lon="7.08149">
        <ele>1324</ele>
        <time>2019-07-08T21:20:53Z</time>
      </trkpt>
      <trkpt lat="45.03071" lon="7.08098">
        <ele>1317</ele>
        <time>2019-07-08T21:21:01Z</time>
      </trkpt>
      <trkpt lat="45.03058" lon="7.08042">
        <ele>1313</ele>
        <time>2019-07-08T21:21:09Z</time>
      </trkpt>
      <trkpt lat="45.03054" lon="7.08018">
        <ele>1311</ele>
        <time>2019-07-08T21:21:12Z</time>
      </trkpt>
      <trkpt lat="45.03061" lon="7.07979">
        <ele>1314</ele>
        <time>2019-07-08T21:21:17Z</time>
      </trkpt>
      <trkpt lat="45.03058" lon="7.07941">
        <ele>1312</ele>
        <time>2019-07-08T21:21:22Z</time>
      </trkpt>
      <trkpt lat="45.03046" lon="7.07882">
        <ele>1307</ele>
        <time>2019-07-08T21:21:29Z</time>
      </trkpt>
      <trkpt lat="45.03029" lon="7.07853">
        <ele>1300</ele>
        <time>2019-07-08T21:21:34Z</time>
      </trkpt>
      <trkpt lat="45.03021" lon="7.07831">
        <ele>1297</ele>
        <time>2019-07-08T21:21:37Z</time>
      </trkpt>
      <trkpt lat="45.03015" lon="7.07789">
        <ele>1293</ele>
        <time>2019-07-08T21:21:42Z</time>
      </trkpt>
      <trkpt lat="45.03015" lon="7.07757">
        <ele>1293</ele>
        <time>2019-07-08T21:21:47Z</time>
      </trkpt>
      <trkpt lat="45.03018" lon="7.07732">
        <ele>1293</ele>
        <time>2019-07-08T21:21:50Z</time>
      </trkpt>
      <trkpt lat="45.03014" lon="7.07674">
        <ele>1287</ele>
        <time>2019-07-08T21:21:57Z</time>
      </trkpt>
      <trkpt lat="45.03017" lon="7.07654">
        <ele>1286</ele>
        <time>2019-07-08T21:22:00Z</time>
      </trkpt>
      <trkpt lat="45.03015" lon="7.07648">
        <ele>1284</ele>
        <time>2019-07-08T21:22:00Z</time>
      </trkpt>
      <trkpt lat="45.0301" lon="7.07644">
        <ele>1282</ele>
        <time>2019-07-08T21:22:01Z</time>
      </trkpt>
      <trkpt lat="45.03006" lon="7.07646">
        <ele>1280</ele>
        <time>2019-07-08T21:22:02Z</time>
      </trkpt>
      <trkpt lat="45.03004" lon="7.07656">
        <ele>1281</ele>
        <time>2019-07-08T21:22:04Z</time>
      </trkpt>
      <trkpt lat="45.03001" lon="7.07673">
        <ele>1282</ele>
        <time>2019-07-08T21:22:06Z</time>
      </trkpt>
      <trkpt lat="45.03001" lon="7.07696">
        <ele>1283</ele>
        <time>2019-07-08T21:22:09Z</time>
      </trkpt>
      <trkpt lat="45.02995" lon="7.07715">
        <ele>1281</ele>
        <time>2019-07-08T21:22:11Z</time>
      </trkpt>
      <trkpt lat="45.02964" lon="7.07769">
        <ele>1266</ele>
        <time>2019-07-08T21:22:20Z</time>
      </trkpt>
      <trkpt lat="45.02959" lon="7.07784">
        <ele>1263</ele>
        <time>2019-07-08T21:22:22Z</time>
      </trkpt>
      <trkpt lat="45.02957" lon="7.07793">
        <ele>1262</ele>
        <time>2019-07-08T21:22:23Z</time>
      </trkpt>
      <trkpt lat="45.02958" lon="7.07806">
        <ele>1262</ele>
        <time>2019-07-08T21:22:25Z</time>
      </trkpt>
      <trkpt lat="45.02969" lon="7.07855">
        <ele>1267</ele>
        <time>2019-07-08T21:22:31Z</time>
      </trkpt>
      <trkpt lat="45.02968" lon="7.07874">
        <ele>1266</ele>
        <time>2019-07-08T21:22:34Z</time>
      </trkpt>
      <trkpt lat="45.02964" lon="7.07903">
        <ele>1262</ele>
        <time>2019-07-08T21:22:37Z</time>
      </trkpt>
      <trkpt lat="45.02951" lon="7.07975">
        <ele>1255</ele>
        <time>2019-07-08T21:22:47Z</time>
      </trkpt>
      <trkpt lat="45.02941" lon="7.08033">
        <ele>1246</ele>
        <time>2019-07-08T21:22:54Z</time>
      </trkpt>
      <trkpt lat="45.02941" lon="7.08071">
        <ele>1244</ele>
        <time>2019-07-08T21:22:59Z</time>
      </trkpt>
      <trkpt lat="45.02944" lon="7.08106">
        <ele>1242</ele>
        <time>2019-07-08T21:23:04Z</time>
      </trkpt>
      <trkpt lat="45.02956" lon="7.08176">
        <ele>1240</ele>
        <time>2019-07-08T21:23:13Z</time>
      </trkpt>
      <trkpt lat="45.02958" lon="7.08203">
        <ele>1241</ele>
        <time>2019-07-08T21:23:16Z</time>
      </trkpt>
      <trkpt lat="45.02953" lon="7.08232">
        <ele>1238</ele>
        <time>2019-07-08T21:23:20Z</time>
      </trkpt>
      <trkpt lat="45.02947" lon="7.0825">
        <ele>1235</ele>
        <time>2019-07-08T21:23:22Z</time>
      </trkpt>
      <trkpt lat="45.02939" lon="7.08267">
        <ele>1234</ele>
        <time>2019-07-08T21:23:25Z</time>
      </trkpt>
      <trkpt lat="45.02926" lon="7.08284">
        <ele>1231</ele>
        <time>2019-07-08T21:23:28Z</time>
      </trkpt>
      <trkpt lat="45.02904" lon="7.08323">
        <ele>1226</ele>
        <time>2019-07-08T21:23:34Z</time>
      </trkpt>
      <trkpt lat="45.0289" lon="7.08366">
        <ele>1223</ele>
        <time>2019-07-08T21:23:40Z</time>
      </trkpt>
      <trkpt lat="45.02878" lon="7.08419">
        <ele>1219</ele>
        <time>2019-07-08T21:23:47Z</time>
      </trkpt>
      <trkpt lat="45.02877" lon="7.08459">
        <ele>1218</ele>
        <time>2019-07-08T21:23:52Z</time>
      </trkpt>
      <trkpt lat="45.02879" lon="7.08486">
        <ele>1218</ele>
        <time>2019-07-08T21:23:56Z</time>
      </trkpt>
      <trkpt lat="45.02877" lon="7.08507">
        <ele>1216</ele>
        <time>2019-07-08T21:23:58Z</time>
      </trkpt>
      <trkpt lat="45.02873" lon="7.0851">
        <ele>1214</ele>
        <time>2019-07-08T21:23:59Z</time>
      </trkpt>
      <trkpt lat="45.02869" lon="7.08508">
        <ele>1212</ele>
        <time>2019-07-08T21:24:00Z</time>
      </trkpt>
      <trkpt lat="45.02864" lon="7.08495">
        <ele>1210</ele>
        <time>2019-07-08T21:24:02Z</time>
      </trkpt>
      <trkpt lat="45.02845" lon="7.08406">
        <ele>1203</ele>
        <time>2019-07-08T21:24:13Z</time>
      </trkpt>
      <trkpt lat="45.02837" lon="7.08358">
        <ele>1199</ele>
        <time>2019-07-08T21:24:20Z</time>
      </trkpt>
      <trkpt lat="45.02825" lon="7.08322">
        <ele>1193</ele>
        <time>2019-07-08T21:24:25Z</time>
      </trkpt>
      <trkpt lat="45.02816" lon="7.08284">
        <ele>1187</ele>
        <time>2019-07-08T21:24:30Z</time>
      </trkpt>
      <trkpt lat="45.02814" lon="7.0827">
        <ele>1186</ele>
        <time>2019-07-08T21:24:31Z</time>
      </trkpt>
      <trkpt lat="45.02814" lon="7.08258">
        <ele>1186</ele>
        <time>2019-07-08T21:24:33Z</time>
      </trkpt>
      <trkpt lat="45.02829" lon="7.08208">
        <ele>1186</ele>
        <time>2019-07-08T21:24:40Z</time>
      </trkpt>
      <trkpt lat="45.02835" lon="7.08197">
        <ele>1187</ele>
        <time>2019-07-08T21:24:42Z</time>
      </trkpt>
      <trkpt lat="45.02854" lon="7.08177">
        <ele>1193</ele>
        <time>2019-07-08T21:24:46Z</time>
      </trkpt>
      <trkpt lat="45.02856" lon="7.08169">
        <ele>1193</ele>
        <time>2019-07-08T21:24:47Z</time>
      </trkpt>
      <trkpt lat="45.02856" lon="7.08156">
        <ele>1193</ele>
        <time>2019-07-08T21:24:48Z</time>
      </trkpt>
      <trkpt lat="45.02853" lon="7.08147">
        <ele>1192</ele>
        <time>2019-07-08T21:24:50Z</time>
      </trkpt>
      <trkpt lat="45.02832" lon="7.081">
        <ele>1182</ele>
        <time>2019-07-08T21:24:57Z</time>
      </trkpt>
      <trkpt lat="45.02828" lon="7.08084">
        <ele>1179</ele>
        <time>2019-07-08T21:24:59Z</time>
      </trkpt>
      <trkpt lat="45.02826" lon="7.08033">
        <ele>1179</ele>
        <time>2019-07-08T21:25:05Z</time>
      </trkpt>
      <trkpt lat="45.02815" lon="7.07962">
        <ele>1176</ele>
        <time>2019-07-08T21:25:14Z</time>
      </trkpt>
      <trkpt lat="45.02805" lon="7.07922">
        <ele>1172</ele>
        <time>2019-07-08T21:25:20Z</time>
      </trkpt>
      <trkpt lat="45.02788" lon="7.07875">
        <ele>1162</ele>
        <time>2019-07-08T21:25:26Z</time>
      </trkpt>
      <trkpt lat="45.02779" lon="7.07823">
        <ele>1157</ele>
        <time>2019-07-08T21:25:33Z</time>
      </trkpt>
      <trkpt lat="45.02778" lon="7.07805">
        <ele>1156</ele>
        <time>2019-07-08T21:25:35Z</time>
      </trkpt>
      <trkpt lat="45.0278" lon="7.07766">
        <ele>1156</ele>
        <time>2019-07-08T21:25:40Z</time>
      </trkpt>
      <trkpt lat="45.0278" lon="7.07727">
        <ele>1157</ele>
        <time>2019-07-08T21:25:45Z</time>
      </trkpt>
      <trkpt lat="45.02778" lon="7.07717">
        <ele>1157</ele>
        <time>2019-07-08T21:25:47Z</time>
      </trkpt>
      <trkpt lat="45.02768" lon="7.07699">
        <ele>1152</ele>
        <time>2019-07-08T21:25:49Z</time>
      </trkpt>
      <trkpt lat="45.02755" lon="7.07664">
        <ele>1145</ele>
        <time>2019-07-08T21:25:54Z</time>
      </trkpt>
      <trkpt lat="45.02737" lon="7.07596">
        <ele>1134</ele>
        <time>2019-07-08T21:26:04Z</time>
      </trkpt>
      <trkpt lat="45.02735" lon="7.07579">
        <ele>1133</ele>
        <time>2019-07-08T21:26:06Z</time>
      </trkpt>
      <trkpt lat="45.02733" lon="7.07554">
        <ele>1130</ele>
        <time>2019-07-08T21:26:09Z</time>
      </trkpt>
      <trkpt lat="45.02734" lon="7.07541">
        <ele>1129</ele>
        <time>2019-07-08T21:26:10Z</time>
      </trkpt>
      <trkpt lat="45.02743" lon="7.07515">
        <ele>1132</ele>
        <time>2019-07-08T21:26:14Z</time>
      </trkpt>
      <trkpt lat="45.0275" lon="7.07502">
        <ele>1135</ele>
        <time>2019-07-08T21:26:16Z</time>
      </trkpt>
      <trkpt lat="45.02752" lon="7.07489">
        <ele>1135</ele>
        <time>2019-07-08T21:26:18Z</time>
      </trkpt>
      <trkpt lat="45.02752" lon="7.07472">
        <ele>1133</ele>
        <time>2019-07-08T21:26:20Z</time>
      </trkpt>
      <trkpt lat="45.02746" lon="7.07437">
        <ele>1127</ele>
        <time>2019-07-08T21:26:25Z</time>
      </trkpt>
      <trkpt lat="45.0275" lon="7.07404">
        <ele>1126</ele>
        <time>2019-07-08T21:26:29Z</time>
      </trkpt>
      <trkpt lat="45.02747" lon="7.07379">
        <ele>1123</ele>
        <time>2019-07-08T21:26:32Z</time>
      </trkpt>
      <trkpt lat="45.02746" lon="7.07345">
        <ele>1120</ele>
        <time>2019-07-08T21:26:36Z</time>
      </trkpt>
      <trkpt lat="45.02743" lon="7.07326">
        <ele>1117</ele>
        <time>2019-07-08T21:26:39Z</time>
      </trkpt>
      <trkpt lat="45.02743" lon="7.07312">
        <ele>1117</ele>
        <time>2019-07-08T21:26:40Z</time>
      </trkpt>
      <trkpt lat="45.02747" lon="7.07291">
        <ele>1119</ele>
        <time>2019-07-08T21:26:43Z</time>
      </trkpt>
      <trkpt lat="45.02747" lon="7.0728">
        <ele>1119</ele>
        <time>2019-07-08T21:26:45Z</time>
      </trkpt>
      <trkpt lat="45.02745" lon="7.07273">
        <ele>1118</ele>
        <time>2019-07-08T21:26:45Z</time>
      </trkpt>
      <trkpt lat="45.02732" lon="7.07254">
        <ele>1111</ele>
        <time>2019-07-08T21:26:49Z</time>
      </trkpt>
      <trkpt lat="45.02729" lon="7.07243">
        <ele>1109</ele>
        <time>2019-07-08T21:26:50Z</time>
      </trkpt>
      <trkpt lat="45.02726" lon="7.07226">
        <ele>1108</ele>
        <time>2019-07-08T21:26:52Z</time>
      </trkpt>
      <trkpt lat="45.02722" lon="7.07152">
        <ele>1109</ele>
        <time>2019-07-08T21:27:02Z</time>
      </trkpt>
      <trkpt lat="45.02701" lon="7.07074">
        <ele>1099</ele>
        <time>2019-07-08T21:27:12Z</time>
      </trkpt>
      <trkpt lat="45.02698" lon="7.07052">
        <ele>1098</ele>
        <time>2019-07-08T21:27:15Z</time>
      </trkpt>
      <trkpt lat="45.02692" lon="7.06902">
        <ele>1098</ele>
        <time>2019-07-08T21:27:34Z</time>
      </trkpt>
      <trkpt lat="45.02689" lon="7.06883">
        <ele>1096</ele>
        <time>2019-07-08T21:27:36Z</time>
      </trkpt>
      <trkpt lat="45.02682" lon="7.06855">
        <ele>1091</ele>
        <time>2019-07-08T21:27:40Z</time>
      </trkpt>
      <trkpt lat="45.02677" lon="7.06845">
        <ele>1088</ele>
        <time>2019-07-08T21:27:42Z</time>
      </trkpt>
      <trkpt lat="45.02657" lon="7.06812">
        <ele>1081</ele>
        <time>2019-07-08T21:27:47Z</time>
      </trkpt>
      <trkpt lat="45.02653" lon="7.06809">
        <ele>1080</ele>
        <time>2019-07-08T21:27:48Z</time>
      </trkpt>
      <trkpt lat="45.02644" lon="7.06809">
        <ele>1078</ele>
        <time>2019-07-08T21:27:50Z</time>
      </trkpt>
      <trkpt lat="45.02668" lon="7.06871">
        <ele>1084</ele>
        <time>2019-07-08T21:27:59Z</time>
      </trkpt>
      <trkpt lat="45.02673" lon="7.0691">
        <ele>1087</ele>
        <time>2019-07-08T21:28:04Z</time>
      </trkpt>
      <trkpt lat="45.02673" lon="7.06934">
        <ele>1086</ele>
        <time>2019-07-08T21:28:07Z</time>
      </trkpt>
      <trkpt lat="45.02665" lon="7.07236">
        <ele>1073</ele>
        <time>2019-07-08T21:28:45Z</time>
      </trkpt>
      <trkpt lat="45.02659" lon="7.07284">
        <ele>1073</ele>
        <time>2019-07-08T21:28:51Z</time>
      </trkpt>
      <trkpt lat="45.02638" lon="7.07404">
        <ele>1072</ele>
        <time>2019-07-08T21:29:06Z</time>
      </trkpt>
      <trkpt lat="45.02629" lon="7.07443">
        <ele>1071</ele>
        <time>2019-07-08T21:29:11Z</time>
      </trkpt>
      <trkpt lat="45.0261" lon="7.0751">
        <ele>1067</ele>
        <time>2019-07-08T21:29:20Z</time>
      </trkpt>
      <trkpt lat="45.02602" lon="7.07542">
        <ele>1063</ele>
        <time>2019-07-08T21:29:25Z</time>
      </trkpt>
      <trkpt lat="45.02601" lon="7.07561">
        <ele>1063</ele>
        <time>2019-07-08T21:29:27Z</time>
      </trkpt>
      <trkpt lat="45.02602" lon="7.07577">
        <ele>1064</ele>
        <time>2019-07-08T21:29:29Z</time>
      </trkpt>
      <trkpt lat="45.02613" lon="7.07619">
        <ele>1068</ele>
        <time>2019-07-08T21:29:35Z</time>
      </trkpt>
      <trkpt lat="45.02616" lon="7.0764">
        <ele>1068</ele>
        <time>2019-07-08T21:29:37Z</time>
      </trkpt>
      <trkpt lat="45.02618" lon="7.07672">
        <ele>1069</ele>
        <time>2019-07-08T21:29:41Z</time>
      </trkpt>
      <trkpt lat="45.02618" lon="7.07697">
        <ele>1069</ele>
        <time>2019-07-08T21:29:45Z</time>
      </trkpt>
      <trkpt lat="45.02603" lon="7.07781">
        <ele>1065</ele>
        <time>2019-07-08T21:29:56Z</time>
      </trkpt>
      <trkpt lat="45.02594" lon="7.07825">
        <ele>1065</ele>
        <time>2019-07-08T21:30:01Z</time>
      </trkpt>
      <trkpt lat="45.02586" lon="7.07852">
        <ele>1064</ele>
        <time>2019-07-08T21:30:05Z</time>
      </trkpt>
      <trkpt lat="45.02548" lon="7.07942">
        <ele>1060</ele>
        <time>2019-07-08T21:30:18Z</time>
      </trkpt>
      <trkpt lat="45.02537" lon="7.07974">
        <ele>1058</ele>
        <time>2019-07-08T21:30:23Z</time>
      </trkpt>
      <trkpt lat="45.02527" lon="7.07993">
        <ele>1056</ele>
        <time>2019-07-08T21:30:26Z</time>
      </trkpt>
      <trkpt lat="45.02491" lon="7.08042">
        <ele>1050</ele>
        <time>2019-07-08T21:30:35Z</time>
      </trkpt>
      <trkpt lat="45.02485" lon="7.08053">
        <ele>1050</ele>
        <time>2019-07-08T21:30:36Z</time>
      </trkpt>
      <trkpt lat="45.02478" lon="7.0807">
        <ele>1050</ele>
        <time>2019-07-08T21:30:39Z</time>
      </trkpt>
      <trkpt lat="45.02458" lon="7.08152">
        <ele>1048</ele>
        <time>2019-07-08T21:30:50Z</time>
      </trkpt>
      <trkpt lat="45.02458" lon="7.08168">
        <ele>1048</ele>
        <time>2019-07-08T21:30:52Z</time>
      </trkpt>
      <trkpt lat="45.02461" lon="7.08192">
        <ele>1048</ele>
        <time>2019-07-08T21:30:55Z</time>
      </trkpt>
      <trkpt lat="45.02477" lon="7.08281">
        <ele>1050</ele>
        <time>2019-07-08T21:31:06Z</time>
      </trkpt>
      <trkpt lat="45.02483" lon="7.08303">
        <ele>1050</ele>
        <time>2019-07-08T21:31:09Z</time>
      </trkpt>
      <trkpt lat="45.02499" lon="7.08337">
        <ele>1053</ele>
        <time>2019-07-08T21:31:14Z</time>
      </trkpt>
      <trkpt lat="45.02507" lon="7.08367">
        <ele>1054</ele>
        <time>2019-07-08T21:31:18Z</time>
      </trkpt>
      <trkpt lat="45.02509" lon="7.08406">
        <ele>1053</ele>
        <time>2019-07-08T21:31:23Z</time>
      </trkpt>
      <trkpt lat="45.02505" lon="7.08482">
        <ele>1050</ele>
        <time>2019-07-08T21:31:33Z</time>
      </trkpt>
      <trkpt lat="45.02502" lon="7.08503">
        <ele>1049</ele>
        <time>2019-07-08T21:31:36Z</time>
      </trkpt>
      <trkpt lat="45.02486" lon="7.08595">
        <ele>1049</ele>
        <time>2019-07-08T21:31:48Z</time>
      </trkpt>
      <trkpt lat="45.02477" lon="7.08625">
        <ele>1049</ele>
        <time>2019-07-08T21:31:52Z</time>
      </trkpt>
      <trkpt lat="45.02468" lon="7.08646">
        <ele>1048</ele>
        <time>2019-07-08T21:31:55Z</time>
      </trkpt>
      <trkpt lat="45.02422" lon="7.08713">
        <ele>1046</ele>
        <time>2019-07-08T21:32:06Z</time>
      </trkpt>
      <trkpt lat="45.02398" lon="7.08758">
        <ele>1045</ele>
        <time>2019-07-08T21:32:14Z</time>
      </trkpt>
      <trkpt lat="45.02387" lon="7.08807">
        <ele>1045</ele>
        <time>2019-07-08T21:32:20Z</time>
      </trkpt>
      <trkpt lat="45.02384" lon="7.08844">
        <ele>1045</ele>
        <time>2019-07-08T21:32:25Z</time>
      </trkpt>
      <trkpt lat="45.02381" lon="7.09014">
        <ele>1047</ele>
        <time>2019-07-08T21:32:46Z</time>
      </trkpt>
      <trkpt lat="45.02376" lon="7.09067">
        <ele>1046</ele>
        <time>2019-07-08T21:32:53Z</time>
      </trkpt>
      <trkpt lat="45.02341" lon="7.09298">
        <ele>1045</ele>
        <time>2019-07-08T21:33:23Z</time>
      </trkpt>
      <trkpt lat="45.02299" lon="7.09433">
        <ele>1041</ele>
        <time>2019-07-08T21:33:41Z</time>
      </trkpt>
      <trkpt lat="45.02277" lon="7.09484">
        <ele>1038</ele>
        <time>2019-07-08T21:33:49Z</time>
      </trkpt>
      <trkpt lat="45.02239" lon="7.09553">
        <ele>1034</ele>
        <time>2019-07-08T21:34:00Z</time>
      </trkpt>
      <trkpt lat="45.02218" lon="7.09601">
        <ele>1030</ele>
        <time>2019-07-08T21:34:07Z</time>
      </trkpt>
      <trkpt lat="45.02207" lon="7.09636">
        <ele>1028</ele>
        <time>2019-07-08T21:34:11Z</time>
      </trkpt>
      <trkpt lat="45.022" lon="7.09673">
        <ele>1027</ele>
        <time>2019-07-08T21:34:16Z</time>
      </trkpt>
      <trkpt lat="45.02205" lon="7.09738">
        <ele>1033</ele>
        <time>2019-07-08T21:34:25Z</time>
      </trkpt>
      <trkpt lat="45.02207" lon="7.09829">
        <ele>1031</ele>
        <time>2019-07-08T21:34:36Z</time>
      </trkpt>
      <trkpt lat="45.02211" lon="7.09945">
        <ele>1025</ele>
        <time>2019-07-08T21:34:51Z</time>
      </trkpt>
      <trkpt lat="45.02219" lon="7.09973">
        <ele>1025</ele>
        <time>2019-07-08T21:34:54Z</time>
      </trkpt>
      <trkpt lat="45.02249" lon="7.10018">
        <ele>1031</ele>
        <time>2019-07-08T21:35:02Z</time>
      </trkpt>
      <trkpt lat="45.02257" lon="7.10037">
        <ele>1031</ele>
        <time>2019-07-08T21:35:05Z</time>
      </trkpt>
      <trkpt lat="45.02276" lon="7.10092">
        <ele>1031</ele>
        <time>2019-07-08T21:35:13Z</time>
      </trkpt>
      <trkpt lat="45.02281" lon="7.10121">
        <ele>1032</ele>
        <time>2019-07-08T21:35:16Z</time>
      </trkpt>
      <trkpt lat="45.02284" lon="7.10194">
        <ele>1028</ele>
        <time>2019-07-08T21:35:26Z</time>
      </trkpt>
      <trkpt lat="45.02276" lon="7.10317">
        <ele>1019</ele>
        <time>2019-07-08T21:35:41Z</time>
      </trkpt>
      <trkpt lat="45.02272" lon="7.10356">
        <ele>1016</ele>
        <time>2019-07-08T21:35:46Z</time>
      </trkpt>
      <trkpt lat="45.02255" lon="7.10423">
        <ele>1008</ele>
        <time>2019-07-08T21:35:55Z</time>
      </trkpt>
      <trkpt lat="45.02226" lon="7.10515">
        <ele>1006</ele>
        <time>2019-07-08T21:36:08Z</time>
      </trkpt>
      <trkpt lat="45.02156" lon="7.10721">
        <ele>997</ele>
        <time>2019-07-08T21:36:36Z</time>
      </trkpt>
      <trkpt lat="45.02117" lon="7.10831">
        <ele>999</ele>
        <time>2019-07-08T21:36:52Z</time>
      </trkpt>
      <trkpt lat="45.021" lon="7.10864">
        <ele>997</ele>
        <time>2019-07-08T21:36:57Z</time>
      </trkpt>
      <trkpt lat="45.02072" lon="7.10898">
        <ele>993</ele>
        <time>2019-07-08T21:37:04Z</time>
      </trkpt>
      <trkpt lat="45.01891" lon="7.11055">
        <ele>987</ele>
        <time>2019-07-08T21:37:41Z</time>
      </trkpt>
      <trkpt lat="45.01872" lon="7.11073">
        <ele>987</ele>
        <time>2019-07-08T21:37:45Z</time>
      </trkpt>
      <trkpt lat="45.01851" lon="7.111">
        <ele>987</ele>
        <time>2019-07-08T21:37:51Z</time>
      </trkpt>
      <trkpt lat="45.01603" lon="7.11558">
        <ele>975</ele>
        <time>2019-07-08T21:39:03Z</time>
      </trkpt>
      <trkpt lat="45.01589" lon="7.11578">
        <ele>973</ele>
        <time>2019-07-08T21:39:07Z</time>
      </trkpt>
      <trkpt lat="45.01562" lon="7.116">
        <ele>971</ele>
        <time>2019-07-08T21:39:12Z</time>
      </trkpt>
      <trkpt lat="45.0148" lon="7.1166">
        <ele>965</ele>
        <time>2019-07-08T21:39:29Z</time>
      </trkpt>
      <trkpt lat="45.01459" lon="7.11673">
        <ele>964</ele>
        <time>2019-07-08T21:39:33Z</time>
      </trkpt>
      <trkpt lat="45.01391" lon="7.11694">
        <ele>959</ele>
        <time>2019-07-08T21:39:45Z</time>
      </trkpt>
      <trkpt lat="45.01323" lon="7.11733">
        <ele>958</ele>
        <time>2019-07-08T21:39:58Z</time>
      </trkpt>
      <trkpt lat="45.01294" lon="7.11742">
        <ele>956</ele>
        <time>2019-07-08T21:40:03Z</time>
      </trkpt>
      <trkpt lat="45.01217" lon="7.1175">
        <ele>945</ele>
        <time>2019-07-08T21:40:17Z</time>
      </trkpt>
      <trkpt lat="45.01189" lon="7.11758">
        <ele>942</ele>
        <time>2019-07-08T21:40:22Z</time>
      </trkpt>
      <trkpt lat="45.01135" lon="7.11793">
        <ele>941</ele>
        <time>2019-07-08T21:40:33Z</time>
      </trkpt>
      <trkpt lat="45.0077" lon="7.12147">
        <ele>910</ele>
        <time>2019-07-08T21:41:52Z</time>
      </trkpt>
      <trkpt lat="45.00726" lon="7.12197">
        <ele>907</ele>
        <time>2019-07-08T21:42:02Z</time>
      </trkpt>
      <trkpt lat="45.00698" lon="7.12237">
        <ele>905</ele>
        <time>2019-07-08T21:42:09Z</time>
      </trkpt>
      <trkpt lat="45.00664" lon="7.12319">
        <ele>906</ele>
        <time>2019-07-08T21:42:21Z</time>
      </trkpt>
      <trkpt lat="45.00636" lon="7.12361">
        <ele>905</ele>
        <time>2019-07-08T21:42:28Z</time>
      </trkpt>
      <trkpt lat="45.00541" lon="7.12434">
        <ele>897</ele>
        <time>2019-07-08T21:42:47Z</time>
      </trkpt>
      <trkpt lat="45.0046" lon="7.12475">
        <ele>887</ele>
        <time>2019-07-08T21:43:02Z</time>
      </trkpt>
      <trkpt lat="45.00435" lon="7.12508">
        <ele>882</ele>
        <time>2019-07-08T21:43:09Z</time>
      </trkpt>
      <trkpt lat="45.00423" lon="7.12557">
        <ele>880</ele>
        <time>2019-07-08T21:43:15Z</time>
      </trkpt>
      <trkpt lat="45.00415" lon="7.12614">
        <ele>877</ele>
        <time>2019-07-08T21:43:22Z</time>
      </trkpt>
      <trkpt lat="45.0039" lon="7.12663">
        <ele>875</ele>
        <time>2019-07-08T21:43:30Z</time>
      </trkpt>
      <trkpt lat="45.00343" lon="7.12735">
        <ele>869</ele>
        <time>2019-07-08T21:43:42Z</time>
      </trkpt>
      <trkpt lat="45.00307" lon="7.12766">
        <ele>868</ele>
        <time>2019-07-08T21:43:50Z</time>
      </trkpt>
      <trkpt lat="45.00213" lon="7.12834">
        <ele>863</ele>
        <time>2019-07-08T21:44:09Z</time>
      </trkpt>
      <trkpt lat="45.00149" lon="7.12871">
        <ele>860</ele>
        <time>2019-07-08T21:44:21Z</time>
      </trkpt>
      <trkpt lat="45.0009" lon="7.1289">
        <ele>858</ele>
        <time>2019-07-08T21:44:32Z</time>
      </trkpt>
      <trkpt lat="45.00061" lon="7.12915">
        <ele>856</ele>
        <time>2019-07-08T21:44:38Z</time>
      </trkpt>
      <trkpt lat="45.00044" lon="7.1294">
        <ele>855</ele>
        <time>2019-07-08T21:44:42Z</time>
      </trkpt>
      <trkpt lat="44.99989" lon="7.13079">
        <ele>850</ele>
        <time>2019-07-08T21:45:02Z</time>
      </trkpt>
      <trkpt lat="44.99974" lon="7.13103">
        <ele>850</ele>
        <time>2019-07-08T21:45:06Z</time>
      </trkpt>
      <trkpt lat="44.99925" lon="7.1314">
        <ele>850</ele>
        <time>2019-07-08T21:45:16Z</time>
      </trkpt>
      <trkpt lat="44.99609" lon="7.13272">
        <ele>835</ele>
        <time>2019-07-08T21:46:15Z</time>
      </trkpt>
      <trkpt lat="44.99589" lon="7.13292">
        <ele>833</ele>
        <time>2019-07-08T21:46:19Z</time>
      </trkpt>
      <trkpt lat="44.9958" lon="7.13321">
        <ele>831</ele>
        <time>2019-07-08T21:46:23Z</time>
      </trkpt>
      <trkpt lat="44.99581" lon="7.13344">
        <ele>830</ele>
        <time>2019-07-08T21:46:26Z</time>
      </trkpt>
      <trkpt lat="44.99601" lon="7.1345">
        <ele>830</ele>
        <time>2019-07-08T21:46:40Z</time>
      </trkpt>
      <trkpt lat="44.99599" lon="7.13468">
        <ele>829</ele>
        <time>2019-07-08T21:46:42Z</time>
      </trkpt>
      <trkpt lat="44.99596" lon="7.13483">
        <ele>828</ele>
        <time>2019-07-08T21:46:44Z</time>
      </trkpt>
      <trkpt lat="44.99585" lon="7.13524">
        <ele>825</ele>
        <time>2019-07-08T21:46:49Z</time>
      </trkpt>
      <trkpt lat="44.9956" lon="7.13583">
        <ele>823</ele>
        <time>2019-07-08T21:46:58Z</time>
      </trkpt>
      <trkpt lat="44.9933" lon="7.13986">
        <ele>809</ele>
        <time>2019-07-08T21:48:03Z</time>
      </trkpt>
      <trkpt lat="44.99303" lon="7.14027">
        <ele>814</ele>
        <time>2019-07-08T21:48:10Z</time>
      </trkpt>
      <trkpt lat="44.99295" lon="7.14034">
        <ele>815</ele>
        <time>2019-07-08T21:48:12Z</time>
      </trkpt>
      <trkpt lat="44.99282" lon="7.14041">
        <ele>814</ele>
        <time>2019-07-08T21:48:14Z</time>
      </trkpt>
      <trkpt lat="44.99112" lon="7.14108">
        <ele>804</ele>
        <time>2019-07-08T21:48:46Z</time>
      </trkpt>
      <trkpt lat="44.9908" lon="7.14118">
        <ele>802</ele>
        <time>2019-07-08T21:48:52Z</time>
      </trkpt>
      <trkpt lat="44.98881" lon="7.14154">
        <ele>785</ele>
        <time>2019-07-08T21:49:27Z</time>
      </trkpt>
      <trkpt lat="44.98865" lon="7.14159">
        <ele>783</ele>
        <time>2019-07-08T21:49:30Z</time>
      </trkpt>
      <trkpt lat="44.98839" lon="7.14176">
        <ele>782</ele>
        <time>2019-07-08T21:49:35Z</time>
      </trkpt>
      <trkpt lat="44.98784" lon="7.14229">
        <ele>779</ele>
        <time>2019-07-08T21:49:47Z</time>
      </trkpt>
      <trkpt lat="44.98766" lon="7.14248">
        <ele>778</ele>
        <time>2019-07-08T21:49:51Z</time>
      </trkpt>
      <trkpt lat="44.9864" lon="7.14423">
        <ele>770</ele>
        <time>2019-07-08T21:50:23Z</time>
      </trkpt>
      <trkpt lat="44.98554" lon="7.14525">
        <ele>766</ele>
        <time>2019-07-08T21:50:43Z</time>
      </trkpt>
      <trkpt lat="44.98455" lon="7.14641">
        <ele>765</ele>
        <time>2019-07-08T21:51:06Z</time>
      </trkpt>
      <trkpt lat="44.98428" lon="7.14656">
        <ele>764</ele>
        <time>2019-07-08T21:51:11Z</time>
      </trkpt>
      <trkpt lat="44.98386" lon="7.14672">
        <ele>762</ele>
        <time>2019-07-08T21:51:18Z</time>
      </trkpt>
      <trkpt lat="44.98371" lon="7.14686">
        <ele>762</ele>
        <time>2019-07-08T21:51:22Z</time>
      </trkpt>
      <trkpt lat="44.98341" lon="7.14721">
        <ele>760</ele>
        <time>2019-07-08T21:51:29Z</time>
      </trkpt>
      <trkpt lat="44.98321" lon="7.1475">
        <ele>758</ele>
        <time>2019-07-08T21:51:34Z</time>
      </trkpt>
      <trkpt lat="44.98306" lon="7.14795">
        <ele>757</ele>
        <time>2019-07-08T21:51:40Z</time>
      </trkpt>
      <trkpt lat="44.98288" lon="7.1488">
        <ele>756</ele>
        <time>2019-07-08T21:51:51Z</time>
      </trkpt>
      <trkpt lat="44.98263" lon="7.15073">
        <ele>755</ele>
        <time>2019-07-08T21:52:16Z</time>
      </trkpt>
      <trkpt lat="44.98256" lon="7.15178">
        <ele>750</ele>
        <time>2019-07-08T21:52:29Z</time>
      </trkpt>
      <trkpt lat="44.98252" lon="7.15387">
        <ele>741</ele>
        <time>2019-07-08T21:52:55Z</time>
      </trkpt>
      <trkpt lat="44.98248" lon="7.15424">
        <ele>742</ele>
        <time>2019-07-08T21:53:00Z</time>
      </trkpt>
      <trkpt lat="44.98239" lon="7.15459">
        <ele>744</ele>
        <time>2019-07-08T21:53:05Z</time>
      </trkpt>
      <trkpt lat="44.98142" lon="7.15693">
        <ele>743</ele>
        <time>2019-07-08T21:53:39Z</time>
      </trkpt>
      <trkpt lat="44.98088" lon="7.15844">
        <ele>738</ele>
        <time>2019-07-08T21:54:00Z</time>
      </trkpt>
      <trkpt lat="44.98065" lon="7.15889">
        <ele>739</ele>
        <time>2019-07-08T21:54:07Z</time>
      </trkpt>
      <trkpt lat="44.97983" lon="7.16026">
        <ele>731</ele>
        <time>2019-07-08T21:54:30Z</time>
      </trkpt>
      <trkpt lat="44.97951" lon="7.16064">
        <ele>728</ele>
        <time>2019-07-08T21:54:37Z</time>
      </trkpt>
      <trkpt lat="44.97827" lon="7.16171">
        <ele>720</ele>
        <time>2019-07-08T21:55:03Z</time>
      </trkpt>
      <trkpt lat="44.97794" lon="7.16195">
        <ele>719</ele>
        <time>2019-07-08T21:55:10Z</time>
      </trkpt>
      <trkpt lat="44.97754" lon="7.16207">
        <ele>714</ele>
        <time>2019-07-08T21:55:17Z</time>
      </trkpt>
      <trkpt lat="44.97726" lon="7.16223">
        <ele>712</ele>
        <time>2019-07-08T21:55:22Z</time>
      </trkpt>
      <trkpt lat="44.97705" lon="7.16247">
        <ele>710</ele>
        <time>2019-07-08T21:55:27Z</time>
      </trkpt>
      <trkpt lat="44.97689" lon="7.16284">
        <ele>711</ele>
        <time>2019-07-08T21:55:33Z</time>
      </trkpt>
      <trkpt lat="44.97662" lon="7.16386">
        <ele>710</ele>
        <time>2019-07-08T21:55:46Z</time>
      </trkpt>
      <trkpt lat="44.9759" lon="7.16685">
        <ele>697</ele>
        <time>2019-07-08T21:56:26Z</time>
      </trkpt>
      <trkpt lat="44.97583" lon="7.16736">
        <ele>695</ele>
        <time>2019-07-08T21:56:33Z</time>
      </trkpt>
      <trkpt lat="44.97576" lon="7.1697">
        <ele>694</ele>
        <time>2019-07-08T21:57:02Z</time>
      </trkpt>
      <trkpt lat="44.97582" lon="7.17038">
        <ele>697</ele>
        <time>2019-07-08T21:57:11Z</time>
      </trkpt>
      <trkpt lat="44.9758" lon="7.17072">
        <ele>699</ele>
        <time>2019-07-08T21:57:15Z</time>
      </trkpt>
      <trkpt lat="44.97574" lon="7.17109">
        <ele>703</ele>
        <time>2019-07-08T21:57:20Z</time>
      </trkpt>
      <trkpt lat="44.97551" lon="7.17141">
        <ele>703</ele>
        <time>2019-07-08T21:57:25Z</time>
      </trkpt>
      <trkpt lat="44.97483" lon="7.17191">
        <ele>700</ele>
        <time>2019-07-08T21:57:39Z</time>
      </trkpt>
      <trkpt lat="44.97426" lon="7.17213">
        <ele>699</ele>
        <time>2019-07-08T21:57:50Z</time>
      </trkpt>
      <trkpt lat="44.97389" lon="7.17242">
        <ele>702</ele>
        <time>2019-07-08T21:57:57Z</time>
      </trkpt>
      <trkpt lat="44.97364" lon="7.17287">
        <ele>703</ele>
        <time>2019-07-08T21:58:04Z</time>
      </trkpt>
      <trkpt lat="44.97313" lon="7.17435">
        <ele>702</ele>
        <time>2019-07-08T21:58:25Z</time>
      </trkpt>
      <trkpt lat="44.97199" lon="7.17628">
        <ele>675</ele>
        <time>2019-07-08T21:58:57Z</time>
      </trkpt>
      <trkpt lat="44.97146" lon="7.17694">
        <ele>669</ele>
        <time>2019-07-08T21:59:09Z</time>
      </trkpt>
      <trkpt lat="44.97094" lon="7.1774">
        <ele>668</ele>
        <time>2019-07-08T21:59:20Z</time>
      </trkpt>
      <trkpt lat="44.97046" lon="7.17771">
        <ele>666</ele>
        <time>2019-07-08T21:59:30Z</time>
      </trkpt>
      <trkpt lat="44.96872" lon="7.1783">
        <ele>660</ele>
        <time>2019-07-08T22:00:01Z</time>
      </trkpt>
      <trkpt lat="44.96844" lon="7.17849">
        <ele>661</ele>
        <time>2019-07-08T22:00:07Z</time>
      </trkpt>
      <trkpt lat="44.96806" lon="7.17887">
        <ele>663</ele>
        <time>2019-07-08T22:00:15Z</time>
      </trkpt>
      <trkpt lat="44.96779" lon="7.17927">
        <ele>662</ele>
        <time>2019-07-08T22:00:22Z</time>
      </trkpt>
      <trkpt lat="44.96757" lon="7.17973">
        <ele>661</ele>
        <time>2019-07-08T22:00:29Z</time>
      </trkpt>
      <trkpt lat="44.96738" lon="7.18026">
        <ele>660</ele>
        <time>2019-07-08T22:00:37Z</time>
      </trkpt>
      <trkpt lat="44.96715" lon="7.18152">
        <ele>661</ele>
        <time>2019-07-08T22:00:53Z</time>
      </trkpt>
      <trkpt lat="44.96692" lon="7.1823">
        <ele>657</ele>
        <time>2019-07-08T22:01:04Z</time>
      </trkpt>
      <trkpt lat="44.96636" lon="7.18404">
        <ele>657</ele>
        <time>2019-07-08T22:01:28Z</time>
      </trkpt>
      <trkpt lat="44.96617" lon="7.18449">
        <ele>660</ele>
        <time>2019-07-08T22:01:34Z</time>
      </trkpt>
      <trkpt lat="44.96593" lon="7.18484">
        <ele>659</ele>
        <time>2019-07-08T22:01:40Z</time>
      </trkpt>
      <trkpt lat="44.96556" lon="7.18513">
        <ele>658</ele>
        <time>2019-07-08T22:01:48Z</time>
      </trkpt>
      <trkpt lat="44.96488" lon="7.18552">
        <ele>657</ele>
        <time>2019-07-08T22:02:01Z</time>
      </trkpt>
      <trkpt lat="44.96448" lon="7.18569">
        <ele>657</ele>
        <time>2019-07-08T22:02:08Z</time>
      </trkpt>
      <trkpt lat="44.96433" lon="7.18574">
        <ele>656</ele>
        <time>2019-07-08T22:02:11Z</time>
      </trkpt>
      <trkpt lat="44.96373" lon="7.18585">
        <ele>654</ele>
        <time>2019-07-08T22:02:22Z</time>
      </trkpt>
      <trkpt lat="44.96346" lon="7.18597">
        <ele>654</ele>
        <time>2019-07-08T22:02:27Z</time>
      </trkpt>
      <trkpt lat="44.96322" lon="7.18617">
        <ele>653</ele>
        <time>2019-07-08T22:02:32Z</time>
      </trkpt>
      <trkpt lat="44.96248" lon="7.18669">
        <ele>651</ele>
        <time>2019-07-08T22:02:47Z</time>
      </trkpt>
      <trkpt lat="44.96183" lon="7.18736">
        <ele>649</ele>
        <time>2019-07-08T22:03:01Z</time>
      </trkpt>
      <trkpt lat="44.96148" lon="7.18764">
        <ele>647</ele>
        <time>2019-07-08T22:03:08Z</time>
      </trkpt>
      <trkpt lat="44.96084" lon="7.18789">
        <ele>641</ele>
        <time>2019-07-08T22:03:20Z</time>
      </trkpt>
      <trkpt lat="44.96025" lon="7.18808">
        <ele>638</ele>
        <time>2019-07-08T22:03:31Z</time>
      </trkpt>
      <trkpt lat="44.9601" lon="7.18818">
        <ele>639</ele>
        <time>2019-07-08T22:03:34Z</time>
      </trkpt>
      <trkpt lat="44.95996" lon="7.18829">
        <ele>640</ele>
        <time>2019-07-08T22:03:37Z</time>
      </trkpt>
      <trkpt lat="44.95965" lon="7.18878">
        <ele>638</ele>
        <time>2019-07-08T22:03:45Z</time>
      </trkpt>
      <trkpt lat="44.95937" lon="7.18903">
        <ele>636</ele>
        <time>2019-07-08T22:03:51Z</time>
      </trkpt>
      <trkpt lat="44.95901" lon="7.18926">
        <ele>633</ele>
        <time>2019-07-08T22:03:58Z</time>
      </trkpt>
      <trkpt lat="44.95871" lon="7.1896">
        <ele>632</ele>
        <time>2019-07-08T22:04:05Z</time>
      </trkpt>
      <trkpt lat="44.95781" lon="7.19069">
        <ele>627</ele>
        <time>2019-07-08T22:04:26Z</time>
      </trkpt>
      <trkpt lat="44.95657" lon="7.19226">
        <ele>620</ele>
        <time>2019-07-08T22:04:55Z</time>
      </trkpt>
      <trkpt lat="44.95622" lon="7.19265">
        <ele>618</ele>
        <time>2019-07-08T22:05:03Z</time>
      </trkpt>
      <trkpt lat="44.95615" lon="7.19275">
        <ele>617</ele>
        <time>2019-07-08T22:05:05Z</time>
      </trkpt>
      <trkpt lat="44.95576" lon="7.19368">
        <ele>617</ele>
        <time>2019-07-08T22:05:19Z</time>
      </trkpt>
      <trkpt lat="44.95566" lon="7.19386">
        <ele>617</ele>
        <time>2019-07-08T22:05:21Z</time>
      </trkpt>
      <trkpt lat="44.95549" lon="7.19407">
        <ele>617</ele>
        <time>2019-07-08T22:05:26Z</time>
      </trkpt>
      <trkpt lat="44.95515" lon="7.19429">
        <ele>615</ele>
        <time>2019-07-08T22:05:32Z</time>
      </trkpt>
      <trkpt lat="44.9545" lon="7.1946">
        <ele>615</ele>
        <time>2019-07-08T22:05:44Z</time>
      </trkpt>
      <trkpt lat="44.9543" lon="7.19464">
        <ele>614</ele>
        <time>2019-07-08T22:05:48Z</time>
      </trkpt>
      <trkpt lat="44.95417" lon="7.19463">
        <ele>613</ele>
        <time>2019-07-08T22:05:50Z</time>
      </trkpt>
      <trkpt lat="44.95382" lon="7.19445">
        <ele>605</ele>
        <time>2019-07-08T22:05:57Z</time>
      </trkpt>
      <trkpt lat="44.95361" lon="7.19443">
        <ele>601</ele>
        <time>2019-07-08T22:06:01Z</time>
      </trkpt>
      <trkpt lat="44.95346" lon="7.19451">
        <ele>600</ele>
        <time>2019-07-08T22:06:03Z</time>
      </trkpt>
      <trkpt lat="44.95336" lon="7.1946">
        <ele>600</ele>
        <time>2019-07-08T22:06:06Z</time>
      </trkpt>
      <trkpt lat="44.9533" lon="7.19471">
        <ele>600</ele>
        <time>2019-07-08T22:06:07Z</time>
      </trkpt>
      <trkpt lat="44.95325" lon="7.19489">
        <ele>602</ele>
        <time>2019-07-08T22:06:10Z</time>
      </trkpt>
      <trkpt lat="44.95326" lon="7.19513">
        <ele>603</ele>
        <time>2019-07-08T22:06:13Z</time>
      </trkpt>
      <trkpt lat="44.95334" lon="7.19563">
        <ele>605</ele>
        <time>2019-07-08T22:06:19Z</time>
      </trkpt>
      <trkpt lat="44.95344" lon="7.19603">
        <ele>604</ele>
        <time>2019-07-08T22:06:25Z</time>
      </trkpt>
      <trkpt lat="44.95357" lon="7.19632">
        <ele>603</ele>
        <time>2019-07-08T22:06:29Z</time>
      </trkpt>
      <trkpt lat="44.95378" lon="7.19664">
        <ele>602</ele>
        <time>2019-07-08T22:06:34Z</time>
      </trkpt>
      <trkpt lat="44.95389" lon="7.19676">
        <ele>603</ele>
        <time>2019-07-08T22:06:37Z</time>
      </trkpt>
      <trkpt lat="44.954" lon="7.19687">
        <ele>603</ele>
        <time>2019-07-08T22:06:39Z</time>
      </trkpt>
      <trkpt lat="44.95447" lon="7.19721">
        <ele>604</ele>
        <time>2019-07-08T22:06:49Z</time>
      </trkpt>
      <trkpt lat="44.95468" lon="7.19741">
        <ele>602</ele>
        <time>2019-07-08T22:06:53Z</time>
      </trkpt>
      <trkpt lat="44.95493" lon="7.19785">
        <ele>600</ele>
        <time>2019-07-08T22:07:00Z</time>
      </trkpt>
      <trkpt lat="44.95511" lon="7.19833">
        <ele>599</ele>
        <time>2019-07-08T22:07:07Z</time>
      </trkpt>
      <trkpt lat="44.95517" lon="7.19861">
        <ele>599</ele>
        <time>2019-07-08T22:07:11Z</time>
      </trkpt>
      <trkpt lat="44.95521" lon="7.19891">
        <ele>599</ele>
        <time>2019-07-08T22:07:15Z</time>
      </trkpt>
      <trkpt lat="44.95541" lon="7.2015">
        <ele>598</ele>
        <time>2019-07-08T22:07:47Z</time>
      </trkpt>
      <trkpt lat="44.95536" lon="7.20195">
        <ele>596</ele>
        <time>2019-07-08T22:07:53Z</time>
      </trkpt>
      <trkpt lat="44.95529" lon="7.20205">
        <ele>595</ele>
        <time>2019-07-08T22:07:55Z</time>
      </trkpt>
      <trkpt lat="44.9552" lon="7.20209">
        <ele>594</ele>
        <time>2019-07-08T22:07:57Z</time>
      </trkpt>
      <trkpt lat="44.95511" lon="7.20205">
        <ele>593</ele>
        <time>2019-07-08T22:07:58Z</time>
      </trkpt>
      <trkpt lat="44.95507" lon="7.20207">
        <ele>593</ele>
        <time>2019-07-08T22:07:59Z</time>
      </trkpt>
      <trkpt lat="44.95501" lon="7.20214">
        <ele>592</ele>
        <time>2019-07-08T22:08:00Z</time>
      </trkpt>
      <trkpt lat="44.95499" lon="7.2022">
        <ele>591</ele>
        <time>2019-07-08T22:08:01Z</time>
      </trkpt>
      <trkpt lat="44.95499" lon="7.20229">
        <ele>591</ele>
        <time>2019-07-08T22:08:02Z</time>
      </trkpt>
      <trkpt lat="44.95504" lon="7.20239">
        <ele>591</ele>
        <time>2019-07-08T22:08:04Z</time>
      </trkpt>
      <trkpt lat="44.95508" lon="7.20241">
        <ele>591</ele>
        <time>2019-07-08T22:08:05Z</time>
      </trkpt>
      <trkpt lat="44.95528" lon="7.20241">
        <ele>594</ele>
        <time>2019-07-08T22:08:08Z</time>
      </trkpt>
      <trkpt lat="44.95538" lon="7.20244">
        <ele>595</ele>
        <time>2019-07-08T22:08:10Z</time>
      </trkpt>
      <trkpt lat="44.95544" lon="7.20248">
        <ele>595</ele>
        <time>2019-07-08T22:08:11Z</time>
      </trkpt>
      <trkpt lat="44.95547" lon="7.20254">
        <ele>596</ele>
        <time>2019-07-08T22:08:12Z</time>
      </trkpt>
      <trkpt lat="44.95549" lon="7.20264">
        <ele>596</ele>
        <time>2019-07-08T22:08:14Z</time>
      </trkpt>
      <trkpt lat="44.95538" lon="7.20468">
        <ele>597</ele>
        <time>2019-07-08T22:08:39Z</time>
      </trkpt>
      <trkpt lat="44.95534" lon="7.20501">
        <ele>597</ele>
        <time>2019-07-08T22:08:44Z</time>
      </trkpt>
      <trkpt lat="44.95527" lon="7.20525">
        <ele>597</ele>
        <time>2019-07-08T22:08:47Z</time>
      </trkpt>
      <trkpt lat="44.95516" lon="7.20549">
        <ele>596</ele>
        <time>2019-07-08T22:08:50Z</time>
      </trkpt>
      <trkpt lat="44.95507" lon="7.20562">
        <ele>594</ele>
        <time>2019-07-08T22:08:53Z</time>
      </trkpt>
      <trkpt lat="44.95468" lon="7.20603">
        <ele>592</ele>
        <time>2019-07-08T22:09:01Z</time>
      </trkpt>
      <trkpt lat="44.95444" lon="7.20643">
        <ele>590</ele>
        <time>2019-07-08T22:09:08Z</time>
      </trkpt>
      <trkpt lat="44.95408" lon="7.20723">
        <ele>590</ele>
        <time>2019-07-08T22:09:20Z</time>
      </trkpt>
      <trkpt lat="44.954" lon="7.20746">
        <ele>589</ele>
        <time>2019-07-08T22:09:23Z</time>
      </trkpt>
      <trkpt lat="44.95367" lon="7.20859">
        <ele>588</ele>
        <time>2019-07-08T22:09:38Z</time>
      </trkpt>
      <trkpt lat="44.95361" lon="7.20877">
        <ele>588</ele>
        <time>2019-07-08T22:09:41Z</time>
      </trkpt>
      <trkpt lat="44.95308" lon="7.20972">
        <ele>586</ele>
        <time>2019-07-08T22:09:56Z</time>
      </trkpt>
      <trkpt lat="44.95295" lon="7.21013">
        <ele>586</ele>
        <time>2019-07-08T22:10:02Z</time>
      </trkpt>
      <trkpt lat="44.95259" lon="7.21147">
        <ele>582</ele>
        <time>2019-07-08T22:10:20Z</time>
      </trkpt>
      <trkpt lat="44.9525" lon="7.21171">
        <ele>581</ele>
        <time>2019-07-08T22:10:23Z</time>
      </trkpt>
      <trkpt lat="44.95238" lon="7.21191">
        <ele>580</ele>
        <time>2019-07-08T22:10:27Z</time>
      </trkpt>
      <trkpt lat="44.95224" lon="7.21207">
        <ele>578</ele>
        <time>2019-07-08T22:10:30Z</time>
      </trkpt>
      <trkpt lat="44.95178" lon="7.21242">
        <ele>574</ele>
        <time>2019-07-08T22:10:39Z</time>
      </trkpt>
      <trkpt lat="44.9516" lon="7.21262">
        <ele>573</ele>
        <time>2019-07-08T22:10:43Z</time>
      </trkpt>
      <trkpt lat="44.95143" lon="7.21291">
        <ele>571</ele>
        <time>2019-07-08T22:10:48Z</time>
      </trkpt>
      <trkpt lat="44.95059" lon="7.21486">
        <ele>569</ele>
        <time>2019-07-08T22:11:17Z</time>
      </trkpt>
      <trkpt lat="44.95002" lon="7.21626">
        <ele>566</ele>
        <time>2019-07-08T22:11:37Z</time>
      </trkpt>
      <trkpt lat="44.94966" lon="7.21696">
        <ele>564</ele>
        <time>2019-07-08T22:11:48Z</time>
      </trkpt>
      <trkpt lat="44.94954" lon="7.21714">
        <ele>564</ele>
        <time>2019-07-08T22:11:51Z</time>
      </trkpt>
      <trkpt lat="44.9494" lon="7.21729">
        <ele>563</ele>
        <time>2019-07-08T22:11:54Z</time>
      </trkpt>
      <trkpt lat="44.94856" lon="7.2181">
        <ele>560</ele>
        <time>2019-07-08T22:12:12Z</time>
      </trkpt>
      <trkpt lat="44.94834" lon="7.21838">
        <ele>558</ele>
        <time>2019-07-08T22:12:18Z</time>
      </trkpt>
      <trkpt lat="44.94825" lon="7.21854">
        <ele>558</ele>
        <time>2019-07-08T22:12:20Z</time>
      </trkpt>
      <trkpt lat="44.94729" lon="7.22073">
        <ele>558</ele>
        <time>2019-07-08T22:12:53Z</time>
      </trkpt>
      <trkpt lat="44.94719" lon="7.22102">
        <ele>558</ele>
        <time>2019-07-08T22:12:57Z</time>
      </trkpt>
      <trkpt lat="44.94697" lon="7.22185">
        <ele>561</ele>
        <time>2019-07-08T22:13:08Z</time>
      </trkpt>
      <trkpt lat="44.9469" lon="7.22202">
        <ele>561</ele>
        <time>2019-07-08T22:13:10Z</time>
      </trkpt>
      <trkpt lat="44.9459" lon="7.22375">
        <ele>555</ele>
        <time>2019-07-08T22:13:38Z</time>
      </trkpt>
      <trkpt lat="44.94576" lon="7.22395">
        <ele>555</ele>
        <time>2019-07-08T22:13:42Z</time>
      </trkpt>
      <trkpt lat="44.94562" lon="7.22407">
        <ele>554</ele>
        <time>2019-07-08T22:13:45Z</time>
      </trkpt>
      <trkpt lat="44.94405" lon="7.22514">
        <ele>549</ele>
        <time>2019-07-08T22:14:16Z</time>
      </trkpt>
      <trkpt lat="44.94368" lon="7.22543">
        <ele>547</ele>
        <time>2019-07-08T22:14:23Z</time>
      </trkpt>
      <trkpt lat="44.94339" lon="7.22575">
        <ele>546</ele>
        <time>2019-07-08T22:14:30Z</time>
      </trkpt>
      <trkpt lat="44.94315" lon="7.22609">
        <ele>546</ele>
        <time>2019-07-08T22:14:36Z</time>
      </trkpt>
      <trkpt lat="44.94192" lon="7.22812">
        <ele>547</ele>
        <time>2019-07-08T22:15:10Z</time>
      </trkpt>
      <trkpt lat="44.94177" lon="7.22825">
        <ele>547</ele>
        <time>2019-07-08T22:15:13Z</time>
      </trkpt>
      <trkpt lat="44.94166" lon="7.2283">
        <ele>547</ele>
        <time>2019-07-08T22:15:15Z</time>
      </trkpt>
      <trkpt lat="44.94161" lon="7.22828">
        <ele>547</ele>
        <time>2019-07-08T22:15:16Z</time>
      </trkpt>
      <trkpt lat="44.94156" lon="7.2283">
        <ele>546</ele>
        <time>2019-07-08T22:15:17Z</time>
      </trkpt>
      <trkpt lat="44.94137" lon="7.22862">
        <ele>546</ele>
        <time>2019-07-08T22:15:22Z</time>
      </trkpt>
      <trkpt lat="44.94119" lon="7.22878">
        <ele>545</ele>
        <time>2019-07-08T22:15:26Z</time>
      </trkpt>
      <trkpt lat="44.94095" lon="7.22888">
        <ele>544</ele>
        <time>2019-07-08T22:15:30Z</time>
      </trkpt>
      <trkpt lat="44.93995" lon="7.22909">
        <ele>542</ele>
        <time>2019-07-08T22:15:48Z</time>
      </trkpt>
      <trkpt lat="44.93953" lon="7.22922">
        <ele>541</ele>
        <time>2019-07-08T22:15:56Z</time>
      </trkpt>
      <trkpt lat="44.93911" lon="7.22943">
        <ele>540</ele>
        <time>2019-07-08T22:16:04Z</time>
      </trkpt>
      <trkpt lat="44.93877" lon="7.22967">
        <ele>541</ele>
        <time>2019-07-08T22:16:10Z</time>
      </trkpt>
      <trkpt lat="44.93801" lon="7.23033">
        <ele>541</ele>
        <time>2019-07-08T22:16:26Z</time>
      </trkpt>
      <trkpt lat="44.93703" lon="7.23098">
        <ele>540</ele>
        <time>2019-07-08T22:16:46Z</time>
      </trkpt>
      <trkpt lat="44.93677" lon="7.23121">
        <ele>539</ele>
        <time>2019-07-08T22:16:51Z</time>
      </trkpt>
      <trkpt lat="44.93651" lon="7.23156">
        <ele>538</ele>
        <time>2019-07-08T22:16:57Z</time>
      </trkpt>
      <trkpt lat="44.9364" lon="7.23173">
        <ele>537</ele>
        <time>2019-07-08T22:17:00Z</time>
      </trkpt>
      <trkpt lat="44.93622" lon="7.23214">
        <ele>536</ele>
        <time>2019-07-08T22:17:06Z</time>
      </trkpt>
      <trkpt lat="44.93604" lon="7.23278">
        <ele>535</ele>
        <time>2019-07-08T22:17:15Z</time>
      </trkpt>
      <trkpt lat="44.9359" lon="7.23312">
        <ele>536</ele>
        <time>2019-07-08T22:17:20Z</time>
      </trkpt>
      <trkpt lat="44.93575" lon="7.23337">
        <ele>536</ele>
        <time>2019-07-08T22:17:24Z</time>
      </trkpt>
      <trkpt lat="44.93548" lon="7.23369">
        <ele>537</ele>
        <time>2019-07-08T22:17:30Z</time>
      </trkpt>
      <trkpt lat="44.93521" lon="7.23388">
        <ele>536</ele>
        <time>2019-07-08T22:17:36Z</time>
      </trkpt>
      <trkpt lat="44.93192" lon="7.23523">
        <ele>529</ele>
        <time>2019-07-08T22:18:37Z</time>
      </trkpt>
      <trkpt lat="44.93181" lon="7.23529">
        <ele>528</ele>
        <time>2019-07-08T22:18:39Z</time>
      </trkpt>
      <trkpt lat="44.93156" lon="7.23546">
        <ele>528</ele>
        <time>2019-07-08T22:18:44Z</time>
      </trkpt>
      <trkpt lat="44.93142" lon="7.23559">
        <ele>527</ele>
        <time>2019-07-08T22:18:47Z</time>
      </trkpt>
      <trkpt lat="44.93099" lon="7.23605">
        <ele>525</ele>
        <time>2019-07-08T22:18:56Z</time>
      </trkpt>
      <trkpt lat="44.92781" lon="7.23955">
        <ele>517</ele>
        <time>2019-07-08T22:20:08Z</time>
      </trkpt>
      <trkpt lat="44.9253" lon="7.24207">
        <ele>513</ele>
        <time>2019-07-08T22:21:03Z</time>
      </trkpt>
      <trkpt lat="44.92474" lon="7.24268">
        <ele>512</ele>
        <time>2019-07-08T22:21:16Z</time>
      </trkpt>
      <trkpt lat="44.92415" lon="7.24323">
        <ele>509</ele>
        <time>2019-07-08T22:21:28Z</time>
      </trkpt>
      <trkpt lat="44.92231" lon="7.2451">
        <ele>507</ele>
        <time>2019-07-08T22:22:08Z</time>
      </trkpt>
      <trkpt lat="44.92191" lon="7.24557">
        <ele>507</ele>
        <time>2019-07-08T22:22:18Z</time>
      </trkpt>
      <trkpt lat="44.92121" lon="7.24646">
        <ele>507</ele>
        <time>2019-07-08T22:22:34Z</time>
      </trkpt>
      <trkpt lat="44.9209" lon="7.24684">
        <ele>507</ele>
        <time>2019-07-08T22:22:42Z</time>
      </trkpt>
      <trkpt lat="44.92081" lon="7.24691">
        <ele>507</ele>
        <time>2019-07-08T22:22:44Z</time>
      </trkpt>
      <trkpt lat="44.92001" lon="7.24744">
        <ele>505</ele>
        <time>2019-07-08T22:22:59Z</time>
      </trkpt>
      <trkpt lat="44.91909" lon="7.24818">
        <ele>504</ele>
        <time>2019-07-08T22:23:18Z</time>
      </trkpt>
      <trkpt lat="44.9189" lon="7.24829">
        <ele>504</ele>
        <time>2019-07-08T22:23:22Z</time>
      </trkpt>
      <trkpt lat="44.91869" lon="7.2483">
        <ele>503</ele>
        <time>2019-07-08T22:23:26Z</time>
      </trkpt>
      <trkpt lat="44.91593" lon="7.24769">
        <ele>495</ele>
        <time>2019-07-08T22:24:15Z</time>
      </trkpt>
      <trkpt lat="44.91566" lon="7.24768">
        <ele>494</ele>
        <time>2019-07-08T22:24:20Z</time>
      </trkpt>
      <trkpt lat="44.91542" lon="7.24774">
        <ele>495</ele>
        <time>2019-07-08T22:24:24Z</time>
      </trkpt>
      <trkpt lat="44.91304" lon="7.24888">
        <ele>488</ele>
        <time>2019-07-08T22:25:09Z</time>
      </trkpt>
      <trkpt lat="44.91078" lon="7.25004">
        <ele>483</ele>
        <time>2019-07-08T22:25:52Z</time>
      </trkpt>
      <trkpt lat="44.91055" lon="7.25011">
        <ele>483</ele>
        <time>2019-07-08T22:25:56Z</time>
      </trkpt>
      <trkpt lat="44.91031" lon="7.25013">
        <ele>484</ele>
        <time>2019-07-08T22:26:00Z</time>
      </trkpt>
      <trkpt lat="44.91011" lon="7.2501">
        <ele>483</ele>
        <time>2019-07-08T22:26:04Z</time>
      </trkpt>
      <trkpt lat="44.9088" lon="7.24974">
        <ele>482</ele>
        <time>2019-07-08T22:26:28Z</time>
      </trkpt>
      <trkpt lat="44.90815" lon="7.24958">
        <ele>480</ele>
        <time>2019-07-08T22:26:39Z</time>
      </trkpt>
      <trkpt lat="44.90604" lon="7.24934">
        <ele>475</ele>
        <time>2019-07-08T22:27:17Z</time>
      </trkpt>
      <trkpt lat="44.90593" lon="7.24929">
        <ele>475</ele>
        <time>2019-07-08T22:27:19Z</time>
      </trkpt>
      <trkpt lat="44.90587" lon="7.24921">
        <ele>475</ele>
        <time>2019-07-08T22:27:21Z</time>
      </trkpt>
      <trkpt lat="44.90579" lon="7.24898">
        <ele>474</ele>
        <time>2019-07-08T22:27:24Z</time>
      </trkpt>
      <trkpt lat="44.90578" lon="7.24885">
        <ele>474</ele>
        <time>2019-07-08T22:27:25Z</time>
      </trkpt>
      <trkpt lat="44.90572" lon="7.24877">
        <ele>473</ele>
        <time>2019-07-08T22:27:27Z</time>
      </trkpt>
      <trkpt lat="44.90562" lon="7.24877">
        <ele>473</ele>
        <time>2019-07-08T22:27:29Z</time>
      </trkpt>
      <trkpt lat="44.90558" lon="7.24879">
        <ele>473</ele>
        <time>2019-07-08T22:27:29Z</time>
      </trkpt>
      <trkpt lat="44.90554" lon="7.24886">
        <ele>474</ele>
        <time>2019-07-08T22:27:31Z</time>
      </trkpt>
      <trkpt lat="44.90536" lon="7.24895">
        <ele>474</ele>
        <time>2019-07-08T22:27:34Z</time>
      </trkpt>
      <trkpt lat="44.9049" lon="7.24896">
        <ele>473</ele>
        <time>2019-07-08T22:27:42Z</time>
      </trkpt>
      <trkpt lat="44.90406" lon="7.24905">
        <ele>473</ele>
        <time>2019-07-08T22:27:57Z</time>
      </trkpt>
      <trkpt lat="44.90376" lon="7.24906">
        <ele>474</ele>
        <time>2019-07-08T22:28:03Z</time>
      </trkpt>
      <trkpt lat="44.9017" lon="7.24886">
        <ele>476</ele>
        <time>2019-07-08T22:28:39Z</time>
      </trkpt>
      <trkpt lat="44.90134" lon="7.24877">
        <ele>481</ele>
        <time>2019-07-08T22:28:46Z</time>
      </trkpt>
      <trkpt lat="44.90116" lon="7.24868">
        <ele>481</ele>
        <time>2019-07-08T22:28:49Z</time>
      </trkpt>
      <trkpt lat="44.89987" lon="7.24771">
        <ele>482</ele>
        <time>2019-07-08T22:29:15Z</time>
      </trkpt>
      <trkpt lat="44.8994" lon="7.24721">
        <ele>482</ele>
        <time>2019-07-08T22:29:26Z</time>
      </trkpt>
      <trkpt lat="44.89815" lon="7.2457">
        <ele>471</ele>
        <time>2019-07-08T22:29:55Z</time>
      </trkpt>
      <trkpt lat="44.89805" lon="7.24563">
        <ele>472</ele>
        <time>2019-07-08T22:29:57Z</time>
      </trkpt>
      <trkpt lat="44.89786" lon="7.24552">
        <ele>473</ele>
        <time>2019-07-08T22:30:01Z</time>
      </trkpt>
      <trkpt lat="44.89669" lon="7.24499">
        <ele>475</ele>
        <time>2019-07-08T22:30:22Z</time>
      </trkpt>
      <trkpt lat="44.89669" lon="7.24493">
        <ele>474</ele>
        <time>2019-07-08T22:30:23Z</time>
      </trkpt>
      <trkpt lat="44.89666" lon="7.24482">
        <ele>473</ele>
        <time>2019-07-08T22:30:25Z</time>
      </trkpt>
      <trkpt lat="44.89661" lon="7.24479">
        <ele>473</ele>
        <time>2019-07-08T22:30:26Z</time>
      </trkpt>
      <trkpt lat="44.89657" lon="7.24478">
        <ele>473</ele>
        <time>2019-07-08T22:30:26Z</time>
      </trkpt>
      <trkpt lat="44.8965" lon="7.24484">
        <ele>475</ele>
        <time>2019-07-08T22:30:28Z</time>
      </trkpt>
      <trkpt lat="44.89647" lon="7.24489">
        <ele>477</ele>
        <time>2019-07-08T22:30:29Z</time>
      </trkpt>
      <trkpt lat="44.89632" lon="7.24481">
        <ele>477</ele>
        <time>2019-07-08T22:30:32Z</time>
      </trkpt>
      <trkpt lat="44.89607" lon="7.24473">
        <ele>477</ele>
        <time>2019-07-08T22:30:36Z</time>
      </trkpt>
      <trkpt lat="44.89573" lon="7.24464">
        <ele>478</ele>
        <time>2019-07-08T22:30:42Z</time>
      </trkpt>
      <trkpt lat="44.89324" lon="7.24419">
        <ele>461</ele>
        <time>2019-07-08T22:31:27Z</time>
      </trkpt>
      <trkpt lat="44.89293" lon="7.24419">
        <ele>459</ele>
        <time>2019-07-08T22:31:32Z</time>
      </trkpt>
      <trkpt lat="44.8922" lon="7.24428">
        <ele>455</ele>
        <time>2019-07-08T22:31:45Z</time>
      </trkpt>
      <trkpt lat="44.89215" lon="7.24424">
        <ele>455</ele>
        <time>2019-07-08T22:31:46Z</time>
      </trkpt>
      <trkpt lat="44.89205" lon="7.24422">
        <ele>455</ele>
        <time>2019-07-08T22:31:48Z</time>
      </trkpt>
      <trkpt lat="44.89194" lon="7.24426">
        <ele>455</ele>
        <time>2019-07-08T22:31:50Z</time>
      </trkpt>
      <trkpt lat="44.89186" lon="7.24436">
        <ele>455</ele>
        <time>2019-07-08T22:31:52Z</time>
      </trkpt>
      <trkpt lat="44.89182" lon="7.24451">
        <ele>455</ele>
        <time>2019-07-08T22:31:54Z</time>
      </trkpt>
      <trkpt lat="44.89182" lon="7.24461">
        <ele>455</ele>
        <time>2019-07-08T22:31:55Z</time>
      </trkpt>
      <trkpt lat="44.89189" lon="7.24483">
        <ele>457</ele>
        <time>2019-07-08T22:31:59Z</time>
      </trkpt>
      <trkpt lat="44.89189" lon="7.24499">
        <ele>457</ele>
        <time>2019-07-08T22:32:01Z</time>
      </trkpt>
      <trkpt lat="44.89185" lon="7.24508">
        <ele>457</ele>
        <time>2019-07-08T22:32:02Z</time>
      </trkpt>
      <trkpt lat="44.89171" lon="7.24526">
        <ele>455</ele>
        <time>2019-07-08T22:32:05Z</time>
      </trkpt>
      <trkpt lat="44.89147" lon="7.24565">
        <ele>453</ele>
        <time>2019-07-08T22:32:12Z</time>
      </trkpt>
      <trkpt lat="44.89125" lon="7.24607">
        <ele>453</ele>
        <time>2019-07-08T22:32:18Z</time>
      </trkpt>
      <trkpt lat="44.89093" lon="7.24677">
        <ele>453</ele>
        <time>2019-07-08T22:32:29Z</time>
      </trkpt>
      <trkpt lat="44.89072" lon="7.24734">
        <ele>451</ele>
        <time>2019-07-08T22:32:37Z</time>
      </trkpt>
      <trkpt lat="44.89064" lon="7.24762">
        <ele>451</ele>
        <time>2019-07-08T22:32:41Z</time>
      </trkpt>
      <trkpt lat="44.8906" lon="7.24785">
        <ele>451</ele>
        <time>2019-07-08T22:32:44Z</time>
      </trkpt>
      <trkpt lat="44.89057" lon="7.24824">
        <ele>450</ele>
        <time>2019-07-08T22:32:49Z</time>
      </trkpt>
      <trkpt lat="44.89056" lon="7.24865">
        <ele>450</ele>
        <time>2019-07-08T22:32:54Z</time>
      </trkpt>
      <trkpt lat="44.89061" lon="7.24915">
        <ele>450</ele>
        <time>2019-07-08T22:33:00Z</time>
      </trkpt>
      <trkpt lat="44.89082" lon="7.25092">
        <ele>454</ele>
        <time>2019-07-08T22:33:23Z</time>
      </trkpt>
      <trkpt lat="44.89096" lon="7.25231">
        <ele>457</ele>
        <time>2019-07-08T22:33:41Z</time>
      </trkpt>
      <trkpt lat="44.89101" lon="7.25291">
        <ele>457</ele>
        <time>2019-07-08T22:33:48Z</time>
      </trkpt>
      <trkpt lat="44.8911" lon="7.25492">
        <ele>456</ele>
        <time>2019-07-08T22:34:14Z</time>
      </trkpt>
      <trkpt lat="44.89109" lon="7.25525">
        <ele>456</ele>
        <time>2019-07-08T22:34:18Z</time>
      </trkpt>
      <trkpt lat="44.89096" lon="7.25628">
        <ele>451</ele>
        <time>2019-07-08T22:34:31Z</time>
      </trkpt>
      <trkpt lat="44.89061" lon="7.2589">
        <ele>444</ele>
        <time>2019-07-08T22:35:04Z</time>
      </trkpt>
      <trkpt lat="44.89053" lon="7.25922">
        <ele>444</ele>
        <time>2019-07-08T22:35:09Z</time>
      </trkpt>
      <trkpt lat="44.88949" lon="7.26154">
        <ele>445</ele>
        <time>2019-07-08T22:35:43Z</time>
      </trkpt>
      <trkpt lat="44.88857" lon="7.26353">
        <ele>442</ele>
        <time>2019-07-08T22:36:13Z</time>
      </trkpt>
      <trkpt lat="44.88804" lon="7.26452">
        <ele>438</ele>
        <time>2019-07-08T22:36:29Z</time>
      </trkpt>
      <trkpt lat="44.88717" lon="7.26697">
        <ele>432</ele>
        <time>2019-07-08T22:37:04Z</time>
      </trkpt>
      <trkpt lat="44.88713" lon="7.26714">
        <ele>432</ele>
        <time>2019-07-08T22:37:06Z</time>
      </trkpt>
      <trkpt lat="44.88706" lon="7.26765">
        <ele>433</ele>
        <time>2019-07-08T22:37:12Z</time>
      </trkpt>
      <trkpt lat="44.88673" lon="7.27052">
        <ele>428</ele>
        <time>2019-07-08T22:37:49Z</time>
      </trkpt>
      <trkpt lat="44.88659" lon="7.27165">
        <ele>425</ele>
        <time>2019-07-08T22:38:03Z</time>
      </trkpt>
      <trkpt lat="44.88659" lon="7.27202">
        <ele>426</ele>
        <time>2019-07-08T22:38:08Z</time>
      </trkpt>
      <trkpt lat="44.88682" lon="7.2744">
        <ele>424</ele>
        <time>2019-07-08T22:38:38Z</time>
      </trkpt>
      <trkpt lat="44.88684" lon="7.27477">
        <ele>424</ele>
        <time>2019-07-08T22:38:43Z</time>
      </trkpt>
      <trkpt lat="44.88683" lon="7.275">
        <ele>423</ele>
        <time>2019-07-08T22:38:46Z</time>
      </trkpt>
      <trkpt lat="44.88656" lon="7.27685">
        <ele>420</ele>
        <time>2019-07-08T22:39:10Z</time>
      </trkpt>
      <trkpt lat="44.88608" lon="7.28002">
        <ele>414</ele>
        <time>2019-07-08T22:39:51Z</time>
      </trkpt>
      <trkpt lat="44.88594" lon="7.28069">
        <ele>412</ele>
        <time>2019-07-08T22:39:59Z</time>
      </trkpt>
      <trkpt lat="44.88556" lon="7.28217">
        <ele>412</ele>
        <time>2019-07-08T22:40:19Z</time>
      </trkpt>
      <trkpt lat="44.88549" lon="7.28251">
        <ele>412</ele>
        <time>2019-07-08T22:40:24Z</time>
      </trkpt>
      <trkpt lat="44.88547" lon="7.28268">
        <ele>412</ele>
        <time>2019-07-08T22:40:26Z</time>
      </trkpt>
      <trkpt lat="44.8853" lon="7.28545">
        <ele>406</ele>
        <time>2019-07-08T22:41:01Z</time>
      </trkpt>
      <trkpt lat="44.88529" lon="7.28629">
        <ele>408</ele>
        <time>2019-07-08T22:41:12Z</time>
      </trkpt>
      <trkpt lat="44.88534" lon="7.28684">
        <ele>409</ele>
        <time>2019-07-08T22:41:19Z</time>
      </trkpt>
      <trkpt lat="44.88545" lon="7.28774">
        <ele>411</ele>
        <time>2019-07-08T22:41:30Z</time>
      </trkpt>
      <trkpt lat="44.88547" lon="7.28797">
        <ele>411</ele>
        <time>2019-07-08T22:41:33Z</time>
      </trkpt>
      <trkpt lat="44.88547" lon="7.28825">
        <ele>410</ele>
        <time>2019-07-08T22:41:37Z</time>
      </trkpt>
      <trkpt lat="44.88524" lon="7.29209">
        <ele>407</ele>
        <time>2019-07-08T22:42:25Z</time>
      </trkpt>
      <trkpt lat="44.88525" lon="7.29245">
        <ele>407</ele>
        <time>2019-07-08T22:42:30Z</time>
      </trkpt>
      <trkpt lat="44.88529" lon="7.29284">
        <ele>407</ele>
        <time>2019-07-08T22:42:35Z</time>
      </trkpt>
      <trkpt lat="44.88554" lon="7.29412">
        <ele>408</ele>
        <time>2019-07-08T22:42:51Z</time>
      </trkpt>
      <trkpt lat="44.88561" lon="7.29462">
        <ele>407</ele>
        <time>2019-07-08T22:42:58Z</time>
      </trkpt>
      <trkpt lat="44.88565" lon="7.29552">
        <ele>406</ele>
        <time>2019-07-08T22:43:09Z</time>
      </trkpt>
      <trkpt lat="44.88552" lon="7.29605">
        <ele>406</ele>
        <time>2019-07-08T22:43:16Z</time>
      </trkpt>
      <trkpt lat="44.88549" lon="7.29608">
        <ele>406</ele>
        <time>2019-07-08T22:43:17Z</time>
      </trkpt>
      <trkpt lat="44.88546" lon="7.29619">
        <ele>406</ele>
        <time>2019-07-08T22:43:18Z</time>
      </trkpt>
      <trkpt lat="44.88517" lon="7.29677">
        <ele>405</ele>
        <time>2019-07-08T22:43:27Z</time>
      </trkpt>
      <trkpt lat="44.8847" lon="7.29763">
        <ele>403</ele>
        <time>2019-07-08T22:43:41Z</time>
      </trkpt>
      <trkpt lat="44.88458" lon="7.29797">
        <ele>404</ele>
        <time>2019-07-08T22:43:46Z</time>
      </trkpt>
      <trkpt lat="44.88457" lon="7.29845">
        <ele>404</ele>
        <time>2019-07-08T22:43:52Z</time>
      </trkpt>
      <trkpt lat="44.88447" lon="7.30011">
        <ele>403</ele>
        <time>2019-07-08T22:44:13Z</time>
      </trkpt>
      <trkpt lat="44.8844" lon="7.30092">
        <ele>401</ele>
        <time>2019-07-08T22:44:23Z</time>
      </trkpt>
      <trkpt lat="44.88418" lon="7.30262">
        <ele>398</ele>
        <time>2019-07-08T22:44:45Z</time>
      </trkpt>
      <trkpt lat="44.88414" lon="7.30304">
        <ele>397</ele>
        <time>2019-07-08T22:44:50Z</time>
      </trkpt>
      <trkpt lat="44.88411" lon="7.30397">
        <ele>396</ele>
        <time>2019-07-08T22:45:02Z</time>
      </trkpt>
      <trkpt lat="44.88409" lon="7.30428">
        <ele>396</ele>
        <time>2019-07-08T22:45:06Z</time>
      </trkpt>
      <trkpt lat="44.8841" lon="7.30563">
        <ele>396</ele>
        <time>2019-07-08T22:45:23Z</time>
      </trkpt>
      <trkpt lat="44.88404" lon="7.30588">
        <ele>396</ele>
        <time>2019-07-08T22:45:26Z</time>
      </trkpt>
      <trkpt lat="44.88401" lon="7.30592">
        <ele>396</ele>
        <time>2019-07-08T22:45:27Z</time>
      </trkpt>
      <trkpt lat="44.88398" lon="7.30601">
        <ele>396</ele>
        <time>2019-07-08T22:45:28Z</time>
      </trkpt>
      <trkpt lat="44.884" lon="7.30611">
        <ele>396</ele>
        <time>2019-07-08T22:45:30Z</time>
      </trkpt>
      <trkpt lat="44.88404" lon="7.30617">
        <ele>396</ele>
        <time>2019-07-08T22:45:31Z</time>
      </trkpt>
      <trkpt lat="44.88411" lon="7.30618">
        <ele>396</ele>
        <time>2019-07-08T22:45:32Z</time>
      </trkpt>
      <trkpt lat="44.88417" lon="7.3063">
        <ele>396</ele>
        <time>2019-07-08T22:45:34Z</time>
      </trkpt>
      <trkpt lat="44.88421" lon="7.30645">
        <ele>396</ele>
        <time>2019-07-08T22:45:36Z</time>
      </trkpt>
      <trkpt lat="44.88432" lon="7.3089">
        <ele>392</ele>
        <time>2019-07-08T22:46:07Z</time>
      </trkpt>
      <trkpt lat="44.88441" lon="7.30937">
        <ele>392</ele>
        <time>2019-07-08T22:46:13Z</time>
      </trkpt>
      <trkpt lat="44.88446" lon="7.30957">
        <ele>392</ele>
        <time>2019-07-08T22:46:15Z</time>
      </trkpt>
      <trkpt lat="44.88464" lon="7.31007">
        <ele>392</ele>
        <time>2019-07-08T22:46:23Z</time>
      </trkpt>
      <trkpt lat="44.88528" lon="7.3114">
        <ele>391</ele>
        <time>2019-07-08T22:46:43Z</time>
      </trkpt>
      <trkpt lat="44.88542" lon="7.31164">
        <ele>391</ele>
        <time>2019-07-08T22:46:47Z</time>
      </trkpt>
      <trkpt lat="44.88559" lon="7.31184">
        <ele>391</ele>
        <time>2019-07-08T22:46:51Z</time>
      </trkpt>
      <trkpt lat="44.88559" lon="7.31191">
        <ele>391</ele>
        <time>2019-07-08T22:46:52Z</time>
      </trkpt>
      <trkpt lat="44.88562" lon="7.31197">
        <ele>391</ele>
        <time>2019-07-08T22:46:52Z</time>
      </trkpt>
      <trkpt lat="44.88565" lon="7.31201">
        <ele>391</ele>
        <time>2019-07-08T22:46:53Z</time>
      </trkpt>
      <trkpt lat="44.88571" lon="7.31228">
        <ele>390</ele>
        <time>2019-07-08T22:46:57Z</time>
      </trkpt>
      <trkpt lat="44.88565" lon="7.31394">
        <ele>389</ele>
        <time>2019-07-08T22:47:18Z</time>
      </trkpt>
      <trkpt lat="44.8856" lon="7.3171">
        <ele>386</ele>
        <time>2019-07-08T22:47:58Z</time>
      </trkpt>
      <trkpt lat="44.8854" lon="7.32406">
        <ele>384</ele>
        <time>2019-07-08T22:49:25Z</time>
      </trkpt>
      <trkpt lat="44.88538" lon="7.32433">
        <ele>384</ele>
        <time>2019-07-08T22:49:29Z</time>
      </trkpt>
      <trkpt lat="44.88514" lon="7.32608">
        <ele>383</ele>
        <time>2019-07-08T22:49:51Z</time>
      </trkpt>
      <trkpt lat="44.88455" lon="7.33022">
        <ele>378</ele>
        <time>2019-07-08T22:50:45Z</time>
      </trkpt>
      <trkpt lat="44.88454" lon="7.33054">
        <ele>377</ele>
        <time>2019-07-08T22:50:49Z</time>
      </trkpt>
      <trkpt lat="44.88463" lon="7.33093">
        <ele>378</ele>
        <time>2019-07-08T22:50:54Z</time>
      </trkpt>
      <trkpt lat="44.88484" lon="7.33167">
        <ele>379</ele>
        <time>2019-07-08T22:51:04Z</time>
      </trkpt>
    </trkseg>
  </trk>
</gpx>